Wetterdaten: Dienstag, 24.04.2018
Datum Zeit Temp. A. Pool Temp. Feuchte A. Luftdruck Regen Wind Richtung Richtung Sonnenschein ET UV Solar Taupunkt Windchill Windben Empfang
24.04.2018 00:00 13,8 C 17,8 C 90 % 1015,7 hPa 0,0 l/m 13,7 km/h (3 Bft) S-SW 209 0 min 0,000 mm 0,0 UV-I 0 W/m 12,2 C 10,2 C 19,3 km/h (3 Bft) 100,00 %
24.04.2018 00:02 13,8 C 17,8 C 90 % 1015,7 hPa 0,0 l/m 11,3 km/h (2 Bft) S-SW 213 0 min 0,000 mm 0,0 UV-I 0 W/m 12,2 C 11,2 C 16,1 km/h (3 Bft) 94,44 %
24.04.2018 00:03 13,8 C 17,8 C 90 % 1015,6 hPa 0,0 l/m 9,0 km/h (2 Bft) SW 215 0 min 0,000 mm 0,0 UV-I 0 W/m 12,2 C 12,3 C 12,9 km/h (3 Bft) 92,59 %
24.04.2018 00:04 13,8 C 17,8 C 90 % 1015,6 hPa 0,0 l/m 9,9 km/h (2 Bft) SW 219 0 min 0,000 mm 0,0 UV-I 0 W/m 12,2 C 11,8 C 14,5 km/h (3 Bft) 95,65 %
24.04.2018 00:05 13,8 C 17,8 C 90 % 1015,6 hPa 0,0 l/m 9,7 km/h (2 Bft) S-SW 203 0 min 0,000 mm 0,0 UV-I 0 W/m 12,2 C 11,9 C 14,5 km/h (3 Bft) 95,83 %
24.04.2018 00:06 13,8 C 17,8 C 90 % 1015,6 hPa 0,0 l/m 10,2 km/h (2 Bft) S-SW 200 0 min 0,000 mm 0,0 UV-I 0 W/m 12,2 C 11,7 C 14,5 km/h (3 Bft) 92,31 %
24.04.2018 00:07 13,8 C 17,8 C 90 % 1015,6 hPa 0,0 l/m 7,5 km/h (2 Bft) S-SW 213 0 min 0,000 mm 0,0 UV-I 0 W/m 12,2 C 13,1 C 12,9 km/h (3 Bft) 91,67 %
24.04.2018 00:08 13,8 C 17,8 C 90 % 1015,6 hPa 0,0 l/m 9,1 km/h (2 Bft) S-SW 213 0 min 0,000 mm 0,0 UV-I 0 W/m 12,2 C 12,2 C 14,5 km/h (3 Bft) 91,30 %
24.04.2018 00:09 13,8 C 17,8 C 90 % 1015,7 hPa 0,0 l/m 7,2 km/h (2 Bft) SW 217 0 min 0,000 mm 0,0 UV-I 0 W/m 12,2 C 13,3 C 9,7 km/h (2 Bft) 100,00 %
24.04.2018 00:10 13,8 C 17,8 C 90 % 1015,7 hPa 0,0 l/m 8,1 km/h (2 Bft) S-SW 213 0 min 0,000 mm 0,0 UV-I 0 W/m 12,2 C 12,8 C 9,7 km/h (2 Bft) 91,67 %
24.04.2018 00:11 13,8 C 17,8 C 91 % 1015,7 hPa 0,0 l/m 7,1 km/h (2 Bft) W-SW 238 0 min 0,000 mm 0,0 UV-I 0 W/m 12,4 C 13,4 C 12,9 km/h (3 Bft) 96,15 %
24.04.2018 00:12 13,8 C 17,8 C 91 % 1015,7 hPa 0,0 l/m 9,7 km/h (2 Bft) S-SW 213 0 min 0,000 mm 0,0 UV-I 0 W/m 12,4 C 11,9 C 11,3 km/h (2 Bft) 93,33 %
24.04.2018 00:13 13,7 C 17,8 C 91 % 1015,7 hPa 0,0 l/m 11,4 km/h (2 Bft) S-SW 209 0 min 0,000 mm 0,0 UV-I 0 W/m 12,3 C 11,0 C 14,5 km/h (3 Bft) 92,86 %
24.04.2018 00:14 13,7 C 17,8 C 91 % 1015,7 hPa 0,0 l/m 10,2 km/h (2 Bft) W-SW 249 0 min 0,000 mm 0,0 UV-I 0 W/m 12,3 C 11,6 C 12,9 km/h (3 Bft) 93,94 %
24.04.2018 00:15 13,7 C 17,8 C 91 % 1015,8 hPa 0,0 l/m 9,7 km/h (2 Bft) S-SW 212 0 min 0,000 mm 0,0 UV-I 0 W/m 12,3 C 11,8 C 16,1 km/h (3 Bft) 92,31 %
24.04.2018 00:16 13,7 C 17,8 C 91 % 1015,8 hPa 0,0 l/m 10,8 km/h (2 Bft) S-SW 194 0 min 0,000 mm 0,0 UV-I 0 W/m 12,3 C 11,3 C 17,7 km/h (3 Bft) 100,00 %
24.04.2018 00:17 13,7 C 17,8 C 91 % 1015,8 hPa 0,0 l/m 6,2 km/h (2 Bft) SW 227 0 min 0,000 mm 0,0 UV-I 0 W/m 12,3 C 13,7 C 9,7 km/h (2 Bft) 96,15 %
24.04.2018 00:18 13,7 C 17,8 C 91 % 1015,9 hPa 0,0 l/m 8,2 km/h (2 Bft) W-SW 240 0 min 0,000 mm 0,0 UV-I 0 W/m 12,3 C 12,6 C 14,5 km/h (3 Bft) 95,83 %
24.04.2018 00:19 13,7 C 17,8 C 91 % 1015,9 hPa 0,0 l/m 10,0 km/h (2 Bft) W-SW 252 0 min 0,000 mm 0,0 UV-I 0 W/m 12,3 C 11,7 C 11,3 km/h (2 Bft) 93,10 %
24.04.2018 00:20 13,7 C 17,8 C 91 % 1016,0 hPa 0,0 l/m 8,9 km/h (2 Bft) S-SW 208 0 min 0,000 mm 0,0 UV-I 0 W/m 12,3 C 12,2 C 11,3 km/h (2 Bft) 100,00 %
24.04.2018 00:21 13,7 C 17,8 C 91 % 1016,0 hPa 0,0 l/m 9,3 km/h (2 Bft) SW 219 0 min 0,000 mm 0,0 UV-I 0 W/m 12,3 C 12,0 C 12,9 km/h (3 Bft) 96,67 %
24.04.2018 00:22 13,7 C 17,8 C 91 % 1016,1 hPa 0,0 l/m 7,3 km/h (2 Bft) W-SW 255 0 min 0,000 mm 0,0 UV-I 0 W/m 12,3 C 13,2 C 9,7 km/h (2 Bft) 100,00 %
24.04.2018 00:23 13,7 C 17,8 C 91 % 1016,1 hPa 0,0 l/m 6,9 km/h (2 Bft) W-SW 239 0 min 0,000 mm 0,0 UV-I 0 W/m 12,3 C 13,4 C 12,9 km/h (3 Bft) 96,30 %
24.04.2018 00:24 13,7 C 17,8 C 91 % 1016,1 hPa 0,0 l/m 5,1 km/h (1 Bft) W-SW 241 0 min 0,000 mm 0,0 UV-I 0 W/m 12,3 C 13,7 C 8,0 km/h (2 Bft) 96,15 %
24.04.2018 00:25 13,7 C 17,8 C 91 % 1016,1 hPa 0,0 l/m 7,2 km/h (2 Bft) SW 215 0 min 0,000 mm 0,0 UV-I 0 W/m 12,3 C 13,2 C 11,3 km/h (2 Bft) 100,00 %
24.04.2018 00:26 13,7 C 17,8 C 91 % 1016,1 hPa 0,0 l/m 5,8 km/h (2 Bft) W-SW 248 0 min 0,000 mm 0,0 UV-I 0 W/m 12,3 C 13,7 C 9,7 km/h (2 Bft) 95,65 %
24.04.2018 00:27 13,7 C 17,8 C 91 % 1016,1 hPa 0,0 l/m 6,1 km/h (2 Bft) W-SW 242 0 min 0,000 mm 0,0 UV-I 0 W/m 12,3 C 13,7 C 8,0 km/h (2 Bft) 96,30 %
24.04.2018 00:28 13,7 C 17,8 C 91 % 1016,1 hPa 0,0 l/m 6,4 km/h (2 Bft) SW 215 0 min 0,000 mm 0,0 UV-I 0 W/m 12,3 C 13,7 C 8,0 km/h (2 Bft) 92,31 %
24.04.2018 00:29 13,6 C 17,8 C 91 % 1016,2 hPa 0,0 l/m 7,6 km/h (2 Bft) W-SW 246 0 min 0,000 mm 0,0 UV-I 0 W/m 12,2 C 12,9 C 12,9 km/h (3 Bft) 100,00 %
24.04.2018 00:30 13,6 C 17,8 C 91 % 1016,2 hPa 0,0 l/m 5,9 km/h (2 Bft) S-SW 212 0 min 0,000 mm 0,0 UV-I 0 W/m 12,2 C 13,6 C 8,0 km/h (2 Bft) 90,91 %
24.04.2018 00:31 13,6 C 17,8 C 91 % 1016,1 hPa 0,0 l/m 6,0 km/h (2 Bft) S-SW 211 0 min 0,000 mm 0,0 UV-I 0 W/m 12,2 C 13,6 C 9,7 km/h (2 Bft) 100,00 %
24.04.2018 00:32 13,6 C 17,8 C 91 % 1016,2 hPa 0,0 l/m 8,0 km/h (2 Bft) S-SW 213 0 min 0,000 mm 0,0 UV-I 0 W/m 12,2 C 12,6 C 11,3 km/h (2 Bft) 92,31 %
24.04.2018 00:33 13,6 C 17,8 C 92 % 1016,2 hPa 0,0 l/m 8,7 km/h (2 Bft) W-SW 248 0 min 0,000 mm 0,0 UV-I 0 W/m 12,3 C 12,2 C 12,9 km/h (3 Bft) 100,00 %
24.04.2018 00:34 13,6 C 17,8 C 92 % 1016,2 hPa 0,0 l/m 7,5 km/h (2 Bft) W-SW 246 0 min 0,000 mm 0,0 UV-I 0 W/m 12,3 C 12,9 C 11,3 km/h (2 Bft) 96,15 %
24.04.2018 00:35 13,5 C 17,8 C 92 % 1016,2 hPa 0,0 l/m 5,7 km/h (1 Bft) W-SW 240 0 min 0,000 mm 0,0 UV-I 0 W/m 12,2 C 13,5 C 8,0 km/h (2 Bft) 100,00 %
24.04.2018 00:36 13,5 C 17,8 C 92 % 1016,3 hPa 0,0 l/m 5,4 km/h (1 Bft) W 259 0 min 0,000 mm 0,0 UV-I 0 W/m 12,2 C 13,5 C 9,7 km/h (2 Bft) 95,65 %
24.04.2018 00:37 13,6 C 17,8 C 92 % 1016,2 hPa 0,0 l/m 7,0 km/h (2 Bft) W-SW 247 0 min 0,000 mm 0,0 UV-I 0 W/m 12,3 C 13,2 C 9,7 km/h (2 Bft) 92,59 %
24.04.2018 00:38 13,5 C 17,8 C 92 % 1016,2 hPa 0,0 l/m 7,5 km/h (2 Bft) SW 221 0 min 0,000 mm 0,0 UV-I 0 W/m 12,2 C 12,8 C 9,7 km/h (2 Bft) 100,00 %
24.04.2018 00:39 13,5 C 17,8 C 92 % 1016,3 hPa 0,0 l/m 8,2 km/h (2 Bft) W-SW 242 0 min 0,000 mm 0,0 UV-I 0 W/m 12,2 C 12,4 C 11,3 km/h (2 Bft) 93,33 %
24.04.2018 00:40 13,5 C 17,8 C 92 % 1016,3 hPa 0,0 l/m 6,5 km/h (2 Bft) SW 228 0 min 0,000 mm 0,0 UV-I 0 W/m 12,2 C 13,5 C 8,0 km/h (2 Bft) 100,00 %
24.04.2018 00:41 13,5 C 17,8 C 92 % 1016,3 hPa 0,0 l/m 6,7 km/h (2 Bft) SW 227 0 min 0,000 mm 0,0 UV-I 0 W/m 12,2 C 13,3 C 8,0 km/h (2 Bft) 93,33 %
24.04.2018 00:42 13,5 C 17,8 C 92 % 1016,2 hPa 0,0 l/m 7,9 km/h (2 Bft) SW 230 0 min 0,000 mm 0,0 UV-I 0 W/m 12,2 C 12,6 C 11,3 km/h (2 Bft) 100,00 %
24.04.2018 00:43 13,4 C 17,8 C 92 % 1016,2 hPa 0,0 l/m 8,6 km/h (2 Bft) W-SW 243 0 min 0,000 mm 0,0 UV-I 0 W/m 12,1 C 12,1 C 12,9 km/h (3 Bft) 95,65 %
24.04.2018 00:44 13,5 C 17,8 C 92 % 1016,2 hPa 0,0 l/m 7,0 km/h (2 Bft) SW 218 0 min 0,000 mm 0,0 UV-I 0 W/m 12,2 C 13,1 C 11,3 km/h (2 Bft) 100,00 %
24.04.2018 00:45 13,4 C 17,8 C 92 % 1016,2 hPa 0,0 l/m 9,4 km/h (2 Bft) S-SW 212 0 min 0,000 mm 0,0 UV-I 0 W/m 12,1 C 11,7 C 12,9 km/h (3 Bft) 100,00 %
24.04.2018 00:46 13,4 C 17,8 C 92 % 1016,3 hPa 0,0 l/m 8,4 km/h (2 Bft) SW 229 0 min 0,000 mm 0,0 UV-I 0 W/m 12,1 C 12,2 C 12,9 km/h (3 Bft) 100,00 %
24.04.2018 00:47 13,5 C 17,8 C 92 % 1016,3 hPa 0,0 l/m 7,6 km/h (2 Bft) S-SW 205 0 min 0,000 mm 0,0 UV-I 0 W/m 12,2 C 12,8 C 11,3 km/h (2 Bft) 94,74 %
24.04.2018 00:48 13,5 C 17,8 C 92 % 1016,3 hPa 0,0 l/m 9,3 km/h (2 Bft) W-SW 242 0 min 0,000 mm 0,0 UV-I 0 W/m 12,2 C 11,8 C 12,9 km/h (3 Bft) 100,00 %
24.04.2018 00:49 13,5 C 17,8 C 92 % 1016,2 hPa 0,0 l/m 7,5 km/h (2 Bft) W-SW 241 0 min 0,000 mm 0,0 UV-I 0 W/m 12,2 C 12,8 C 11,3 km/h (2 Bft) 100,00 %
24.04.2018 00:50 13,5 C 17,8 C 91 % 1016,2 hPa 0,0 l/m 8,8 km/h (2 Bft) SW 217 0 min 0,000 mm 0,0 UV-I 0 W/m 12,1 C 12,1 C 14,5 km/h (3 Bft) 100,00 %
24.04.2018 00:51 13,5 C 17,8 C 91 % 1016,2 hPa 0,0 l/m 10,1 km/h (2 Bft) S-SW 205 0 min 0,000 mm 0,0 UV-I 0 W/m 12,1 C 11,4 C 14,5 km/h (3 Bft) 100,00 %
24.04.2018 00:52 13,5 C 17,8 C 91 % 1016,3 hPa 0,0 l/m 8,6 km/h (2 Bft) S-SW 212 0 min 0,000 mm 0,0 UV-I 0 W/m 12,1 C 12,2 C 12,9 km/h (3 Bft) 100,00 %
24.04.2018 00:53 13,5 C 17,8 C 91 % 1016,2 hPa 0,0 l/m 8,6 km/h (2 Bft) SW 217 0 min 0,000 mm 0,0 UV-I 0 W/m 12,1 C 12,2 C 12,9 km/h (3 Bft) 100,00 %
24.04.2018 00:54 13,5 C 17,8 C 91 % 1016,2 hPa 0,0 l/m 10,1 km/h (2 Bft) S-SW 204 0 min 0,000 mm 0,0 UV-I 0 W/m 12,1 C 11,4 C 14,5 km/h (3 Bft) 96,45 %
24.04.2018 00:55 13,5 C 17,8 C 91 % 1016,1 hPa 0,0 l/m 10,5 km/h (2 Bft) S-SW 209 0 min 0,000 mm 0,0 UV-I 0 W/m 12,1 C 11,2 C 14,5 km/h (3 Bft) 100,00 %
24.04.2018 00:56 13,5 C 17,8 C 91 % 1016,1 hPa 0,0 l/m 10,0 km/h (2 Bft) SW 223 0 min 0,000 mm 0,0 UV-I 0 W/m 12,1 C 11,5 C 12,9 km/h (3 Bft) 100,00 %
24.04.2018 00:57 13,4 C 17,8 C 91 % 1016,1 hPa 0,0 l/m 9,7 km/h (2 Bft) SW 228 0 min 0,000 mm 0,0 UV-I 0 W/m 12,0 C 11,5 C 14,5 km/h (3 Bft) 100,00 %
24.04.2018 00:58 13,4 C 17,8 C 91 % 1016,1 hPa 0,0 l/m 11,7 km/h (2 Bft) S-SW 208 0 min 0,000 mm 0,0 UV-I 0 W/m 12,0 C 10,6 C 17,7 km/h (3 Bft) 100,00 %
24.04.2018 00:59 13,4 C 17,8 C 91 % 1016,1 hPa 0,0 l/m 8,3 km/h (2 Bft) S-SW 211 0 min 0,000 mm 0,0 UV-I 0 W/m 12,0 C 12,2 C 17,7 km/h (3 Bft) 100,00 %
24.04.2018 01:00 13,4 C 17,8 C 91 % 1016,1 hPa 0,0 l/m 10,2 km/h (2 Bft) SW 221 0 min 0,000 mm 0,0 UV-I 0 W/m 12,0 C 11,3 C 12,9 km/h (3 Bft) 100,00 %
24.04.2018 01:01 13,5 C 17,8 C 91 % 1016,1 hPa 0,0 l/m 11,0 km/h (2 Bft) SW 215 0 min 0,000 mm 0,0 UV-I 0 W/m 12,1 C 11,0 C 12,9 km/h (3 Bft) 100,00 %
24.04.2018 01:02 13,5 C 17,8 C 91 % 1016,1 hPa 0,0 l/m 7,0 km/h (2 Bft) S-SW 202 0 min 0,000 mm 0,0 UV-I 0 W/m 12,1 C 13,1 C 9,7 km/h (2 Bft) 100,00 %
24.04.2018 01:03 13,5 C 17,8 C 91 % 1016,1 hPa 0,0 l/m 10,1 km/h (2 Bft) SW 217 0 min 0,000 mm 0,0 UV-I 0 W/m 12,1 C 11,4 C 12,9 km/h (3 Bft) 100,00 %
24.04.2018 01:04 13,4 C 17,8 C 91 % 1016,1 hPa 0,0 l/m 10,0 km/h (2 Bft) S-SW 207 0 min 0,000 mm 0,0 UV-I 0 W/m 12,0 C 11,4 C 12,9 km/h (3 Bft) 100,00 %
24.04.2018 01:05 13,5 C 17,8 C 91 % 1016,1 hPa 0,0 l/m 9,1 km/h (2 Bft) SW 217 0 min 0,000 mm 0,0 UV-I 0 W/m 12,1 C 11,9 C 11,3 km/h (2 Bft) 100,00 %
24.04.2018 01:06 13,4 C 17,8 C 91 % 1016,1 hPa 0,0 l/m 10,6 km/h (2 Bft) SW 223 0 min 0,000 mm 0,0 UV-I 0 W/m 12,0 C 11,1 C 17,7 km/h (3 Bft) 100,00 %
24.04.2018 01:07 13,5 C 17,8 C 91 % 1016,1 hPa 0,0 l/m 11,0 km/h (2 Bft) S-SW 209 0 min 0,000 mm 0,0 UV-I 0 W/m 12,1 C 11,0 C 14,5 km/h (3 Bft) 100,00 %
24.04.2018 01:08 13,5 C 17,8 C 91 % 1016,0 hPa 0,0 l/m 9,9 km/h (2 Bft) SW 216 0 min 0,000 mm 0,0 UV-I 0 W/m 12,1 C 11,5 C 12,9 km/h (3 Bft) 100,00 %
24.04.2018 01:09 13,4 C 17,8 C 91 % 1016,1 hPa 0,0 l/m 6,7 km/h (2 Bft) SW 221 0 min 0,000 mm 0,0 UV-I 0 W/m 12,0 C 13,2 C 9,7 km/h (2 Bft) 100,00 %
24.04.2018 01:10 13,5 C 17,8 C 91 % 1016,0 hPa 0,0 l/m 8,4 km/h (2 Bft) SW 227 0 min 0,000 mm 0,0 UV-I 0 W/m 12,1 C 12,3 C 12,9 km/h (3 Bft) 100,00 %
24.04.2018 01:11 13,5 C 17,8 C 91 % 1016,0 hPa 0,0 l/m 8,8 km/h (2 Bft) SW 224 0 min 0,000 mm 0,0 UV-I 0 W/m 12,1 C 12,1 C 12,9 km/h (3 Bft) 100,00 %
24.04.2018 01:12 13,5 C 17,8 C 91 % 1016,0 hPa 0,0 l/m 10,0 km/h (2 Bft) SW 230 0 min 0,000 mm 0,0 UV-I 0 W/m 12,1 C 11,5 C 12,9 km/h (3 Bft) 100,00 %
24.04.2018 01:13 13,5 C 17,8 C 91 % 1016,0 hPa 0,0 l/m 8,4 km/h (2 Bft) SW 226 0 min 0,000 mm 0,0 UV-I 0 W/m 12,1 C 12,3 C 12,9 km/h (3 Bft) 100,00 %
24.04.2018 01:14 13,5 C 17,8 C 91 % 1016,0 hPa 0,0 l/m 8,0 km/h (2 Bft) SW 225 0 min 0,000 mm 0,0 UV-I 0 W/m 12,1 C 12,5 C 12,9 km/h (3 Bft) 100,00 %
24.04.2018 01:15 13,5 C 17,8 C 91 % 1016,0 hPa 0,0 l/m 11,6 km/h (2 Bft) S-SW 205 0 min 0,000 mm 0,0 UV-I 0 W/m 12,1 C 10,7 C 16,1 km/h (3 Bft) 100,00 %
24.04.2018 01:16 13,5 C 17,8 C 91 % 1016,0 hPa 0,0 l/m 6,2 km/h (2 Bft) SW 224 0 min 0,000 mm 0,0 UV-I 0 W/m 12,1 C 13,5 C 9,7 km/h (2 Bft) 100,00 %
24.04.2018 01:17 13,5 C 17,8 C 91 % 1016,0 hPa 0,0 l/m 7,9 km/h (2 Bft) SW 215 0 min 0,000 mm 0,0 UV-I 0 W/m 12,1 C 12,6 C 11,3 km/h (2 Bft) 100,00 %
24.04.2018 01:18 13,5 C 17,8 C 91 % 1016,0 hPa 0,0 l/m 11,1 km/h (2 Bft) S-SW 206 0 min 0,000 mm 0,0 UV-I 0 W/m 12,1 C 10,9 C 14,5 km/h (3 Bft) 100,00 %
24.04.2018 01:19 13,5 C 17,8 C 91 % 1015,9 hPa 0,0 l/m 10,7 km/h (2 Bft) SW 225 0 min 0,000 mm 0,0 UV-I 0 W/m 12,1 C 11,1 C 14,5 km/h (3 Bft) 100,00 %
24.04.2018 01:20 13,5 C 17,8 C 91 % 1015,9 hPa 0,0 l/m 9,7 km/h (2 Bft) S-SW 208 0 min 0,000 mm 0,0 UV-I 0 W/m 12,1 C 11,6 C 12,9 km/h (3 Bft) 100,00 %
24.04.2018 01:21 13,5 C 17,8 C 91 % 1016,0 hPa 0,0 l/m 10,1 km/h (2 Bft) SW 216 0 min 0,000 mm 0,0 UV-I 0 W/m 12,1 C 11,4 C 16,1 km/h (3 Bft) 100,00 %
24.04.2018 01:22 13,4 C 17,8 C 91 % 1015,9 hPa 0,0 l/m 11,5 km/h (2 Bft) SW 218 0 min 0,000 mm 0,0 UV-I 0 W/m 12,0 C 10,6 C 14,5 km/h (3 Bft) 96,67 %
24.04.2018 01:23 13,4 C 17,8 C 91 % 1015,9 hPa 0,0 l/m 9,6 km/h (2 Bft) SW 219 0 min 0,000 mm 0,0 UV-I 0 W/m 12,0 C 11,6 C 11,3 km/h (2 Bft) 96,15 %
24.04.2018 01:24 13,4 C 17,8 C 91 % 1015,9 hPa 0,0 l/m 9,1 km/h (2 Bft) SW 230 0 min 0,000 mm 0,0 UV-I 0 W/m 12,0 C 11,8 C 14,5 km/h (3 Bft) 100,00 %
24.04.2018 01:25 13,4 C 17,8 C 91 % 1015,9 hPa 0,0 l/m 11,0 km/h (2 Bft) S-SW 213 0 min 0,000 mm 0,0 UV-I 0 W/m 12,0 C 10,9 C 17,7 km/h (3 Bft) 100,00 %
24.04.2018 01:26 13,4 C 17,8 C 91 % 1015,9 hPa 0,0 l/m 10,7 km/h (2 Bft) S-SW 212 0 min 0,000 mm 0,0 UV-I 0 W/m 12,0 C 11,0 C 16,1 km/h (3 Bft) 100,00 %
24.04.2018 01:27 13,4 C 17,8 C 91 % 1015,9 hPa 0,0 l/m 12,4 km/h (3 Bft) SW 219 0 min 0,000 mm 0,0 UV-I 0 W/m 12,0 C 10,3 C 16,1 km/h (3 Bft) 100,00 %
24.04.2018 01:28 13,5 C 17,8 C 91 % 1015,9 hPa 0,0 l/m 12,1 km/h (2 Bft) SW 219 0 min 0,000 mm 0,0 UV-I 0 W/m 12,1 C 10,5 C 17,7 km/h (3 Bft) 100,00 %
24.04.2018 01:29 13,5 C 17,8 C 91 % 1015,9 hPa 0,0 l/m 11,8 km/h (2 Bft) SW 217 0 min 0,000 mm 0,0 UV-I 0 W/m 12,1 C 10,6 C 17,7 km/h (3 Bft) 100,00 %
24.04.2018 01:30 13,5 C 17,8 C 91 % 1015,8 hPa 0,0 l/m 11,7 km/h (2 Bft) W-SW 240 0 min 0,000 mm 0,0 UV-I 0 W/m 12,1 C 10,7 C 16,1 km/h (3 Bft) 100,00 %
24.04.2018 01:31 13,6 C 17,8 C 91 % 1015,8 hPa 0,0 l/m 10,1 km/h (2 Bft) SW 235 0 min 0,000 mm 0,0 UV-I 0 W/m 12,2 C 11,5 C 14,5 km/h (3 Bft) 95,65 %
24.04.2018 01:32 13,6 C 17,8 C 91 % 1015,8 hPa 0,0 l/m 10,4 km/h (2 Bft) SW 222 0 min 0,000 mm 0,0 UV-I 0 W/m 12,2 C 11,4 C 12,9 km/h (3 Bft) 100,00 %
24.04.2018 01:33 13,6 C 17,8 C 91 % 1015,8 hPa 0,0 l/m 10,9 km/h (2 Bft) SW 217 0 min 0,000 mm 0,0 UV-I 0 W/m 12,2 C 11,1 C 16,1 km/h (3 Bft) 95,83 %
24.04.2018 01:34 13,6 C 17,8 C 90 % 1015,8 hPa 0,0 l/m 11,3 km/h (2 Bft) S-SW 201 0 min 0,000 mm 0,0 UV-I 0 W/m 12,0 C 11,0 C 16,1 km/h (3 Bft) 100,00 %
24.04.2018 01:35 13,6 C 17,8 C 90 % 1015,8 hPa 0,0 l/m 9,3 km/h (2 Bft) SW 216 0 min 0,000 mm 0,0 UV-I 0 W/m 12,0 C 11,9 C 11,3 km/h (2 Bft) 100,00 %
24.04.2018 01:36 13,6 C 17,8 C 90 % 1015,8 hPa 0,0 l/m 12,0 km/h (2 Bft) SW 218 0 min 0,000 mm 0,0 UV-I 0 W/m 12,0 C 10,7 C 17,7 km/h (3 Bft) 100,00 %
24.04.2018 01:37 13,6 C 17,8 C 90 % 1015,8 hPa 0,0 l/m 9,9 km/h (2 Bft) S-SW 200 0 min 0,000 mm 0,0 UV-I 0 W/m 12,0 C 11,6 C 16,1 km/h (3 Bft) 96,15 %
24.04.2018 01:38 13,6 C 17,8 C 90 % 1015,9 hPa 0,0 l/m 9,2 km/h (2 Bft) SW 217 0 min 0,000 mm 0,0 UV-I 0 W/m 12,0 C 12,0 C 12,9 km/h (3 Bft) 100,00 %
24.04.2018 01:39 13,6 C 17,8 C 90 % 1015,9 hPa 0,0 l/m 7,9 km/h (2 Bft) SW 229 0 min 0,000 mm 0,0 UV-I 0 W/m 12,0 C 12,7 C 9,7 km/h (2 Bft) 93,33 %
24.04.2018 01:40 13,6 C 17,8 C 90 % 1015,9 hPa 0,0 l/m 8,3 km/h (2 Bft) S-SW 208 0 min 0,000 mm 0,0 UV-I 0 W/m 12,0 C 12,5 C 11,3 km/h (2 Bft) 95,65 %
24.04.2018 01:41 13,6 C 17,8 C 91 % 1015,9 hPa 0,0 l/m 9,2 km/h (2 Bft) W-SW 246 0 min 0,000 mm 0,0 UV-I 0 W/m 12,2 C 12,0 C 11,3 km/h (2 Bft) 100,00 %
24.04.2018 01:42 13,6 C 17,8 C 90 % 1015,9 hPa 0,0 l/m 9,2 km/h (2 Bft) S-SW 213 0 min 0,000 mm 0,0 UV-I 0 W/m 12,0 C 12,0 C 12,9 km/h (3 Bft) 92,86 %
24.04.2018 01:43 13,6 C 17,8 C 90 % 1015,9 hPa 0,0 l/m 8,0 km/h (2 Bft) S-SW 209 0 min 0,000 mm 0,0 UV-I 0 W/m 12,0 C 12,6 C 12,9 km/h (3 Bft) 100,00 %
24.04.2018 01:44 13,6 C 17,8 C 90 % 1015,9 hPa 0,0 l/m 7,5 km/h (2 Bft) SW 220 0 min 0,000 mm 0,0 UV-I 0 W/m 12,0 C 12,9 C 12,9 km/h (3 Bft) 100,00 %
24.04.2018 01:45 13,6 C 17,8 C 90 % 1015,9 hPa 0,0 l/m 12,1 km/h (2 Bft) SW 224 0 min 0,000 mm 0,0 UV-I 0 W/m 12,0 C 10,6 C 14,5 km/h (3 Bft) 100,00 %
24.04.2018 01:46 13,6 C 17,8 C 90 % 1015,9 hPa 0,0 l/m 10,2 km/h (2 Bft) S-SW 202 0 min 0,000 mm 0,0 UV-I 0 W/m 12,0 C 11,5 C 14,5 km/h (3 Bft) 100,00 %
24.04.2018 01:47 13,6 C 17,8 C 90 % 1015,9 hPa 0,0 l/m 8,9 km/h (2 Bft) S-SW 209 0 min 0,000 mm 0,0 UV-I 0 W/m 12,0 C 12,1 C 12,9 km/h (3 Bft) 100,00 %
24.04.2018 01:48 13,6 C 17,8 C 90 % 1015,9 hPa 0,0 l/m 7,6 km/h (2 Bft) SW 234 0 min 0,000 mm 0,0 UV-I 0 W/m 12,0 C 12,9 C 11,3 km/h (2 Bft) 95,65 %
24.04.2018 01:49 13,7 C 17,8 C 90 % 1015,9 hPa 0,0 l/m 9,3 km/h (2 Bft) SW 233 0 min 0,000 mm 0,0 UV-I 0 W/m 12,1 C 12,0 C 12,9 km/h (3 Bft) 93,33 %
24.04.2018 01:50 13,7 C 17,8 C 90 % 1015,9 hPa 0,0 l/m 8,3 km/h (2 Bft) W 261 0 min 0,000 mm 0,0 UV-I 0 W/m 12,1 C 12,6 C 11,3 km/h (2 Bft) 95,12 %
24.04.2018 01:51 13,7 C 17,8 C 90 % 1015,9 hPa 0,0 l/m 7,5 km/h (2 Bft) W-SW 242 0 min 0,000 mm 0,0 UV-I 0 W/m 12,1 C 13,0 C 11,3 km/h (2 Bft) 91,67 %
24.04.2018 01:52 13,7 C 17,8 C 90 % 1015,9 hPa 0,0 l/m 8,0 km/h (2 Bft) SW 220 0 min 0,000 mm 0,0 UV-I 0 W/m 12,1 C 12,7 C 11,3 km/h (2 Bft) 100,00 %
24.04.2018 01:53 13,7 C 17,8 C 90 % 1015,9 hPa 0,0 l/m 7,3 km/h (2 Bft) SW 221 0 min 0,000 mm 0,0 UV-I 0 W/m 12,1 C 13,2 C 12,9 km/h (3 Bft) 96,55 %
24.04.2018 01:54 13,7 C 17,8 C 90 % 1015,9 hPa 0,0 l/m 7,2 km/h (2 Bft) SW 221 0 min 0,000 mm 0,0 UV-I 0 W/m 12,1 C 13,2 C 11,3 km/h (2 Bft) 94,74 %
24.04.2018 01:55 13,7 C 17,8 C 90 % 1015,9 hPa 0,0 l/m 8,9 km/h (2 Bft) SW 223 0 min 0,000 mm 0,0 UV-I 0 W/m 12,1 C 12,2 C 12,9 km/h (3 Bft) 97,75 %
24.04.2018 01:56 13,7 C 17,8 C 90 % 1015,9 hPa 0,0 l/m 8,4 km/h (2 Bft) SW 229 0 min 0,000 mm 0,0 UV-I 0 W/m 12,1 C 12,5 C 11,3 km/h (2 Bft) 97,56 %
24.04.2018 01:57 13,7 C 17,8 C 90 % 1015,9 hPa 0,0 l/m 9,0 km/h (2 Bft) SW 226 0 min 0,000 mm 0,0 UV-I 0 W/m 12,1 C 12,2 C 11,3 km/h (2 Bft) 97,75 %
24.04.2018 01:58 13,7 C 17,8 C 90 % 1015,8 hPa 0,0 l/m 8,8 km/h (2 Bft) S-SW 203 0 min 0,000 mm 0,0 UV-I 0 W/m 12,1 C 12,3 C 11,3 km/h (2 Bft) 95,56 %
24.04.2018 01:59 13,7 C 17,8 C 90 % 1015,8 hPa 0,0 l/m 8,0 km/h (2 Bft) SW 236 0 min 0,000 mm 0,0 UV-I 0 W/m 12,1 C 12,7 C 11,3 km/h (2 Bft) 92,31 %
24.04.2018 02:00 13,7 C 17,8 C 90 % 1015,8 hPa 0,0 l/m 6,6 km/h (2 Bft) W-SW 237 0 min 0,000 mm 0,0 UV-I 0 W/m 12,1 C 13,6 C 11,3 km/h (2 Bft) 91,67 %
24.04.2018 02:01 13,7 C 17,8 C 90 % 1015,8 hPa 0,0 l/m 6,7 km/h (2 Bft) W-SW 253 0 min 0,025 mm 0,0 UV-I 0 W/m 12,1 C 13,5 C 11,3 km/h (2 Bft) 100,00 %
24.04.2018 02:02 13,7 C 17,8 C 90 % 1015,8 hPa 0,0 l/m 8,6 km/h (2 Bft) W-SW 257 0 min 0,000 mm 0,0 UV-I 0 W/m 12,1 C 12,4 C 12,9 km/h (3 Bft) 95,83 %
24.04.2018 02:03 13,8 C 17,8 C 90 % 1015,8 hPa 0,0 l/m 7,0 km/h (2 Bft) SW 234 0 min 0,000 mm 0,0 UV-I 0 W/m 12,2 C 13,4 C 9,7 km/h (2 Bft) 96,15 %
24.04.2018 02:04 13,8 C 17,8 C 90 % 1015,8 hPa 0,0 l/m 6,3 km/h (2 Bft) SW 216 0 min 0,000 mm 0,0 UV-I 0 W/m 12,2 C 13,8 C 8,0 km/h (2 Bft) 100,00 %
24.04.2018 02:05 13,8 C 17,8 C 90 % 1015,8 hPa 0,0 l/m 9,2 km/h (2 Bft) W-SW 255 0 min 0,000 mm 0,0 UV-I 0 W/m 12,2 C 12,2 C 14,5 km/h (3 Bft) 95,65 %
24.04.2018 02:06 13,8 C 17,8 C 90 % 1015,8 hPa 0,0 l/m 9,1 km/h (2 Bft) W-SW 247 0 min 0,000 mm 0,0 UV-I 0 W/m 12,2 C 12,2 C 12,9 km/h (3 Bft) 100,00 %
24.04.2018 02:07 13,8 C 17,8 C 90 % 1015,8 hPa 0,0 l/m 6,8 km/h (2 Bft) SW 216 0 min 0,000 mm 0,0 UV-I 0 W/m 12,2 C 13,6 C 9,7 km/h (2 Bft) 95,65 %
24.04.2018 02:08 13,8 C 17,8 C 89 % 1015,8 hPa 0,0 l/m 8,0 km/h (2 Bft) SW 225 0 min 0,000 mm 0,0 UV-I 0 W/m 12,0 C 12,8 C 11,3 km/h (2 Bft) 100,00 %
24.04.2018 02:09 13,8 C 17,8 C 89 % 1015,7 hPa 0,0 l/m 7,5 km/h (2 Bft) S-SW 205 0 min 0,000 mm 0,0 UV-I 0 W/m 12,0 C 13,1 C 12,9 km/h (3 Bft) 96,55 %
24.04.2018 02:10 13,8 C 17,8 C 89 % 1015,8 hPa 0,0 l/m 11,3 km/h (2 Bft) SW 215 0 min 0,000 mm 0,0 UV-I 0 W/m 12,0 C 11,2 C 17,7 km/h (3 Bft) 100,00 %
24.04.2018 02:11 13,8 C 17,8 C 89 % 1015,8 hPa 0,0 l/m 9,2 km/h (2 Bft) SW 226 0 min 0,000 mm 0,0 UV-I 0 W/m 12,0 C 12,2 C 14,5 km/h (3 Bft) 96,15 %
24.04.2018 02:12 13,8 C 17,2 C 89 % 1015,8 hPa 0,0 l/m 9,4 km/h (2 Bft) SW 218 0 min 0,000 mm 0,0 UV-I 0 W/m 12,0 C 12,1 C 12,9 km/h (3 Bft) 95,83 %
24.04.2018 02:13 13,8 C 17,8 C 89 % 1015,8 hPa 0,0 l/m 12,4 km/h (3 Bft) W-SW 237 0 min 0,000 mm 0,0 UV-I 0 W/m 12,0 C 10,7 C 16,1 km/h (3 Bft) 100,00 %
24.04.2018 02:14 13,8 C 17,2 C 89 % 1015,8 hPa 0,0 l/m 9,3 km/h (2 Bft) W 269 0 min 0,000 mm 0,0 UV-I 0 W/m 12,0 C 12,1 C 14,5 km/h (3 Bft) 93,33 %
24.04.2018 02:15 13,8 C 17,2 C 89 % 1015,8 hPa 0,0 l/m 10,2 km/h (2 Bft) SW 236 0 min 0,000 mm 0,0 UV-I 0 W/m 12,0 C 11,7 C 16,1 km/h (3 Bft) 100,00 %
24.04.2018 02:16 13,9 C 17,2 C 89 % 1015,8 hPa 0,0 l/m 11,0 km/h (2 Bft) W-SW 254 0 min 0,000 mm 0,0 UV-I 0 W/m 12,1 C 11,4 C 16,1 km/h (3 Bft) 96,15 %
24.04.2018 02:17 13,9 C 17,2 C 89 % 1015,9 hPa 0,0 l/m 10,0 km/h (2 Bft) W-SW 253 0 min 0,000 mm 0,0 UV-I 0 W/m 12,1 C 11,9 C 12,9 km/h (3 Bft) 100,00 %
24.04.2018 02:18 13,9 C 17,2 C 89 % 1015,9 hPa 0,0 l/m 10,5 km/h (2 Bft) SW 234 0 min 0,000 mm 0,0 UV-I 0 W/m 12,1 C 11,7 C 16,1 km/h (3 Bft) 95,65 %
24.04.2018 02:19 13,9 C 17,2 C 90 % 1015,8 hPa 0,0 l/m 7,7 km/h (2 Bft) SW 234 0 min 0,000 mm 0,0 UV-I 0 W/m 12,3 C 13,1 C 12,9 km/h (3 Bft) 96,30 %
24.04.2018 02:20 13,8 C 17,2 C 89 % 1015,8 hPa 0,0 l/m 9,9 km/h (2 Bft) W-SW 252 0 min 0,000 mm 0,0 UV-I 0 W/m 12,0 C 11,8 C 14,5 km/h (3 Bft) 100,00 %
24.04.2018 02:21 13,8 C 17,2 C 90 % 1015,8 hPa 0,0 l/m 11,3 km/h (2 Bft) W-SW 244 0 min 0,000 mm 0,0 UV-I 0 W/m 12,2 C 11,2 C 14,5 km/h (3 Bft) 100,00 %
24.04.2018 02:22 13,8 C 17,2 C 90 % 1015,9 hPa 0,0 l/m 12,3 km/h (3 Bft) W-SW 255 0 min 0,000 mm 0,0 UV-I 0 W/m 12,2 C 10,8 C 17,7 km/h (3 Bft) 96,15 %
24.04.2018 02:23 13,8 C 17,2 C 90 % 1015,9 hPa 0,0 l/m 8,9 km/h (2 Bft) W-SW 242 0 min 0,000 mm 0,0 UV-I 0 W/m 12,2 C 12,3 C 12,9 km/h (3 Bft) 100,00 %
24.04.2018 02:24 13,8 C 17,2 C 90 % 1015,9 hPa 0,0 l/m 6,8 km/h (2 Bft) W-SW 250 0 min 0,000 mm 0,0 UV-I 0 W/m 12,2 C 13,6 C 9,7 km/h (2 Bft) 100,00 %
24.04.2018 02:25 13,8 C 17,2 C 90 % 1015,9 hPa 0,0 l/m 7,5 km/h (2 Bft) SW 236 0 min 0,000 mm 0,0 UV-I 0 W/m 12,2 C 13,1 C 11,3 km/h (2 Bft) 91,67 %
24.04.2018 02:26 13,8 C 17,2 C 90 % 1015,8 hPa 0,0 l/m 8,5 km/h (2 Bft) W-SW 240 0 min 0,000 mm 0,0 UV-I 0 W/m 12,2 C 12,6 C 14,5 km/h (3 Bft) 100,00 %
24.04.2018 02:27 13,8 C 17,2 C 90 % 1015,8 hPa 0,0 l/m 9,4 km/h (2 Bft) W-SW 250 0 min 0,000 mm 0,0 UV-I 0 W/m 12,2 C 12,1 C 14,5 km/h (3 Bft) 100,00 %
24.04.2018 02:28 13,8 C 17,2 C 90 % 1015,8 hPa 0,0 l/m 6,3 km/h (2 Bft) W-SW 243 0 min 0,000 mm 0,0 UV-I 0 W/m 12,2 C 13,8 C 8,0 km/h (2 Bft) 100,00 %
24.04.2018 02:29 13,8 C 17,2 C 90 % 1015,8 hPa 0,0 l/m 7,6 km/h (2 Bft) W-SW 240 0 min 0,000 mm 0,0 UV-I 0 W/m 12,2 C 13,1 C 9,7 km/h (2 Bft) 100,00 %
24.04.2018 02:30 13,8 C 17,2 C 90 % 1015,8 hPa 0,0 l/m 7,4 km/h (2 Bft) SW 229 0 min 0,000 mm 0,0 UV-I 0 W/m 12,2 C 13,2 C 11,3 km/h (2 Bft) 100,00 %
24.04.2018 02:31 13,8 C 17,2 C 90 % 1015,8 hPa 0,0 l/m 10,5 km/h (2 Bft) SW 220 0 min 0,000 mm 0,0 UV-I 0 W/m 12,2 C 11,6 C 16,1 km/h (3 Bft) 95,83 %
24.04.2018 02:32 13,8 C 17,2 C 90 % 1015,7 hPa 0,0 l/m 11,1 km/h (2 Bft) S-SW 208 0 min 0,000 mm 0,0 UV-I 0 W/m 12,2 C 11,3 C 14,5 km/h (3 Bft) 100,00 %
24.04.2018 02:33 13,8 C 17,2 C 90 % 1015,8 hPa 0,0 l/m 11,9 km/h (2 Bft) S-SW 213 0 min 0,000 mm 0,0 UV-I 0 W/m 12,2 C 10,9 C 17,7 km/h (3 Bft) 100,00 %
24.04.2018 02:34 13,8 C 17,2 C 90 % 1015,8 hPa 0,0 l/m 10,3 km/h (2 Bft) S-SW 202 0 min 0,000 mm 0,0 UV-I 0 W/m 12,2 C 11,6 C 14,5 km/h (3 Bft) 91,67 %
24.04.2018 02:35 13,8 C 17,2 C 90 % 1015,7 hPa 0,0 l/m 10,7 km/h (2 Bft) SW 221 0 min 0,000 mm 0,0 UV-I 0 W/m 12,2 C 11,5 C 14,5 km/h (3 Bft) 100,00 %
24.04.2018 02:36 13,8 C 17,2 C 90 % 1015,7 hPa 0,0 l/m 10,2 km/h (2 Bft) S-SW 206 0 min 0,000 mm 0,0 UV-I 0 W/m 12,2 C 11,7 C 12,9 km/h (3 Bft) 100,00 %
24.04.2018 02:37 13,8 C 17,2 C 90 % 1015,7 hPa 0,0 l/m 7,7 km/h (2 Bft) SW 228 0 min 0,000 mm 0,0 UV-I 0 W/m 12,2 C 13,0 C 11,3 km/h (2 Bft) 100,00 %
24.04.2018 02:38 13,9 C 17,2 C 90 % 1015,7 hPa 0,0 l/m 10,0 km/h (2 Bft) SW 215 0 min 0,000 mm 0,0 UV-I 0 W/m 12,3 C 11,9 C 14,5 km/h (3 Bft) 100,00 %
24.04.2018 02:39 13,9 C 17,2 C 90 % 1015,7 hPa 0,0 l/m 9,3 km/h (2 Bft) SW 217 0 min 0,000 mm 0,0 UV-I 0 W/m 12,3 C 12,2 C 12,9 km/h (3 Bft) 100,00 %
24.04.2018 02:40 13,9 C 17,2 C 90 % 1015,7 hPa 0,0 l/m 12,1 km/h (2 Bft) W-SW 242 0 min 0,000 mm 0,0 UV-I 0 W/m 12,3 C 11,0 C 17,7 km/h (3 Bft) 96,30 %
24.04.2018 02:41 13,9 C 17,2 C 90 % 1015,7 hPa 0,2 l/m 6,1 km/h (2 Bft) W-SW 248 0 min 0,000 mm 0,0 UV-I 0 W/m 12,3 C 13,9 C 8,0 km/h (2 Bft) 100,00 %
24.04.2018 02:42 13,9 C 17,2 C 90 % 1015,7 hPa 0,0 l/m 13,3 km/h (3 Bft) W-SW 239 0 min 0,000 mm 0,0 UV-I 0 W/m 12,3 C 10,5 C 17,7 km/h (3 Bft) 100,00 %
24.04.2018 02:43 13,9 C 17,2 C 90 % 1015,8 hPa 0,0 l/m 10,2 km/h (2 Bft) W-SW 246 0 min 0,000 mm 0,0 UV-I 0 W/m 12,3 C 11,8 C 14,5 km/h (3 Bft) 100,00 %
24.04.2018 02:44 13,9 C 17,2 C 90 % 1015,8 hPa 0,0 l/m 12,8 km/h (3 Bft) SW 221 0 min 0,000 mm 0,0 UV-I 0 W/m 12,3 C 10,7 C 17,7 km/h (3 Bft) 100,00 %
24.04.2018 02:45 13,9 C 17,2 C 90 % 1015,8 hPa 0,0 l/m 9,7 km/h (2 Bft) W-SW 238 0 min 0,000 mm 0,0 UV-I 0 W/m 12,3 C 12,0 C 16,1 km/h (3 Bft) 100,00 %
24.04.2018 02:46 13,9 C 17,2 C 90 % 1015,8 hPa 0,0 l/m 14,1 km/h (3 Bft) W-SW 253 0 min 0,000 mm 0,0 UV-I 0 W/m 12,3 C 10,2 C 25,7 km/h (4 Bft) 100,00 %
24.04.2018 02:47 13,9 C 17,2 C 90 % 1015,8 hPa 0,0 l/m 15,4 km/h (3 Bft) W 261 0 min 0,000 mm 0,0 UV-I 0 W/m 12,3 C 9,7 C 20,9 km/h (4 Bft) 100,00 %
24.04.2018 02:48 13,9 C 17,2 C 90 % 1015,8 hPa 0,0 l/m 14,8 km/h (3 Bft) W-SW 246 0 min 0,000 mm 0,0 UV-I 0 W/m 12,3 C 9,9 C 17,7 km/h (3 Bft) 100,00 %
24.04.2018 02:49 14,0 C 17,2 C 89 % 1015,8 hPa 0,0 l/m 18,2 km/h (3 Bft) W-SW 240 0 min 0,000 mm 0,0 UV-I 0 W/m 12,2 C 9,0 C 29,0 km/h (5 Bft) 100,00 %
24.04.2018 02:50 14,1 C 17,2 C 89 % 1015,8 hPa 0,0 l/m 24,6 km/h (4 Bft) W-SW 245 0 min 0,000 mm 0,0 UV-I 0 W/m 12,3 C 7,5 C 32,2 km/h (5 Bft) 100,00 %
24.04.2018 02:51 14,1 C 17,2 C 89 % 1015,8 hPa 0,0 l/m 16,3 km/h (3 Bft) W 263 0 min 0,000 mm 0,0 UV-I 0 W/m 12,3 C 9,7 C 19,3 km/h (3 Bft) 96,55 %
24.04.2018 02:52 14,2 C 17,2 C 89 % 1015,8 hPa 0,0 l/m 14,9 km/h (3 Bft) W-SW 243 0 min 0,000 mm 0,0 UV-I 0 W/m 12,4 C 10,3 C 17,7 km/h (3 Bft) 100,00 %
24.04.2018 02:53 14,2 C 17,2 C 89 % 1015,9 hPa 0,0 l/m 22,4 km/h (4 Bft) W 275 0 min 0,000 mm 0,0 UV-I 0 W/m 12,4 C 8,1 C 33,8 km/h (5 Bft) 100,00 %
24.04.2018 02:54 14,2 C 17,2 C 89 % 1015,8 hPa 0,0 l/m 20,8 km/h (4 Bft) W-SW 252 0 min 0,000 mm 0,0 UV-I 0 W/m 12,4 C 8,5 C 29,0 km/h (5 Bft) 100,00 %
24.04.2018 02:55 14,2 C 17,2 C 89 % 1015,8 hPa 0,0 l/m 17,8 km/h (3 Bft) W 259 0 min 0,000 mm 0,0 UV-I 0 W/m 12,4 C 9,3 C 25,7 km/h (4 Bft) 96,15 %
24.04.2018 02:56 14,2 C 17,2 C 89 % 1015,8 hPa 0,0 l/m 26,8 km/h (4 Bft) SW 229 0 min 0,000 mm 0,0 UV-I 0 W/m 12,4 C 7,2 C 38,6 km/h (5 Bft) 100,00 %
24.04.2018 02:57 14,2 C 17,2 C 89 % 1015,9 hPa 0,0 l/m 26,8 km/h (4 Bft) W-SW 245 0 min 0,000 mm 0,0 UV-I 0 W/m 12,4 C 7,2 C 37,0 km/h (5 Bft) 100,00 %
24.04.2018 02:58 14,2 C 17,2 C 89 % 1015,9 hPa 0,0 l/m 20,4 km/h (4 Bft) W-SW 258 0 min 0,000 mm 0,0 UV-I 0 W/m 12,4 C 8,6 C 25,7 km/h (4 Bft) 100,00 %
24.04.2018 02:59 14,2 C 17,2 C 89 % 1015,9 hPa 0,0 l/m 19,2 km/h (3 Bft) W-SW 237 0 min 0,000 mm 0,0 UV-I 0 W/m 12,4 C 8,9 C 25,7 km/h (4 Bft) 100,00 %
24.04.2018 03:00 14,2 C 17,2 C 89 % 1016,0 hPa 0,0 l/m 17,0 km/h (3 Bft) W-SW 252 0 min 0,026 mm 0,0 UV-I 0 W/m 12,4 C 9,6 C 27,4 km/h (4 Bft) 100,00 %
24.04.2018 03:01 14,2 C 17,2 C 89 % 1016,0 hPa 0,0 l/m 18,1 km/h (3 Bft) W-SW 256 0 min 0,000 mm 0,0 UV-I 0 W/m 12,4 C 9,2 C 24,1 km/h (4 Bft) 96,30 %
24.04.2018 03:03 14,2 C 17,2 C 89 % 1016,0 hPa 0,0 l/m 16,5 km/h (3 Bft) W 267 0 min 0,000 mm 0,0 UV-I 0 W/m 12,4 C 9,7 C 24,1 km/h (4 Bft) 100,00 %
24.04.2018 03:04 14,1 C 17,2 C 90 % 1016,0 hPa 0,0 l/m 21,3 km/h (4 Bft) W-SW 250 0 min 0,000 mm 0,0 UV-I 0 W/m 12,5 C 8,2 C 27,4 km/h (4 Bft) 100,00 %
24.04.2018 03:05 14,1 C 17,2 C 90 % 1016,1 hPa 0,0 l/m 19,1 km/h (3 Bft) W-SW 252 0 min 0,000 mm 0,0 UV-I 0 W/m 12,5 C 8,8 C 24,1 km/h (4 Bft) 100,00 %
24.04.2018 03:06 14,1 C 17,2 C 90 % 1016,1 hPa 0,0 l/m 20,5 km/h (4 Bft) SW 234 0 min 0,000 mm 0,0 UV-I 0 W/m 12,5 C 8,5 C 27,4 km/h (4 Bft) 100,00 %
24.04.2018 03:07 14,0 C 17,2 C 90 % 1016,1 hPa 0,0 l/m 15,4 km/h (3 Bft) W 262 0 min 0,000 mm 0,0 UV-I 0 W/m 12,4 C 9,8 C 22,5 km/h (4 Bft) 100,00 %
24.04.2018 03:08 14,0 C 17,2 C 91 % 1016,0 hPa 0,0 l/m 15,4 km/h (3 Bft) W-SW 257 0 min 0,000 mm 0,0 UV-I 0 W/m 12,6 C 9,8 C 22,5 km/h (4 Bft) 100,00 %
24.04.2018 03:09 13,9 C 17,2 C 91 % 1016,1 hPa 0,0 l/m 20,0 km/h (4 Bft) SW 217 0 min 0,000 mm 0,0 UV-I 0 W/m 12,5 C 8,3 C 29,0 km/h (5 Bft) 92,59 %
24.04.2018 03:10 13,9 C 17,2 C 91 % 1016,1 hPa 0,0 l/m 14,3 km/h (3 Bft) W 275 0 min 0,000 mm 0,0 UV-I 0 W/m 12,5 C 10,1 C 19,3 km/h (3 Bft) 100,00 %
24.04.2018 03:11 13,9 C 17,2 C 91 % 1016,1 hPa 0,0 l/m 13,7 km/h (3 Bft) W-SW 243 0 min 0,000 mm 0,0 UV-I 0 W/m 12,5 C 10,3 C 16,1 km/h (3 Bft) 100,00 %
24.04.2018 03:12 13,9 C 17,2 C 91 % 1016,2 hPa 0,0 l/m 15,6 km/h (3 Bft) SW 224 0 min 0,000 mm 0,0 UV-I 0 W/m 12,5 C 9,7 C 20,9 km/h (4 Bft) 100,00 %
24.04.2018 03:13 13,8 C 17,2 C 91 % 1016,2 hPa 0,0 l/m 14,0 km/h (3 Bft) W 274 0 min 0,000 mm 0,0 UV-I 0 W/m 12,4 C 10,1 C 20,9 km/h (4 Bft) 100,00 %
24.04.2018 03:14 13,8 C 17,2 C 92 % 1016,1 hPa 0,0 l/m 18,0 km/h (3 Bft) W 261 0 min 0,000 mm 0,0 UV-I 0 W/m 12,5 C 8,8 C 22,5 km/h (4 Bft) 100,00 %
24.04.2018 03:15 13,8 C 17,2 C 92 % 1016,1 hPa 0,0 l/m 18,9 km/h (3 Bft) W 260 0 min 0,000 mm 0,0 UV-I 0 W/m 12,5 C 8,5 C 24,1 km/h (4 Bft) 100,00 %
24.04.2018 03:16 13,8 C 17,2 C 92 % 1016,1 hPa 0,0 l/m 16,8 km/h (3 Bft) W 275 0 min 0,000 mm 0,0 UV-I 0 W/m 12,5 C 9,1 C 20,9 km/h (4 Bft) 100,00 %
24.04.2018 03:17 13,8 C 17,2 C 92 % 1016,1 hPa 0,0 l/m 18,6 km/h (3 Bft) W-SW 252 0 min 0,000 mm 0,0 UV-I 0 W/m 12,5 C 8,6 C 24,1 km/h (4 Bft) 100,00 %
24.04.2018 03:18 13,8 C 17,2 C 92 % 1016,1 hPa 0,0 l/m 14,1 km/h (3 Bft) W 265 0 min 0,000 mm 0,0 UV-I 0 W/m 12,5 C 10,1 C 17,7 km/h (3 Bft) 100,00 %
24.04.2018 03:19 13,8 C 17,2 C 92 % 1016,1 hPa 0,0 l/m 16,7 km/h (3 Bft) SW 219 0 min 0,000 mm 0,0 UV-I 0 W/m 12,5 C 9,2 C 22,5 km/h (4 Bft) 100,00 %
24.04.2018 03:20 13,8 C 17,2 C 92 % 1016,1 hPa 0,0 l/m 14,7 km/h (3 Bft) SW 224 0 min 0,000 mm 0,0 UV-I 0 W/m 12,5 C 9,8 C 24,1 km/h (4 Bft) 100,00 %
24.04.2018 03:21 13,8 C 17,2 C 92 % 1016,2 hPa 0,0 l/m 14,9 km/h (3 Bft) SW 234 0 min 0,000 mm 0,0 UV-I 0 W/m 12,5 C 9,8 C 20,9 km/h (4 Bft) 100,00 %
24.04.2018 03:22 13,8 C 17,2 C 92 % 1016,1 hPa 0,0 l/m 17,2 km/h (3 Bft) W 264 0 min 0,000 mm 0,0 UV-I 0 W/m 12,5 C 9,0 C 22,5 km/h (4 Bft) 100,00 %
24.04.2018 03:23 13,8 C 17,2 C 92 % 1016,1 hPa 0,0 l/m 16,1 km/h (3 Bft) W-SW 249 0 min 0,000 mm 0,0 UV-I 0 W/m 12,5 C 9,4 C 24,1 km/h (4 Bft) 100,00 %
24.04.2018 03:24 13,7 C 17,2 C 92 % 1016,2 hPa 0,0 l/m 11,1 km/h (2 Bft) W-SW 243 0 min 0,000 mm 0,0 UV-I 0 W/m 12,4 C 11,2 C 16,1 km/h (3 Bft) 100,00 %
24.04.2018 03:25 13,8 C 17,2 C 92 % 1016,2 hPa 0,0 l/m 14,8 km/h (3 Bft) W-SW 248 0 min 0,000 mm 0,0 UV-I 0 W/m 12,5 C 9,8 C 19,3 km/h (3 Bft) 100,00 %
24.04.2018 03:26 13,7 C 17,2 C 92 % 1016,2 hPa 0,0 l/m 17,2 km/h (3 Bft) W-SW 242 0 min 0,000 mm 0,0 UV-I 0 W/m 12,4 C 8,9 C 20,9 km/h (4 Bft) 100,00 %
24.04.2018 03:27 13,7 C 17,2 C 92 % 1016,2 hPa 0,0 l/m 15,2 km/h (3 Bft) W 267 0 min 0,000 mm 0,0 UV-I 0 W/m 12,4 C 9,5 C 20,9 km/h (4 Bft) 100,00 %
24.04.2018 03:28 13,7 C 17,2 C 92 % 1016,2 hPa 0,0 l/m 16,2 km/h (3 Bft) W-SW 250 0 min 0,000 mm 0,0 UV-I 0 W/m 12,4 C 9,2 C 22,5 km/h (4 Bft) 100,00 %
24.04.2018 03:29 13,7 C 17,2 C 92 % 1016,2 hPa 0,0 l/m 18,1 km/h (3 Bft) W-SW 240 0 min 0,000 mm 0,0 UV-I 0 W/m 12,4 C 8,6 C 25,7 km/h (4 Bft) 100,00 %
24.04.2018 03:30 13,7 C 17,2 C 93 % 1016,2 hPa 0,0 l/m 18,8 km/h (3 Bft) W 261 0 min 0,000 mm 0,0 UV-I 0 W/m 12,6 C 8,4 C 24,1 km/h (4 Bft) 100,00 %
24.04.2018 03:31 13,7 C 17,2 C 93 % 1016,2 hPa 0,0 l/m 14,2 km/h (3 Bft) W-SW 252 0 min 0,000 mm 0,0 UV-I 0 W/m 12,6 C 9,9 C 19,3 km/h (3 Bft) 97,44 %
24.04.2018 03:32 13,7 C 17,2 C 93 % 1016,2 hPa 0,0 l/m 14,8 km/h (3 Bft) W-SW 254 0 min 0,000 mm 0,0 UV-I 0 W/m 12,6 C 9,7 C 19,3 km/h (3 Bft) 100,00 %
24.04.2018 03:33 13,7 C 17,2 C 93 % 1016,2 hPa 0,0 l/m 12,7 km/h (3 Bft) W 269 0 min 0,000 mm 0,0 UV-I 0 W/m 12,6 C 10,5 C 20,9 km/h (4 Bft) 100,00 %
24.04.2018 03:34 13,7 C 17,2 C 93 % 1016,2 hPa 0,0 l/m 14,0 km/h (3 Bft) W 271 0 min 0,000 mm 0,0 UV-I 0 W/m 12,6 C 10,0 C 20,9 km/h (4 Bft) 100,00 %
24.04.2018 03:35 13,7 C 17,2 C 93 % 1016,2 hPa 0,0 l/m 15,3 km/h (3 Bft) W-SW 257 0 min 0,000 mm 0,0 UV-I 0 W/m 12,6 C 9,5 C 22,5 km/h (4 Bft) 100,00 %
24.04.2018 03:36 13,7 C 17,2 C 93 % 1016,2 hPa 0,0 l/m 12,0 km/h (2 Bft) SW 234 0 min 0,000 mm 0,0 UV-I 0 W/m 12,6 C 10,8 C 16,1 km/h (3 Bft) 100,00 %
24.04.2018 03:37 13,7 C 17,2 C 93 % 1016,3 hPa 0,0 l/m 13,5 km/h (3 Bft) W-SW 246 0 min 0,000 mm 0,0 UV-I 0 W/m 12,6 C 10,2 C 20,9 km/h (4 Bft) 100,00 %
24.04.2018 03:38 13,7 C 17,2 C 93 % 1016,3 hPa 0,0 l/m 16,8 km/h (3 Bft) W-SW 245 0 min 0,000 mm 0,0 UV-I 0 W/m 12,6 C 9,0 C 22,5 km/h (4 Bft) 100,00 %
24.04.2018 03:39 13,7 C 17,2 C 93 % 1016,3 hPa 0,0 l/m 17,2 km/h (3 Bft) SW 219 0 min 0,000 mm 0,0 UV-I 0 W/m 12,6 C 8,9 C 22,5 km/h (4 Bft) 100,00 %
24.04.2018 03:40 13,7 C 17,2 C 93 % 1016,3 hPa 0,0 l/m 15,2 km/h (3 Bft) SW 234 0 min 0,000 mm 0,0 UV-I 0 W/m 12,6 C 9,5 C 19,3 km/h (3 Bft) 95,65 %
24.04.2018 03:41 13,7 C 17,2 C 93 % 1016,3 hPa 0,0 l/m 16,2 km/h (3 Bft) SW 217 0 min 0,000 mm 0,0 UV-I 0 W/m 12,6 C 9,2 C 24,1 km/h (4 Bft) 95,83 %
24.04.2018 03:42 13,7 C 17,2 C 93 % 1016,3 hPa 0,0 l/m 10,6 km/h (2 Bft) W 264 0 min 0,000 mm 0,0 UV-I 0 W/m 12,6 C 11,4 C 14,5 km/h (3 Bft) 95,65 %
24.04.2018 03:43 13,7 C 17,2 C 93 % 1016,3 hPa 0,0 l/m 13,0 km/h (3 Bft) W-SW 246 0 min 0,000 mm 0,0 UV-I 0 W/m 12,6 C 10,4 C 19,3 km/h (3 Bft) 100,00 %
24.04.2018 03:44 13,7 C 17,2 C 93 % 1016,3 hPa 0,0 l/m 11,0 km/h (2 Bft) W-SW 248 0 min 0,000 mm 0,0 UV-I 0 W/m 12,6 C 11,2 C 14,5 km/h (3 Bft) 95,65 %
24.04.2018 03:45 13,7 C 17,2 C 93 % 1016,3 hPa 0,0 l/m 9,4 km/h (2 Bft) W-SW 256 0 min 0,000 mm 0,0 UV-I 0 W/m 12,6 C 12,0 C 12,9 km/h (3 Bft) 96,67 %
24.04.2018 03:46 13,7 C 17,2 C 93 % 1016,4 hPa 0,0 l/m 11,4 km/h (2 Bft) W 259 0 min 0,000 mm 0,0 UV-I 0 W/m 12,6 C 11,0 C 17,7 km/h (3 Bft) 100,00 %
24.04.2018 03:47 13,7 C 17,2 C 93 % 1016,3 hPa 0,0 l/m 12,3 km/h (3 Bft) SW 236 0 min 0,000 mm 0,0 UV-I 0 W/m 12,6 C 10,6 C 16,1 km/h (3 Bft) 100,00 %
24.04.2018 03:48 13,7 C 17,2 C 93 % 1016,3 hPa 0,0 l/m 11,4 km/h (2 Bft) W 263 0 min 0,000 mm 0,0 UV-I 0 W/m 12,6 C 11,0 C 16,1 km/h (3 Bft) 91,67 %
24.04.2018 03:49 13,7 C 17,2 C 93 % 1016,4 hPa 0,0 l/m 16,7 km/h (3 Bft) SW 217 0 min 0,000 mm 0,0 UV-I 0 W/m 12,6 C 9,0 C 20,9 km/h (4 Bft) 96,15 %
24.04.2018 03:50 13,7 C 17,2 C 93 % 1016,3 hPa 0,0 l/m 18,1 km/h (3 Bft) W-SW 243 0 min 0,000 mm 0,0 UV-I 0 W/m 12,6 C 8,6 C 22,5 km/h (4 Bft) 100,00 %
24.04.2018 03:51 13,7 C 17,2 C 93 % 1016,4 hPa 0,0 l/m 15,4 km/h (3 Bft) W 261 0 min 0,000 mm 0,0 UV-I 0 W/m 12,6 C 9,5 C 20,9 km/h (4 Bft) 93,33 %
24.04.2018 03:52 13,7 C 17,2 C 93 % 1016,4 hPa 0,0 l/m 11,0 km/h (2 Bft) SW 236 0 min 0,000 mm 0,0 UV-I 0 W/m 12,6 C 11,2 C 17,7 km/h (3 Bft) 100,00 %
24.04.2018 03:53 13,7 C 17,2 C 93 % 1016,4 hPa 0,0 l/m 13,4 km/h (3 Bft) W-SW 238 0 min 0,000 mm 0,0 UV-I 0 W/m 12,6 C 10,2 C 19,3 km/h (3 Bft) 92,31 %
24.04.2018 03:54 13,7 C 17,2 C 93 % 1016,4 hPa 0,0 l/m 14,0 km/h (3 Bft) SW 235 0 min 0,000 mm 0,0 UV-I 0 W/m 12,6 C 10,0 C 19,3 km/h (3 Bft) 95,83 %
24.04.2018 03:55 13,7 C 17,2 C 93 % 1016,4 hPa 0,0 l/m 15,6 km/h (3 Bft) W-SW 241 0 min 0,000 mm 0,0 UV-I 0 W/m 12,6 C 9,4 C 22,5 km/h (4 Bft) 96,15 %
24.04.2018 03:56 13,7 C 17,2 C 93 % 1016,4 hPa 0,0 l/m 14,7 km/h (3 Bft) W-SW 252 0 min 0,000 mm 0,0 UV-I 0 W/m 12,6 C 9,7 C 19,3 km/h (3 Bft) 91,67 %
24.04.2018 03:57 13,7 C 17,2 C 93 % 1016,4 hPa 0,0 l/m 14,4 km/h (3 Bft) W-SW 240 0 min 0,000 mm 0,0 UV-I 0 W/m 12,6 C 9,8 C 19,3 km/h (3 Bft) 100,00 %
24.04.2018 03:58 13,7 C 17,2 C 93 % 1016,4 hPa 0,0 l/m 13,6 km/h (3 Bft) W 269 0 min 0,000 mm 0,0 UV-I 0 W/m 12,6 C 10,1 C 17,7 km/h (3 Bft) 96,30 %
24.04.2018 03:59 13,7 C 17,2 C 93 % 1016,3 hPa 0,0 l/m 16,1 km/h (3 Bft) W-SW 257 0 min 0,000 mm 0,0 UV-I 0 W/m 12,6 C 9,2 C 20,9 km/h (4 Bft) 95,00 %
24.04.2018 04:00 13,7 C 17,2 C 93 % 1016,3 hPa 0,0 l/m 12,4 km/h (3 Bft) W-SW 239 0 min 0,025 mm 0,0 UV-I 0 W/m 12,6 C 10,6 C 19,3 km/h (3 Bft) 90,00 %
24.04.2018 04:01 13,7 C 17,2 C 93 % 1016,4 hPa 0,0 l/m 13,7 km/h (3 Bft) W-SW 258 0 min 0,000 mm 0,0 UV-I 0 W/m 12,6 C 10,1 C 20,9 km/h (4 Bft) 100,00 %
24.04.2018 04:02 13,7 C 17,2 C 93 % 1016,4 hPa 0,0 l/m 13,4 km/h (3 Bft) W-SW 253 0 min 0,000 mm 0,0 UV-I 0 W/m 12,6 C 10,2 C 17,7 km/h (3 Bft) 92,59 %
24.04.2018 04:03 13,7 C 17,2 C 93 % 1016,4 hPa 0,0 l/m 10,1 km/h (2 Bft) SW 235 0 min 0,000 mm 0,0 UV-I 0 W/m 12,6 C 11,6 C 14,5 km/h (3 Bft) 100,00 %
24.04.2018 04:04 13,7 C 17,2 C 93 % 1016,4 hPa 0,0 l/m 11,2 km/h (2 Bft) W-SW 252 0 min 0,000 mm 0,0 UV-I 0 W/m 12,6 C 11,1 C 14,5 km/h (3 Bft) 92,59 %
24.04.2018 04:05 13,7 C 17,2 C 93 % 1016,4 hPa 0,0 l/m 12,9 km/h (3 Bft) W 261 0 min 0,000 mm 0,0 UV-I 0 W/m 12,6 C 10,4 C 20,9 km/h (4 Bft) 95,65 %
24.04.2018 04:06 13,7 C 17,2 C 93 % 1016,4 hPa 0,0 l/m 15,9 km/h (3 Bft) W-SW 250 0 min 0,000 mm 0,0 UV-I 0 W/m 12,6 C 9,3 C 19,3 km/h (3 Bft) 96,30 %
24.04.2018 04:07 13,7 C 17,2 C 93 % 1016,4 hPa 0,0 l/m 18,3 km/h (3 Bft) SW 221 0 min 0,000 mm 0,0 UV-I 0 W/m 12,6 C 8,6 C 24,1 km/h (4 Bft) 95,65 %
24.04.2018 04:08 13,7 C 17,2 C 93 % 1016,4 hPa 0,2 l/m 14,6 km/h (3 Bft) W-SW 254 0 min 0,000 mm 0,0 UV-I 0 W/m 12,6 C 9,8 C 24,1 km/h (4 Bft) 95,83 %
24.04.2018 04:09 13,7 C 17,2 C 93 % 1016,4 hPa 0,0 l/m 13,6 km/h (3 Bft) W-SW 246 0 min 0,000 mm 0,0 UV-I 0 W/m 12,6 C 10,1 C 17,7 km/h (3 Bft) 92,31 %
24.04.2018 04:10 13,7 C 17,2 C 93 % 1016,4 hPa 0,0 l/m 11,3 km/h (2 Bft) W-SW 250 0 min 0,000 mm 0,0 UV-I 0 W/m 12,6 C 11,1 C 16,1 km/h (3 Bft) 95,83 %
24.04.2018 04:11 13,7 C 17,2 C 93 % 1016,4 hPa 0,0 l/m 18,0 km/h (3 Bft) SW 235 0 min 0,000 mm 0,0 UV-I 0 W/m 12,6 C 8,6 C 22,5 km/h (4 Bft) 86,67 %
24.04.2018 04:12 13,7 C 17,2 C 93 % 1016,4 hPa 0,0 l/m 14,9 km/h (3 Bft) SW 225 0 min 0,000 mm 0,0 UV-I 0 W/m 12,6 C 9,7 C 22,5 km/h (4 Bft) 96,55 %
24.04.2018 04:13 13,7 C 17,2 C 93 % 1016,4 hPa 0,0 l/m 13,2 km/h (3 Bft) SW 217 0 min 0,000 mm 0,0 UV-I 0 W/m 12,6 C 10,3 C 17,7 km/h (3 Bft) 96,30 %
24.04.2018 04:14 13,7 C 17,2 C 93 % 1016,4 hPa 0,0 l/m 15,6 km/h (3 Bft) W 266 0 min 0,000 mm 0,0 UV-I 0 W/m 12,6 C 9,4 C 22,5 km/h (4 Bft) 94,12 %
24.04.2018 04:15 13,7 C 17,2 C 93 % 1016,4 hPa 0,0 l/m 14,8 km/h (3 Bft) W-SW 242 0 min 0,000 mm 0,0 UV-I 0 W/m 12,6 C 9,7 C 17,7 km/h (3 Bft) 96,30 %
24.04.2018 04:16 13,7 C 17,2 C 93 % 1016,4 hPa 0,0 l/m 15,4 km/h (3 Bft) W 264 0 min 0,000 mm 0,0 UV-I 0 W/m 12,6 C 9,5 C 20,9 km/h (4 Bft) 91,30 %
24.04.2018 04:17 13,7 C 17,2 C 93 % 1016,4 hPa 0,0 l/m 10,0 km/h (2 Bft) W 267 0 min 0,000 mm 0,0 UV-I 0 W/m 12,6 C 11,7 C 16,1 km/h (3 Bft) 93,33 %
24.04.2018 04:18 13,7 C 17,2 C 93 % 1016,4 hPa 0,0 l/m 15,8 km/h (3 Bft) W-SW 239 0 min 0,000 mm 0,0 UV-I 0 W/m 12,6 C 9,3 C 19,3 km/h (3 Bft) 95,65 %
24.04.2018 04:19 13,7 C 17,2 C 93 % 1016,5 hPa 0,0 l/m 14,2 km/h (3 Bft) SW 221 0 min 0,000 mm 0,0 UV-I 0 W/m 12,6 C 9,9 C 20,9 km/h (4 Bft) 96,67 %
24.04.2018 04:20 13,7 C 17,2 C 93 % 1016,5 hPa 0,0 l/m 13,7 km/h (3 Bft) W 262 0 min 0,000 mm 0,0 UV-I 0 W/m 12,6 C 10,1 C 17,7 km/h (3 Bft) 95,65 %
24.04.2018 04:21 13,7 C 17,2 C 92 % 1016,5 hPa 0,0 l/m 10,1 km/h (2 Bft) W-SW 243 0 min 0,000 mm 0,0 UV-I 0 W/m 12,4 C 11,6 C 14,5 km/h (3 Bft) 87,50 %
24.04.2018 04:22 13,7 C 17,2 C 93 % 1016,5 hPa 0,0 l/m 12,6 km/h (3 Bft) W 279 0 min 0,000 mm 0,0 UV-I 0 W/m 12,6 C 10,5 C 19,3 km/h (3 Bft) 96,15 %
24.04.2018 04:23 13,7 C 17,2 C 93 % 1016,5 hPa 0,0 l/m 9,4 km/h (2 Bft) W-SW 251 0 min 0,000 mm 0,0 UV-I 0 W/m 12,6 C 12,0 C 14,5 km/h (3 Bft) 93,33 %
24.04.2018 04:24 13,7 C 17,2 C 93 % 1016,5 hPa 0,0 l/m 12,0 km/h (2 Bft) W-SW 256 0 min 0,000 mm 0,0 UV-I 0 W/m 12,6 C 10,8 C 16,1 km/h (3 Bft) 96,15 %
24.04.2018 04:25 13,7 C 17,2 C 93 % 1016,5 hPa 0,0 l/m 9,4 km/h (2 Bft) W-SW 256 0 min 0,000 mm 0,0 UV-I 0 W/m 12,6 C 12,0 C 14,5 km/h (3 Bft) 100,00 %
24.04.2018 04:26 13,7 C 17,2 C 93 % 1016,5 hPa 0,0 l/m 9,3 km/h (2 Bft) W-SW 254 0 min 0,000 mm 0,0 UV-I 0 W/m 12,6 C 12,0 C 14,5 km/h (3 Bft) 93,33 %
24.04.2018 04:27 13,7 C 17,2 C 93 % 1016,5 hPa 0,0 l/m 14,3 km/h (3 Bft) W 261 0 min 0,000 mm 0,0 UV-I 0 W/m 12,6 C 9,9 C 17,7 km/h (3 Bft) 100,00 %
24.04.2018 04:28 13,7 C 17,2 C 93 % 1016,5 hPa 0,0 l/m 12,8 km/h (3 Bft) W-SW 240 0 min 0,000 mm 0,0 UV-I 0 W/m 12,6 C 10,4 C 20,9 km/h (4 Bft) 96,55 %
24.04.2018 04:29 13,7 C 17,2 C 93 % 1016,5 hPa 0,0 l/m 12,7 km/h (3 Bft) SW 219 0 min 0,000 mm 0,0 UV-I 0 W/m 12,6 C 10,5 C 16,1 km/h (3 Bft) 96,30 %
24.04.2018 04:30 13,7 C 17,2 C 93 % 1016,5 hPa 0,0 l/m 10,9 km/h (2 Bft) W 268 0 min 0,000 mm 0,0 UV-I 0 W/m 12,6 C 11,3 C 16,1 km/h (3 Bft) 91,67 %
24.04.2018 04:31 13,6 C 17,2 C 93 % 1016,5 hPa 0,0 l/m 10,9 km/h (2 Bft) W-SW 257 0 min 0,000 mm 0,0 UV-I 0 W/m 12,5 C 11,1 C 17,7 km/h (3 Bft) 96,15 %
24.04.2018 04:32 13,7 C 17,2 C 93 % 1016,5 hPa 0,0 l/m 11,9 km/h (2 Bft) SW 224 0 min 0,000 mm 0,0 UV-I 0 W/m 12,6 C 10,8 C 16,1 km/h (3 Bft) 96,67 %
24.04.2018 04:33 13,6 C 17,2 C 93 % 1016,5 hPa 0,0 l/m 15,5 km/h (3 Bft) SW 233 0 min 0,000 mm 0,0 UV-I 0 W/m 12,5 C 9,3 C 24,1 km/h (4 Bft) 92,86 %
24.04.2018 04:34 13,6 C 17,2 C 93 % 1016,5 hPa 0,0 l/m 15,3 km/h (3 Bft) W-SW 248 0 min 0,000 mm 0,0 UV-I 0 W/m 12,5 C 9,4 C 19,3 km/h (3 Bft) 93,33 %
24.04.2018 04:35 13,7 C 17,2 C 93 % 1016,5 hPa 0,0 l/m 12,4 km/h (3 Bft) W-SW 254 0 min 0,000 mm 0,0 UV-I 0 W/m 12,6 C 10,6 C 17,7 km/h (3 Bft) 97,73 %
24.04.2018 04:36 13,7 C 17,2 C 93 % 1016,6 hPa 0,0 l/m 12,6 km/h (3 Bft) W-SW 247 0 min 0,000 mm 0,0 UV-I 0 W/m 12,6 C 10,5 C 17,7 km/h (3 Bft) 100,00 %
24.04.2018 04:37 13,7 C 17,2 C 93 % 1016,6 hPa 0,0 l/m 14,1 km/h (3 Bft) W-SW 238 0 min 0,000 mm 0,0 UV-I 0 W/m 12,6 C 9,9 C 22,5 km/h (4 Bft) 97,14 %
24.04.2018 04:38 13,7 C 17,2 C 93 % 1016,5 hPa 0,0 l/m 12,5 km/h (3 Bft) W-SW 256 0 min 0,000 mm 0,0 UV-I 0 W/m 12,6 C 10,6 C 19,3 km/h (3 Bft) 100,00 %
24.04.2018 04:39 13,7 C 17,2 C 93 % 1016,6 hPa 0,0 l/m 16,7 km/h (3 Bft) SW 235 0 min 0,000 mm 0,0 UV-I 0 W/m 12,6 C 9,0 C 24,1 km/h (4 Bft) 91,30 %
24.04.2018 04:40 13,7 C 17,2 C 93 % 1016,6 hPa 0,0 l/m 11,3 km/h (2 Bft) W-SW 250 0 min 0,000 mm 0,0 UV-I 0 W/m 12,6 C 11,1 C 16,1 km/h (3 Bft) 100,00 %
24.04.2018 04:41 13,7 C 17,2 C 93 % 1016,5 hPa 0,0 l/m 11,1 km/h (2 Bft) SW 226 0 min 0,000 mm 0,0 UV-I 0 W/m 12,6 C 11,2 C 14,5 km/h (3 Bft) 96,15 %
24.04.2018 04:42 13,6 C 17,2 C 93 % 1016,6 hPa 0,2 l/m 13,6 km/h (3 Bft) W 270 0 min 0,000 mm 0,0 UV-I 0 W/m 12,5 C 10,0 C 17,7 km/h (3 Bft) 96,67 %
24.04.2018 04:43 13,6 C 17,2 C 93 % 1016,6 hPa 0,0 l/m 9,7 km/h (2 Bft) SW 235 0 min 0,000 mm 0,0 UV-I 0 W/m 12,5 C 11,7 C 12,9 km/h (3 Bft) 100,00 %
24.04.2018 04:44 13,6 C 17,2 C 93 % 1016,6 hPa 0,0 l/m 12,6 km/h (3 Bft) W-SW 257 0 min 0,000 mm 0,0 UV-I 0 W/m 12,5 C 10,4 C 16,1 km/h (3 Bft) 100,00 %
24.04.2018 04:45 13,6 C 17,2 C 93 % 1016,6 hPa 0,0 l/m 11,9 km/h (2 Bft) W-SW 246 0 min 0,000 mm 0,0 UV-I 0 W/m 12,5 C 10,7 C 17,7 km/h (3 Bft) 92,31 %
24.04.2018 04:46 13,6 C 17,2 C 93 % 1016,6 hPa 0,0 l/m 14,6 km/h (3 Bft) W-SW 248 0 min 0,000 mm 0,0 UV-I 0 W/m 12,5 C 9,6 C 22,5 km/h (4 Bft) 100,00 %
24.04.2018 04:47 13,6 C 17,2 C 93 % 1016,6 hPa 0,0 l/m 12,4 km/h (3 Bft) W-SW 240 0 min 0,000 mm 0,0 UV-I 0 W/m 12,5 C 10,5 C 16,1 km/h (3 Bft) 100,00 %
24.04.2018 04:48 13,5 C 17,2 C 93 % 1016,6 hPa 0,0 l/m 13,7 km/h (3 Bft) W 269 0 min 0,000 mm 0,0 UV-I 0 W/m 12,4 C 9,9 C 19,3 km/h (3 Bft) 100,00 %
24.04.2018 04:49 13,5 C 17,2 C 93 % 1016,6 hPa 0,0 l/m 13,1 km/h (3 Bft) W-SW 239 0 min 0,000 mm 0,0 UV-I 0 W/m 12,4 C 10,1 C 19,3 km/h (3 Bft) 100,00 %
24.04.2018 04:50 13,5 C 17,2 C 93 % 1016,6 hPa 0,0 l/m 13,8 km/h (3 Bft) W 266 0 min 0,000 mm 0,0 UV-I 0 W/m 12,4 C 9,8 C 19,3 km/h (3 Bft) 100,00 %
24.04.2018 04:51 13,5 C 17,2 C 93 % 1016,6 hPa 0,0 l/m 11,3 km/h (2 Bft) W-SW 252 0 min 0,000 mm 0,0 UV-I 0 W/m 12,4 C 10,9 C 14,5 km/h (3 Bft) 100,00 %
24.04.2018 04:52 13,5 C 17,2 C 93 % 1016,6 hPa 0,0 l/m 10,5 km/h (2 Bft) SW 219 0 min 0,000 mm 0,0 UV-I 0 W/m 12,4 C 11,2 C 16,1 km/h (3 Bft) 100,00 %
24.04.2018 04:53 13,4 C 17,2 C 93 % 1016,6 hPa 0,0 l/m 13,1 km/h (3 Bft) W-SW 237 0 min 0,000 mm 0,0 UV-I 0 W/m 12,3 C 10,0 C 16,1 km/h (3 Bft) 100,00 %
24.04.2018 04:54 13,4 C 17,2 C 93 % 1016,6 hPa 0,0 l/m 13,2 km/h (3 Bft) SW 231 0 min 0,000 mm 0,0 UV-I 0 W/m 12,3 C 9,9 C 17,7 km/h (3 Bft) 100,00 %
24.04.2018 04:55 13,4 C 17,2 C 93 % 1016,6 hPa 0,0 l/m 13,4 km/h (3 Bft) SW 236 0 min 0,000 mm 0,0 UV-I 0 W/m 12,3 C 9,9 C 16,1 km/h (3 Bft) 100,00 %
24.04.2018 04:56 13,4 C 17,2 C 93 % 1016,6 hPa 0,0 l/m 8,8 km/h (2 Bft) SW 231 0 min 0,000 mm 0,0 UV-I 0 W/m 12,3 C 12,0 C 11,3 km/h (2 Bft) 96,15 %
24.04.2018 04:57 13,4 C 17,2 C 93 % 1016,6 hPa 0,0 l/m 12,7 km/h (3 Bft) SW 234 0 min 0,000 mm 0,0 UV-I 0 W/m 12,3 C 10,1 C 16,1 km/h (3 Bft) 100,00 %
24.04.2018 04:58 13,4 C 17,2 C 93 % 1016,5 hPa 0,0 l/m 12,3 km/h (3 Bft) SW 235 0 min 0,000 mm 0,0 UV-I 0 W/m 12,3 C 10,3 C 16,1 km/h (3 Bft) 100,00 %
24.04.2018 04:59 13,4 C 17,2 C 93 % 1016,5 hPa 0,0 l/m 15,0 km/h (3 Bft) SW 232 0 min 0,000 mm 0,0 UV-I 0 W/m 12,3 C 9,3 C 20,9 km/h (4 Bft) 100,00 %
24.04.2018 05:00 13,4 C 17,2 C 93 % 1016,5 hPa 0,0 l/m 11,4 km/h (2 Bft) W 273 0 min 0,026 mm 0,0 UV-I 0 W/m 12,3 C 10,7 C 17,7 km/h (3 Bft) 100,00 %
24.04.2018 05:01 13,4 C 17,2 C 93 % 1016,6 hPa 0,0 l/m 12,3 km/h (3 Bft) W-SW 253 0 min 0,000 mm 0,0 UV-I 0 W/m 12,3 C 10,3 C 19,3 km/h (3 Bft) 100,00 %
24.04.2018 05:02 13,4 C 17,2 C 93 % 1016,5 hPa 0,0 l/m 9,7 km/h (2 Bft) W-SW 257 0 min 0,000 mm 0,0 UV-I 0 W/m 12,3 C 11,5 C 12,9 km/h (3 Bft) 100,00 %
24.04.2018 05:03 13,4 C 17,2 C 93 % 1016,5 hPa 0,0 l/m 9,0 km/h (2 Bft) W-SW 257 0 min 0,000 mm 0,0 UV-I 0 W/m 12,3 C 11,9 C 14,5 km/h (3 Bft) 100,00 %
24.04.2018 05:04 13,4 C 17,2 C 93 % 1016,6 hPa 0,0 l/m 11,4 km/h (2 Bft) W-SW 238 0 min 0,000 mm 0,0 UV-I 0 W/m 12,3 C 10,7 C 14,5 km/h (3 Bft) 100,00 %
24.04.2018 05:05 13,4 C 17,2 C 93 % 1016,6 hPa 0,0 l/m 12,3 km/h (3 Bft) W 281 0 min 0,000 mm 0,0 UV-I 0 W/m 12,3 C 10,3 C 16,1 km/h (3 Bft) 100,00 %
24.04.2018 05:06 13,4 C 17,2 C 93 % 1016,6 hPa 0,0 l/m 9,4 km/h (2 Bft) W 263 0 min 0,000 mm 0,0 UV-I 0 W/m 12,3 C 11,7 C 14,5 km/h (3 Bft) 100,00 %
24.04.2018 05:07 13,4 C 17,2 C 93 % 1016,6 hPa 0,0 l/m 9,8 km/h (2 Bft) W 265 0 min 0,000 mm 0,0 UV-I 0 W/m 12,3 C 11,5 C 22,5 km/h (4 Bft) 100,00 %
24.04.2018 05:08 13,4 C 17,2 C 93 % 1016,6 hPa 0,0 l/m 13,1 km/h (3 Bft) W 269 0 min 0,000 mm 0,0 UV-I 0 W/m 12,3 C 10,0 C 20,9 km/h (4 Bft) 96,15 %
24.04.2018 05:09 13,4 C 17,2 C 93 % 1016,6 hPa 0,0 l/m 8,6 km/h (2 Bft) W-SW 252 0 min 0,000 mm 0,0 UV-I 0 W/m 12,3 C 12,1 C 14,5 km/h (3 Bft) 100,00 %
24.04.2018 05:10 13,4 C 17,2 C 93 % 1016,6 hPa 0,0 l/m 12,4 km/h (3 Bft) W-SW 247 0 min 0,000 mm 0,0 UV-I 0 W/m 12,3 C 10,3 C 14,5 km/h (3 Bft) 100,00 %
24.04.2018 05:11 13,4 C 17,2 C 93 % 1016,6 hPa 0,0 l/m 13,4 km/h (3 Bft) SW 225 0 min 0,000 mm 0,0 UV-I 0 W/m 12,3 C 9,9 C 17,7 km/h (3 Bft) 100,00 %
24.04.2018 05:12 13,4 C 17,2 C 93 % 1016,6 hPa 0,0 l/m 12,8 km/h (3 Bft) W-SW 249 0 min 0,000 mm 0,0 UV-I 0 W/m 12,3 C 10,1 C 19,3 km/h (3 Bft) 100,00 %
24.04.2018 05:13 13,4 C 17,2 C 93 % 1016,6 hPa 0,0 l/m 11,9 km/h (2 Bft) W 268 0 min 0,000 mm 0,0 UV-I 0 W/m 12,3 C 10,5 C 14,5 km/h (3 Bft) 100,00 %
24.04.2018 05:14 13,4 C 17,2 C 92 % 1016,6 hPa 0,0 l/m 10,1 km/h (2 Bft) SW 227 0 min 0,000 mm 0,0 UV-I 0 W/m 12,1 C 11,3 C 16,1 km/h (3 Bft) 100,00 %
24.04.2018 05:15 13,4 C 17,2 C 92 % 1016,6 hPa 0,0 l/m 13,2 km/h (3 Bft) W 260 0 min 0,000 mm 0,0 UV-I 0 W/m 12,1 C 9,9 C 16,1 km/h (3 Bft) 96,15 %
24.04.2018 05:16 13,4 C 17,2 C 92 % 1016,6 hPa 0,0 l/m 8,8 km/h (2 Bft) W-SW 252 0 min 0,000 mm 0,0 UV-I 0 W/m 12,1 C 12,0 C 14,5 km/h (3 Bft) 100,00 %
24.04.2018 05:17 13,4 C 17,2 C 92 % 1016,5 hPa 0,0 l/m 9,6 km/h (2 Bft) W-SW 254 0 min 0,000 mm 0,0 UV-I 0 W/m 12,1 C 11,6 C 12,9 km/h (3 Bft) 100,00 %
24.04.2018 05:18 13,4 C 17,2 C 92 % 1016,6 hPa 0,0 l/m 9,6 km/h (2 Bft) NW 311 0 min 0,000 mm 0,0 UV-I 0 W/m 12,1 C 11,6 C 14,5 km/h (3 Bft) 100,00 %
24.04.2018 05:19 13,4 C 17,2 C 92 % 1016,6 hPa 0,0 l/m 11,0 km/h (2 Bft) SW 227 0 min 0,000 mm 0,0 UV-I 0 W/m 12,1 C 10,9 C 14,5 km/h (3 Bft) 100,00 %
24.04.2018 05:20 13,4 C 17,2 C 92 % 1016,5 hPa 0,0 l/m 8,6 km/h (2 Bft) W 280 0 min 0,000 mm 0,0 UV-I 0 W/m 12,1 C 12,1 C 12,9 km/h (3 Bft) 100,00 %
24.04.2018 05:21 13,4 C 17,2 C 92 % 1016,6 hPa 0,0 l/m 12,4 km/h (3 Bft) W 265 0 min 0,000 mm 0,0 UV-I 0 W/m 12,1 C 10,3 C 17,7 km/h (3 Bft) 100,00 %
24.04.2018 05:22 13,4 C 17,2 C 92 % 1016,6 hPa 0,0 l/m 11,3 km/h (2 Bft) W 275 0 min 0,000 mm 0,0 UV-I 0 W/m 12,1 C 10,7 C 14,5 km/h (3 Bft) 100,00 %
24.04.2018 05:23 13,4 C 17,2 C 92 % 1016,6 hPa 0,0 l/m 12,1 km/h (2 Bft) SW 232 0 min 0,000 mm 0,0 UV-I 0 W/m 12,1 C 10,4 C 19,3 km/h (3 Bft) 100,00 %
24.04.2018 05:24 13,4 C 17,2 C 92 % 1016,6 hPa 0,0 l/m 11,2 km/h (2 Bft) W-SW 257 0 min 0,000 mm 0,0 UV-I 0 W/m 12,1 C 10,8 C 17,7 km/h (3 Bft) 100,00 %
24.04.2018 05:25 13,4 C 17,2 C 92 % 1016,6 hPa 0,0 l/m 9,8 km/h (2 Bft) W-SW 243 0 min 0,000 mm 0,0 UV-I 0 W/m 12,1 C 11,5 C 12,9 km/h (3 Bft) 100,00 %
24.04.2018 05:26 13,4 C 17,2 C 92 % 1016,6 hPa 0,0 l/m 9,9 km/h (2 Bft) W-SW 255 0 min 0,000 mm 0,0 UV-I 0 W/m 12,1 C 11,4 C 12,9 km/h (3 Bft) 100,00 %
24.04.2018 05:27 13,4 C 17,2 C 92 % 1016,6 hPa 0,0 l/m 12,9 km/h (3 Bft) W-SW 247 0 min 0,000 mm 0,0 UV-I 0 W/m 12,1 C 10,1 C 20,9 km/h (4 Bft) 100,00 %
24.04.2018 05:28 13,4 C 17,2 C 92 % 1016,6 hPa 0,0 l/m 9,1 km/h (2 Bft) SW 229 0 min 0,000 mm 0,0 UV-I 0 W/m 12,1 C 11,8 C 16,1 km/h (3 Bft) 100,00 %
24.04.2018 05:29 13,4 C 17,2 C 92 % 1016,6 hPa 0,0 l/m 9,7 km/h (2 Bft) W-SW 238 0 min 0,000 mm 0,0 UV-I 0 W/m 12,1 C 11,5 C 14,5 km/h (3 Bft) 100,00 %
24.04.2018 05:30 13,4 C 17,2 C 92 % 1016,6 hPa 0,0 l/m 10,5 km/h (2 Bft) W-SW 252 0 min 0,000 mm 0,0 UV-I 0 W/m 12,1 C 11,1 C 14,5 km/h (3 Bft) 100,00 %
24.04.2018 05:31 13,4 C 17,2 C 92 % 1016,6 hPa 0,0 l/m 9,3 km/h (2 Bft) W-SW 252 0 min 0,000 mm 0,0 UV-I 0 W/m 12,1 C 11,7 C 14,5 km/h (3 Bft) 100,00 %
24.04.2018 05:32 13,4 C 17,2 C 92 % 1016,6 hPa 0,0 l/m 11,5 km/h (2 Bft) SW 225 0 min 0,000 mm 0,0 UV-I 0 W/m 12,1 C 10,6 C 17,7 km/h (3 Bft) 100,00 %
24.04.2018 05:33 13,4 C 17,2 C 92 % 1016,7 hPa 0,0 l/m 12,9 km/h (3 Bft) W-SW 248 0 min 0,000 mm 0,0 UV-I 0 W/m 12,1 C 10,1 C 17,7 km/h (3 Bft) 100,00 %
24.04.2018 05:34 13,4 C 17,2 C 92 % 1016,7 hPa 0,0 l/m 11,0 km/h (2 Bft) W-SW 238 0 min 0,000 mm 0,0 UV-I 0 W/m 12,1 C 10,9 C 16,1 km/h (3 Bft) 100,00 %
24.04.2018 05:35 13,4 C 17,2 C 92 % 1016,7 hPa 0,0 l/m 11,5 km/h (2 Bft) W-SW 244 0 min 0,000 mm 0,0 UV-I 0 W/m 12,1 C 10,6 C 16,1 km/h (3 Bft) 100,00 %
24.04.2018 05:36 13,4 C 17,2 C 93 % 1016,7 hPa 0,0 l/m 12,5 km/h (3 Bft) W-SW 240 0 min 0,000 mm 0,0 UV-I 0 W/m 12,3 C 10,2 C 16,1 km/h (3 Bft) 100,00 %
24.04.2018 05:37 13,4 C 17,2 C 93 % 1016,7 hPa 0,0 l/m 11,2 km/h (2 Bft) SW 236 0 min 0,000 mm 0,0 UV-I 0 W/m 12,3 C 10,8 C 17,7 km/h (3 Bft) 100,00 %
24.04.2018 05:38 13,4 C 17,2 C 93 % 1016,7 hPa 0,0 l/m 14,0 km/h (3 Bft) W-SW 250 0 min 0,000 mm 0,0 UV-I 0 W/m 12,3 C 9,6 C 19,3 km/h (3 Bft) 100,00 %
24.04.2018 05:39 13,4 C 17,2 C 93 % 1016,7 hPa 0,0 l/m 15,2 km/h (3 Bft) W-SW 246 0 min 0,000 mm 0,0 UV-I 0 W/m 12,3 C 9,2 C 19,3 km/h (3 Bft) 100,00 %
24.04.2018 05:40 13,4 C 17,2 C 93 % 1016,7 hPa 0,0 l/m 14,2 km/h (3 Bft) W-SW 250 0 min 0,000 mm 0,0 UV-I 0 W/m 12,3 C 9,5 C 19,3 km/h (3 Bft) 100,00 %
24.04.2018 05:41 13,4 C 17,2 C 93 % 1016,7 hPa 0,0 l/m 11,5 km/h (2 Bft) W-SW 241 0 min 0,000 mm 0,0 UV-I 0 W/m 12,3 C 10,6 C 14,5 km/h (3 Bft) 100,00 %
24.04.2018 05:42 13,4 C 17,2 C 93 % 1016,7 hPa 0,0 l/m 10,3 km/h (2 Bft) W-SW 248 0 min 0,000 mm 0,0 UV-I 0 W/m 12,3 C 11,2 C 12,9 km/h (3 Bft) 100,00 %
24.04.2018 05:43 13,4 C 17,2 C 93 % 1016,7 hPa 0,0 l/m 14,1 km/h (3 Bft) W-SW 245 0 min 0,000 mm 0,0 UV-I 0 W/m 12,3 C 9,6 C 19,3 km/h (3 Bft) 100,00 %
24.04.2018 05:44 13,4 C 17,2 C 93 % 1016,7 hPa 0,0 l/m 13,1 km/h (3 Bft) W 263 0 min 0,000 mm 0,0 UV-I 0 W/m 12,3 C 10,0 C 14,5 km/h (3 Bft) 100,00 %
24.04.2018 05:45 13,4 C 17,2 C 93 % 1016,7 hPa 0,0 l/m 10,6 km/h (2 Bft) W-SW 254 0 min 0,000 mm 0,0 UV-I 0 W/m 12,3 C 11,1 C 14,5 km/h (3 Bft) 100,00 %
24.04.2018 05:46 13,4 C 17,2 C 93 % 1016,7 hPa 0,0 l/m 10,8 km/h (2 Bft) W 263 0 min 0,000 mm 0,0 UV-I 0 W/m 12,3 C 11,0 C 14,5 km/h (3 Bft) 100,00 %
24.04.2018 05:47 13,4 C 17,2 C 93 % 1016,7 hPa 0,0 l/m 7,8 km/h (2 Bft) SW 217 0 min 0,000 mm 0,0 UV-I 0 W/m 12,3 C 12,5 C 12,9 km/h (3 Bft) 100,00 %
24.04.2018 05:48 13,4 C 17,2 C 93 % 1016,7 hPa 0,0 l/m 10,6 km/h (2 Bft) SW 226 0 min 0,000 mm 0,0 UV-I 0 W/m 12,3 C 11,1 C 14,5 km/h (3 Bft) 100,00 %
24.04.2018 05:49 13,4 C 17,2 C 93 % 1016,7 hPa 0,0 l/m 8,9 km/h (2 Bft) W-SW 239 0 min 0,000 mm 0,0 UV-I 0 W/m 12,3 C 11,9 C 14,5 km/h (3 Bft) 100,00 %
24.04.2018 05:50 13,4 C 17,2 C 93 % 1016,8 hPa 0,0 l/m 14,3 km/h (3 Bft) W-SW 246 0 min 0,000 mm 0,0 UV-I 0 W/m 12,3 C 9,5 C 17,7 km/h (3 Bft) 100,00 %
24.04.2018 05:51 13,4 C 17,2 C 93 % 1016,7 hPa 0,0 l/m 9,7 km/h (2 Bft) SW 234 0 min 0,000 mm 0,0 UV-I 0 W/m 12,3 C 11,5 C 14,5 km/h (3 Bft) 100,00 %
24.04.2018 05:52 13,4 C 17,2 C 93 % 1016,7 hPa 0,0 l/m 12,2 km/h (2 Bft) W 266 0 min 0,000 mm 0,0 UV-I 0 W/m 12,3 C 10,3 C 16,1 km/h (3 Bft) 100,00 %
24.04.2018 05:53 13,4 C 17,2 C 93 % 1016,7 hPa 0,0 l/m 11,2 km/h (2 Bft) SW 230 0 min 0,000 mm 0,0 UV-I 0 W/m 12,3 C 10,8 C 14,5 km/h (3 Bft) 96,55 %
24.04.2018 05:54 13,4 C 17,2 C 93 % 1016,8 hPa 0,0 l/m 10,2 km/h (2 Bft) W-SW 244 0 min 0,000 mm 0,0 UV-I 5 W/m 12,3 C 11,3 C 14,5 km/h (3 Bft) 95,83 %
24.04.2018 05:55 13,4 C 17,2 C 93 % 1016,8 hPa 0,0 l/m 12,4 km/h (3 Bft) W-SW 242 0 min 0,000 mm 0,0 UV-I 5 W/m 12,3 C 10,3 C 17,7 km/h (3 Bft) 100,00 %
24.04.2018 05:56 13,4 C 17,2 C 93 % 1016,8 hPa 0,0 l/m 9,8 km/h (2 Bft) SW 220 0 min 0,000 mm 0,0 UV-I 5 W/m 12,3 C 11,5 C 12,9 km/h (3 Bft) 92,59 %
24.04.2018 05:57 13,4 C 17,2 C 92 % 1016,8 hPa 0,0 l/m 11,3 km/h (2 Bft) W-SW 248 0 min 0,000 mm 0,0 UV-I 5 W/m 12,1 C 10,7 C 14,5 km/h (3 Bft) 100,00 %
24.04.2018 05:58 13,4 C 17,2 C 92 % 1016,8 hPa 0,0 l/m 8,1 km/h (2 Bft) SW 235 0 min 0,000 mm 0,0 UV-I 5 W/m 12,1 C 12,4 C 12,9 km/h (3 Bft) 92,59 %
24.04.2018 05:59 13,4 C 17,2 C 92 % 1016,7 hPa 0,0 l/m 10,0 km/h (2 Bft) SW 236 0 min 0,000 mm 0,0 UV-I 5 W/m 12,1 C 11,4 C 17,7 km/h (3 Bft) 96,15 %
24.04.2018 06:00 13,4 C 17,2 C 92 % 1016,8 hPa 0,0 l/m 15,2 km/h (3 Bft) W-SW 250 0 min 0,000 mm 0,0 UV-I 5 W/m 12,1 C 9,2 C 19,3 km/h (3 Bft) 93,33 %
24.04.2018 06:01 13,4 C 17,2 C 92 % 1016,8 hPa 0,0 l/m 12,2 km/h (2 Bft) W-SW 240 0 min 0,000 mm 0,0 UV-I 5 W/m 12,1 C 10,3 C 17,7 km/h (3 Bft) 100,00 %
24.04.2018 06:03 13,4 C 17,2 C 92 % 1016,8 hPa 0,0 l/m 12,7 km/h (3 Bft) W-SW 252 0 min 0,000 mm 0,0 UV-I 6 W/m 12,1 C 10,1 C 19,3 km/h (3 Bft) 98,31 %
24.04.2018 06:04 13,4 C 17,2 C 92 % 1016,8 hPa 0,0 l/m 9,1 km/h (2 Bft) SW 235 0 min 0,000 mm 0,0 UV-I 7 W/m 12,1 C 11,8 C 14,5 km/h (3 Bft) 95,65 %
24.04.2018 06:05 13,4 C 17,2 C 92 % 1016,8 hPa 0,0 l/m 10,9 km/h (2 Bft) W-SW 251 0 min 0,000 mm 0,0 UV-I 7 W/m 12,1 C 10,9 C 17,7 km/h (3 Bft) 96,55 %
24.04.2018 06:06 13,4 C 17,2 C 92 % 1016,8 hPa 0,0 l/m 11,7 km/h (2 Bft) W-SW 248 0 min 0,000 mm 0,0 UV-I 7 W/m 12,1 C 10,6 C 14,5 km/h (3 Bft) 100,00 %
24.04.2018 06:07 13,4 C 17,2 C 92 % 1016,8 hPa 0,0 l/m 7,3 km/h (2 Bft) W-SW 251 0 min 0,000 mm 0,0 UV-I 7 W/m 12,1 C 12,8 C 11,3 km/h (2 Bft) 95,83 %
24.04.2018 06:08 13,4 C 17,2 C 92 % 1016,8 hPa 0,0 l/m 13,1 km/h (3 Bft) W-SW 246 0 min 0,000 mm 0,0 UV-I 8 W/m 12,1 C 10,0 C 22,5 km/h (4 Bft) 100,00 %
24.04.2018 06:09 13,4 C 17,2 C 92 % 1016,8 hPa 0,0 l/m 12,2 km/h (2 Bft) S-SW 209 0 min 0,000 mm 0,0 UV-I 9 W/m 12,1 C 10,3 C 16,1 km/h (3 Bft) 95,83 %
24.04.2018 06:10 13,4 C 17,2 C 92 % 1016,8 hPa 0,0 l/m 11,1 km/h (2 Bft) W-SW 251 0 min 0,000 mm 0,0 UV-I 9 W/m 12,1 C 10,8 C 14,5 km/h (3 Bft) 100,00 %
24.04.2018 06:11 13,4 C 17,2 C 92 % 1016,8 hPa 0,0 l/m 13,7 km/h (3 Bft) W-SW 247 0 min 0,000 mm 0,0 UV-I 9 W/m 12,1 C 9,7 C 20,9 km/h (4 Bft) 92,59 %
24.04.2018 06:12 13,4 C 17,2 C 92 % 1016,8 hPa 0,0 l/m 10,9 km/h (2 Bft) W-SW 253 0 min 0,000 mm 0,0 UV-I 9 W/m 12,1 C 10,9 C 16,1 km/h (3 Bft) 100,00 %
24.04.2018 06:13 13,4 C 17,2 C 92 % 1016,8 hPa 0,0 l/m 10,6 km/h (2 Bft) SW 223 0 min 0,000 mm 0,0 UV-I 9 W/m 12,1 C 11,1 C 14,5 km/h (3 Bft) 96,67 %
24.04.2018 06:14 13,4 C 17,2 C 92 % 1016,8 hPa 0,0 l/m 12,4 km/h (3 Bft) W-SW 250 0 min 0,000 mm 0,0 UV-I 9 W/m 12,1 C 10,3 C 19,3 km/h (3 Bft) 96,55 %
24.04.2018 06:15 13,5 C 17,2 C 92 % 1016,8 hPa 0,0 l/m 12,5 km/h (3 Bft) W-SW 237 0 min 0,000 mm 0,0 UV-I 9 W/m 12,2 C 10,3 C 16,1 km/h (3 Bft) 100,00 %
24.04.2018 06:16 13,5 C 17,2 C 92 % 1016,8 hPa 0,0 l/m 12,5 km/h (3 Bft) W-SW 242 0 min 0,000 mm 0,0 UV-I 9 W/m 12,2 C 10,3 C 16,1 km/h (3 Bft) 96,15 %
24.04.2018 06:17 13,5 C 17,2 C 92 % 1016,8 hPa 0,0 l/m 9,3 km/h (2 Bft) SW 236 0 min 0,000 mm 0,0 UV-I 7 W/m 12,2 C 11,8 C 14,5 km/h (3 Bft) 100,00 %
24.04.2018 06:18 13,5 C 17,2 C 92 % 1016,9 hPa 0,0 l/m 13,6 km/h (3 Bft) W-SW 248 0 min 0,000 mm 0,0 UV-I 7 W/m 12,2 C 9,9 C 19,3 km/h (3 Bft) 91,30 %
24.04.2018 06:19 13,5 C 17,2 C 92 % 1016,9 hPa 0,0 l/m 11,2 km/h (2 Bft) W-SW 240 0 min 0,000 mm 0,0 UV-I 8 W/m 12,2 C 10,9 C 17,7 km/h (3 Bft) 100,00 %
24.04.2018 06:20 13,6 C 17,2 C 92 % 1016,9 hPa 0,0 l/m 13,7 km/h (3 Bft) SW 227 0 min 0,000 mm 0,0 UV-I 9 W/m 12,3 C 10,0 C 17,7 km/h (3 Bft) 96,15 %
24.04.2018 06:21 13,6 C 17,2 C 91 % 1016,9 hPa 0,0 l/m 14,3 km/h (3 Bft) W-SW 252 0 min 0,000 mm 0,0 UV-I 9 W/m 12,2 C 9,7 C 20,9 km/h (4 Bft) 95,83 %
24.04.2018 06:22 13,6 C 17,2 C 91 % 1016,9 hPa 0,0 l/m 10,6 km/h (2 Bft) W-SW 250 0 min 0,000 mm 0,0 UV-I 9 W/m 12,2 C 11,3 C 14,5 km/h (3 Bft) 100,00 %
24.04.2018 06:23 13,6 C 17,2 C 91 % 1016,9 hPa 0,0 l/m 13,7 km/h (3 Bft) SW 219 0 min 0,000 mm 0,0 UV-I 11 W/m 12,2 C 10,0 C 20,9 km/h (4 Bft) 95,83 %
24.04.2018 06:24 13,6 C 17,2 C 91 % 1016,9 hPa 0,0 l/m 10,3 km/h (2 Bft) W 259 0 min 0,000 mm 0,0 UV-I 11 W/m 12,2 C 11,4 C 14,5 km/h (3 Bft) 100,00 %
24.04.2018 06:25 13,6 C 17,2 C 91 % 1016,9 hPa 0,0 l/m 10,6 km/h (2 Bft) W-SW 242 0 min 0,000 mm 0,0 UV-I 11 W/m 12,2 C 11,3 C 16,1 km/h (3 Bft) 96,15 %
24.04.2018 06:26 13,6 C 17,2 C 91 % 1016,9 hPa 0,0 l/m 10,8 km/h (2 Bft) W-SW 242 0 min 0,000 mm 0,0 UV-I 11 W/m 12,2 C 11,2 C 19,3 km/h (3 Bft) 100,00 %
24.04.2018 06:27 13,6 C 17,2 C 91 % 1016,9 hPa 0,0 l/m 12,1 km/h (2 Bft) W-SW 257 0 min 0,000 mm 0,0 UV-I 11 W/m 12,2 C 10,6 C 17,7 km/h (3 Bft) 91,30 %
24.04.2018 06:28 13,6 C 17,2 C 91 % 1016,9 hPa 0,0 l/m 10,6 km/h (2 Bft) W-SW 248 0 min 0,000 mm 0,0 UV-I 11 W/m 12,2 C 11,3 C 17,7 km/h (3 Bft) 100,00 %
24.04.2018 06:29 13,7 C 17,2 C 91 % 1016,9 hPa 0,0 l/m 12,9 km/h (3 Bft) SW 232 0 min 0,000 mm 0,0 UV-I 11 W/m 12,3 C 10,4 C 17,7 km/h (3 Bft) 95,65 %
24.04.2018 06:30 13,7 C 17,2 C 91 % 1016,9 hPa 0,0 l/m 12,9 km/h (3 Bft) W-SW 250 0 min 0,000 mm 0,0 UV-I 11 W/m 12,3 C 10,4 C 17,7 km/h (3 Bft) 100,00 %
24.04.2018 06:31 13,7 C 17,2 C 91 % 1016,9 hPa 0,0 l/m 7,5 km/h (2 Bft) W-SW 254 0 min 0,000 mm 0,0 UV-I 11 W/m 12,3 C 13,0 C 12,9 km/h (3 Bft) 100,00 %
24.04.2018 06:32 13,7 C 17,2 C 91 % 1016,9 hPa 0,0 l/m 6,8 km/h (2 Bft) W-SW 244 0 min 0,000 mm 0,0 UV-I 12 W/m 12,3 C 13,5 C 9,7 km/h (2 Bft) 100,00 %
24.04.2018 06:33 13,7 C 17,2 C 91 % 1016,9 hPa 0,0 l/m 10,4 km/h (2 Bft) W-SW 255 0 min 0,000 mm 0,0 UV-I 12 W/m 12,3 C 11,5 C 19,3 km/h (3 Bft) 100,00 %
24.04.2018 06:34 13,7 C 17,2 C 91 % 1016,9 hPa 0,0 l/m 12,9 km/h (3 Bft) W-SW 241 0 min 0,000 mm 0,0 UV-I 12 W/m 12,3 C 10,4 C 16,1 km/h (3 Bft) 100,00 %
24.04.2018 06:35 13,7 C 17,2 C 91 % 1016,9 hPa 0,0 l/m 8,4 km/h (2 Bft) W-SW 239 0 min 0,000 mm 0,0 UV-I 12 W/m 12,3 C 12,5 C 16,1 km/h (3 Bft) 100,00 %
24.04.2018 06:36 13,7 C 17,2 C 91 % 1016,9 hPa 0,0 l/m 6,4 km/h (2 Bft) W-SW 258 0 min 0,000 mm 0,0 UV-I 12 W/m 12,3 C 13,7 C 8,0 km/h (2 Bft) 95,83 %
24.04.2018 06:37 13,6 C 17,2 C 91 % 1017,0 hPa 0,0 l/m 9,8 km/h (2 Bft) W-SW 238 0 min 0,000 mm 0,0 UV-I 12 W/m 12,2 C 11,7 C 16,1 km/h (3 Bft) 100,00 %
24.04.2018 06:38 13,6 C 17,2 C 91 % 1017,0 hPa 0,0 l/m 10,5 km/h (2 Bft) W 267 0 min 0,000 mm 0,0 UV-I 12 W/m 12,2 C 11,3 C 14,5 km/h (3 Bft) 100,00 %
24.04.2018 06:39 13,6 C 17,2 C 91 % 1016,9 hPa 0,0 l/m 11,1 km/h (2 Bft) W-SW 238 0 min 0,000 mm 0,0 UV-I 13 W/m 12,2 C 11,1 C 17,7 km/h (3 Bft) 100,00 %
24.04.2018 06:40 13,6 C 17,2 C 91 % 1016,9 hPa 0,0 l/m 10,3 km/h (2 Bft) SW 226 0 min 0,000 mm 0,0 UV-I 14 W/m 12,2 C 11,4 C 17,7 km/h (3 Bft) 96,67 %
24.04.2018 06:41 13,6 C 17,2 C 91 % 1016,9 hPa 0,0 l/m 9,3 km/h (2 Bft) SW 224 0 min 0,000 mm 0,0 UV-I 16 W/m 12,2 C 11,9 C 14,5 km/h (3 Bft) 100,00 %
24.04.2018 06:42 13,6 C 17,2 C 91 % 1016,9 hPa 0,0 l/m 8,5 km/h (2 Bft) W-SW 250 0 min 0,000 mm 0,0 UV-I 18 W/m 12,2 C 12,4 C 14,5 km/h (3 Bft) 100,00 %
24.04.2018 06:43 13,6 C 17,2 C 91 % 1017,0 hPa 0,0 l/m 11,4 km/h (2 Bft) W-SW 257 0 min 0,000 mm 0,0 UV-I 19 W/m 12,2 C 10,9 C 19,3 km/h (3 Bft) 100,00 %
24.04.2018 06:44 13,6 C 17,2 C 91 % 1016,9 hPa 0,0 l/m 13,0 km/h (3 Bft) W-SW 248 0 min 0,000 mm 0,0 UV-I 19 W/m 12,2 C 10,2 C 16,1 km/h (3 Bft) 92,31 %
24.04.2018 06:45 13,6 C 17,2 C 91 % 1016,9 hPa 0,0 l/m 12,2 km/h (2 Bft) W-SW 239 0 min 0,000 mm 0,0 UV-I 19 W/m 12,2 C 10,6 C 17,7 km/h (3 Bft) 97,94 %
24.04.2018 06:46 13,6 C 17,2 C 91 % 1016,9 hPa 0,0 l/m 10,6 km/h (2 Bft) W-SW 255 0 min 0,000 mm 0,0 UV-I 21 W/m 12,2 C 11,3 C 14,5 km/h (3 Bft) 100,00 %
24.04.2018 06:47 13,7 C 17,2 C 91 % 1017,0 hPa 0,0 l/m 12,2 km/h (2 Bft) W-SW 250 0 min 0,000 mm 0,0 UV-I 23 W/m 12,3 C 10,7 C 17,7 km/h (3 Bft) 97,96 %
24.04.2018 06:48 13,7 C 17,2 C 91 % 1017,0 hPa 0,0 l/m 13,6 km/h (3 Bft) W 267 0 min 0,000 mm 0,0 UV-I 24 W/m 12,3 C 10,1 C 19,3 km/h (3 Bft) 100,00 %
24.04.2018 06:49 13,7 C 17,2 C 91 % 1017,0 hPa 0,0 l/m 10,2 km/h (2 Bft) W-SW 248 0 min 0,000 mm 0,0 UV-I 26 W/m 12,3 C 11,6 C 14,5 km/h (3 Bft) 100,00 %
24.04.2018 06:50 13,7 C 17,2 C 91 % 1017,0 hPa 0,0 l/m 8,9 km/h (2 Bft) W-SW 249 0 min 0,000 mm 0,0 UV-I 26 W/m 12,3 C 12,2 C 11,3 km/h (2 Bft) 100,00 %
24.04.2018 06:51 13,7 C 17,2 C 91 % 1017,0 hPa 0,0 l/m 10,8 km/h (2 Bft) W-SW 252 0 min 0,000 mm 0,0 UV-I 27 W/m 12,3 C 11,3 C 14,5 km/h (3 Bft) 100,00 %
24.04.2018 06:52 13,7 C 17,2 C 91 % 1017,0 hPa 0,0 l/m 11,6 km/h (2 Bft) W-SW 245 0 min 0,000 mm 0,0 UV-I 32 W/m 12,3 C 10,9 C 17,7 km/h (3 Bft) 100,00 %
24.04.2018 06:53 13,7 C 17,2 C 91 % 1017,0 hPa 0,0 l/m 13,0 km/h (3 Bft) SW 236 0 min 0,000 mm 0,0 UV-I 34 W/m 12,3 C 10,4 C 17,7 km/h (3 Bft) 95,83 %
24.04.2018 06:54 13,7 C 17,2 C 91 % 1017,0 hPa 0,0 l/m 13,6 km/h (3 Bft) SW 230 0 min 0,000 mm 0,0 UV-I 38 W/m 12,3 C 10,1 C 17,7 km/h (3 Bft) 100,00 %
24.04.2018 06:55 13,7 C 17,2 C 91 % 1017,0 hPa 0,0 l/m 13,0 km/h (3 Bft) SW 230 0 min 0,000 mm 0,0 UV-I 39 W/m 12,3 C 10,4 C 17,7 km/h (3 Bft) 100,00 %
24.04.2018 06:56 13,7 C 17,2 C 91 % 1017,0 hPa 0,0 l/m 14,0 km/h (3 Bft) SW 236 0 min 0,000 mm 0,0 UV-I 38 W/m 12,3 C 10,0 C 19,3 km/h (3 Bft) 100,00 %
24.04.2018 06:57 13,7 C 17,2 C 91 % 1017,0 hPa 0,0 l/m 10,3 km/h (2 Bft) W 262 0 min 0,000 mm 0,0 UV-I 35 W/m 12,3 C 11,5 C 16,1 km/h (3 Bft) 100,00 %
24.04.2018 06:58 13,7 C 17,2 C 91 % 1017,0 hPa 0,0 l/m 14,2 km/h (3 Bft) W 260 0 min 0,000 mm 0,0 UV-I 37 W/m 12,3 C 9,9 C 19,3 km/h (3 Bft) 100,00 %
24.04.2018 06:59 13,7 C 17,2 C 91 % 1017,0 hPa 0,0 l/m 15,8 km/h (3 Bft) W 268 0 min 0,000 mm 0,0 UV-I 41 W/m 12,3 C 9,3 C 20,9 km/h (4 Bft) 100,00 %
24.04.2018 07:00 13,7 C 17,2 C 91 % 1017,0 hPa 0,0 l/m 10,3 km/h (2 Bft) W 260 0 min 0,025 mm 0,0 UV-I 48 W/m 12,3 C 11,5 C 14,5 km/h (3 Bft) 100,00 %
24.04.2018 07:01 13,7 C 17,2 C 91 % 1017,1 hPa 0,0 l/m 14,5 km/h (3 Bft) W-SW 240 0 min 0,000 mm 0,0 UV-I 52 W/m 12,3 C 9,8 C 20,9 km/h (4 Bft) 100,00 %
24.04.2018 07:02 13,8 C 17,2 C 91 % 1017,1 hPa 0,0 l/m 14,2 km/h (3 Bft) SW 234 0 min 0,000 mm 0,0 UV-I 54 W/m 12,4 C 10,0 C 20,9 km/h (4 Bft) 100,00 %
24.04.2018 07:03 13,8 C 17,2 C 91 % 1017,1 hPa 0,0 l/m 16,5 km/h (3 Bft) SW 232 0 min 0,000 mm 0,0 UV-I 53 W/m 12,4 C 9,2 C 20,9 km/h (4 Bft) 95,65 %
24.04.2018 07:04 13,8 C 17,2 C 91 % 1017,1 hPa 0,0 l/m 13,7 km/h (3 Bft) W-SW 247 0 min 0,000 mm 0,0 UV-I 49 W/m 12,4 C 10,2 C 19,3 km/h (3 Bft) 100,00 %
24.04.2018 07:05 13,8 C 17,2 C 90 % 1017,1 hPa 0,0 l/m 16,0 km/h (3 Bft) SW 228 0 min 0,000 mm 0,0 UV-I 46 W/m 12,2 C 9,4 C 19,3 km/h (3 Bft) 100,00 %
24.04.2018 07:06 13,8 C 17,2 C 90 % 1017,1 hPa 0,0 l/m 13,5 km/h (3 Bft) W 265 0 min 0,000 mm 0,0 UV-I 45 W/m 12,2 C 10,3 C 20,9 km/h (4 Bft) 100,00 %
24.04.2018 07:07 13,8 C 17,2 C 90 % 1017,1 hPa 0,0 l/m 12,1 km/h (2 Bft) W 260 0 min 0,000 mm 0,0 UV-I 48 W/m 12,2 C 10,8 C 16,1 km/h (3 Bft) 100,00 %
24.04.2018 07:08 13,8 C 17,2 C 90 % 1017,1 hPa 0,0 l/m 13,1 km/h (3 Bft) W-SW 244 0 min 0,000 mm 0,0 UV-I 49 W/m 12,2 C 10,4 C 17,7 km/h (3 Bft) 100,00 %
24.04.2018 07:09 13,8 C 17,2 C 90 % 1017,1 hPa 0,0 l/m 11,7 km/h (2 Bft) W-SW 246 0 min 0,000 mm 0,0 UV-I 47 W/m 12,2 C 11,0 C 24,1 km/h (4 Bft) 100,00 %
24.04.2018 07:10 13,8 C 17,2 C 90 % 1017,2 hPa 0,0 l/m 18,2 km/h (3 Bft) W-SW 238 0 min 0,000 mm 0,0 UV-I 44 W/m 12,2 C 8,7 C 24,1 km/h (4 Bft) 100,00 %
24.04.2018 07:11 13,8 C 17,2 C 90 % 1017,2 hPa 0,0 l/m 18,6 km/h (3 Bft) S-SW 208 0 min 0,000 mm 0,0 UV-I 42 W/m 12,2 C 8,6 C 24,1 km/h (4 Bft) 100,00 %
24.04.2018 07:12 13,8 C 17,2 C 90 % 1017,2 hPa 0,0 l/m 13,5 km/h (3 Bft) W-SW 243 0 min 0,000 mm 0,0 UV-I 43 W/m 12,2 C 10,3 C 16,1 km/h (3 Bft) 100,00 %
24.04.2018 07:13 13,8 C 17,2 C 90 % 1017,2 hPa 0,0 l/m 9,8 km/h (2 Bft) W 266 0 min 0,000 mm 0,0 UV-I 45 W/m 12,2 C 11,9 C 14,5 km/h (3 Bft) 96,55 %
24.04.2018 07:14 13,8 C 17,2 C 90 % 1017,2 hPa 0,0 l/m 9,3 km/h (2 Bft) SW 217 0 min 0,000 mm 0,0 UV-I 46 W/m 12,2 C 12,1 C 17,7 km/h (3 Bft) 100,00 %
24.04.2018 07:15 13,8 C 17,2 C 91 % 1017,2 hPa 0,0 l/m 15,5 km/h (3 Bft) SW 236 0 min 0,000 mm 0,0 UV-I 44 W/m 12,4 C 9,6 C 22,5 km/h (4 Bft) 100,00 %
24.04.2018 07:16 13,8 C 17,2 C 91 % 1017,2 hPa 0,0 l/m 11,5 km/h (2 Bft) W-SW 256 0 min 0,000 mm 0,0 UV-I 46 W/m 12,4 C 11,1 C 16,1 km/h (3 Bft) 100,00 %
24.04.2018 07:17 13,8 C 17,2 C 91 % 1017,2 hPa 0,0 l/m 12,4 km/h (3 Bft) W-SW 246 0 min 0,000 mm 0,0 UV-I 48 W/m 12,4 C 10,7 C 17,7 km/h (3 Bft) 100,00 %
24.04.2018 07:18 13,8 C 17,2 C 91 % 1017,2 hPa 0,0 l/m 14,8 km/h (3 Bft) W-SW 252 0 min 0,000 mm 0,0 UV-I 49 W/m 12,4 C 9,8 C 20,9 km/h (4 Bft) 96,55 %
24.04.2018 07:19 13,8 C 17,2 C 91 % 1017,2 hPa 0,0 l/m 11,2 km/h (2 Bft) W-SW 241 0 min 0,000 mm 0,0 UV-I 49 W/m 12,4 C 11,2 C 17,7 km/h (3 Bft) 100,00 %
24.04.2018 07:20 13,7 C 17,2 C 91 % 1017,2 hPa 0,0 l/m 14,5 km/h (3 Bft) SW 228 0 min 0,000 mm 0,0 UV-I 50 W/m 12,3 C 9,8 C 19,3 km/h (3 Bft) 100,00 %
24.04.2018 07:21 13,7 C 17,2 C 91 % 1017,3 hPa 0,0 l/m 13,7 km/h (3 Bft) W-SW 242 0 min 0,000 mm 0,0 UV-I 51 W/m 12,3 C 10,1 C 17,7 km/h (3 Bft) 91,30 %
24.04.2018 07:22 13,7 C 17,2 C 91 % 1017,3 hPa 0,0 l/m 16,9 km/h (3 Bft) W 263 0 min 0,000 mm 0,0 UV-I 46 W/m 12,3 C 9,0 C 20,9 km/h (4 Bft) 95,83 %
24.04.2018 07:23 13,7 C 17,2 C 91 % 1017,2 hPa 0,0 l/m 11,1 km/h (2 Bft) S-SW 197 0 min 0,000 mm 0,0 UV-I 41 W/m 12,3 C 11,2 C 16,1 km/h (3 Bft) 100,00 %
24.04.2018 07:24 13,7 C 17,2 C 91 % 1017,2 hPa 0,0 l/m 12,7 km/h (3 Bft) W-SW 248 0 min 0,000 mm 0,0 UV-I 35 W/m 12,3 C 10,5 C 20,9 km/h (4 Bft) 100,00 %
24.04.2018 07:25 13,7 C 17,2 C 91 % 1017,3 hPa 0,0 l/m 16,9 km/h (3 Bft) SW 224 0 min 0,000 mm 0,0 UV-I 32 W/m 12,3 C 9,0 C 22,5 km/h (4 Bft) 100,00 %
24.04.2018 07:26 13,7 C 17,2 C 91 % 1017,3 hPa 0,0 l/m 13,4 km/h (3 Bft) SW 220 0 min 0,000 mm 0,0 UV-I 29 W/m 12,3 C 10,2 C 24,1 km/h (4 Bft) 100,00 %
24.04.2018 07:27 13,6 C 17,2 C 91 % 1017,3 hPa 0,0 l/m 18,1 km/h (3 Bft) SW 221 0 min 0,000 mm 0,0 UV-I 26 W/m 12,2 C 8,5 C 29,0 km/h (5 Bft) 100,00 %
24.04.2018 07:28 13,6 C 17,2 C 92 % 1017,3 hPa 0,0 l/m 16,1 km/h (3 Bft) SW 232 0 min 0,000 mm 0,0 UV-I 26 W/m 12,3 C 9,1 C 19,3 km/h (3 Bft) 95,65 %
24.04.2018 07:29 13,6 C 17,2 C 91 % 1017,3 hPa 0,0 l/m 14,3 km/h (3 Bft) W 261 0 min 0,000 mm 0,0 UV-I 25 W/m 12,2 C 9,7 C 20,9 km/h (4 Bft) 100,00 %
24.04.2018 07:30 13,6 C 17,2 C 91 % 1017,3 hPa 0,0 l/m 13,9 km/h (3 Bft) W-SW 257 0 min 0,000 mm 0,0 UV-I 24 W/m 12,2 C 9,9 C 19,3 km/h (3 Bft) 94,12 %
24.04.2018 07:31 13,6 C 17,2 C 92 % 1017,3 hPa 0,0 l/m 15,3 km/h (3 Bft) SW 218 0 min 0,000 mm 0,0 UV-I 23 W/m 12,3 C 9,4 C 20,9 km/h (4 Bft) 100,00 %
24.04.2018 07:32 13,6 C 17,2 C 92 % 1017,3 hPa 0,0 l/m 16,1 km/h (3 Bft) W-SW 240 0 min 0,000 mm 0,0 UV-I 23 W/m 12,3 C 9,1 C 19,3 km/h (3 Bft) 100,00 %
24.04.2018 07:33 13,5 C 17,2 C 92 % 1017,4 hPa 0,0 l/m 16,0 km/h (3 Bft) W 260 0 min 0,000 mm 0,0 UV-I 23 W/m 12,2 C 9,0 C 22,5 km/h (4 Bft) 100,00 %
24.04.2018 07:34 13,5 C 17,2 C 92 % 1017,3 hPa 0,0 l/m 13,7 km/h (3 Bft) W-SW 254 0 min 0,000 mm 0,0 UV-I 23 W/m 12,2 C 9,9 C 19,3 km/h (3 Bft) 95,65 %
24.04.2018 07:35 13,5 C 17,2 C 92 % 1017,3 hPa 0,0 l/m 16,7 km/h (3 Bft) W-SW 247 0 min 0,000 mm 0,0 UV-I 22 W/m 12,2 C 8,8 C 22,5 km/h (4 Bft) 100,00 %
24.04.2018 07:36 13,5 C 17,2 C 92 % 1017,4 hPa 0,0 l/m 18,2 km/h (3 Bft) W-SW 244 0 min 0,000 mm 0,0 UV-I 21 W/m 12,2 C 8,3 C 24,1 km/h (4 Bft) 100,00 %
24.04.2018 07:37 13,5 C 17,2 C 92 % 1017,4 hPa 0,0 l/m 15,0 km/h (3 Bft) W-SW 247 0 min 0,000 mm 0,0 UV-I 22 W/m 12,2 C 9,4 C 17,7 km/h (3 Bft) 100,00 %
24.04.2018 07:38 13,5 C 17,2 C 92 % 1017,4 hPa 0,0 l/m 16,1 km/h (3 Bft) W-SW 242 0 min 0,000 mm 0,0 UV-I 24 W/m 12,2 C 9,0 C 19,3 km/h (3 Bft) 95,65 %
24.04.2018 07:39 13,4 C 17,2 C 92 % 1017,4 hPa 0,0 l/m 12,2 km/h (2 Bft) SW 227 0 min 0,000 mm 0,0 UV-I 26 W/m 12,1 C 10,3 C 16,1 km/h (3 Bft) 95,83 %
24.04.2018 07:40 13,4 C 17,2 C 92 % 1017,4 hPa 0,0 l/m 13,2 km/h (3 Bft) W 266 0 min 0,000 mm 0,0 UV-I 28 W/m 12,1 C 9,9 C 19,3 km/h (3 Bft) 93,33 %
24.04.2018 07:41 13,4 C 17,2 C 92 % 1017,4 hPa 0,0 l/m 11,9 km/h (2 Bft) W-SW 250 0 min 0,000 mm 0,0 UV-I 28 W/m 12,1 C 10,5 C 17,7 km/h (3 Bft) 100,00 %
24.04.2018 07:42 13,4 C 17,2 C 92 % 1017,4 hPa 0,0 l/m 15,9 km/h (3 Bft) W 263 0 min 0,000 mm 0,0 UV-I 28 W/m 12,1 C 8,9 C 19,3 km/h (3 Bft) 96,67 %
24.04.2018 07:43 13,4 C 17,2 C 92 % 1017,5 hPa 0,0 l/m 14,0 km/h (3 Bft) W-SW 254 0 min 0,000 mm 0,0 UV-I 28 W/m 12,1 C 9,6 C 19,3 km/h (3 Bft) 92,31 %
24.04.2018 07:44 13,4 C 17,2 C 92 % 1017,5 hPa 0,0 l/m 17,7 km/h (3 Bft) W-SW 252 0 min 0,000 mm 0,0 UV-I 31 W/m 12,1 C 8,4 C 25,7 km/h (4 Bft) 100,00 %
24.04.2018 07:45 13,4 C 17,2 C 92 % 1017,5 hPa 0,0 l/m 17,1 km/h (3 Bft) SW 233 0 min 0,000 mm 0,0 UV-I 30 W/m 12,1 C 8,5 C 22,5 km/h (4 Bft) 96,55 %
24.04.2018 07:46 13,4 C 17,2 C 92 % 1017,5 hPa 0,0 l/m 14,7 km/h (3 Bft) W 281 0 min 0,000 mm 0,0 UV-I 26 W/m 12,1 C 9,4 C 20,9 km/h (4 Bft) 100,00 %
24.04.2018 07:47 13,4 C 17,2 C 92 % 1017,5 hPa 0,0 l/m 10,7 km/h (2 Bft) SW 223 0 min 0,000 mm 0,0 UV-I 26 W/m 12,1 C 11,0 C 17,7 km/h (3 Bft) 92,31 %
24.04.2018 07:48 13,4 C 17,2 C 92 % 1017,5 hPa 0,0 l/m 19,1 km/h (3 Bft) W-SW 254 0 min 0,000 mm 0,0 UV-I 27 W/m 12,1 C 7,9 C 27,4 km/h (4 Bft) 100,00 %
24.04.2018 07:49 13,4 C 17,2 C 92 % 1017,5 hPa 0,2 l/m 19,2 km/h (3 Bft) W-SW 258 0 min 0,000 mm 0,0 UV-I 29 W/m 12,1 C 7,9 C 29,0 km/h (5 Bft) 95,65 %
24.04.2018 07:50 13,3 C 17,2 C 92 % 1017,5 hPa 0,0 l/m 15,3 km/h (3 Bft) W-SW 257 0 min 0,000 mm 0,0 UV-I 30 W/m 12,0 C 9,0 C 20,9 km/h (4 Bft) 100,00 %
24.04.2018 07:51 13,3 C 17,2 C 93 % 1017,5 hPa 0,2 l/m 11,8 km/h (2 Bft) W 270 0 min 0,000 mm 0,0 UV-I 30 W/m 12,2 C 10,4 C 16,1 km/h (3 Bft) 81,82 %
24.04.2018 07:52 13,3 C 17,2 C 93 % 1017,6 hPa 0,0 l/m 15,7 km/h (3 Bft) W-SW 250 0 min 0,000 mm 0,0 UV-I 26 W/m 12,2 C 8,9 C 22,5 km/h (4 Bft) 100,00 %
24.04.2018 07:53 13,3 C 17,2 C 93 % 1017,6 hPa 0,0 l/m 14,5 km/h (3 Bft) SW 234 0 min 0,000 mm 0,0 UV-I 24 W/m 12,2 C 9,3 C 24,1 km/h (4 Bft) 96,55 %
24.04.2018 07:54 13,3 C 17,2 C 93 % 1017,6 hPa 0,0 l/m 16,0 km/h (3 Bft) SW 235 0 min 0,000 mm 0,0 UV-I 22 W/m 12,2 C 8,8 C 25,7 km/h (4 Bft) 96,30 %
24.04.2018 07:55 13,3 C 17,2 C 93 % 1017,6 hPa 0,2 l/m 16,5 km/h (3 Bft) W 280 0 min 0,000 mm 0,0 UV-I 20 W/m 12,2 C 8,6 C 24,1 km/h (4 Bft) 100,00 %
24.04.2018 07:56 13,2 C 17,2 C 93 % 1017,7 hPa 0,0 l/m 13,8 km/h (3 Bft) SW 234 0 min 0,000 mm 0,0 UV-I 18 W/m 12,1 C 9,5 C 17,7 km/h (3 Bft) 96,55 %
24.04.2018 07:57 13,2 C 17,2 C 93 % 1017,7 hPa 0,2 l/m 13,3 km/h (3 Bft) W-SW 238 0 min 0,000 mm 0,0 UV-I 14 W/m 12,1 C 9,7 C 17,7 km/h (3 Bft) 98,11 %
24.04.2018 07:58 13,2 C 17,2 C 93 % 1017,6 hPa 0,0 l/m 11,8 km/h (2 Bft) W-SW 248 0 min 0,000 mm 0,0 UV-I 14 W/m 12,1 C 10,3 C 16,1 km/h (3 Bft) 97,56 %
24.04.2018 07:59 13,2 C 17,2 C 94 % 1017,6 hPa 0,0 l/m 15,1 km/h (3 Bft) SW 228 0 min 0,000 mm 0,0 UV-I 14 W/m 12,3 C 9,0 C 24,1 km/h (4 Bft) 100,00 %
24.04.2018 08:00 13,2 C 17,2 C 94 % 1017,6 hPa 0,2 l/m 13,8 km/h (3 Bft) SW 227 0 min 0,000 mm 0,0 UV-I 14 W/m 12,3 C 9,5 C 19,3 km/h (3 Bft) 92,31 %
24.04.2018 08:02 13,2 C 17,2 C 94 % 1017,6 hPa 0,2 l/m 14,4 km/h (3 Bft) SW 229 0 min 0,025 mm 0,0 UV-I 14 W/m 12,3 C 9,2 C 27,4 km/h (4 Bft) 95,45 %
24.04.2018 08:03 13,1 C 17,2 C 94 % 1017,7 hPa 0,0 l/m 17,5 km/h (3 Bft) W-SW 244 0 min 0,000 mm 0,0 UV-I 14 W/m 12,2 C 8,0 C 20,9 km/h (4 Bft) 100,00 %
24.04.2018 08:04 13,1 C 17,2 C 94 % 1017,7 hPa 0,0 l/m 15,9 km/h (3 Bft) S-SW 213 0 min 0,000 mm 0,0 UV-I 12 W/m 12,2 C 8,6 C 24,1 km/h (4 Bft) 93,10 %
24.04.2018 08:05 13,1 C 17,2 C 94 % 1017,7 hPa 0,0 l/m 16,9 km/h (3 Bft) W-SW 244 0 min 0,000 mm 0,0 UV-I 12 W/m 12,2 C 8,2 C 22,5 km/h (4 Bft) 96,30 %
24.04.2018 08:06 13,1 C 17,2 C 94 % 1017,7 hPa 0,2 l/m 13,0 km/h (3 Bft) W 265 0 min 0,000 mm 0,0 UV-I 12 W/m 12,2 C 9,7 C 19,3 km/h (3 Bft) 96,15 %
24.04.2018 08:07 13,1 C 17,2 C 94 % 1017,7 hPa 0,0 l/m 6,5 km/h (2 Bft) SW 215 0 min 0,000 mm 0,0 UV-I 12 W/m 12,2 C 13,1 C 11,3 km/h (2 Bft) 91,67 %
24.04.2018 08:08 13,1 C 17,2 C 94 % 1017,7 hPa 0,0 l/m 11,4 km/h (2 Bft) SW 232 0 min 0,000 mm 0,0 UV-I 14 W/m 12,2 C 10,4 C 14,5 km/h (3 Bft) 100,00 %
24.04.2018 08:09 13,1 C 17,2 C 94 % 1017,7 hPa 0,0 l/m 16,9 km/h (3 Bft) W-SW 245 0 min 0,000 mm 0,0 UV-I 16 W/m 12,2 C 8,2 C 24,1 km/h (4 Bft) 91,67 %
24.04.2018 08:10 13,1 C 17,2 C 94 % 1017,7 hPa 0,0 l/m 17,7 km/h (3 Bft) W-SW 240 0 min 0,000 mm 0,0 UV-I 14 W/m 12,2 C 8,0 C 24,1 km/h (4 Bft) 100,00 %
24.04.2018 08:11 13,1 C 17,2 C 94 % 1017,7 hPa 0,2 l/m 12,3 km/h (3 Bft) W-SW 252 0 min 0,000 mm 0,0 UV-I 17 W/m 12,2 C 10,0 C 17,7 km/h (3 Bft) 92,31 %
24.04.2018 08:12 13,1 C 17,2 C 94 % 1017,7 hPa 0,0 l/m 14,6 km/h (3 Bft) SW 215 0 min 0,000 mm 0,0 UV-I 20 W/m 12,2 C 9,0 C 20,9 km/h (4 Bft) 96,30 %
24.04.2018 08:13 13,1 C 17,2 C 94 % 1017,7 hPa 0,0 l/m 17,5 km/h (3 Bft) SW 219 0 min 0,000 mm 0,0 UV-I 22 W/m 12,2 C 8,0 C 24,1 km/h (4 Bft) 91,30 %
24.04.2018 08:14 13,1 C 17,2 C 94 % 1017,7 hPa 0,0 l/m 18,2 km/h (3 Bft) SW 234 0 min 0,000 mm 0,0 UV-I 21 W/m 12,2 C 7,8 C 22,5 km/h (4 Bft) 100,00 %
24.04.2018 08:15 13,1 C 17,2 C 94 % 1017,7 hPa 0,0 l/m 17,6 km/h (3 Bft) W-SW 239 0 min 0,000 mm 0,0 UV-I 21 W/m 12,2 C 8,0 C 25,7 km/h (4 Bft) 92,59 %
24.04.2018 08:16 13,1 C 17,2 C 94 % 1017,7 hPa 0,0 l/m 17,4 km/h (3 Bft) W-SW 254 0 min 0,000 mm 0,0 UV-I 21 W/m 12,2 C 8,1 C 22,5 km/h (4 Bft) 92,31 %
24.04.2018 08:17 13,1 C 17,2 C 94 % 1017,7 hPa 0,0 l/m 16,3 km/h (3 Bft) SW 234 0 min 0,000 mm 0,0 UV-I 21 W/m 12,2 C 8,4 C 27,4 km/h (4 Bft) 100,00 %
24.04.2018 08:18 13,1 C 17,2 C 95 % 1017,8 hPa 0,2 l/m 22,3 km/h (4 Bft) SW 223 0 min 0,000 mm 0,0 UV-I 22 W/m 12,3 C 6,7 C 29,0 km/h (5 Bft) 93,33 %
24.04.2018 08:19 13,1 C 17,2 C 95 % 1017,8 hPa 0,0 l/m 24,6 km/h (4 Bft) W-SW 245 0 min 0,000 mm 0,0 UV-I 25 W/m 12,3 C 6,1 C 32,2 km/h (5 Bft) 100,00 %
24.04.2018 08:20 13,0 C 17,2 C 95 % 1017,9 hPa 0,0 l/m 19,6 km/h (3 Bft) W-SW 240 0 min 0,000 mm 0,0 UV-I 27 W/m 12,2 C 7,3 C 25,7 km/h (4 Bft) 97,88 %
24.04.2018 08:21 13,1 C 17,2 C 95 % 1017,8 hPa 0,0 l/m 15,7 km/h (3 Bft) W-SW 257 0 min 0,000 mm 0,0 UV-I 35 W/m 12,3 C 8,6 C 24,1 km/h (4 Bft) 95,45 %
24.04.2018 08:22 13,1 C 17,2 C 95 % 1017,9 hPa 0,0 l/m 19,0 km/h (3 Bft) W-SW 248 0 min 0,000 mm 0,0 UV-I 32 W/m 12,3 C 7,6 C 25,7 km/h (4 Bft) 92,59 %
24.04.2018 08:23 13,0 C 17,2 C 95 % 1017,9 hPa 0,0 l/m 24,1 km/h (4 Bft) W 273 0 min 0,000 mm 0,0 UV-I 29 W/m 12,2 C 6,1 C 27,4 km/h (4 Bft) 100,00 %
24.04.2018 08:24 13,0 C 17,2 C 95 % 1017,9 hPa 0,0 l/m 17,1 km/h (3 Bft) SW 225 0 min 0,000 mm 0,0 UV-I 28 W/m 12,2 C 8,0 C 24,1 km/h (4 Bft) 93,33 %
24.04.2018 08:25 13,1 C 17,2 C 95 % 1017,8 hPa 0,0 l/m 15,0 km/h (3 Bft) W 260 0 min 0,000 mm 0,0 UV-I 30 W/m 12,3 C 8,9 C 22,5 km/h (4 Bft) 96,15 %
24.04.2018 08:26 13,1 C 17,2 C 95 % 1017,8 hPa 0,0 l/m 16,1 km/h (3 Bft) W-SW 254 0 min 0,000 mm 0,0 UV-I 32 W/m 12,3 C 8,5 C 25,7 km/h (4 Bft) 92,59 %
24.04.2018 08:27 13,1 C 17,2 C 95 % 1018,0 hPa 0,0 l/m 19,4 km/h (3 Bft) SW 223 0 min 0,000 mm 0,0 UV-I 33 W/m 12,3 C 7,5 C 27,4 km/h (4 Bft) 91,30 %
24.04.2018 08:28 13,1 C 17,2 C 95 % 1018,0 hPa 0,0 l/m 19,5 km/h (3 Bft) W-SW 248 0 min 0,000 mm 0,0 UV-I 38 W/m 12,3 C 7,4 C 25,7 km/h (4 Bft) 100,00 %
24.04.2018 08:29 13,1 C 17,2 C 95 % 1017,9 hPa 0,0 l/m 16,1 km/h (3 Bft) W-NW 284 0 min 0,000 mm 0,0 UV-I 46 W/m 12,3 C 8,5 C 22,5 km/h (4 Bft) 93,10 %
24.04.2018 08:30 13,1 C 17,2 C 95 % 1017,9 hPa 0,0 l/m 16,0 km/h (3 Bft) SW 229 0 min 0,000 mm 0,0 UV-I 50 W/m 12,3 C 8,5 C 20,9 km/h (4 Bft) 95,83 %
24.04.2018 08:31 13,1 C 17,2 C 95 % 1017,9 hPa 0,0 l/m 16,7 km/h (3 Bft) W 272 0 min 0,000 mm 0,0 UV-I 57 W/m 12,3 C 8,3 C 24,1 km/h (4 Bft) 92,31 %
24.04.2018 08:32 13,1 C 17,2 C 95 % 1017,9 hPa 0,0 l/m 17,0 km/h (3 Bft) W-SW 256 0 min 0,000 mm 0,0 UV-I 65 W/m 12,3 C 8,2 C 24,1 km/h (4 Bft) 95,83 %
24.04.2018 08:33 13,1 C 17,2 C 95 % 1017,9 hPa 0,0 l/m 11,9 km/h (2 Bft) W-SW 239 0 min 0,000 mm 0,0 UV-I 76 W/m 12,3 C 10,1 C 14,5 km/h (3 Bft) 93,33 %
24.04.2018 08:34 13,1 C 17,2 C 95 % 1017,9 hPa 0,0 l/m 11,9 km/h (2 Bft) W-SW 248 0 min 0,000 mm 0,0 UV-I 75 W/m 12,3 C 10,1 C 17,7 km/h (3 Bft) 100,00 %
24.04.2018 08:35 13,1 C 17,2 C 95 % 1017,9 hPa 0,0 l/m 13,4 km/h (3 Bft) W-SW 240 0 min 0,000 mm 0,0 UV-I 79 W/m 12,3 C 9,5 C 17,7 km/h (3 Bft) 96,55 %
24.04.2018 08:36 13,1 C 17,2 C 95 % 1017,9 hPa 0,0 l/m 14,2 km/h (3 Bft) W-SW 246 0 min 0,000 mm 0,0 UV-I 78 W/m 12,3 C 9,2 C 19,3 km/h (3 Bft) 100,00 %
24.04.2018 08:37 13,1 C 17,2 C 95 % 1017,9 hPa 0,0 l/m 12,3 km/h (3 Bft) W-SW 251 0 min 0,000 mm 0,0 UV-I 71 W/m 12,3 C 10,0 C 17,7 km/h (3 Bft) 96,67 %
24.04.2018 08:38 13,1 C 17,2 C 95 % 1017,9 hPa 0,0 l/m 13,3 km/h (3 Bft) W-SW 242 0 min 0,000 mm 0,0 UV-I 72 W/m 12,3 C 9,5 C 17,7 km/h (3 Bft) 100,00 %
24.04.2018 08:39 13,2 C 17,2 C 95 % 1017,9 hPa 0,0 l/m 12,9 km/h (3 Bft) W-SW 240 0 min 0,000 mm 0,0 UV-I 79 W/m 12,4 C 9,8 C 17,7 km/h (3 Bft) 95,83 %
24.04.2018 08:40 13,2 C 17,2 C 95 % 1017,9 hPa 0,0 l/m 13,9 km/h (3 Bft) W 279 0 min 0,000 mm 0,0 UV-I 91 W/m 12,4 C 9,4 C 19,3 km/h (3 Bft) 95,65 %
24.04.2018 08:41 13,2 C 17,2 C 95 % 1017,9 hPa 0,0 l/m 14,3 km/h (3 Bft) SW 234 0 min 0,000 mm 0,0 UV-I 104 W/m 12,4 C 9,3 C 20,9 km/h (4 Bft) 95,83 %
24.04.2018 08:42 13,2 C 17,2 C 95 % 1018,0 hPa 0,0 l/m 16,3 km/h (3 Bft) SW 227 0 min 0,000 mm 0,0 UV-I 108 W/m 12,4 C 8,6 C 22,5 km/h (4 Bft) 93,10 %
24.04.2018 08:43 13,2 C 17,2 C 95 % 1018,0 hPa 0,0 l/m 15,4 km/h (3 Bft) W 261 0 min 0,000 mm 0,0 UV-I 107 W/m 12,4 C 8,9 C 20,9 km/h (4 Bft) 100,00 %
24.04.2018 08:44 13,2 C 17,2 C 95 % 1018,0 hPa 0,0 l/m 12,8 km/h (3 Bft) W 265 0 min 0,000 mm 0,0 UV-I 111 W/m 12,4 C 9,9 C 17,7 km/h (3 Bft) 96,15 %
24.04.2018 08:45 13,2 C 17,2 C 95 % 1017,9 hPa 0,0 l/m 10,2 km/h (2 Bft) SW 234 0 min 0,000 mm 0,4 UV-I 115 W/m 12,4 C 11,0 C 14,5 km/h (3 Bft) 100,00 %
24.04.2018 08:46 13,3 C 17,2 C 95 % 1017,9 hPa 0,0 l/m 9,9 km/h (2 Bft) W-SW 256 0 min 0,000 mm 0,5 UV-I 121 W/m 12,5 C 11,3 C 14,5 km/h (3 Bft) 90,91 %
24.04.2018 08:47 13,3 C 17,2 C 95 % 1018,0 hPa 0,0 l/m 14,6 km/h (3 Bft) W-SW 238 0 min 0,000 mm 0,5 UV-I 125 W/m 12,5 C 9,3 C 24,1 km/h (4 Bft) 100,00 %
24.04.2018 08:48 13,3 C 17,2 C 95 % 1018,0 hPa 0,0 l/m 14,4 km/h (3 Bft) S-SW 212 0 min 0,000 mm 0,6 UV-I 123 W/m 12,5 C 9,4 C 20,9 km/h (4 Bft) 100,00 %
24.04.2018 08:49 13,3 C 17,2 C 95 % 1018,0 hPa 0,0 l/m 13,2 km/h (3 Bft) W-SW 254 0 min 0,000 mm 0,6 UV-I 116 W/m 12,5 C 9,8 C 16,1 km/h (3 Bft) 100,00 %
24.04.2018 08:50 13,3 C 17,2 C 95 % 1018,0 hPa 0,0 l/m 12,1 km/h (2 Bft) W 259 0 min 0,000 mm 0,6 UV-I 114 W/m 12,5 C 10,3 C 19,3 km/h (3 Bft) 100,00 %
24.04.2018 08:51 13,4 C 17,2 C 95 % 1018,0 hPa 0,0 l/m 11,1 km/h (2 Bft) SW 223 0 min 0,000 mm 0,5 UV-I 123 W/m 12,6 C 10,8 C 14,5 km/h (3 Bft) 100,00 %
24.04.2018 08:52 13,4 C 17,2 C 95 % 1018,0 hPa 0,0 l/m 10,7 km/h (2 Bft) SW 235 0 min 0,000 mm 0,5 UV-I 120 W/m 12,6 C 11,0 C 17,7 km/h (3 Bft) 95,83 %
24.04.2018 08:53 13,4 C 17,2 C 95 % 1018,0 hPa 0,0 l/m 12,7 km/h (3 Bft) W 264 0 min 0,000 mm 0,5 UV-I 131 W/m 12,6 C 10,1 C 17,7 km/h (3 Bft) 100,00 %
24.04.2018 08:54 13,4 C 17,2 C 95 % 1018,0 hPa 0,0 l/m 11,5 km/h (2 Bft) W-SW 239 0 min 0,000 mm 0,6 UV-I 148 W/m 12,6 C 10,6 C 14,5 km/h (3 Bft) 95,83 %
24.04.2018 08:55 13,5 C 17,2 C 95 % 1018,0 hPa 0,0 l/m 11,8 km/h (2 Bft) W-SW 255 0 min 0,000 mm 0,7 UV-I 163 W/m 12,7 C 10,6 C 14,5 km/h (3 Bft) 97,71 %
24.04.2018 08:56 13,5 C 17,2 C 95 % 1018,0 hPa 0,0 l/m 9,6 km/h (2 Bft) W 273 0 min 0,000 mm 0,7 UV-I 185 W/m 12,7 C 11,7 C 12,9 km/h (3 Bft) 100,00 %
24.04.2018 08:57 13,6 C 17,2 C 95 % 1018,0 hPa 0,0 l/m 9,2 km/h (2 Bft) W-SW 246 0 min 0,000 mm 0,7 UV-I 176 W/m 12,8 C 12,0 C 17,7 km/h (3 Bft) 100,00 %
24.04.2018 08:58 13,6 C 17,2 C 95 % 1018,0 hPa 0,0 l/m 13,9 km/h (3 Bft) W-SW 258 0 min 0,000 mm 0,7 UV-I 172 W/m 12,8 C 9,9 C 19,3 km/h (3 Bft) 100,00 %
24.04.2018 08:59 13,6 C 17,2 C 95 % 1018,0 hPa 0,0 l/m 16,6 km/h (3 Bft) SW 223 0 min 0,000 mm 0,8 UV-I 199 W/m 12,8 C 9,0 C 22,5 km/h (4 Bft) 100,00 %
24.04.2018 09:00 13,6 C 17,2 C 95 % 1018,0 hPa 0,0 l/m 18,6 km/h (3 Bft) W-SW 237 0 min 0,000 mm 0,7 UV-I 215 W/m 12,8 C 8,3 C 22,5 km/h (4 Bft) 100,00 %
24.04.2018 09:01 13,6 C 17,2 C 95 % 1018,1 hPa 0,0 l/m 13,5 km/h (3 Bft) W 259 0 min 0,051 mm 0,7 UV-I 214 W/m 12,8 C 10,1 C 17,7 km/h (3 Bft) 100,00 %
24.04.2018 09:02 13,7 C 17,2 C 95 % 1018,1 hPa 0,0 l/m 10,2 km/h (2 Bft) W 265 0 min 0,000 mm 0,6 UV-I 205 W/m 12,9 C 11,6 C 16,1 km/h (3 Bft) 100,00 %
24.04.2018 09:03 13,7 C 17,2 C 95 % 1018,1 hPa 0,0 l/m 12,3 km/h (3 Bft) W-SW 244 0 min 0,000 mm 0,6 UV-I 188 W/m 12,9 C 10,6 C 16,1 km/h (3 Bft) 100,00 %
24.04.2018 09:04 13,8 C 17,2 C 95 % 1018,1 hPa 0,0 l/m 13,1 km/h (3 Bft) W-SW 251 0 min 0,000 mm 0,5 UV-I 158 W/m 13,0 C 10,4 C 17,7 km/h (3 Bft) 100,00 %
24.04.2018 09:05 13,8 C 17,2 C 95 % 1018,1 hPa 0,0 l/m 13,6 km/h (3 Bft) S-SW 205 0 min 0,000 mm 0,6 UV-I 167 W/m 13,0 C 10,2 C 17,7 km/h (3 Bft) 100,00 %
24.04.2018 09:06 13,8 C 17,2 C 95 % 1018,1 hPa 0,0 l/m 13,2 km/h (3 Bft) W-SW 257 0 min 0,000 mm 0,7 UV-I 190 W/m 13,0 C 10,4 C 17,7 km/h (3 Bft) 100,00 %
24.04.2018 09:07 13,8 C 17,2 C 95 % 1018,1 hPa 0,0 l/m 13,6 km/h (3 Bft) W-SW 237 0 min 0,000 mm 0,8 UV-I 220 W/m 13,0 C 10,2 C 19,3 km/h (3 Bft) 100,00 %
24.04.2018 09:08 13,8 C 17,2 C 95 % 1018,1 hPa 0,0 l/m 15,0 km/h (3 Bft) W-SW 252 0 min 0,000 mm 0,8 UV-I 276 W/m 13,0 C 9,7 C 19,3 km/h (3 Bft) 100,00 %
24.04.2018 09:09 13,9 C 17,2 C 95 % 1018,0 hPa 0,0 l/m 13,3 km/h (3 Bft) W-SW 237 1 min 0,000 mm 0,8 UV-I 311 W/m 13,1 C 10,5 C 19,3 km/h (3 Bft) 96,55 %
24.04.2018 09:10 14,0 C 17,2 C 95 % 1018,0 hPa 0,0 l/m 15,0 km/h (3 Bft) W-SW 238 1 min 0,000 mm 0,9 UV-I 350 W/m 13,2 C 10,0 C 19,3 km/h (3 Bft) 100,00 %
24.04.2018 09:11 14,1 C 17,2 C 95 % 1018,1 hPa 0,0 l/m 14,2 km/h (3 Bft) SW 226 0 min 0,000 mm 0,8 UV-I 264 W/m 13,3 C 10,4 C 24,1 km/h (4 Bft) 100,00 %
24.04.2018 09:12 14,1 C 17,2 C 94 % 1018,1 hPa 0,0 l/m 20,6 km/h (4 Bft) W-SW 240 0 min 0,000 mm 0,8 UV-I 208 W/m 13,1 C 8,4 C 25,7 km/h (4 Bft) 96,55 %
24.04.2018 09:13 14,1 C 17,2 C 94 % 1018,1 hPa 0,0 l/m 14,2 km/h (3 Bft) W 269 0 min 0,000 mm 0,9 UV-I 222 W/m 13,1 C 10,4 C 20,9 km/h (4 Bft) 100,00 %
24.04.2018 09:14 14,1 C 17,2 C 93 % 1018,1 hPa 0,0 l/m 14,3 km/h (3 Bft) W-SW 246 0 min 0,000 mm 0,9 UV-I 250 W/m 13,0 C 10,3 C 19,3 km/h (3 Bft) 100,00 %
24.04.2018 09:15 14,1 C 17,2 C 94 % 1018,1 hPa 0,0 l/m 19,2 km/h (3 Bft) W-SW 242 0 min 0,000 mm 0,9 UV-I 259 W/m 13,1 C 8,8 C 25,7 km/h (4 Bft) 100,00 %
24.04.2018 09:16 14,1 C 17,2 C 94 % 1018,1 hPa 0,0 l/m 17,7 km/h (3 Bft) W-SW 254 0 min 0,000 mm 1,0 UV-I 253 W/m 13,1 C 9,2 C 24,1 km/h (4 Bft) 100,00 %
24.04.2018 09:17 14,2 C 17,2 C 94 % 1018,1 hPa 0,0 l/m 16,2 km/h (3 Bft) SW 229 0 min 0,000 mm 1,0 UV-I 237 W/m 13,2 C 9,8 C 22,5 km/h (4 Bft) 100,00 %
24.04.2018 09:18 14,2 C 17,2 C 93 % 1018,0 hPa 0,0 l/m 20,0 km/h (4 Bft) SW 233 0 min 0,000 mm 1,0 UV-I 233 W/m 13,1 C 8,7 C 24,1 km/h (4 Bft) 100,00 %
24.04.2018 09:19 14,2 C 17,2 C 93 % 1018,0 hPa 0,0 l/m 16,0 km/h (3 Bft) W-SW 238 0 min 0,000 mm 1,0 UV-I 231 W/m 13,1 C 9,9 C 25,7 km/h (4 Bft) 100,00 %
24.04.2018 09:20 14,2 C 17,2 C 93 % 1018,0 hPa 0,0 l/m 15,0 km/h (3 Bft) SW 221 0 min 0,000 mm 1,0 UV-I 191 W/m 13,1 C 10,2 C 24,1 km/h (4 Bft) 100,00 %
24.04.2018 09:21 14,2 C 17,2 C 93 % 1018,1 hPa 0,0 l/m 17,4 km/h (3 Bft) SW 217 0 min 0,000 mm 1,0 UV-I 195 W/m 13,1 C 9,4 C 24,1 km/h (4 Bft) 100,00 %
24.04.2018 09:22 14,2 C 17,2 C 93 % 1018,0 hPa 0,0 l/m 16,7 km/h (3 Bft) W-SW 245 0 min 0,000 mm 1,2 UV-I 285 W/m 13,1 C 9,7 C 19,3 km/h (3 Bft) 100,00 %
24.04.2018 09:23 14,3 C 17,2 C 93 % 1018,1 hPa 0,0 l/m 13,4 km/h (3 Bft) W-SW 249 1 min 0,000 mm 1,3 UV-I 345 W/m 13,2 C 10,9 C 19,3 km/h (3 Bft) 100,00 %
24.04.2018 09:24 14,3 C 17,2 C 93 % 1018,0 hPa 0,0 l/m 18,0 km/h (3 Bft) S-SW 196 1 min 0,000 mm 1,4 UV-I 507 W/m 13,2 C 9,4 C 24,1 km/h (4 Bft) 100,00 %
24.04.2018 09:25 14,3 C 17,2 C 93 % 1018,1 hPa 0,0 l/m 14,0 km/h (3 Bft) S-SW 212 1 min 0,000 mm 1,3 UV-I 477 W/m 13,2 C 10,7 C 17,7 km/h (3 Bft) 100,00 %
24.04.2018 09:26 14,4 C 17,2 C 93 % 1018,1 hPa 0,0 l/m 16,0 km/h (3 Bft) W-SW 240 1 min 0,000 mm 1,4 UV-I 530 W/m 13,3 C 10,1 C 22,5 km/h (4 Bft) 100,00 %
24.04.2018 09:27 14,5 C 17,2 C 93 % 1018,1 hPa 0,0 l/m 11,8 km/h (2 Bft) W 263 1 min 0,000 mm 1,4 UV-I 537 W/m 13,4 C 11,8 C 17,7 km/h (3 Bft) 100,00 %
24.04.2018 09:28 14,6 C 17,2 C 92 % 1018,1 hPa 0,0 l/m 16,2 km/h (3 Bft) W-SW 245 1 min 0,000 mm 1,3 UV-I 525 W/m 13,3 C 10,3 C 20,9 km/h (4 Bft) 100,00 %
24.04.2018 09:29 14,7 C 17,2 C 92 % 1018,1 hPa 0,0 l/m 14,4 km/h (3 Bft) SW 235 1 min 0,000 mm 1,5 UV-I 555 W/m 13,4 C 11,0 C 19,3 km/h (3 Bft) 100,00 %
24.04.2018 09:30 14,7 C 17,2 C 92 % 1018,1 hPa 0,0 l/m 13,8 km/h (3 Bft) W 259 1 min 0,000 mm 1,5 UV-I 583 W/m 13,4 C 11,2 C 17,7 km/h (3 Bft) 100,00 %
24.04.2018 09:31 14,8 C 17,2 C 92 % 1018,1 hPa 0,0 l/m 16,9 km/h (3 Bft) SW 219 1 min 0,000 mm 1,5 UV-I 626 W/m 13,5 C 10,3 C 25,7 km/h (4 Bft) 100,00 %
24.04.2018 09:32 14,8 C 17,2 C 91 % 1018,1 hPa 0,0 l/m 16,8 km/h (3 Bft) W 267 1 min 0,000 mm 1,6 UV-I 678 W/m 13,3 C 10,4 C 25,7 km/h (4 Bft) 100,00 %
24.04.2018 09:33 14,8 C 17,2 C 91 % 1018,0 hPa 0,0 l/m 11,2 km/h (2 Bft) W-SW 248 1 min 0,000 mm 1,5 UV-I 669 W/m 13,3 C 12,4 C 14,5 km/h (3 Bft) 100,00 %
24.04.2018 09:34 14,9 C 17,2 C 91 % 1018,1 hPa 0,0 l/m 11,7 km/h (2 Bft) S-SW 201 1 min 0,000 mm 1,3 UV-I 659 W/m 13,4 C 12,3 C 17,7 km/h (3 Bft) 100,00 %
24.04.2018 09:35 15,1 C 17,2 C 92 % 1018,1 hPa 0,0 l/m 11,6 km/h (2 Bft) W 261 1 min 0,000 mm 1,1 UV-I 686 W/m 13,8 C 12,5 C 22,5 km/h (4 Bft) 100,00 %
24.04.2018 09:36 15,1 C 17,2 C 91 % 1018,1 hPa 0,0 l/m 16,8 km/h (3 Bft) SW 230 1 min 0,000 mm 1,0 UV-I 338 W/m 13,6 C 10,8 C 20,9 km/h (4 Bft) 100,00 %
24.04.2018 09:37 15,1 C 17,2 C 90 % 1018,1 hPa 0,0 l/m 9,1 km/h (2 Bft) W 273 0 min 0,000 mm 1,0 UV-I 260 W/m 13,5 C 13,6 C 16,1 km/h (3 Bft) 100,00 %
24.04.2018 09:38 15,2 C 17,2 C 91 % 1018,1 hPa 0,0 l/m 9,3 km/h (2 Bft) W-SW 238 0 min 0,000 mm 1,0 UV-I 254 W/m 13,7 C 13,7 C 14,5 km/h (3 Bft) 100,00 %
24.04.2018 09:39 15,2 C 17,2 C 91 % 1018,2 hPa 0,2 l/m 14,6 km/h (3 Bft) W-SW 242 0 min 0,000 mm 1,0 UV-I 280 W/m 13,7 C 11,6 C 20,9 km/h (4 Bft) 100,00 %
24.04.2018 09:40 15,1 C 17,2 C 90 % 1018,2 hPa 0,0 l/m 19,7 km/h (3 Bft) W-SW 244 1 min 0,000 mm 1,1 UV-I 338 W/m 13,5 C 10,0 C 25,7 km/h (4 Bft) 96,30 %
24.04.2018 09:41 15,1 C 17,2 C 90 % 1018,1 hPa 0,0 l/m 13,9 km/h (3 Bft) SW 223 1 min 0,000 mm 1,2 UV-I 357 W/m 13,5 C 11,7 C 22,5 km/h (4 Bft) 94,12 %
24.04.2018 09:42 15,1 C 17,2 C 90 % 1018,1 hPa 0,0 l/m 18,1 km/h (3 Bft) W 261 1 min 0,000 mm 1,1 UV-I 357 W/m 13,5 C 10,4 C 25,7 km/h (4 Bft) 100,00 %
24.04.2018 09:43 15,1 C 17,2 C 90 % 1018,2 hPa 0,0 l/m 20,8 km/h (4 Bft) W-SW 252 1 min 0,000 mm 1,2 UV-I 357 W/m 13,5 C 9,7 C 25,7 km/h (4 Bft) 100,00 %
24.04.2018 09:44 15,1 C 17,2 C 90 % 1018,2 hPa 0,0 l/m 13,4 km/h (3 Bft) SW 222 1 min 0,000 mm 1,2 UV-I 357 W/m 13,5 C 11,9 C 24,1 km/h (4 Bft) 93,33 %
24.04.2018 09:45 15,1 C 17,2 C 90 % 1018,2 hPa 0,0 l/m 12,4 km/h (3 Bft) W-SW 250 1 min 0,000 mm 1,3 UV-I 390 W/m 13,5 C 12,2 C 19,3 km/h (3 Bft) 100,00 %
24.04.2018 09:46 15,1 C 17,2 C 90 % 1018,2 hPa 0,0 l/m 13,7 km/h (3 Bft) W-SW 257 1 min 0,000 mm 1,5 UV-I 439 W/m 13,5 C 11,8 C 20,9 km/h (4 Bft) 100,00 %
24.04.2018 09:47 15,2 C 17,2 C 90 % 1018,2 hPa 0,0 l/m 10,8 km/h (2 Bft) W-SW 244 1 min 0,000 mm 1,5 UV-I 648 W/m 13,6 C 13,0 C 14,5 km/h (3 Bft) 100,00 %
24.04.2018 09:48 15,3 C 17,2 C 90 % 1018,1 hPa 0,0 l/m 11,3 km/h (2 Bft) W-SW 240 1 min 0,000 mm 1,3 UV-I 752 W/m 13,7 C 12,9 C 20,9 km/h (4 Bft) 100,00 %
24.04.2018 09:49 15,4 C 17,2 C 90 % 1018,2 hPa 0,0 l/m 15,6 km/h (3 Bft) W-SW 241 1 min 0,000 mm 1,0 UV-I 656 W/m 13,8 C 11,5 C 25,7 km/h (4 Bft) 100,00 %
24.04.2018 09:50 15,3 C 17,2 C 89 % 1018,2 hPa 0,0 l/m 16,3 km/h (3 Bft) W 261 0 min 0,000 mm 1,1 UV-I 272 W/m 13,5 C 11,1 C 22,5 km/h (4 Bft) 100,00 %
24.04.2018 09:51 15,3 C 17,2 C 89 % 1018,1 hPa 0,0 l/m 13,7 km/h (3 Bft) W-SW 243 0 min 0,000 mm 1,1 UV-I 263 W/m 13,5 C 12,0 C 19,3 km/h (3 Bft) 92,59 %
24.04.2018 09:52 15,2 C 17,2 C 88 % 1018,1 hPa 0,0 l/m 13,4 km/h (3 Bft) S-SW 205 0 min 0,000 mm 1,2 UV-I 294 W/m 13,2 C 12,0 C 20,9 km/h (4 Bft) 100,00 %
24.04.2018 09:53 15,2 C 17,2 C 89 % 1018,1 hPa 0,0 l/m 16,0 km/h (3 Bft) SW 215 1 min 0,000 mm 1,6 UV-I 384 W/m 13,4 C 11,1 C 24,1 km/h (4 Bft) 100,00 %
24.04.2018 09:54 15,3 C 17,2 C 89 % 1018,1 hPa 0,0 l/m 17,6 km/h (3 Bft) W-SW 237 1 min 0,000 mm 1,6 UV-I 403 W/m 13,5 C 10,8 C 22,5 km/h (4 Bft) 100,00 %
24.04.2018 09:55 15,3 C 17,2 C 89 % 1018,1 hPa 0,0 l/m 15,5 km/h (3 Bft) SW 236 1 min 0,000 mm 1,8 UV-I 403 W/m 13,5 C 11,4 C 20,9 km/h (4 Bft) 100,00 %
24.04.2018 09:56 15,4 C 17,2 C 88 % 1018,1 hPa 0,0 l/m 14,8 km/h (3 Bft) SW 221 1 min 0,000 mm 1,7 UV-I 437 W/m 13,4 C 11,7 C 19,3 km/h (3 Bft) 100,00 %
24.04.2018 09:57 15,4 C 17,2 C 88 % 1018,0 hPa 0,0 l/m 16,8 km/h (3 Bft) W-SW 253 1 min 0,000 mm 1,4 UV-I 504 W/m 13,4 C 11,1 C 20,9 km/h (4 Bft) 100,00 %
24.04.2018 09:58 15,4 C 17,2 C 88 % 1018,1 hPa 0,0 l/m 15,1 km/h (3 Bft) W 270 1 min 0,000 mm 1,4 UV-I 419 W/m 13,4 C 11,6 C 19,3 km/h (3 Bft) 100,00 %
24.04.2018 09:59 15,4 C 17,2 C 88 % 1018,1 hPa 0,0 l/m 9,7 km/h (2 Bft) S-SW 206 1 min 0,000 mm 1,4 UV-I 395 W/m 13,4 C 13,7 C 16,1 km/h (3 Bft) 96,30 %
24.04.2018 10:00 15,6 C 17,2 C 89 % 1018,0 hPa 0,0 l/m 11,3 km/h (2 Bft) SW 227 1 min 0,203 mm 1,5 UV-I 414 W/m 13,8 C 13,2 C 19,3 km/h (3 Bft) 96,15 %
24.04.2018 10:02 15,6 C 17,2 C 88 % 1018,0 hPa 0,0 l/m 12,3 km/h (3 Bft) SW 227 0 min 0,000 mm 1,5 UV-I 338 W/m 13,6 C 12,8 C 22,5 km/h (4 Bft) 97,37 %
24.04.2018 10:03 15,6 C 17,2 C 88 % 1018,0 hPa 0,0 l/m 10,9 km/h (2 Bft) SW 215 1 min 0,000 mm 1,8 UV-I 392 W/m 13,6 C 13,4 C 17,7 km/h (3 Bft) 100,00 %
24.04.2018 10:04 15,7 C 17,2 C 88 % 1018,0 hPa 0,0 l/m 12,7 km/h (3 Bft) W-SW 246 1 min 0,000 mm 1,9 UV-I 392 W/m 13,7 C 12,8 C 17,7 km/h (3 Bft) 96,15 %
24.04.2018 10:05 15,7 C 17,2 C 88 % 1018,0 hPa 0,0 l/m 10,7 km/h (2 Bft) SW 223 1 min 0,000 mm 2,0 UV-I 392 W/m 13,7 C 13,6 C 16,1 km/h (3 Bft) 100,00 %
24.04.2018 10:06 15,7 C 17,2 C 88 % 1017,9 hPa 0,0 l/m 9,9 km/h (2 Bft) W-SW 250 1 min 0,000 mm 2,1 UV-I 706 W/m 13,7 C 13,9 C 17,7 km/h (3 Bft) 92,86 %
24.04.2018 10:07 15,8 C 17,2 C 88 % 1018,0 hPa 0,0 l/m 14,4 km/h (3 Bft) W-SW 254 1 min 0,000 mm 2,2 UV-I 729 W/m 13,8 C 12,4 C 20,9 km/h (4 Bft) 95,83 %
24.04.2018 10:08 15,8 C 17,2 C 87 % 1018,0 hPa 0,0 l/m 13,0 km/h (3 Bft) W-SW 248 1 min 0,000 mm 2,2 UV-I 729 W/m 13,6 C 12,8 C 16,1 km/h (3 Bft) 100,00 %
24.04.2018 10:09 15,9 C 17,2 C 86 % 1018,0 hPa 0,0 l/m 15,7 km/h (3 Bft) W 260 1 min 0,000 mm 2,2 UV-I 749 W/m 13,6 C 12,1 C 22,5 km/h (4 Bft) 95,83 %
24.04.2018 10:10 15,9 C 17,2 C 86 % 1018,0 hPa 0,0 l/m 14,6 km/h (3 Bft) W 263 1 min 0,000 mm 2,0 UV-I 734 W/m 13,6 C 12,4 C 19,3 km/h (3 Bft) 91,30 %
24.04.2018 10:11 16,0 C 17,2 C 87 % 1018,0 hPa 0,0 l/m 13,3 km/h (3 Bft) W-SW 240 1 min 0,000 mm 1,6 UV-I 721 W/m 13,8 C 13,0 C 17,7 km/h (3 Bft) 96,30 %
24.04.2018 10:13 16,0 C 17,2 C 86 % 1018,0 hPa 0,0 l/m 12,8 km/h (3 Bft) W-SW 246 2 min 0,000 mm 1,6 UV-I 619 W/m 13,7 C 13,1 C 24,1 km/h (4 Bft) 97,56 %
24.04.2018 10:14 15,9 C 17,2 C 86 % 1018,0 hPa 0,0 l/m 15,4 km/h (3 Bft) W 272 0 min 0,000 mm 1,7 UV-I 283 W/m 13,6 C 12,2 C 19,3 km/h (3 Bft) 100,00 %
24.04.2018 10:15 15,9 C 17,2 C 85 % 1018,0 hPa 0,0 l/m 7,5 km/h (2 Bft) W-SW 253 0 min 0,000 mm 1,9 UV-I 324 W/m 13,4 C 15,3 C 11,3 km/h (2 Bft) 92,86 %
24.04.2018 10:16 15,8 C 17,2 C 86 % 1018,0 hPa 0,0 l/m 8,6 km/h (2 Bft) SW 218 1 min 0,000 mm 2,0 UV-I 360 W/m 13,5 C 14,6 C 11,3 km/h (2 Bft) 96,77 %
24.04.2018 10:17 15,9 C 17,2 C 86 % 1018,0 hPa 0,0 l/m 10,3 km/h (2 Bft) W 261 1 min 0,000 mm 2,2 UV-I 360 W/m 13,6 C 14,0 C 14,5 km/h (3 Bft) 100,00 %
24.04.2018 10:18 15,9 C 17,2 C 85 % 1018,0 hPa 0,0 l/m 20,0 km/h (4 Bft) W-SW 254 1 min 0,000 mm 2,3 UV-I 763 W/m 13,4 C 10,9 C 24,1 km/h (4 Bft) 96,67 %
24.04.2018 10:19 16,0 C 17,2 C 85 % 1018,0 hPa 0,0 l/m 11,5 km/h (2 Bft) SW 224 1 min 0,000 mm 2,4 UV-I 784 W/m 13,5 C 13,6 C 16,1 km/h (3 Bft) 100,00 %
24.04.2018 10:20 16,1 C 17,2 C 85 % 1018,0 hPa 0,0 l/m 13,6 km/h (3 Bft) W-SW 242 1 min 0,000 mm 2,1 UV-I 784 W/m 13,6 C 13,0 C 17,7 km/h (3 Bft) 95,83 %
24.04.2018 10:21 16,2 C 17,2 C 84 % 1018,0 hPa 0,0 l/m 16,9 km/h (3 Bft) S-SW 209 1 min 0,000 mm 1,9 UV-I 784 W/m 13,5 C 12,1 C 25,7 km/h (4 Bft) 100,00 %
24.04.2018 10:22 16,2 C 17,2 C 84 % 1018,0 hPa 0,0 l/m 16,7 km/h (3 Bft) S-SW 201 1 min 0,000 mm 1,6 UV-I 543 W/m 13,5 C 12,1 C 20,9 km/h (4 Bft) 91,67 %
24.04.2018 10:23 16,2 C 17,2 C 84 % 1018,0 hPa 0,0 l/m 16,6 km/h (3 Bft) W 259 1 min 0,000 mm 1,8 UV-I 422 W/m 13,5 C 12,2 C 24,1 km/h (4 Bft) 96,67 %
24.04.2018 10:24 16,2 C 17,2 C 84 % 1018,0 hPa 0,0 l/m 16,3 km/h (3 Bft) SW 229 1 min 0,000 mm 1,4 UV-I 422 W/m 13,5 C 12,3 C 24,1 km/h (4 Bft) 96,15 %
24.04.2018 10:25 16,2 C 17,2 C 83 % 1018,0 hPa 0,0 l/m 12,0 km/h (2 Bft) W-SW 249 0 min 0,000 mm 0,9 UV-I 364 W/m 13,3 C 13,7 C 19,3 km/h (3 Bft) 96,15 %
24.04.2018 10:26 16,2 C 17,2 C 83 % 1018,0 hPa 0,0 l/m 12,9 km/h (3 Bft) W-SW 251 0 min 0,000 mm 1,0 UV-I 225 W/m 13,3 C 13,3 C 16,1 km/h (3 Bft) 100,00 %
24.04.2018 10:27 16,1 C 17,2 C 84 % 1018,1 hPa 0,0 l/m 11,8 km/h (2 Bft) W-SW 248 0 min 0,000 mm 1,1 UV-I 235 W/m 13,4 C 13,6 C 19,3 km/h (3 Bft) 100,00 %
24.04.2018 10:28 16,1 C 17,2 C 84 % 1018,0 hPa 0,0 l/m 18,7 km/h (3 Bft) W-SW 246 0 min 0,000 mm 1,2 UV-I 256 W/m 13,4 C 11,5 C 25,7 km/h (4 Bft) 96,88 %
24.04.2018 10:29 16,1 C 17,2 C 84 % 1018,0 hPa 0,0 l/m 11,4 km/h (2 Bft) W-SW 248 0 min 0,000 mm 1,4 UV-I 304 W/m 13,4 C 13,8 C 17,7 km/h (3 Bft) 96,30 %
24.04.2018 10:30 16,0 C 17,2 C 85 % 1018,0 hPa 0,0 l/m 14,1 km/h (3 Bft) SW 234 0 min 0,000 mm 1,4 UV-I 314 W/m 13,5 C 12,7 C 17,7 km/h (3 Bft) 100,00 %
24.04.2018 10:31 15,9 C 17,2 C 85 % 1018,0 hPa 0,0 l/m 13,9 km/h (3 Bft) W-SW 250 0 min 0,000 mm 1,8 UV-I 369 W/m 13,4 C 12,6 C 17,7 km/h (3 Bft) 97,96 %
24.04.2018 10:32 16,1 C 17,2 C 85 % 1018,0 hPa 0,0 l/m 12,6 km/h (3 Bft) W 271 0 min 0,000 mm 1,7 UV-I 369 W/m 13,6 C 13,3 C 16,1 km/h (3 Bft) 100,00 %
24.04.2018 10:33 16,2 C 17,2 C 86 % 1018,0 hPa 0,0 l/m 7,3 km/h (2 Bft) SW 232 0 min 0,000 mm 1,6 UV-I 369 W/m 13,9 C 15,7 C 11,3 km/h (2 Bft) 100,00 %
24.04.2018 10:34 16,3 C 17,2 C 86 % 1018,1 hPa 0,0 l/m 9,7 km/h (2 Bft) W-SW 241 0 min 0,000 mm 1,3 UV-I 369 W/m 14,0 C 14,7 C 20,9 km/h (4 Bft) 100,00 %
24.04.2018 10:35 16,4 C 17,2 C 85 % 1018,0 hPa 0,0 l/m 16,4 km/h (3 Bft) W-SW 241 0 min 0,000 mm 1,1 UV-I 264 W/m 13,9 C 12,5 C 24,1 km/h (4 Bft) 100,00 %
24.04.2018 10:36 16,3 C 17,2 C 84 % 1018,0 hPa 0,0 l/m 17,7 km/h (3 Bft) SW 217 0 min 0,000 mm 1,1 UV-I 248 W/m 13,6 C 12,0 C 25,7 km/h (4 Bft) 100,00 %
24.04.2018 10:37 16,2 C 17,2 C 84 % 1018,0 hPa 0,0 l/m 14,5 km/h (3 Bft) SW 232 0 min 0,000 mm 0,9 UV-I 225 W/m 13,5 C 12,8 C 19,3 km/h (3 Bft) 100,00 %
24.04.2018 10:38 16,2 C 17,2 C 84 % 1018,0 hPa 0,0 l/m 16,9 km/h (3 Bft) W-SW 237 0 min 0,000 mm 0,8 UV-I 198 W/m 13,5 C 12,1 C 22,5 km/h (4 Bft) 95,65 %
24.04.2018 10:39 16,1 C 17,2 C 82 % 1018,0 hPa 0,0 l/m 14,7 km/h (3 Bft) S-SW 210 0 min 0,000 mm 0,7 UV-I 170 W/m 13,0 C 12,6 C 20,9 km/h (4 Bft) 100,00 %
24.04.2018 10:40 15,9 C 17,2 C 83 % 1018,1 hPa 0,0 l/m 11,7 km/h (2 Bft) SW 232 0 min 0,000 mm 0,6 UV-I 157 W/m 13,0 C 13,4 C 19,3 km/h (3 Bft) 98,00 %
24.04.2018 10:41 15,9 C 17,2 C 83 % 1018,1 hPa 0,0 l/m 9,0 km/h (2 Bft) W-SW 254 0 min 0,000 mm 0,6 UV-I 141 W/m 13,0 C 14,6 C 14,5 km/h (3 Bft) 97,56 %
24.04.2018 10:42 15,8 C 17,2 C 84 % 1018,1 hPa 0,0 l/m 17,0 km/h (3 Bft) W-SW 252 0 min 0,000 mm 0,5 UV-I 114 W/m 13,1 C 11,6 C 22,5 km/h (4 Bft) 100,00 %
24.04.2018 10:43 15,7 C 17,2 C 84 % 1018,1 hPa 0,0 l/m 13,5 km/h (3 Bft) SW 232 0 min 0,000 mm 0,0 UV-I 90 W/m 13,0 C 12,5 C 19,3 km/h (3 Bft) 100,00 %
24.04.2018 10:44 15,7 C 17,2 C 84 % 1018,1 hPa 0,0 l/m 15,9 km/h (3 Bft) SW 225 0 min 0,000 mm 0,0 UV-I 85 W/m 13,0 C 11,8 C 20,9 km/h (4 Bft) 100,00 %
24.04.2018 10:45 15,6 C 17,2 C 85 % 1018,1 hPa 0,0 l/m 12,0 km/h (2 Bft) W-SW 243 0 min 0,000 mm 0,3 UV-I 96 W/m 13,1 C 13,0 C 16,1 km/h (3 Bft) 100,00 %
24.04.2018 10:46 15,6 C 17,2 C 85 % 1018,2 hPa 0,0 l/m 12,7 km/h (3 Bft) W-SW 244 0 min 0,000 mm 0,5 UV-I 112 W/m 13,1 C 12,7 C 16,1 km/h (3 Bft) 100,00 %
24.04.2018 10:47 15,5 C 17,2 C 85 % 1018,2 hPa 0,0 l/m 20,5 km/h (4 Bft) W-SW 243 0 min 0,000 mm 0,5 UV-I 108 W/m 13,0 C 10,3 C 24,1 km/h (4 Bft) 100,00 %
24.04.2018 10:48 15,5 C 17,2 C 85 % 1018,2 hPa 0,0 l/m 20,1 km/h (4 Bft) W 261 0 min 0,000 mm 0,0 UV-I 98 W/m 13,0 C 10,4 C 27,4 km/h (4 Bft) 100,00 %
24.04.2018 10:49 15,4 C 17,2 C 85 % 1018,2 hPa 0,0 l/m 16,8 km/h (3 Bft) W 264 0 min 0,000 mm 0,0 UV-I 91 W/m 12,9 C 11,1 C 22,5 km/h (4 Bft) 91,67 %
24.04.2018 10:50 15,4 C 17,2 C 85 % 1018,2 hPa 0,0 l/m 9,9 km/h (2 Bft) S-SW 211 0 min 0,000 mm 0,0 UV-I 91 W/m 12,9 C 13,6 C 14,5 km/h (3 Bft) 96,67 %
24.04.2018 10:51 15,4 C 17,2 C 84 % 1018,2 hPa 0,0 l/m 17,2 km/h (3 Bft) SW 229 0 min 0,000 mm 0,2 UV-I 102 W/m 12,7 C 11,0 C 22,5 km/h (4 Bft) 100,00 %
24.04.2018 10:52 15,3 C 17,2 C 85 % 1018,2 hPa 0,0 l/m 15,5 km/h (3 Bft) W-SW 255 0 min 0,000 mm 0,6 UV-I 123 W/m 12,8 C 11,4 C 22,5 km/h (4 Bft) 100,00 %
24.04.2018 10:53 15,3 C 17,2 C 85 % 1018,2 hPa 0,0 l/m 12,7 km/h (3 Bft) W-SW 257 0 min 0,000 mm 0,7 UV-I 140 W/m 12,8 C 12,4 C 17,7 km/h (3 Bft) 100,00 %
24.04.2018 10:54 15,3 C 17,2 C 85 % 1018,2 hPa 0,0 l/m 18,1 km/h (3 Bft) W 277 0 min 0,000 mm 0,7 UV-I 146 W/m 12,8 C 10,6 C 25,7 km/h (4 Bft) 100,00 %
24.04.2018 10:55 15,3 C 17,2 C 85 % 1018,3 hPa 0,0 l/m 15,5 km/h (3 Bft) SW 236 0 min 0,000 mm 0,7 UV-I 144 W/m 12,8 C 11,4 C 25,7 km/h (4 Bft) 96,55 %
24.04.2018 10:56 15,3 C 17,2 C 85 % 1018,3 hPa 0,0 l/m 16,2 km/h (3 Bft) W-SW 244 0 min 0,000 mm 0,6 UV-I 134 W/m 12,8 C 11,2 C 19,3 km/h (3 Bft) 100,00 %
24.04.2018 10:57 15,3 C 17,2 C 85 % 1018,3 hPa 0,0 l/m 15,9 km/h (3 Bft) SW 214 0 min 0,000 mm 0,6 UV-I 136 W/m 12,8 C 11,3 C 24,1 km/h (4 Bft) 100,00 %
24.04.2018 10:58 15,3 C 17,2 C 85 % 1018,3 hPa 0,0 l/m 15,1 km/h (3 Bft) SW 219 0 min 0,000 mm 0,7 UV-I 143 W/m 12,8 C 11,5 C 20,9 km/h (4 Bft) 100,00 %
24.04.2018 10:59 15,3 C 17,2 C 85 % 1018,2 hPa 0,0 l/m 15,6 km/h (3 Bft) SW 221 0 min 0,000 mm 0,7 UV-I 154 W/m 12,8 C 11,4 C 20,9 km/h (4 Bft) 100,00 %
24.04.2018 11:00 15,3 C 17,2 C 84 % 1018,2 hPa 0,0 l/m 14,9 km/h (3 Bft) W-SW 244 0 min 0,204 mm 0,7 UV-I 157 W/m 12,6 C 11,6 C 20,9 km/h (4 Bft) 100,00 %
24.04.2018 11:01 15,3 C 17,2 C 85 % 1018,2 hPa 0,0 l/m 17,3 km/h (3 Bft) W 268 0 min 0,000 mm 0,8 UV-I 164 W/m 12,8 C 10,9 C 22,5 km/h (4 Bft) 100,00 %
24.04.2018 11:02 15,4 C 17,2 C 85 % 1018,2 hPa 0,0 l/m 11,8 km/h (2 Bft) W-SW 252 0 min 0,000 mm 0,9 UV-I 180 W/m 12,9 C 12,8 C 16,1 km/h (3 Bft) 100,00 %
24.04.2018 11:03 15,4 C 17,2 C 85 % 1018,3 hPa 0,0 l/m 14,2 km/h (3 Bft) W 263 0 min 0,000 mm 1,1 UV-I 208 W/m 12,9 C 11,9 C 19,3 km/h (3 Bft) 100,00 %
24.04.2018 11:04 15,4 C 17,2 C 85 % 1018,3 hPa 0,0 l/m 15,0 km/h (3 Bft) SW 235 0 min 0,000 mm 1,4 UV-I 242 W/m 12,9 C 11,7 C 20,9 km/h (4 Bft) 100,00 %
24.04.2018 11:05 15,5 C 17,2 C 85 % 1018,3 hPa 0,0 l/m 15,5 km/h (3 Bft) W-SW 244 0 min 0,000 mm 1,7 UV-I 278 W/m 13,0 C 11,6 C 17,7 km/h (3 Bft) 100,00 %
24.04.2018 11:06 15,5 C 17,2 C 85 % 1018,3 hPa 0,0 l/m 16,0 km/h (3 Bft) W-SW 248 0 min 0,000 mm 1,8 UV-I 285 W/m 13,0 C 11,5 C 22,5 km/h (4 Bft) 95,65 %
24.04.2018 11:07 15,6 C 17,2 C 85 % 1018,3 hPa 0,0 l/m 9,6 km/h (2 Bft) W 263 0 min 0,000 mm 1,9 UV-I 296 W/m 13,1 C 14,0 C 14,5 km/h (3 Bft) 96,30 %
24.04.2018 11:08 15,6 C 17,2 C 85 % 1018,3 hPa 0,0 l/m 11,0 km/h (2 Bft) SW 231 0 min 0,000 mm 2,4 UV-I 294 W/m 13,1 C 13,4 C 16,1 km/h (3 Bft) 100,00 %
24.04.2018 11:09 15,8 C 17,2 C 86 % 1018,3 hPa 0,0 l/m 11,5 km/h (2 Bft) W-SW 242 0 min 0,000 mm 2,7 UV-I 294 W/m 13,5 C 13,4 C 16,1 km/h (3 Bft) 100,00 %
24.04.2018 11:10 15,9 C 17,2 C 85 % 1018,2 hPa 0,0 l/m 13,3 km/h (3 Bft) SW 230 0 min 0,000 mm 3,1 UV-I 318 W/m 13,4 C 12,8 C 20,9 km/h (4 Bft) 100,00 %
24.04.2018 11:11 16,1 C 17,2 C 85 % 1018,2 hPa 0,0 l/m 13,4 km/h (3 Bft) W-SW 252 1 min 0,000 mm 3,1 UV-I 879 W/m 13,6 C 13,0 C 19,3 km/h (3 Bft) 100,00 %
24.04.2018 11:12 16,3 C 17,2 C 86 % 1018,2 hPa 0,0 l/m 13,1 km/h (3 Bft) W 269 1 min 0,000 mm 3,0 UV-I 879 W/m 14,0 C 13,4 C 17,7 km/h (3 Bft) 100,00 %
24.04.2018 11:13 16,4 C 17,2 C 84 % 1018,2 hPa 0,0 l/m 13,3 km/h (3 Bft) W 263 1 min 0,000 mm 2,3 UV-I 879 W/m 13,7 C 13,4 C 19,3 km/h (3 Bft) 100,00 %
24.04.2018 11:14 16,6 C 17,2 C 83 % 1018,2 hPa 0,0 l/m 12,4 km/h (3 Bft) SW 233 0 min 0,000 mm 1,9 UV-I 333 W/m 13,7 C 14,0 C 16,1 km/h (3 Bft) 96,55 %
24.04.2018 11:15 16,6 C 17,2 C 83 % 1018,2 hPa 0,0 l/m 14,5 km/h (3 Bft) W-SW 249 0 min 0,000 mm 1,7 UV-I 276 W/m 13,7 C 13,3 C 22,5 km/h (4 Bft) 100,00 %
24.04.2018 11:16 16,5 C 17,2 C 81 % 1018,2 hPa 0,0 l/m 14,8 km/h (3 Bft) W-SW 246 0 min 0,000 mm 1,6 UV-I 264 W/m 13,2 C 13,1 C 20,9 km/h (4 Bft) 100,00 %
24.04.2018 11:17 16,4 C 17,2 C 82 % 1018,2 hPa 0,0 l/m 10,9 km/h (2 Bft) SW 226 0 min 0,000 mm 1,5 UV-I 241 W/m 13,3 C 14,3 C 12,9 km/h (3 Bft) 100,00 %
24.04.2018 11:18 16,4 C 17,2 C 82 % 1018,2 hPa 0,0 l/m 12,2 km/h (2 Bft) SW 217 0 min 0,000 mm 1,4 UV-I 228 W/m 13,3 C 13,8 C 20,9 km/h (4 Bft) 100,00 %
24.04.2018 11:19 16,3 C 17,2 C 82 % 1018,3 hPa 0,0 l/m 15,0 km/h (3 Bft) W-SW 238 0 min 0,000 mm 1,3 UV-I 225 W/m 13,2 C 12,8 C 20,9 km/h (4 Bft) 95,83 %
24.04.2018 11:20 16,3 C 17,2 C 81 % 1018,2 hPa 0,0 l/m 18,3 km/h (3 Bft) SW 236 0 min 0,000 mm 1,5 UV-I 248 W/m 13,0 C 11,8 C 24,1 km/h (4 Bft) 100,00 %
24.04.2018 11:21 16,2 C 17,2 C 81 % 1018,2 hPa 0,0 l/m 14,3 km/h (3 Bft) W-SW 248 0 min 0,000 mm 1,5 UV-I 252 W/m 12,9 C 12,9 C 20,9 km/h (4 Bft) 100,00 %
24.04.2018 11:22 16,2 C 17,2 C 82 % 1018,2 hPa 0,0 l/m 13,7 km/h (3 Bft) W 261 0 min 0,000 mm 1,4 UV-I 220 W/m 13,1 C 13,1 C 17,7 km/h (3 Bft) 100,00 %
24.04.2018 11:23 16,1 C 17,2 C 82 % 1018,2 hPa 0,0 l/m 9,2 km/h (2 Bft) W 263 0 min 0,000 mm 1,3 UV-I 206 W/m 13,0 C 14,7 C 14,5 km/h (3 Bft) 96,67 %
24.04.2018 11:24 16,1 C 17,2 C 82 % 1018,2 hPa 0,0 l/m 11,9 km/h (2 Bft) W 263 0 min 0,000 mm 1,2 UV-I 190 W/m 13,0 C 13,6 C 16,1 km/h (3 Bft) 96,55 %
24.04.2018 11:25 16,0 C 17,2 C 82 % 1018,2 hPa 0,0 l/m 14,2 km/h (3 Bft) W-SW 248 0 min 0,000 mm 1,2 UV-I 189 W/m 12,9 C 12,7 C 17,7 km/h (3 Bft) 91,67 %
24.04.2018 11:26 16,0 C 17,2 C 83 % 1018,2 hPa 0,0 l/m 8,0 km/h (2 Bft) SW 219 0 min 0,000 mm 1,6 UV-I 225 W/m 13,1 C 15,2 C 11,3 km/h (2 Bft) 96,30 %
24.04.2018 11:27 16,0 C 17,2 C 83 % 1018,2 hPa 0,0 l/m 8,4 km/h (2 Bft) SW 221 0 min 0,000 mm 2,0 UV-I 320 W/m 13,1 C 15,0 C 16,1 km/h (3 Bft) 100,00 %
24.04.2018 11:28 16,1 C 17,2 C 83 % 1018,1 hPa 0,0 l/m 12,1 km/h (2 Bft) W 259 1 min 0,000 mm 3,0 UV-I 425 W/m 13,2 C 13,5 C 19,3 km/h (3 Bft) 97,56 %
24.04.2018 11:29 16,2 C 17,2 C 83 % 1018,1 hPa 0,0 l/m 14,2 km/h (3 Bft) SW 216 1 min 0,000 mm 3,0 UV-I 921 W/m 13,3 C 12,9 C 19,3 km/h (3 Bft) 100,00 %
24.04.2018 11:30 16,3 C 17,2 C 82 % 1018,2 hPa 0,0 l/m 13,5 km/h (3 Bft) W-SW 242 1 min 0,000 mm 2,2 UV-I 666 W/m 13,2 C 13,2 C 19,3 km/h (3 Bft) 96,30 %
24.04.2018 11:31 16,3 C 17,2 C 81 % 1018,2 hPa 0,0 l/m 14,9 km/h (3 Bft) S-SW 198 0 min 0,000 mm 2,3 UV-I 310 W/m 13,0 C 12,8 C 20,9 km/h (4 Bft) 100,00 %
24.04.2018 11:32 16,4 C 17,2 C 81 % 1018,1 hPa 0,0 l/m 15,4 km/h (3 Bft) SW 214 0 min 0,000 mm 2,9 UV-I 311 W/m 13,1 C 12,8 C 22,5 km/h (4 Bft) 100,00 %
24.04.2018 11:33 16,4 C 17,2 C 81 % 1018,1 hPa 0,0 l/m 17,7 km/h (3 Bft) SW 219 1 min 0,000 mm 3,2 UV-I 681 W/m 13,1 C 12,1 C 22,5 km/h (4 Bft) 100,00 %
24.04.2018 11:34 16,4 C 17,2 C 82 % 1018,1 hPa 0,0 l/m 16,2 km/h (3 Bft) S 188 1 min 0,000 mm 3,4 UV-I 784 W/m 13,3 C 12,5 C 20,9 km/h (4 Bft) 95,83 %
24.04.2018 11:35 16,6 C 17,2 C 83 % 1018,1 hPa 0,0 l/m 10,3 km/h (2 Bft) W-SW 254 1 min 0,000 mm 3,5 UV-I 783 W/m 13,7 C 14,8 C 16,1 km/h (3 Bft) 100,00 %
24.04.2018 11:36 16,8 C 17,2 C 83 % 1018,0 hPa 0,0 l/m 11,0 km/h (2 Bft) S-SW 200 1 min 0,000 mm 3,5 UV-I 775 W/m 13,9 C 14,7 C 16,1 km/h (3 Bft) 93,33 %
24.04.2018 11:37 16,8 C 17,2 C 80 % 1018,0 hPa 0,0 l/m 13,9 km/h (3 Bft) SW 226 1 min 0,000 mm 3,5 UV-I 778 W/m 13,3 C 13,7 C 19,3 km/h (3 Bft) 100,00 %
24.04.2018 11:38 16,8 C 17,2 C 82 % 1018,0 hPa 0,0 l/m 11,1 km/h (2 Bft) SW 224 1 min 0,000 mm 3,5 UV-I 783 W/m 13,7 C 14,7 C 20,9 km/h (4 Bft) 100,00 %
24.04.2018 11:39 16,9 C 17,2 C 83 % 1018,0 hPa 0,0 l/m 13,4 km/h (3 Bft) W-SW 252 1 min 0,000 mm 3,5 UV-I 784 W/m 14,0 C 14,0 C 19,3 km/h (3 Bft) 94,12 %
24.04.2018 11:40 17,1 C 17,2 C 83 % 1018,0 hPa 0,0 l/m 15,4 km/h (3 Bft) W-SW 250 1 min 0,000 mm 3,5 UV-I 781 W/m 14,2 C 13,6 C 17,7 km/h (3 Bft) 96,30 %
24.04.2018 11:41 17,2 C 17,2 C 82 % 1018,0 hPa 0,0 l/m 16,2 km/h (3 Bft) SW 215 1 min 0,000 mm 3,5 UV-I 785 W/m 14,1 C 13,5 C 25,7 km/h (4 Bft) 96,15 %
24.04.2018 11:42 17,1 C 17,2 C 80 % 1017,9 hPa 0,0 l/m 12,5 km/h (3 Bft) S-SW 212 1 min 0,000 mm 3,5 UV-I 783 W/m 13,6 C 14,5 C 20,9 km/h (4 Bft) 100,00 %
24.04.2018 11:43 17,1 C 17,2 C 81 % 1017,9 hPa 0,0 l/m 10,4 km/h (2 Bft) W-SW 239 1 min 0,000 mm 3,5 UV-I 782 W/m 13,8 C 15,3 C 12,9 km/h (3 Bft) 93,33 %
24.04.2018 11:44 17,2 C 17,2 C 82 % 1017,9 hPa 0,0 l/m 13,5 km/h (3 Bft) W-SW 244 1 min 0,000 mm 3,5 UV-I 782 W/m 14,1 C 14,3 C 17,7 km/h (3 Bft) 100,00 %
24.04.2018 11:45 17,2 C 17,2 C 79 % 1017,9 hPa 0,0 l/m 14,8 km/h (3 Bft) W-SW 254 1 min 0,000 mm 3,6 UV-I 816 W/m 13,5 C 13,9 C 19,3 km/h (3 Bft) 95,83 %
24.04.2018 11:46 17,2 C 17,2 C 79 % 1017,9 hPa 0,0 l/m 16,2 km/h (3 Bft) W-SW 252 1 min 0,000 mm 3,3 UV-I 821 W/m 13,5 C 13,5 C 19,3 km/h (3 Bft) 100,00 %
24.04.2018 11:47 17,1 C 17,2 C 78 % 1017,9 hPa 0,0 l/m 12,6 km/h (3 Bft) W-NW 282 1 min 0,000 mm 3,6 UV-I 818 W/m 13,2 C 14,5 C 16,1 km/h (3 Bft) 96,30 %
24.04.2018 11:48 17,1 C 17,2 C 79 % 1017,9 hPa 0,0 l/m 9,7 km/h (2 Bft) W-SW 250 1 min 0,000 mm 3,7 UV-I 815 W/m 13,4 C 15,6 C 16,1 km/h (3 Bft) 95,65 %
24.04.2018 11:49 17,2 C 17,2 C 80 % 1017,9 hPa 0,0 l/m 9,0 km/h (2 Bft) W 275 1 min 0,000 mm 3,7 UV-I 816 W/m 13,7 C 16,0 C 16,1 km/h (3 Bft) 100,00 %
24.04.2018 11:50 17,3 C 17,2 C 79 % 1017,9 hPa 0,0 l/m 10,8 km/h (2 Bft) S-SW 211 1 min 0,000 mm 3,7 UV-I 816 W/m 13,6 C 15,4 C 17,7 km/h (3 Bft) 96,15 %
24.04.2018 11:51 17,4 C 17,2 C 79 % 1017,9 hPa 0,0 l/m 12,3 km/h (3 Bft) S-SW 207 1 min 0,000 mm 3,7 UV-I 819 W/m 13,7 C 14,9 C 16,1 km/h (3 Bft) 95,83 %
24.04.2018 11:52 17,4 C 17,2 C 78 % 1017,9 hPa 0,0 l/m 9,9 km/h (2 Bft) S-SW 202 1 min 0,000 mm 3,7 UV-I 827 W/m 13,5 C 15,8 C 16,1 km/h (3 Bft) 93,10 %
24.04.2018 11:53 17,4 C 17,8 C 78 % 1017,9 hPa 0,0 l/m 11,0 km/h (2 Bft) S-SW 207 1 min 0,000 mm 3,6 UV-I 831 W/m 13,5 C 15,4 C 14,5 km/h (3 Bft) 95,83 %
24.04.2018 11:54 17,4 C 17,8 C 78 % 1017,9 hPa 0,0 l/m 11,8 km/h (2 Bft) W-SW 248 1 min 0,000 mm 2,7 UV-I 831 W/m 13,5 C 15,1 C 16,1 km/h (3 Bft) 92,86 %
24.04.2018 11:55 17,4 C 17,8 C 78 % 1017,8 hPa 0,0 l/m 13,6 km/h (3 Bft) SW 227 1 min 0,000 mm 3,6 UV-I 828 W/m 13,5 C 14,5 C 17,7 km/h (3 Bft) 96,30 %
24.04.2018 11:56 17,5 C 17,8 C 78 % 1017,8 hPa 0,0 l/m 12,2 km/h (2 Bft) S-SW 210 1 min 0,000 mm 3,7 UV-I 824 W/m 13,6 C 15,1 C 17,7 km/h (3 Bft) 96,15 %
24.04.2018 11:57 17,5 C 17,8 C 76 % 1017,7 hPa 0,0 l/m 14,7 km/h (3 Bft) W-SW 238 1 min 0,000 mm 3,6 UV-I 824 W/m 13,2 C 14,3 C 22,5 km/h (4 Bft) 93,33 %
24.04.2018 11:58 17,4 C 17,8 C 75 % 1017,8 hPa 0,0 l/m 17,9 km/h (3 Bft) S-SW 210 1 min 0,000 mm 3,6 UV-I 841 W/m 12,9 C 13,3 C 22,5 km/h (4 Bft) 96,30 %
24.04.2018 11:59 17,4 C 17,8 C 76 % 1017,8 hPa 0,0 l/m 17,3 km/h (3 Bft) W-SW 242 1 min 0,000 mm 3,7 UV-I 851 W/m 13,1 C 13,5 C 19,3 km/h (3 Bft) 96,15 %
24.04.2018 12:00 17,4 C 17,8 C 74 % 1017,7 hPa 0,0 l/m 13,6 km/h (3 Bft) S 184 1 min 0,330 mm 2,5 UV-I 851 W/m 12,7 C 14,5 C 19,3 km/h (3 Bft) 93,10 %
24.04.2018 12:02 17,2 C 17,8 C 76 % 1017,7 hPa 0,0 l/m 9,1 km/h (2 Bft) W-SW 257 2 min 0,000 mm 2,5 UV-I 633 W/m 12,9 C 15,9 C 16,1 km/h (3 Bft) 94,87 %
24.04.2018 12:03 17,2 C 17,8 C 78 % 1017,7 hPa 0,0 l/m 15,5 km/h (3 Bft) W-SW 246 0 min 0,000 mm 3,3 UV-I 364 W/m 13,3 C 13,7 C 20,9 km/h (4 Bft) 96,88 %
24.04.2018 12:04 17,3 C 17,8 C 78 % 1017,7 hPa 0,0 l/m 11,9 km/h (2 Bft) SW 219 1 min 0,000 mm 3,8 UV-I 928 W/m 13,4 C 15,0 C 17,7 km/h (3 Bft) 91,67 %
24.04.2018 12:05 17,3 C 17,8 C 77 % 1017,7 hPa 0,0 l/m 11,5 km/h (2 Bft) SW 216 1 min 0,000 mm 2,6 UV-I 928 W/m 13,2 C 15,1 C 17,7 km/h (3 Bft) 97,14 %
24.04.2018 12:06 17,2 C 17,8 C 78 % 1017,7 hPa 0,0 l/m 11,6 km/h (2 Bft) S-SW 209 1 min 0,000 mm 2,9 UV-I 928 W/m 13,3 C 14,9 C 16,1 km/h (3 Bft) 91,67 %
24.04.2018 12:07 17,2 C 17,8 C 78 % 1017,7 hPa 0,0 l/m 9,1 km/h (2 Bft) SW 214 1 min 0,000 mm 3,4 UV-I 928 W/m 13,3 C 15,9 C 11,3 km/h (2 Bft) 93,10 %
24.04.2018 12:08 17,2 C 17,8 C 76 % 1017,6 hPa 0,0 l/m 8,2 km/h (2 Bft) W-SW 244 1 min 0,000 mm 3,4 UV-I 962 W/m 12,9 C 16,3 C 16,1 km/h (3 Bft) 96,30 %
24.04.2018 12:09 17,3 C 17,8 C 78 % 1017,6 hPa 0,0 l/m 16,3 km/h (3 Bft) W 271 1 min 0,000 mm 3,8 UV-I 938 W/m 13,4 C 13,6 C 19,3 km/h (3 Bft) 94,12 %
24.04.2018 12:10 17,5 C 17,8 C 77 % 1017,6 hPa 0,0 l/m 12,5 km/h (3 Bft) S-SW 209 1 min 0,000 mm 3,8 UV-I 901 W/m 13,4 C 15,0 C 19,3 km/h (3 Bft) 96,30 %
24.04.2018 12:11 17,7 C 17,8 C 79 % 1017,6 hPa 0,0 l/m 13,6 km/h (3 Bft) S-SW 205 1 min 0,000 mm 3,8 UV-I 871 W/m 14,0 C 14,9 C 17,7 km/h (3 Bft) 89,66 %
24.04.2018 12:12 17,6 C 17,8 C 76 % 1017,6 hPa 0,0 l/m 13,2 km/h (3 Bft) SW 228 1 min 0,000 mm 3,8 UV-I 898 W/m 13,3 C 14,9 C 17,7 km/h (3 Bft) 100,00 %
24.04.2018 12:13 17,7 C 17,8 C 79 % 1017,6 hPa 0,0 l/m 11,8 km/h (2 Bft) SW 229 1 min 0,000 mm 4,0 UV-I 902 W/m 14,0 C 15,4 C 19,3 km/h (3 Bft) 92,31 %
24.04.2018 12:14 17,8 C 17,8 C 77 % 1017,6 hPa 0,0 l/m 14,2 km/h (3 Bft) SW 223 1 min 0,000 mm 3,9 UV-I 847 W/m 13,7 C 14,8 C 20,9 km/h (4 Bft) 95,83 %
24.04.2018 12:15 17,8 C 17,8 C 75 % 1017,6 hPa 0,0 l/m 11,9 km/h (2 Bft) SW 224 1 min 0,000 mm 3,6 UV-I 837 W/m 13,3 C 15,5 C 20,9 km/h (4 Bft) 96,15 %
24.04.2018 12:16 17,8 C 17,8 C 75 % 1017,6 hPa 0,0 l/m 9,5 km/h (2 Bft) W 268 1 min 0,000 mm 2,6 UV-I 765 W/m 13,3 C 16,4 C 12,9 km/h (3 Bft) 92,59 %
24.04.2018 12:17 17,8 C 17,8 C 74 % 1017,6 hPa 0,0 l/m 7,1 km/h (2 Bft) S-SW 211 0 min 0,000 mm 2,6 UV-I 368 W/m 13,1 C 17,5 C 12,9 km/h (3 Bft) 100,00 %
24.04.2018 12:18 17,8 C 17,8 C 74 % 1017,6 hPa 0,0 l/m 14,5 km/h (3 Bft) SW 231 0 min 0,000 mm 2,7 UV-I 426 W/m 13,1 C 14,7 C 24,1 km/h (4 Bft) 92,31 %
24.04.2018 12:19 17,8 C 17,8 C 73 % 1017,5 hPa 0,0 l/m 17,4 km/h (3 Bft) W-SW 237 1 min 0,000 mm 3,4 UV-I 505 W/m 12,9 C 14,0 C 25,7 km/h (4 Bft) 95,83 %
24.04.2018 12:20 17,7 C 17,8 C 73 % 1017,5 hPa 0,0 l/m 18,2 km/h (3 Bft) W-SW 241 1 min 0,000 mm 4,2 UV-I 527 W/m 12,8 C 13,6 C 24,1 km/h (4 Bft) 92,31 %
24.04.2018 12:21 17,7 C 17,8 C 73 % 1017,6 hPa 0,0 l/m 13,9 km/h (3 Bft) W-SW 256 1 min 0,000 mm 3,3 UV-I 506 W/m 12,8 C 14,8 C 19,3 km/h (3 Bft) 100,00 %
24.04.2018 12:22 17,7 C 17,8 C 73 % 1017,5 hPa 0,0 l/m 12,1 km/h (2 Bft) NW 317 1 min 0,000 mm 3,9 UV-I 626 W/m 12,8 C 15,3 C 14,5 km/h (3 Bft) 91,30 %
24.04.2018 12:23 17,8 C 17,8 C 74 % 1017,5 hPa 0,0 l/m 9,5 km/h (2 Bft) SW 232 1 min 0,000 mm 4,0 UV-I 940 W/m 13,1 C 16,4 C 17,7 km/h (3 Bft) 100,00 %
24.04.2018 12:24 17,9 C 17,8 C 75 % 1017,5 hPa 0,0 l/m 15,7 km/h (3 Bft) SW 226 1 min 0,000 mm 4,1 UV-I 970 W/m 13,4 C 14,5 C 22,5 km/h (4 Bft) 91,30 %
24.04.2018 12:25 18,1 C 17,8 C 72 % 1017,5 hPa 0,0 l/m 11,2 km/h (2 Bft) W-SW 256 1 min 0,000 mm 4,2 UV-I 968 W/m 13,0 C 16,1 C 17,7 km/h (3 Bft) 100,00 %
24.04.2018 12:26 18,3 C 17,8 C 75 % 1017,5 hPa 0,0 l/m 15,8 km/h (3 Bft) SW 231 1 min 0,000 mm 4,3 UV-I 976 W/m 13,8 C 15,0 C 24,1 km/h (4 Bft) 93,55 %
24.04.2018 12:27 18,4 C 17,8 C 73 % 1017,5 hPa 0,0 l/m 15,8 km/h (3 Bft) SW 223 1 min 0,000 mm 4,2 UV-I 984 W/m 13,5 C 15,1 C 20,9 km/h (4 Bft) 96,67 %
24.04.2018 12:28 18,5 C 17,8 C 71 % 1017,5 hPa 0,0 l/m 16,3 km/h (3 Bft) W-SW 256 1 min 0,000 mm 4,2 UV-I 1034 W/m 13,1 C 15,1 C 20,9 km/h (4 Bft) 100,00 %
24.04.2018 12:29 18,4 C 17,8 C 69 % 1017,5 hPa 0,0 l/m 11,7 km/h (2 Bft) W-SW 252 1 min 0,000 mm 3,7 UV-I 1083 W/m 12,6 C 16,3 C 16,1 km/h (3 Bft) 96,30 %
24.04.2018 12:30 18,3 C 17,8 C 70 % 1017,5 hPa 0,0 l/m 9,3 km/h (2 Bft) SW 225 1 min 0,000 mm 2,6 UV-I 744 W/m 12,7 C 17,0 C 12,9 km/h (3 Bft) 100,00 %
24.04.2018 12:31 18,2 C 17,8 C 72 % 1017,5 hPa 0,0 l/m 9,7 km/h (2 Bft) W-SW 243 0 min 0,000 mm 3,4 UV-I 406 W/m 13,1 C 16,8 C 12,9 km/h (3 Bft) 93,33 %
24.04.2018 12:32 18,2 C 17,8 C 71 % 1017,4 hPa 0,0 l/m 9,7 km/h (2 Bft) SW 229 1 min 0,000 mm 4,1 UV-I 940 W/m 12,9 C 16,8 C 12,9 km/h (3 Bft) 100,00 %
24.04.2018 12:33 18,3 C 17,8 C 73 % 1017,4 hPa 0,0 l/m 10,7 km/h (2 Bft) SW 221 1 min 0,000 mm 4,3 UV-I 988 W/m 13,4 C 16,5 C 19,3 km/h (3 Bft) 91,67 %
24.04.2018 12:34 18,4 C 17,8 C 73 % 1017,4 hPa 0,0 l/m 10,7 km/h (2 Bft) SW 217 1 min 0,000 mm 4,3 UV-I 957 W/m 13,5 C 16,6 C 17,7 km/h (3 Bft) 100,00 %
24.04.2018 12:35 18,6 C 17,8 C 72 % 1017,4 hPa 0,0 l/m 9,4 km/h (2 Bft) W-SW 237 1 min 0,000 mm 4,3 UV-I 948 W/m 13,4 C 17,3 C 14,5 km/h (3 Bft) 91,67 %
24.04.2018 12:36 18,6 C 17,8 C 72 % 1017,3 hPa 0,0 l/m 12,4 km/h (3 Bft) S-SW 197 1 min 0,000 mm 4,3 UV-I 964 W/m 13,4 C 16,3 C 17,7 km/h (3 Bft) 95,65 %
24.04.2018 12:37 18,6 C 17,8 C 71 % 1017,3 hPa 0,0 l/m 12,7 km/h (3 Bft) S 172 1 min 0,000 mm 4,4 UV-I 994 W/m 13,2 C 16,2 C 16,1 km/h (3 Bft) 100,00 %
24.04.2018 12:38 18,6 C 17,8 C 71 % 1017,3 hPa 0,0 l/m 12,2 km/h (2 Bft) S 180 1 min 0,000 mm 4,3 UV-I 941 W/m 13,2 C 16,4 C 16,1 km/h (3 Bft) 100,00 %
24.04.2018 12:39 18,6 C 17,8 C 71 % 1017,3 hPa 0,0 l/m 13,8 km/h (3 Bft) W-SW 246 1 min 0,000 mm 4,4 UV-I 932 W/m 13,2 C 15,9 C 19,3 km/h (3 Bft) 96,88 %
24.04.2018 12:40 18,6 C 17,8 C 70 % 1017,4 hPa 0,0 l/m 13,1 km/h (3 Bft) S-SW 200 1 min 0,000 mm 3,1 UV-I 932 W/m 13,0 C 16,1 C 17,7 km/h (3 Bft) 96,15 %
24.04.2018 12:41 18,4 C 17,8 C 69 % 1017,3 hPa 0,0 l/m 8,0 km/h (2 Bft) SW 232 1 min 0,000 mm 3,5 UV-I 932 W/m 12,6 C 17,7 C 9,7 km/h (2 Bft) 100,00 %
24.04.2018 12:42 18,4 C 17,8 C 72 % 1017,3 hPa 0,0 l/m 9,3 km/h (2 Bft) W-NW 283 1 min 0,000 mm 4,3 UV-I 971 W/m 13,3 C 17,1 C 14,5 km/h (3 Bft) 96,30 %
24.04.2018 12:43 18,5 C 17,8 C 70 % 1017,3 hPa 0,0 l/m 13,0 km/h (3 Bft) W-SW 250 1 min 0,000 mm 4,4 UV-I 974 W/m 12,9 C 16,0 C 16,1 km/h (3 Bft) 100,00 %
24.04.2018 12:44 18,6 C 17,8 C 70 % 1017,3 hPa 0,0 l/m 15,4 km/h (3 Bft) SW 218 1 min 0,000 mm 4,4 UV-I 981 W/m 13,0 C 15,4 C 19,3 km/h (3 Bft) 94,44 %
24.04.2018 12:45 18,7 C 17,8 C 72 % 1017,3 hPa 0,0 l/m 16,8 km/h (3 Bft) W-SW 240 1 min 0,000 mm 4,5 UV-I 983 W/m 13,5 C 15,2 C 22,5 km/h (4 Bft) 100,00 %
24.04.2018 12:46 18,8 C 17,8 C 72 % 1017,3 hPa 0,0 l/m 12,3 km/h (3 Bft) S 186 1 min 0,000 mm 4,5 UV-I 974 W/m 13,6 C 16,6 C 17,7 km/h (3 Bft) 95,83 %
24.04.2018 12:47 18,9 C 17,8 C 71 % 1017,3 hPa 0,0 l/m 11,3 km/h (2 Bft) SW 216 1 min 0,000 mm 4,4 UV-I 954 W/m 13,5 C 17,0 C 20,9 km/h (4 Bft) 91,30 %
24.04.2018 12:48 18,9 C 17,8 C 70 % 1017,2 hPa 0,0 l/m 14,3 km/h (3 Bft) S-SW 207 1 min 0,000 mm 4,4 UV-I 937 W/m 13,3 C 16,1 C 19,3 km/h (3 Bft) 100,00 %
24.04.2018 12:49 18,9 C 17,8 C 70 % 1017,3 hPa 0,0 l/m 11,7 km/h (2 Bft) S-SW 212 1 min 0,000 mm 4,4 UV-I 930 W/m 13,3 C 16,9 C 16,1 km/h (3 Bft) 96,15 %
24.04.2018 12:50 18,7 C 17,8 C 69 % 1017,2 hPa 0,0 l/m 14,0 km/h (3 Bft) SW 229 1 min 0,000 mm 4,4 UV-I 910 W/m 12,9 C 15,9 C 19,3 km/h (3 Bft) 100,00 %
24.04.2018 12:51 18,7 C 17,8 C 70 % 1017,3 hPa 0,0 l/m 11,9 km/h (2 Bft) SW 229 1 min 0,000 mm 4,3 UV-I 882 W/m 13,1 C 16,6 C 17,7 km/h (3 Bft) 94,12 %
24.04.2018 12:52 18,8 C 17,8 C 73 % 1017,2 hPa 0,0 l/m 6,7 km/h (2 Bft) W-SW 254 1 min 0,000 mm 4,3 UV-I 877 W/m 13,9 C 18,7 C 11,3 km/h (2 Bft) 96,67 %
24.04.2018 12:53 18,8 C 17,8 C 69 % 1017,2 hPa 0,0 l/m 16,2 km/h (3 Bft) W-SW 241 1 min 0,000 mm 4,3 UV-I 877 W/m 13,0 C 15,5 C 19,3 km/h (3 Bft) 88,24 %
24.04.2018 12:54 18,8 C 17,8 C 69 % 1017,2 hPa 0,0 l/m 15,4 km/h (3 Bft) S-SO 150 1 min 0,000 mm 3,5 UV-I 900 W/m 13,0 C 15,7 C 25,7 km/h (4 Bft) 100,00 %
24.04.2018 12:55 18,7 C 17,8 C 67 % 1017,1 hPa 0,0 l/m 11,7 km/h (2 Bft) S-SW 198 1 min 0,000 mm 2,7 UV-I 907 W/m 12,4 C 16,6 C 19,3 km/h (3 Bft) 96,15 %
24.04.2018 12:56 18,6 C 17,8 C 70 % 1017,1 hPa 0,0 l/m 15,1 km/h (3 Bft) W 264 0 min 0,000 mm 2,7 UV-I 275 W/m 13,0 C 15,5 C 24,1 km/h (4 Bft) 100,00 %
24.04.2018 12:57 18,4 C 17,8 C 69 % 1017,2 hPa 0,0 l/m 12,3 km/h (3 Bft) W-SW 244 0 min 0,000 mm 4,1 UV-I 243 W/m 12,6 C 16,1 C 17,7 km/h (3 Bft) 96,77 %
24.04.2018 12:58 18,4 C 17,8 C 70 % 1017,2 hPa 0,0 l/m 16,8 km/h (3 Bft) SW 234 0 min 0,000 mm 4,2 UV-I 243 W/m 12,8 C 14,9 C 24,1 km/h (4 Bft) 92,31 %
24.04.2018 12:59 18,5 C 17,8 C 68 % 1017,1 hPa 0,0 l/m 13,4 km/h (3 Bft) SW 234 0 min 0,000 mm 4,0 UV-I 243 W/m 12,5 C 15,9 C 20,9 km/h (4 Bft) 100,00 %
24.04.2018 13:00 18,6 C 17,8 C 69 % 1017,2 hPa 0,0 l/m 17,9 km/h (3 Bft) SW 223 1 min 0,482 mm 4,3 UV-I 662 W/m 12,8 C 14,8 C 24,1 km/h (4 Bft) 96,15 %
24.04.2018 13:02 18,6 C 17,8 C 67 % 1017,1 hPa 0,0 l/m 15,0 km/h (3 Bft) SW 218 2 min 0,000 mm 4,3 UV-I 870 W/m 12,3 C 15,6 C 22,5 km/h (4 Bft) 98,11 %
24.04.2018 13:03 18,8 C 17,8 C 71 % 1017,1 hPa 0,0 l/m 20,1 km/h (4 Bft) SW 234 1 min 0,000 mm 4,3 UV-I 857 W/m 13,4 C 14,6 C 25,7 km/h (4 Bft) 100,00 %
24.04.2018 13:04 18,8 C 17,8 C 69 % 1017,1 hPa 0,0 l/m 16,4 km/h (3 Bft) W-SW 248 1 min 0,000 mm 4,3 UV-I 847 W/m 13,0 C 15,4 C 20,9 km/h (4 Bft) 81,82 %
24.04.2018 13:05 18,8 C 17,8 C 66 % 1017,1 hPa 0,0 l/m 14,5 km/h (3 Bft) W-SW 238 1 min 0,000 mm 4,2 UV-I 828 W/m 12,3 C 15,9 C 20,9 km/h (4 Bft) 96,30 %
24.04.2018 13:06 18,8 C 17,8 C 68 % 1017,1 hPa 0,0 l/m 11,6 km/h (2 Bft) SW 231 1 min 0,000 mm 4,3 UV-I 848 W/m 12,8 C 16,8 C 16,1 km/h (3 Bft) 96,88 %
24.04.2018 13:07 18,9 C 17,8 C 70 % 1017,0 hPa 0,0 l/m 8,9 km/h (2 Bft) S-SW 195 1 min 0,000 mm 4,3 UV-I 864 W/m 13,3 C 17,8 C 12,9 km/h (3 Bft) 100,00 %
24.04.2018 13:08 19,1 C 17,8 C 72 % 1017,0 hPa 0,0 l/m 13,2 km/h (3 Bft) SW 217 1 min 0,000 mm 4,3 UV-I 869 W/m 13,9 C 16,6 C 17,7 km/h (3 Bft) 96,15 %
24.04.2018 13:09 19,2 C 17,8 C 70 % 1017,1 hPa 0,0 l/m 14,6 km/h (3 Bft) W-SW 238 1 min 0,000 mm 4,3 UV-I 878 W/m 13,6 C 16,4 C 20,9 km/h (4 Bft) 96,30 %
24.04.2018 13:10 19,2 C 17,8 C 66 % 1017,1 hPa 0,0 l/m 12,9 km/h (3 Bft) W-SW 251 1 min 0,000 mm 4,3 UV-I 885 W/m 12,7 C 16,8 C 17,7 km/h (3 Bft) 100,00 %
24.04.2018 13:11 19,2 C 17,8 C 66 % 1017,1 hPa 0,0 l/m 14,6 km/h (3 Bft) SW 231 1 min 0,000 mm 4,4 UV-I 922 W/m 12,7 C 16,4 C 19,3 km/h (3 Bft) 100,00 %
24.04.2018 13:12 19,2 C 17,8 C 67 % 1017,0 hPa 0,0 l/m 12,7 km/h (3 Bft) W 265 1 min 0,000 mm 3,6 UV-I 976 W/m 12,9 C 16,9 C 17,7 km/h (3 Bft) 96,88 %
24.04.2018 13:13 19,1 C 17,8 C 66 % 1017,0 hPa 0,0 l/m 9,7 km/h (2 Bft) SW 233 1 min 0,000 mm 3,8 UV-I 977 W/m 12,6 C 17,8 C 14,5 km/h (3 Bft) 96,30 %
24.04.2018 13:14 19,1 C 17,8 C 67 % 1017,0 hPa 0,0 l/m 17,9 km/h (3 Bft) SW 228 1 min 0,000 mm 4,4 UV-I 962 W/m 12,8 C 15,5 C 24,1 km/h (4 Bft) 97,77 %
24.04.2018 13:15 19,1 C 17,8 C 67 % 1017,0 hPa 0,0 l/m 14,9 km/h (3 Bft) SW 221 1 min 0,000 mm 4,4 UV-I 900 W/m 12,8 C 16,2 C 22,5 km/h (4 Bft) 100,00 %
24.04.2018 13:16 19,2 C 17,8 C 68 % 1017,0 hPa 0,0 l/m 12,0 km/h (2 Bft) SW 217 1 min 0,000 mm 4,3 UV-I 885 W/m 13,1 C 17,1 C 19,3 km/h (3 Bft) 100,00 %
24.04.2018 13:17 19,3 C 17,8 C 67 % 1017,1 hPa 0,0 l/m 12,4 km/h (3 Bft) SW 218 1 min 0,000 mm 4,3 UV-I 900 W/m 13,0 C 17,1 C 19,3 km/h (3 Bft) 100,00 %
24.04.2018 13:18 19,3 C 17,8 C 67 % 1017,0 hPa 0,0 l/m 14,9 km/h (3 Bft) W-SW 238 1 min 0,000 mm 4,1 UV-I 904 W/m 13,0 C 16,4 C 22,5 km/h (4 Bft) 100,00 %
24.04.2018 13:19 19,3 C 17,8 C 66 % 1017,0 hPa 0,0 l/m 14,4 km/h (3 Bft) SW 223 1 min 0,000 mm 4,1 UV-I 898 W/m 12,8 C 16,6 C 17,7 km/h (3 Bft) 96,55 %
24.04.2018 13:20 19,3 C 17,8 C 66 % 1017,0 hPa 0,0 l/m 12,7 km/h (3 Bft) S-SW 205 1 min 0,000 mm 4,2 UV-I 847 W/m 12,8 C 17,0 C 16,1 km/h (3 Bft) 100,00 %
24.04.2018 13:21 19,2 C 17,8 C 66 % 1017,0 hPa 0,0 l/m 14,9 km/h (3 Bft) W-SW 238 1 min 0,000 mm 4,2 UV-I 847 W/m 12,7 C 16,3 C 20,9 km/h (4 Bft) 100,00 %
24.04.2018 13:22 19,3 C 18,3 C 68 % 1017,0 hPa 0,0 l/m 14,1 km/h (3 Bft) W-SW 240 1 min 0,000 mm 4,2 UV-I 824 W/m 13,2 C 16,6 C 19,3 km/h (3 Bft) 100,00 %
24.04.2018 13:23 19,4 C 18,3 C 67 % 1017,0 hPa 0,0 l/m 12,5 km/h (3 Bft) S-SW 198 1 min 0,000 mm 4,2 UV-I 800 W/m 13,1 C 17,2 C 20,9 km/h (4 Bft) 100,00 %
24.04.2018 13:24 19,4 C 18,3 C 66 % 1016,9 hPa 0,0 l/m 17,5 km/h (3 Bft) SW 219 1 min 0,000 mm 4,3 UV-I 894 W/m 12,9 C 15,9 C 25,7 km/h (4 Bft) 100,00 %
24.04.2018 13:25 19,4 C 18,3 C 67 % 1017,0 hPa 0,0 l/m 11,6 km/h (2 Bft) SW 215 1 min 0,000 mm 4,4 UV-I 944 W/m 13,1 C 17,5 C 16,1 km/h (3 Bft) 100,00 %
24.04.2018 13:26 19,4 C 18,3 C 65 % 1016,9 hPa 0,0 l/m 16,0 km/h (3 Bft) SW 232 1 min 0,000 mm 4,4 UV-I 948 W/m 12,6 C 16,3 C 27,4 km/h (4 Bft) 100,00 %
24.04.2018 13:27 19,5 C 18,3 C 66 % 1016,9 hPa 0,0 l/m 18,5 km/h (3 Bft) SW 220 1 min 0,000 mm 4,3 UV-I 918 W/m 13,0 C 15,9 C 30,6 km/h (5 Bft) 100,00 %
24.04.2018 13:28 19,6 C 18,3 C 66 % 1016,9 hPa 0,0 l/m 14,2 km/h (3 Bft) W-SW 245 1 min 0,000 mm 4,3 UV-I 888 W/m 13,1 C 17,0 C 20,9 km/h (4 Bft) 100,00 %
24.04.2018 13:29 19,7 C 18,3 C 65 % 1016,9 hPa 0,0 l/m 18,1 km/h (3 Bft) W 261 1 min 0,000 mm 4,3 UV-I 879 W/m 12,9 C 16,2 C 24,1 km/h (4 Bft) 100,00 %
24.04.2018 13:30 19,7 C 18,3 C 65 % 1016,9 hPa 0,0 l/m 18,3 km/h (3 Bft) W-SW 246 1 min 0,000 mm 4,4 UV-I 891 W/m 12,9 C 16,2 C 27,4 km/h (4 Bft) 100,00 %
24.04.2018 13:31 19,7 C 18,3 C 64 % 1016,9 hPa 0,0 l/m 17,8 km/h (3 Bft) W-SW 240 1 min 0,000 mm 4,4 UV-I 890 W/m 12,7 C 16,3 C 25,7 km/h (4 Bft) 100,00 %
24.04.2018 13:32 19,6 C 18,3 C 64 % 1016,9 hPa 0,0 l/m 20,6 km/h (4 Bft) W-SW 246 1 min 0,000 mm 4,3 UV-I 881 W/m 12,6 C 15,6 C 29,0 km/h (5 Bft) 100,00 %
24.04.2018 13:33 19,6 C 18,3 C 66 % 1016,9 hPa 0,0 l/m 15,4 km/h (3 Bft) S-SW 197 1 min 0,000 mm 4,3 UV-I 874 W/m 13,1 C 16,7 C 22,5 km/h (4 Bft) 100,00 %
24.04.2018 13:34 19,5 C 18,3 C 65 % 1016,8 hPa 0,0 l/m 9,7 km/h (2 Bft) SW 221 1 min 0,000 mm 4,3 UV-I 875 W/m 12,7 C 18,2 C 14,5 km/h (3 Bft) 97,37 %
24.04.2018 13:35 19,6 C 18,3 C 66 % 1016,9 hPa 0,0 l/m 17,5 km/h (3 Bft) W-SW 243 1 min 0,000 mm 4,3 UV-I 876 W/m 13,1 C 16,2 C 24,1 km/h (4 Bft) 100,00 %
24.04.2018 13:36 19,6 C 18,3 C 65 % 1016,8 hPa 0,0 l/m 18,0 km/h (3 Bft) W-SW 244 1 min 0,000 mm 4,3 UV-I 877 W/m 12,8 C 16,1 C 25,7 km/h (4 Bft) 100,00 %
24.04.2018 13:37 19,7 C 18,3 C 65 % 1016,8 hPa 0,0 l/m 16,7 km/h (3 Bft) W-SW 249 1 min 0,000 mm 4,3 UV-I 891 W/m 12,9 C 16,5 C 24,1 km/h (4 Bft) 100,00 %
24.04.2018 13:38 19,6 C 18,3 C 64 % 1016,8 hPa 0,0 l/m 19,1 km/h (3 Bft) W-SW 246 1 min 0,000 mm 4,2 UV-I 902 W/m 12,6 C 15,9 C 27,4 km/h (4 Bft) 100,00 %
24.04.2018 13:39 19,6 C 18,3 C 64 % 1016,8 hPa 0,0 l/m 13,9 km/h (3 Bft) W-SW 240 1 min 0,000 mm 4,3 UV-I 925 W/m 12,6 C 17,0 C 19,3 km/h (3 Bft) 100,00 %
24.04.2018 13:40 19,6 C 18,3 C 65 % 1016,8 hPa 0,0 l/m 12,5 km/h (3 Bft) W 277 1 min 0,000 mm 4,2 UV-I 934 W/m 12,8 C 17,4 C 16,1 km/h (3 Bft) 91,30 %
24.04.2018 13:41 19,6 C 18,3 C 65 % 1016,7 hPa 0,0 l/m 10,6 km/h (2 Bft) W 269 1 min 0,000 mm 4,2 UV-I 946 W/m 12,8 C 18,0 C 14,5 km/h (3 Bft) 91,67 %
24.04.2018 13:43 19,7 C 18,3 C 65 % 1016,7 hPa 0,0 l/m 12,8 km/h (3 Bft) SW 227 2 min 0,000 mm 4,4 UV-I 975 W/m 12,9 C 17,5 C 17,7 km/h (3 Bft) 98,39 %
24.04.2018 13:44 19,7 C 18,3 C 65 % 1016,7 hPa 0,0 l/m 8,4 km/h (2 Bft) SW 225 1 min 0,000 mm 4,0 UV-I 977 W/m 12,9 C 18,9 C 11,3 km/h (2 Bft) 94,12 %
24.04.2018 13:45 19,7 C 18,3 C 66 % 1016,7 hPa 0,0 l/m 11,4 km/h (2 Bft) W-SW 245 1 min 0,000 mm 3,4 UV-I 977 W/m 13,2 C 17,9 C 17,7 km/h (3 Bft) 100,00 %
24.04.2018 13:46 19,7 C 18,3 C 65 % 1016,7 hPa 0,0 l/m 13,4 km/h (3 Bft) W-NW 283 1 min 0,000 mm 4,2 UV-I 946 W/m 12,9 C 17,3 C 20,9 km/h (4 Bft) 95,65 %
24.04.2018 13:47 19,7 C 18,3 C 64 % 1016,7 hPa 0,0 l/m 16,3 km/h (3 Bft) W 276 1 min 0,000 mm 4,2 UV-I 903 W/m 12,7 C 16,6 C 22,5 km/h (4 Bft) 100,00 %
24.04.2018 13:48 19,7 C 18,3 C 64 % 1016,7 hPa 0,0 l/m 8,4 km/h (2 Bft) W-NW 301 1 min 0,000 mm 4,2 UV-I 889 W/m 12,7 C 18,9 C 12,9 km/h (3 Bft) 96,15 %
24.04.2018 13:49 19,7 C 18,3 C 64 % 1016,7 hPa 0,0 l/m 7,9 km/h (2 Bft) W-SW 252 1 min 0,000 mm 4,2 UV-I 896 W/m 12,7 C 19,1 C 14,5 km/h (3 Bft) 100,00 %
24.04.2018 13:50 19,7 C 18,3 C 65 % 1016,7 hPa 0,0 l/m 16,1 km/h (3 Bft) W-NW 288 1 min 0,000 mm 4,1 UV-I 880 W/m 12,9 C 16,6 C 25,7 km/h (4 Bft) 95,65 %
24.04.2018 13:51 19,8 C 18,3 C 66 % 1016,7 hPa 0,0 l/m 11,7 km/h (2 Bft) W-SW 243 1 min 0,000 mm 4,1 UV-I 879 W/m 13,3 C 17,9 C 17,7 km/h (3 Bft) 100,00 %
24.04.2018 13:52 19,9 C 18,3 C 68 % 1016,7 hPa 0,0 l/m 5,7 km/h (1 Bft) SW 231 1 min 0,000 mm 4,0 UV-I 871 W/m 13,8 C 19,9 C 8,0 km/h (2 Bft) 91,67 %
24.04.2018 13:53 20,0 C 18,3 C 66 % 1016,6 hPa 0,0 l/m 5,6 km/h (1 Bft) W-SW 257 1 min 0,000 mm 4,0 UV-I 874 W/m 13,4 C 20,0 C 9,7 km/h (2 Bft) 100,00 %
24.04.2018 13:54 19,9 C 18,3 C 64 % 1016,6 hPa 0,0 l/m 13,2 km/h (3 Bft) SW 230 1 min 0,000 mm 2,6 UV-I 879 W/m 12,9 C 17,6 C 19,3 km/h (3 Bft) 96,30 %
24.04.2018 13:55 19,8 C 18,3 C 63 % 1016,5 hPa 0,0 l/m 11,2 km/h (2 Bft) SW 234 1 min 0,000 mm 3,6 UV-I 786 W/m 12,5 C 18,0 C 14,5 km/h (3 Bft) 96,15 %
24.04.2018 13:56 19,8 C 18,3 C 68 % 1016,6 hPa 0,0 l/m 12,2 km/h (2 Bft) S-SW 207 1 min 0,000 mm 2,7 UV-I 506 W/m 13,7 C 17,7 C 17,7 km/h (3 Bft) 100,00 %
24.04.2018 13:58 19,8 C 18,3 C 66 % 1016,6 hPa 0,0 l/m 17,7 km/h (3 Bft) W-SW 239 0 min 0,000 mm 3,1 UV-I 312 W/m 13,3 C 16,4 C 27,4 km/h (4 Bft) 95,56 %
24.04.2018 13:59 19,8 C 18,3 C 64 % 1016,6 hPa 0,0 l/m 20,2 km/h (4 Bft) SW 236 1 min 0,000 mm 4,0 UV-I 789 W/m 12,8 C 15,9 C 25,7 km/h (4 Bft) 95,65 %
24.04.2018 14:00 19,7 C 18,3 C 64 % 1016,7 hPa 0,0 l/m 19,7 km/h (3 Bft) SW 236 1 min 0,000 mm 4,1 UV-I 900 W/m 12,7 C 15,9 C 24,1 km/h (4 Bft) 100,00 %
24.04.2018 14:02 19,6 C 18,3 C 65 % 1016,6 hPa 0,0 l/m 13,4 km/h (3 Bft) SW 225 2 min 0,534 mm 4,0 UV-I 890 W/m 12,8 C 17,2 C 20,9 km/h (4 Bft) 94,34 %
24.04.2018 14:03 19,7 C 18,3 C 65 % 1016,5 hPa 0,0 l/m 6,0 km/h (2 Bft) W 264 1 min 0,000 mm 4,0 UV-I 897 W/m 12,9 C 19,7 C 11,3 km/h (2 Bft) 100,00 %
24.04.2018 14:04 19,9 C 18,3 C 66 % 1016,5 hPa 0,0 l/m 5,6 km/h (1 Bft) W-SW 240 1 min 0,000 mm 4,0 UV-I 910 W/m 13,4 C 19,9 C 9,7 km/h (2 Bft) 91,67 %
24.04.2018 14:05 20,0 C 18,3 C 64 % 1016,5 hPa 0,0 l/m 8,5 km/h (2 Bft) W-SW 240 1 min 0,000 mm 3,9 UV-I 916 W/m 13,0 C 19,2 C 16,1 km/h (3 Bft) 100,00 %
24.04.2018 14:06 20,2 C 18,3 C 67 % 1016,5 hPa 0,0 l/m 9,3 km/h (2 Bft) S-SW 204 1 min 0,000 mm 4,0 UV-I 945 W/m 13,9 C 19,1 C 14,5 km/h (3 Bft) 91,67 %
24.04.2018 14:07 20,2 C 18,3 C 65 % 1016,5 hPa 0,0 l/m 13,3 km/h (3 Bft) S-SW 213 1 min 0,000 mm 4,0 UV-I 964 W/m 13,4 C 17,9 C 20,9 km/h (4 Bft) 100,00 %
24.04.2018 14:08 20,1 C 18,3 C 63 % 1016,5 hPa 0,0 l/m 12,3 km/h (3 Bft) S 191 1 min 0,000 mm 3,6 UV-I 973 W/m 12,8 C 18,1 C 17,7 km/h (3 Bft) 96,30 %
24.04.2018 14:09 20,0 C 18,3 C 64 % 1016,4 hPa 0,0 l/m 11,1 km/h (2 Bft) S 175 1 min 0,000 mm 4,0 UV-I 979 W/m 13,0 C 18,3 C 14,5 km/h (3 Bft) 100,00 %
24.04.2018 14:10 19,9 C 18,3 C 63 % 1016,4 hPa 0,0 l/m 12,8 km/h (3 Bft) S-SW 192 1 min 0,000 mm 3,7 UV-I 970 W/m 12,6 C 17,7 C 14,5 km/h (3 Bft) 93,94 %
24.04.2018 14:11 19,9 C 18,3 C 63 % 1016,4 hPa 0,0 l/m 10,5 km/h (2 Bft) SW 224 1 min 0,000 mm 3,6 UV-I 967 W/m 12,6 C 18,4 C 14,5 km/h (3 Bft) 100,00 %
24.04.2018 14:12 19,8 C 18,3 C 64 % 1016,4 hPa 0,0 l/m 12,2 km/h (2 Bft) S-SW 200 1 min 0,000 mm 3,9 UV-I 960 W/m 12,8 C 17,7 C 17,7 km/h (3 Bft) 100,00 %
24.04.2018 14:13 19,8 C 18,3 C 65 % 1016,3 hPa 0,0 l/m 8,2 km/h (2 Bft) S-SW 204 1 min 0,000 mm 3,8 UV-I 908 W/m 13,0 C 19,1 C 12,9 km/h (3 Bft) 91,67 %
24.04.2018 14:14 19,8 C 18,3 C 67 % 1016,3 hPa 0,0 l/m 10,3 km/h (2 Bft) S-SW 207 1 min 0,000 mm 3,5 UV-I 889 W/m 13,5 C 18,3 C 19,3 km/h (3 Bft) 100,00 %
24.04.2018 14:15 19,9 C 18,3 C 66 % 1016,3 hPa 0,0 l/m 15,1 km/h (3 Bft) SW 234 1 min 0,000 mm 3,5 UV-I 889 W/m 13,4 C 17,1 C 24,1 km/h (4 Bft) 100,00 %
24.04.2018 14:16 19,9 C 18,3 C 67 % 1016,3 hPa 0,0 l/m 9,6 km/h (2 Bft) S-SW 213 1 min 0,000 mm 3,1 UV-I 889 W/m 13,6 C 18,7 C 16,1 km/h (3 Bft) 100,00 %
24.04.2018 14:17 19,8 C 18,3 C 64 % 1016,4 hPa 0,0 l/m 13,5 km/h (3 Bft) S-SW 211 1 min 0,000 mm 2,7 UV-I 889 W/m 12,8 C 17,4 C 16,1 km/h (3 Bft) 100,00 %
24.04.2018 14:18 19,6 C 18,3 C 63 % 1016,3 hPa 0,0 l/m 7,3 km/h (2 Bft) S 171 1 min 0,000 mm 3,3 UV-I 841 W/m 12,4 C 19,2 C 12,9 km/h (3 Bft) 96,55 %
24.04.2018 14:19 19,4 C 18,3 C 64 % 1016,4 hPa 0,0 l/m 7,7 km/h (2 Bft) W-SW 251 1 min 0,000 mm 2,6 UV-I 582 W/m 12,4 C 18,8 C 12,9 km/h (3 Bft) 100,00 %
24.04.2018 14:20 19,5 C 18,3 C 66 % 1016,3 hPa 0,0 l/m 7,2 km/h (2 Bft) S-SW 210 1 min 0,000 mm 2,7 UV-I 582 W/m 13,0 C 19,2 C 12,9 km/h (3 Bft) 100,00 %
24.04.2018 14:21 19,6 C 18,3 C 65 % 1016,3 hPa 0,0 l/m 7,8 km/h (2 Bft) W 263 1 min 0,000 mm 3,4 UV-I 582 W/m 12,8 C 19,0 C 12,9 km/h (3 Bft) 100,00 %
24.04.2018 14:22 19,6 C 18,3 C 64 % 1016,3 hPa 0,0 l/m 6,9 km/h (2 Bft) S-SW 202 1 min 0,000 mm 3,4 UV-I 774 W/m 12,6 C 19,4 C 11,3 km/h (2 Bft) 95,65 %
24.04.2018 14:23 19,7 C 18,3 C 65 % 1016,3 hPa 0,0 l/m 10,9 km/h (2 Bft) W-SW 257 1 min 0,000 mm 3,3 UV-I 858 W/m 12,9 C 18,0 C 20,9 km/h (4 Bft) 100,00 %
24.04.2018 14:24 19,8 C 18,3 C 64 % 1016,3 hPa 0,0 l/m 10,8 km/h (2 Bft) W-SW 255 1 min 0,000 mm 3,2 UV-I 858 W/m 12,8 C 18,2 C 14,5 km/h (3 Bft) 100,00 %
24.04.2018 14:25 19,9 C 18,3 C 62 % 1016,3 hPa 0,0 l/m 14,7 km/h (3 Bft) W-SW 255 1 min 0,000 mm 2,0 UV-I 675 W/m 12,4 C 17,2 C 17,7 km/h (3 Bft) 100,00 %
24.04.2018 14:26 19,9 C 18,3 C 61 % 1016,3 hPa 0,0 l/m 10,5 km/h (2 Bft) W-SW 257 0 min 0,000 mm 2,1 UV-I 362 W/m 12,2 C 18,4 C 14,5 km/h (3 Bft) 95,65 %
24.04.2018 14:28 19,8 C 18,3 C 62 % 1016,2 hPa 0,0 l/m 10,5 km/h (2 Bft) W 266 0 min 0,000 mm 2,1 UV-I 370 W/m 12,3 C 18,3 C 17,7 km/h (3 Bft) 100,00 %
24.04.2018 14:29 19,7 C 18,3 C 64 % 1016,2 hPa 0,0 l/m 6,7 km/h (2 Bft) N-NW 341 0 min 0,000 mm 2,1 UV-I 380 W/m 12,7 C 19,6 C 9,7 km/h (2 Bft) 100,00 %
24.04.2018 14:30 19,7 C 18,3 C 65 % 1016,2 hPa 0,0 l/m 7,0 km/h (2 Bft) W 276 0 min 0,000 mm 2,1 UV-I 377 W/m 12,9 C 19,5 C 11,3 km/h (2 Bft) 100,00 %
24.04.2018 14:31 19,7 C 18,3 C 64 % 1016,2 hPa 0,0 l/m 11,9 km/h (2 Bft) W-SW 256 0 min 0,000 mm 2,2 UV-I 343 W/m 12,7 C 17,7 C 14,5 km/h (3 Bft) 100,00 %
24.04.2018 14:32 19,7 C 18,3 C 62 % 1016,1 hPa 0,0 l/m 8,7 km/h (2 Bft) W-NW 285 0 min 0,000 mm 3,2 UV-I 343 W/m 12,2 C 18,8 C 12,9 km/h (3 Bft) 100,00 %
24.04.2018 14:33 19,6 C 18,3 C 63 % 1016,1 hPa 0,0 l/m 8,0 km/h (2 Bft) W-SW 247 1 min 0,000 mm 3,4 UV-I 634 W/m 12,4 C 18,9 C 12,9 km/h (3 Bft) 100,00 %
24.04.2018 14:34 19,7 C 18,3 C 62 % 1016,1 hPa 0,0 l/m 6,9 km/h (2 Bft) W-NW 291 1 min 0,000 mm 3,3 UV-I 848 W/m 12,2 C 19,5 C 12,9 km/h (3 Bft) 100,00 %
24.04.2018 14:35 19,8 C 18,3 C 63 % 1016,1 hPa 0,0 l/m 12,9 km/h (3 Bft) W 268 1 min 0,000 mm 3,2 UV-I 795 W/m 12,5 C 17,5 C 17,7 km/h (3 Bft) 100,00 %
24.04.2018 14:36 19,9 C 18,3 C 64 % 1016,1 hPa 0,0 l/m 10,1 km/h (2 Bft) SW 232 1 min 0,000 mm 3,2 UV-I 786 W/m 12,9 C 18,5 C 12,9 km/h (3 Bft) 100,00 %
24.04.2018 14:37 19,9 C 18,3 C 62 % 1016,0 hPa 0,0 l/m 10,7 km/h (2 Bft) W-SW 248 1 min 0,000 mm 3,3 UV-I 786 W/m 12,4 C 18,3 C 14,5 km/h (3 Bft) 100,00 %
24.04.2018 14:38 20,0 C 18,3 C 61 % 1016,0 hPa 0,0 l/m 9,8 km/h (2 Bft) W 273 1 min 0,000 mm 3,4 UV-I 841 W/m 12,2 C 18,7 C 12,9 km/h (3 Bft) 100,00 %
24.04.2018 14:39 20,1 C 18,3 C 61 % 1016,0 hPa 0,0 l/m 12,5 km/h (3 Bft) W 262 1 min 0,000 mm 3,5 UV-I 910 W/m 12,3 C 18,0 C 16,1 km/h (3 Bft) 100,00 %
24.04.2018 14:40 20,2 C 18,3 C 62 % 1015,9 hPa 0,0 l/m 10,9 km/h (2 Bft) W 277 1 min 0,000 mm 3,6 UV-I 908 W/m 12,7 C 18,6 C 14,5 km/h (3 Bft) 96,30 %
24.04.2018 14:41 20,3 C 18,3 C 62 % 1015,9 hPa 0,0 l/m 12,2 km/h (2 Bft) SW 235 1 min 0,000 mm 3,7 UV-I 895 W/m 12,8 C 18,3 C 19,3 km/h (3 Bft) 100,00 %
24.04.2018 14:42 20,4 C 18,3 C 60 % 1015,9 hPa 0,0 l/m 16,6 km/h (3 Bft) W-SW 247 1 min 0,000 mm 3,6 UV-I 867 W/m 12,4 C 17,4 C 22,5 km/h (4 Bft) 100,00 %
24.04.2018 14:43 20,4 C 18,3 C 59 % 1015,9 hPa 0,0 l/m 18,3 km/h (3 Bft) W 267 1 min 0,000 mm 3,6 UV-I 835 W/m 12,1 C 17,0 C 24,1 km/h (4 Bft) 100,00 %
24.04.2018 14:44 20,5 C 18,3 C 59 % 1015,9 hPa 0,0 l/m 13,8 km/h (3 Bft) W 264 1 min 0,000 mm 3,6 UV-I 821 W/m 12,2 C 18,1 C 20,9 km/h (4 Bft) 100,00 %
24.04.2018 14:45 20,6 C 18,3 C 59 % 1015,8 hPa 0,0 l/m 11,1 km/h (2 Bft) W-NW 292 1 min 0,000 mm 3,6 UV-I 813 W/m 12,3 C 19,0 C 16,1 km/h (3 Bft) 100,00 %
24.04.2018 14:46 20,7 C 18,3 C 58 % 1015,8 hPa 0,0 l/m 15,6 km/h (3 Bft) W 281 1 min 0,000 mm 3,5 UV-I 789 W/m 12,1 C 18,0 C 22,5 km/h (4 Bft) 100,00 %
24.04.2018 14:47 20,7 C 18,3 C 59 % 1015,8 hPa 0,0 l/m 13,9 km/h (3 Bft) SW 229 1 min 0,000 mm 3,4 UV-I 732 W/m 12,4 C 18,4 C 22,5 km/h (4 Bft) 100,00 %
24.04.2018 14:48 20,7 C 18,3 C 58 % 1015,8 hPa 0,0 l/m 15,8 km/h (3 Bft) W 262 1 min 0,000 mm 3,4 UV-I 747 W/m 12,1 C 17,9 C 22,5 km/h (4 Bft) 100,00 %
24.04.2018 14:49 20,6 C 18,3 C 57 % 1015,8 hPa 0,0 l/m 12,9 km/h (3 Bft) W-SW 257 1 min 0,000 mm 3,4 UV-I 745 W/m 11,8 C 18,5 C 17,7 km/h (3 Bft) 100,00 %
24.04.2018 14:50 20,4 C 18,3 C 58 % 1015,7 hPa 0,0 l/m 12,0 km/h (2 Bft) SW 236 1 min 0,000 mm 3,4 UV-I 740 W/m 11,9 C 18,5 C 16,1 km/h (3 Bft) 100,00 %
24.04.2018 14:51 20,4 C 18,3 C 58 % 1015,7 hPa 0,0 l/m 7,4 km/h (2 Bft) W-SW 243 1 min 0,000 mm 3,4 UV-I 750 W/m 11,9 C 20,0 C 11,3 km/h (2 Bft) 100,00 %
24.04.2018 14:52 20,6 C 18,3 C 61 % 1015,7 hPa 0,0 l/m 14,0 km/h (3 Bft) W-NW 287 1 min 0,000 mm 3,4 UV-I 758 W/m 12,8 C 18,2 C 19,3 km/h (3 Bft) 100,00 %
24.04.2018 14:53 20,6 C 18,3 C 59 % 1015,8 hPa 0,0 l/m 14,4 km/h (3 Bft) W 278 1 min 0,000 mm 2,5 UV-I 759 W/m 12,3 C 18,1 C 20,9 km/h (4 Bft) 100,00 %
24.04.2018 14:54 20,6 C 18,3 C 59 % 1015,8 hPa 0,0 l/m 16,1 km/h (3 Bft) W 275 1 min 0,000 mm 3,1 UV-I 763 W/m 12,3 C 17,7 C 19,3 km/h (3 Bft) 100,00 %
24.04.2018 14:55 20,6 C 18,9 C 57 % 1015,8 hPa 0,0 l/m 13,5 km/h (3 Bft) W-NW 298 1 min 0,000 mm 3,3 UV-I 780 W/m 11,8 C 18,3 C 17,7 km/h (3 Bft) 100,00 %
24.04.2018 14:56 20,5 C 18,9 C 57 % 1015,8 hPa 0,0 l/m 14,6 km/h (3 Bft) W 268 1 min 0,000 mm 3,3 UV-I 791 W/m 11,7 C 17,9 C 22,5 km/h (4 Bft) 95,65 %
24.04.2018 14:57 20,5 C 18,9 C 58 % 1015,7 hPa 0,0 l/m 12,4 km/h (3 Bft) W-SW 248 1 min 0,000 mm 3,2 UV-I 789 W/m 11,9 C 18,5 C 14,5 km/h (3 Bft) 100,00 %
24.04.2018 14:58 20,5 C 18,9 C 58 % 1015,7 hPa 0,0 l/m 12,8 km/h (3 Bft) SW 219 1 min 0,000 mm 3,2 UV-I 794 W/m 11,9 C 18,4 C 17,7 km/h (3 Bft) 100,00 %
24.04.2018 14:59 20,7 C 18,9 C 61 % 1015,7 hPa 0,0 l/m 17,4 km/h (3 Bft) SW 219 1 min 0,000 mm 3,2 UV-I 789 W/m 12,9 C 17,6 C 20,9 km/h (4 Bft) 100,00 %
24.04.2018 15:00 20,8 C 18,9 C 59 % 1015,7 hPa 0,0 l/m 17,8 km/h (3 Bft) W-SW 248 1 min 0,000 mm 3,2 UV-I 768 W/m 12,5 C 17,6 C 24,1 km/h (4 Bft) 100,00 %
24.04.2018 15:02 20,8 C 18,9 C 56 % 1015,6 hPa 0,0 l/m 14,7 km/h (3 Bft) S-SW 208 2 min 0,482 mm 3,1 UV-I 728 W/m 11,7 C 18,3 C 20,9 km/h (4 Bft) 100,00 %
24.04.2018 15:03 20,8 C 18,9 C 55 % 1015,6 hPa 0,0 l/m 17,3 km/h (3 Bft) SW 231 1 min 0,000 mm 3,1 UV-I 752 W/m 11,4 C 17,7 C 24,1 km/h (4 Bft) 100,00 %
24.04.2018 15:04 20,8 C 18,9 C 56 % 1015,7 hPa 0,0 l/m 18,1 km/h (3 Bft) S-SW 194 1 min 0,000 mm 3,1 UV-I 759 W/m 11,7 C 17,6 C 22,5 km/h (4 Bft) 100,00 %
24.04.2018 15:05 20,8 C 18,9 C 57 % 1015,7 hPa 0,0 l/m 14,8 km/h (3 Bft) W-SW 240 1 min 0,000 mm 3,1 UV-I 743 W/m 12,0 C 18,3 C 22,5 km/h (4 Bft) 100,00 %
24.04.2018 15:06 20,8 C 18,9 C 57 % 1015,6 hPa 0,0 l/m 13,5 km/h (3 Bft) W-SW 251 1 min 0,000 mm 3,1 UV-I 729 W/m 12,0 C 18,6 C 16,1 km/h (3 Bft) 100,00 %
24.04.2018 15:07 20,9 C 18,9 C 58 % 1015,6 hPa 0,0 l/m 14,3 km/h (3 Bft) SW 224 1 min 0,000 mm 3,1 UV-I 714 W/m 12,3 C 18,5 C 19,3 km/h (3 Bft) 100,00 %
24.04.2018 15:08 20,9 C 18,9 C 57 % 1015,6 hPa 0,0 l/m 10,5 km/h (2 Bft) SW 225 1 min 0,000 mm 3,1 UV-I 715 W/m 12,1 C 19,5 C 17,7 km/h (3 Bft) 100,00 %
24.04.2018 15:09 20,9 C 18,9 C 56 % 1015,6 hPa 0,0 l/m 13,9 km/h (3 Bft) S 182 1 min 0,000 mm 3,1 UV-I 725 W/m 11,8 C 18,6 C 19,3 km/h (3 Bft) 95,83 %
24.04.2018 15:10 20,8 C 18,9 C 55 % 1015,5 hPa 0,0 l/m 11,2 km/h (2 Bft) S-SW 207 1 min 0,000 mm 3,1 UV-I 705 W/m 11,4 C 19,2 C 17,7 km/h (3 Bft) 100,00 %
24.04.2018 15:11 20,8 C 18,9 C 56 % 1015,5 hPa 0,0 l/m 15,9 km/h (3 Bft) W-SW 244 1 min 0,000 mm 3,1 UV-I 699 W/m 11,7 C 18,0 C 22,5 km/h (4 Bft) 100,00 %
24.04.2018 15:12 20,8 C 18,9 C 58 % 1015,5 hPa 0,0 l/m 13,1 km/h (3 Bft) S-SW 205 1 min 0,000 mm 3,0 UV-I 702 W/m 12,2 C 18,7 C 19,3 km/h (3 Bft) 100,00 %
24.04.2018 15:13 20,9 C 18,9 C 59 % 1015,5 hPa 0,0 l/m 14,9 km/h (3 Bft) W-SW 246 1 min 0,000 mm 3,1 UV-I 712 W/m 12,6 C 18,4 C 22,5 km/h (4 Bft) 100,00 %
24.04.2018 15:14 20,8 C 18,9 C 56 % 1015,5 hPa 0,0 l/m 11,8 km/h (2 Bft) SW 236 1 min 0,000 mm 3,1 UV-I 726 W/m 11,7 C 19,0 C 16,1 km/h (3 Bft) 100,00 %
24.04.2018 15:15 20,8 C 18,9 C 57 % 1015,5 hPa 0,0 l/m 13,8 km/h (3 Bft) W-SW 238 1 min 0,000 mm 3,1 UV-I 731 W/m 12,0 C 18,5 C 17,7 km/h (3 Bft) 97,56 %
24.04.2018 15:16 20,8 C 18,9 C 57 % 1015,5 hPa 0,0 l/m 11,9 km/h (2 Bft) W-SW 252 1 min 0,000 mm 3,1 UV-I 735 W/m 12,0 C 19,0 C 16,1 km/h (3 Bft) 100,00 %
24.04.2018 15:17 20,9 C 18,9 C 58 % 1015,5 hPa 0,0 l/m 10,3 km/h (2 Bft) SW 234 1 min 0,000 mm 3,1 UV-I 726 W/m 12,3 C 19,5 C 16,1 km/h (3 Bft) 97,97 %
24.04.2018 15:18 20,9 C 18,9 C 58 % 1015,5 hPa 0,0 l/m 13,0 km/h (3 Bft) SW 216 1 min 0,000 mm 3,1 UV-I 704 W/m 12,3 C 18,8 C 17,7 km/h (3 Bft) 100,00 %
24.04.2018 15:19 20,9 C 18,9 C 56 % 1015,5 hPa 0,0 l/m 10,1 km/h (2 Bft) S 169 1 min 0,000 mm 3,1 UV-I 717 W/m 11,8 C 19,6 C 12,9 km/h (3 Bft) 100,00 %
24.04.2018 15:20 20,8 C 18,9 C 56 % 1015,4 hPa 0,0 l/m 11,5 km/h (2 Bft) S-SW 212 1 min 0,000 mm 3,0 UV-I 708 W/m 11,7 C 19,1 C 17,7 km/h (3 Bft) 100,00 %
24.04.2018 15:21 20,8 C 18,9 C 59 % 1015,4 hPa 0,0 l/m 7,8 km/h (2 Bft) W 259 1 min 0,000 mm 2,9 UV-I 700 W/m 12,5 C 20,3 C 12,9 km/h (3 Bft) 100,00 %
24.04.2018 15:22 20,9 C 18,9 C 58 % 1015,3 hPa 0,0 l/m 16,6 km/h (3 Bft) SW 236 1 min 0,000 mm 2,9 UV-I 697 W/m 12,3 C 18,0 C 24,1 km/h (4 Bft) 100,00 %
24.04.2018 15:23 20,9 C 18,9 C 57 % 1015,3 hPa 0,0 l/m 13,8 km/h (3 Bft) S-SW 205 1 min 0,000 mm 2,9 UV-I 681 W/m 12,1 C 18,6 C 17,7 km/h (3 Bft) 100,00 %
24.04.2018 15:24 21,0 C 18,9 C 57 % 1015,3 hPa 0,0 l/m 15,8 km/h (3 Bft) S-SW 202 1 min 0,000 mm 3,0 UV-I 718 W/m 12,1 C 18,3 C 17,7 km/h (3 Bft) 100,00 %
24.04.2018 15:25 20,9 C 18,9 C 55 % 1015,4 hPa 0,0 l/m 11,5 km/h (2 Bft) SW 224 1 min 0,000 mm 2,9 UV-I 722 W/m 11,5 C 19,2 C 16,1 km/h (3 Bft) 97,99 %
24.04.2018 15:26 20,9 C 18,9 C 57 % 1015,3 hPa 0,0 l/m 16,2 km/h (3 Bft) SW 230 1 min 0,000 mm 2,9 UV-I 721 W/m 12,1 C 18,1 C 24,1 km/h (4 Bft) 100,00 %
24.04.2018 15:27 20,9 C 18,9 C 56 % 1015,3 hPa 0,0 l/m 12,2 km/h (2 Bft) W 277 1 min 0,000 mm 2,9 UV-I 718 W/m 11,8 C 19,0 C 17,7 km/h (3 Bft) 100,00 %
24.04.2018 15:28 20,9 C 18,9 C 55 % 1015,4 hPa 0,0 l/m 5,2 km/h (1 Bft) W 266 1 min 0,000 mm 2,9 UV-I 719 W/m 11,5 C 20,9 C 12,9 km/h (3 Bft) 96,15 %
24.04.2018 15:29 20,9 C 18,9 C 56 % 1015,4 hPa 0,0 l/m 10,5 km/h (2 Bft) W-SW 251 1 min 0,000 mm 2,9 UV-I 718 W/m 11,8 C 19,5 C 14,5 km/h (3 Bft) 100,00 %
24.04.2018 15:30 20,9 C 18,9 C 57 % 1015,4 hPa 0,0 l/m 11,9 km/h (2 Bft) W-SW 257 1 min 0,000 mm 2,9 UV-I 708 W/m 12,1 C 19,1 C 14,5 km/h (3 Bft) 100,00 %
24.04.2018 15:31 20,9 C 18,9 C 57 % 1015,3 hPa 0,0 l/m 7,9 km/h (2 Bft) S-SW 209 1 min 0,000 mm 2,8 UV-I 691 W/m 12,1 C 20,3 C 11,3 km/h (2 Bft) 100,00 %
24.04.2018 15:32 20,9 C 18,9 C 55 % 1015,2 hPa 0,0 l/m 11,4 km/h (2 Bft) W-SW 244 1 min 0,000 mm 2,8 UV-I 697 W/m 11,5 C 19,2 C 12,9 km/h (3 Bft) 100,00 %
24.04.2018 15:33 21,0 C 18,9 C 57 % 1015,2 hPa 0,0 l/m 9,3 km/h (2 Bft) W-SW 254 1 min 0,000 mm 2,8 UV-I 707 W/m 12,1 C 20,0 C 12,9 km/h (3 Bft) 100,00 %
24.04.2018 15:34 21,1 C 18,9 C 58 % 1015,2 hPa 0,0 l/m 11,4 km/h (2 Bft) W-SW 240 1 min 0,000 mm 2,8 UV-I 707 W/m 12,5 C 19,5 C 19,3 km/h (3 Bft) 81,82 %
24.04.2018 15:35 21,2 C 18,9 C 56 % 1015,2 hPa 0,0 l/m 14,2 km/h (3 Bft) SW 229 1 min 0,000 mm 2,8 UV-I 696 W/m 12,1 C 18,9 C 17,7 km/h (3 Bft) 100,00 %
24.04.2018 15:36 21,2 C 18,9 C 57 % 1015,2 hPa 0,0 l/m 12,2 km/h (2 Bft) S-SW 196 1 min 0,000 mm 2,7 UV-I 682 W/m 12,3 C 19,4 C 17,7 km/h (3 Bft) 93,10 %
24.04.2018 15:38 21,2 C 18,9 C 55 % 1015,2 hPa 0,0 l/m 13,5 km/h (3 Bft) S-SW 211 2 min 0,000 mm 2,7 UV-I 702 W/m 11,8 C 19,0 C 24,1 km/h (4 Bft) 97,56 %
24.04.2018 15:39 21,2 C 18,9 C 57 % 1015,2 hPa 0,0 l/m 11,7 km/h (2 Bft) W 264 1 min 0,000 mm 2,6 UV-I 708 W/m 12,3 C 19,5 C 20,9 km/h (4 Bft) 95,83 %
24.04.2018 15:40 21,2 C 18,9 C 54 % 1015,1 hPa 0,0 l/m 9,2 km/h (2 Bft) W-SW 240 1 min 0,000 mm 2,6 UV-I 730 W/m 11,5 C 20,2 C 12,9 km/h (3 Bft) 100,00 %
24.04.2018 15:41 21,3 C 18,9 C 55 % 1015,1 hPa 0,0 l/m 12,4 km/h (3 Bft) W-SW 244 1 min 0,000 mm 2,6 UV-I 742 W/m 11,9 C 19,4 C 16,1 km/h (3 Bft) 91,67 %
24.04.2018 15:42 21,4 C 18,9 C 55 % 1015,1 hPa 0,0 l/m 8,8 km/h (2 Bft) W-NW 286 1 min 0,000 mm 2,6 UV-I 742 W/m 12,0 C 20,6 C 12,9 km/h (3 Bft) 100,00 %
24.04.2018 15:43 21,5 C 18,9 C 54 % 1015,1 hPa 0,0 l/m 12,8 km/h (3 Bft) W-SW 257 1 min 0,000 mm 2,4 UV-I 708 W/m 11,8 C 19,6 C 19,3 km/h (3 Bft) 91,67 %
24.04.2018 15:44 21,5 C 18,9 C 55 % 1015,1 hPa 0,0 l/m 12,1 km/h (2 Bft) W-NW 285 1 min 0,000 mm 2,3 UV-I 636 W/m 12,1 C 19,7 C 16,1 km/h (3 Bft) 96,15 %
24.04.2018 15:45 21,4 C 18,9 C 55 % 1015,1 hPa 0,0 l/m 7,6 km/h (2 Bft) SW 222 1 min 0,000 mm 2,2 UV-I 626 W/m 12,0 C 21,0 C 12,9 km/h (3 Bft) 91,67 %
24.04.2018 15:46 21,4 C 18,9 C 53 % 1015,1 hPa 0,0 l/m 8,2 km/h (2 Bft) W 274 1 min 0,000 mm 2,2 UV-I 629 W/m 11,4 C 20,8 C 12,9 km/h (3 Bft) 97,37 %
24.04.2018 15:47 21,4 C 18,9 C 53 % 1015,1 hPa 0,0 l/m 11,6 km/h (2 Bft) W 259 1 min 0,000 mm 2,1 UV-I 646 W/m 11,4 C 19,7 C 12,9 km/h (3 Bft) 100,00 %
24.04.2018 15:48 21,3 C 18,9 C 54 % 1015,1 hPa 0,0 l/m 14,3 km/h (3 Bft) W 264 1 min 0,000 mm 2,1 UV-I 685 W/m 11,6 C 19,0 C 17,7 km/h (3 Bft) 91,67 %
24.04.2018 15:49 21,3 C 18,9 C 53 % 1015,0 hPa 0,0 l/m 9,4 km/h (2 Bft) W-SW 250 1 min 0,000 mm 2,2 UV-I 714 W/m 11,3 C 20,3 C 17,7 km/h (3 Bft) 100,00 %
24.04.2018 15:50 21,3 C 18,9 C 55 % 1015,0 hPa 0,0 l/m 15,5 km/h (3 Bft) SW 236 1 min 0,000 mm 2,2 UV-I 733 W/m 11,9 C 18,7 C 19,3 km/h (3 Bft) 96,67 %
24.04.2018 15:51 21,3 C 18,9 C 53 % 1015,0 hPa 0,0 l/m 11,6 km/h (2 Bft) W-SW 238 1 min 0,000 mm 2,2 UV-I 734 W/m 11,3 C 19,6 C 16,1 km/h (3 Bft) 96,15 %
24.04.2018 15:52 21,3 C 18,9 C 53 % 1015,0 hPa 0,0 l/m 9,7 km/h (2 Bft) W 265 1 min 0,000 mm 2,2 UV-I 733 W/m 11,3 C 20,2 C 12,9 km/h (3 Bft) 95,83 %
24.04.2018 15:53 21,3 C 18,9 C 53 % 1015,1 hPa 0,0 l/m 6,9 km/h (2 Bft) W 269 1 min 0,000 mm 2,1 UV-I 726 W/m 11,3 C 21,1 C 11,3 km/h (2 Bft) 100,00 %
24.04.2018 15:54 21,3 C 18,9 C 54 % 1015,1 hPa 0,0 l/m 7,5 km/h (2 Bft) NW 323 1 min 0,000 mm 2,2 UV-I 712 W/m 11,6 C 20,9 C 12,9 km/h (3 Bft) 96,30 %
24.04.2018 15:55 21,3 C 18,9 C 55 % 1015,0 hPa 0,0 l/m 8,0 km/h (2 Bft) N 9 1 min 0,000 mm 2,2 UV-I 710 W/m 11,9 C 20,7 C 11,3 km/h (2 Bft) 95,65 %
24.04.2018 15:56 21,1 C 18,9 C 58 % 1015,0 hPa 0,0 l/m 5,0 km/h (1 Bft) N-NW 332 1 min 0,000 mm 1,8 UV-I 705 W/m 12,5 C 21,1 C 8,0 km/h (2 Bft) 100,00 %
24.04.2018 15:57 21,1 C 18,9 C 61 % 1015,0 hPa 0,0 l/m 4,3 km/h (1 Bft) N 5 1 min 0,000 mm 1,5 UV-I 705 W/m 13,3 C 21,1 C 8,0 km/h (2 Bft) 96,15 %
24.04.2018 15:58 21,0 C 18,9 C 57 % 1015,0 hPa 0,0 l/m 3,5 km/h (1 Bft) NW 305 1 min 0,000 mm 1,5 UV-I 618 W/m 12,1 C 21,0 C 6,4 km/h (2 Bft) 100,00 %
24.04.2018 15:59 20,8 C 18,9 C 59 % 1015,0 hPa 0,0 l/m 6,4 km/h (2 Bft) N 350 0 min 0,000 mm 1,6 UV-I 250 W/m 12,5 C 20,8 C 9,7 km/h (2 Bft) 97,97 %
24.04.2018 16:00 20,7 C 18,9 C 61 % 1015,0 hPa 0,0 l/m 3,2 km/h (1 Bft) N 351 0 min 0,000 mm 1,4 UV-I 202 W/m 12,9 C 20,7 C 4,8 km/h (1 Bft) 97,56 %
24.04.2018 16:02 20,4 C 18,9 C 61 % 1014,9 hPa 0,0 l/m 3,7 km/h (1 Bft) N-NW 346 0 min 0,458 mm 1,3 UV-I 183 W/m 12,6 C 20,4 C 6,4 km/h (2 Bft) 98,00 %
24.04.2018 16:03 20,3 C 18,9 C 61 % 1014,9 hPa 0,0 l/m 3,9 km/h (1 Bft) W-NW 289 0 min 0,000 mm 1,2 UV-I 169 W/m 12,5 C 20,3 C 4,8 km/h (1 Bft) 96,15 %
24.04.2018 16:04 20,2 C 18,9 C 64 % 1014,9 hPa 0,0 l/m 4,5 km/h (1 Bft) W-NW 294 0 min 0,000 mm 1,2 UV-I 161 W/m 13,2 C 20,2 C 6,4 km/h (2 Bft) 96,30 %
24.04.2018 16:05 20,2 C 18,9 C 61 % 1014,9 hPa 0,0 l/m 4,0 km/h (1 Bft) N 355 0 min 0,000 mm 1,1 UV-I 157 W/m 12,4 C 20,2 C 6,4 km/h (2 Bft) 100,00 %
24.04.2018 16:06 20,1 C 18,9 C 63 % 1014,9 hPa 0,0 l/m 5,1 km/h (1 Bft) N-NW 344 0 min 0,000 mm 1,1 UV-I 159 W/m 12,8 C 20,1 C 8,0 km/h (2 Bft) 100,00 %
24.04.2018 16:07 20,0 C 18,9 C 61 % 1014,9 hPa 0,0 l/m 4,9 km/h (1 Bft) NW 304 0 min 0,000 mm 1,1 UV-I 172 W/m 12,2 C 20,0 C 8,0 km/h (2 Bft) 97,44 %
24.04.2018 16:08 19,9 C 18,9 C 60 % 1014,9 hPa 0,0 l/m 3,2 km/h (1 Bft) W-NW 296 0 min 0,000 mm 1,1 UV-I 222 W/m 11,9 C 19,9 C 4,8 km/h (1 Bft) 100,00 %
24.04.2018 16:09 19,9 C 18,9 C 61 % 1014,9 hPa 0,0 l/m 3,3 km/h (1 Bft) W-NW 282 0 min 0,000 mm 1,3 UV-I 237 W/m 12,2 C 19,9 C 6,4 km/h (2 Bft) 100,00 %
24.04.2018 16:10 19,9 C 18,9 C 63 % 1014,9 hPa 0,0 l/m 3,4 km/h (1 Bft) N-NW 335 0 min 0,000 mm 1,5 UV-I 237 W/m 12,6 C 19,9 C 4,8 km/h (1 Bft) 95,65 %
24.04.2018 16:11 20,0 C 18,9 C 62 % 1014,9 hPa 0,0 l/m 3,4 km/h (1 Bft) NW 326 0 min 0,000 mm 1,1 UV-I 228 W/m 12,5 C 20,0 C 4,8 km/h (1 Bft) 100,00 %
24.04.2018 16:12 20,0 C 18,9 C 62 % 1014,9 hPa 0,0 l/m 1,8 km/h (1 Bft) NW 326 0 min 0,000 mm 1,1 UV-I 221 W/m 12,5 C 20,0 C 3,2 km/h (1 Bft) 100,00 %
24.04.2018 16:13 20,0 C 18,9 C 61 % 1014,9 hPa 0,0 l/m 4,6 km/h (1 Bft) W 269 0 min 0,000 mm 1,2 UV-I 232 W/m 12,2 C 20,0 C 8,0 km/h (2 Bft) 100,00 %
24.04.2018 16:14 20,1 C 18,9 C 62 % 1014,8 hPa 0,0 l/m 5,4 km/h (1 Bft) W-SW 246 0 min 0,000 mm 1,3 UV-I 236 W/m 12,6 C 20,1 C 11,3 km/h (2 Bft) 100,00 %
24.04.2018 16:15 20,2 C 18,9 C 63 % 1014,8 hPa 0,0 l/m 4,4 km/h (1 Bft) W-SW 257 0 min 0,000 mm 1,6 UV-I 298 W/m 12,9 C 20,2 C 6,4 km/h (2 Bft) 100,00 %
24.04.2018 16:16 20,2 C 18,9 C 61 % 1014,9 hPa 0,0 l/m 5,1 km/h (1 Bft) W 275 1 min 0,000 mm 1,7 UV-I 652 W/m 12,4 C 20,2 C 6,4 km/h (2 Bft) 100,00 %
24.04.2018 16:17 20,3 C 18,9 C 60 % 1014,9 hPa 0,0 l/m 4,9 km/h (1 Bft) W-NW 295 1 min 0,000 mm 1,8 UV-I 661 W/m 12,3 C 20,3 C 6,4 km/h (2 Bft) 100,00 %
24.04.2018 16:18 20,4 C 18,9 C 60 % 1014,8 hPa 0,0 l/m 4,5 km/h (1 Bft) W-NW 302 1 min 0,000 mm 1,8 UV-I 625 W/m 12,4 C 20,4 C 8,0 km/h (2 Bft) 96,55 %
24.04.2018 16:19 20,6 C 18,9 C 61 % 1014,8 hPa 0,0 l/m 5,8 km/h (2 Bft) N-NW 342 1 min 0,000 mm 1,9 UV-I 600 W/m 12,8 C 20,6 C 8,0 km/h (2 Bft) 100,00 %
24.04.2018 16:20 20,7 C 18,9 C 58 % 1014,8 hPa 0,0 l/m 4,4 km/h (1 Bft) NW 317 1 min 0,000 mm 1,8 UV-I 591 W/m 12,1 C 20,7 C 6,4 km/h (2 Bft) 100,00 %
24.04.2018 16:21 20,8 C 18,9 C 59 % 1014,8 hPa 0,0 l/m 5,6 km/h (1 Bft) N-NW 327 1 min 0,000 mm 1,8 UV-I 557 W/m 12,5 C 20,8 C 8,0 km/h (2 Bft) 95,83 %
24.04.2018 16:22 20,8 C 18,9 C 60 % 1014,8 hPa 0,0 l/m 3,9 km/h (1 Bft) N 349 1 min 0,000 mm 1,8 UV-I 516 W/m 12,7 C 20,8 C 6,4 km/h (2 Bft) 100,00 %
24.04.2018 16:23 20,9 C 18,9 C 61 % 1014,8 hPa 0,0 l/m 6,5 km/h (2 Bft) NW 317 1 min 0,000 mm 1,7 UV-I 490 W/m 13,1 C 20,9 C 8,0 km/h (2 Bft) 100,00 %
24.04.2018 16:24 21,0 C 18,9 C 59 % 1014,8 hPa 0,0 l/m 3,5 km/h (1 Bft) W-SW 258 1 min 0,000 mm 1,7 UV-I 456 W/m 12,7 C 21,0 C 4,8 km/h (1 Bft) 95,65 %
24.04.2018 16:25 21,1 C 18,9 C 60 % 1014,8 hPa 0,0 l/m 5,5 km/h (1 Bft) W 266 1 min 0,000 mm 1,6 UV-I 425 W/m 13,0 C 21,1 C 9,7 km/h (2 Bft) 97,99 %
24.04.2018 16:26 21,1 C 18,9 C 56 % 1014,8 hPa 0,0 l/m 5,3 km/h (1 Bft) W-SW 243 1 min 0,000 mm 1,6 UV-I 427 W/m 12,0 C 21,1 C 9,7 km/h (2 Bft) 100,00 %
24.04.2018 16:27 21,1 C 18,9 C 56 % 1014,8 hPa 0,0 l/m 4,7 km/h (1 Bft) W-NW 297 1 min 0,000 mm 1,6 UV-I 442 W/m 12,0 C 21,1 C 8,0 km/h (2 Bft) 100,00 %
24.04.2018 16:28 21,0 C 18,9 C 57 % 1014,8 hPa 0,0 l/m 7,1 km/h (2 Bft) W 265 1 min 0,000 mm 1,6 UV-I 464 W/m 12,1 C 20,7 C 9,7 km/h (2 Bft) 100,00 %
24.04.2018 16:29 20,9 C 18,9 C 56 % 1014,8 hPa 0,0 l/m 6,4 km/h (2 Bft) W 267 1 min 0,000 mm 1,6 UV-I 456 W/m 11,8 C 20,9 C 11,3 km/h (2 Bft) 100,00 %
24.04.2018 16:30 20,8 C 18,9 C 55 % 1014,7 hPa 0,0 l/m 4,0 km/h (1 Bft) W-SW 253 1 min 0,000 mm 1,6 UV-I 461 W/m 11,4 C 20,8 C 6,4 km/h (2 Bft) 95,83 %
24.04.2018 16:31 20,8 C 18,9 C 55 % 1014,7 hPa 0,0 l/m 7,5 km/h (2 Bft) W-SW 254 1 min 0,000 mm 1,6 UV-I 479 W/m 11,4 C 20,4 C 9,7 km/h (2 Bft) 100,00 %
24.04.2018 16:33 20,8 C 18,9 C 56 % 1014,7 hPa 0,0 l/m 5,7 km/h (1 Bft) W 264 2 min 0,000 mm 1,6 UV-I 492 W/m 11,7 C 20,8 C 9,7 km/h (2 Bft) 100,00 %
24.04.2018 16:34 20,8 C 18,9 C 56 % 1014,7 hPa 0,0 l/m 1,1 km/h (1 Bft) W 264 1 min 0,000 mm 1,6 UV-I 487 W/m 11,7 C 20,8 C 3,2 km/h (1 Bft) 96,30 %
24.04.2018 16:35 20,8 C 18,9 C 57 % 1014,6 hPa 0,0 l/m 3,5 km/h (1 Bft) W-SW 242 1 min 0,000 mm 1,6 UV-I 494 W/m 12,0 C 20,8 C 6,4 km/h (2 Bft) 100,00 %
24.04.2018 16:36 20,9 C 18,9 C 58 % 1014,6 hPa 0,0 l/m 2,6 km/h (1 Bft) W-SW 244 1 min 0,000 mm 1,6 UV-I 505 W/m 12,3 C 20,9 C 4,8 km/h (1 Bft) 100,00 %
24.04.2018 16:37 21,0 C 18,9 C 58 % 1014,6 hPa 0,0 l/m 7,0 km/h (2 Bft) W 265 1 min 0,000 mm 1,6 UV-I 504 W/m 12,4 C 20,8 C 12,9 km/h (3 Bft) 100,00 %
24.04.2018 16:38 21,2 C 18,9 C 57 % 1014,5 hPa 0,0 l/m 9,2 km/h (2 Bft) S-SW 213 1 min 0,000 mm 1,6 UV-I 503 W/m 12,3 C 20,2 C 16,1 km/h (3 Bft) 100,00 %
24.04.2018 16:39 21,2 C 18,9 C 56 % 1014,5 hPa 0,0 l/m 4,7 km/h (1 Bft) NW 304 1 min 0,000 mm 1,6 UV-I 486 W/m 12,1 C 21,2 C 6,4 km/h (2 Bft) 100,00 %
24.04.2018 16:40 21,3 C 18,9 C 56 % 1014,5 hPa 0,0 l/m 7,6 km/h (2 Bft) W 281 1 min 0,000 mm 1,5 UV-I 466 W/m 12,2 C 20,9 C 12,9 km/h (3 Bft) 95,83 %
24.04.2018 16:41 21,4 C 18,9 C 55 % 1014,6 hPa 0,0 l/m 6,3 km/h (2 Bft) W-SW 258 1 min 0,000 mm 1,5 UV-I 447 W/m 12,0 C 21,4 C 11,3 km/h (2 Bft) 100,00 %
24.04.2018 16:42 21,3 C 18,9 C 53 % 1014,5 hPa 0,0 l/m 8,2 km/h (2 Bft) W 269 1 min 0,000 mm 1,5 UV-I 452 W/m 11,3 C 20,6 C 12,9 km/h (3 Bft) 100,00 %
24.04.2018 16:43 21,2 C 18,9 C 54 % 1014,6 hPa 0,0 l/m 13,0 km/h (3 Bft) W-NW 284 1 min 0,000 mm 1,5 UV-I 443 W/m 11,5 C 19,2 C 16,1 km/h (3 Bft) 100,00 %
24.04.2018 16:44 21,2 C 18,9 C 54 % 1014,5 hPa 0,0 l/m 7,3 km/h (2 Bft) W-NW 300 1 min 0,000 mm 1,5 UV-I 473 W/m 11,5 C 20,9 C 12,9 km/h (3 Bft) 100,00 %
24.04.2018 16:45 21,2 C 18,9 C 55 % 1014,6 hPa 0,0 l/m 11,1 km/h (2 Bft) W-SW 250 1 min 0,000 mm 1,5 UV-I 493 W/m 11,8 C 19,7 C 16,1 km/h (3 Bft) 100,00 %
24.04.2018 16:46 21,2 C 18,9 C 55 % 1014,5 hPa 0,0 l/m 9,7 km/h (2 Bft) W 264 1 min 0,000 mm 1,5 UV-I 484 W/m 11,8 C 20,1 C 14,5 km/h (3 Bft) 100,00 %
24.04.2018 16:47 21,3 C 18,9 C 56 % 1014,5 hPa 0,0 l/m 7,3 km/h (2 Bft) W 281 1 min 0,000 mm 1,5 UV-I 488 W/m 12,2 C 21,0 C 11,3 km/h (2 Bft) 100,00 %
24.04.2018 16:48 21,3 C 18,9 C 55 % 1014,5 hPa 0,0 l/m 7,5 km/h (2 Bft) W 271 1 min 0,000 mm 1,4 UV-I 461 W/m 11,9 C 20,9 C 12,9 km/h (3 Bft) 100,00 %
24.04.2018 16:49 21,3 C 18,9 C 54 % 1014,5 hPa 0,0 l/m 8,5 km/h (2 Bft) W-NW 303 1 min 0,000 mm 1,4 UV-I 434 W/m 11,6 C 20,5 C 14,5 km/h (3 Bft) 100,00 %
24.04.2018 16:50 21,3 C 18,9 C 54 % 1014,5 hPa 0,0 l/m 6,2 km/h (2 Bft) W 269 1 min 0,000 mm 1,4 UV-I 428 W/m 11,6 C 21,3 C 9,7 km/h (2 Bft) 100,00 %
24.04.2018 16:51 21,3 C 18,9 C 57 % 1014,5 hPa 0,0 l/m 7,9 km/h (2 Bft) SW 216 1 min 0,000 mm 1,3 UV-I 420 W/m 12,4 C 20,8 C 12,9 km/h (3 Bft) 95,83 %
24.04.2018 16:52 21,4 C 18,9 C 58 % 1014,5 hPa 0,0 l/m 10,9 km/h (2 Bft) SW 233 1 min 0,000 mm 1,3 UV-I 435 W/m 12,8 C 19,9 C 14,5 km/h (3 Bft) 94,12 %
24.04.2018 16:53 21,3 C 18,9 C 54 % 1014,5 hPa 0,0 l/m 12,3 km/h (3 Bft) W-SW 244 1 min 0,000 mm 1,3 UV-I 454 W/m 11,6 C 19,5 C 16,1 km/h (3 Bft) 95,83 %
24.04.2018 16:54 21,3 C 18,9 C 55 % 1014,5 hPa 0,0 l/m 9,7 km/h (2 Bft) W-SW 247 1 min 0,000 mm 1,4 UV-I 458 W/m 11,9 C 20,2 C 14,5 km/h (3 Bft) 95,65 %
24.04.2018 16:55 21,4 C 18,9 C 54 % 1014,5 hPa 0,0 l/m 7,2 km/h (2 Bft) NW 315 1 min 0,000 mm 1,3 UV-I 453 W/m 11,7 C 21,1 C 11,3 km/h (2 Bft) 100,00 %
24.04.2018 16:56 21,4 C 18,9 C 54 % 1014,5 hPa 0,0 l/m 10,9 km/h (2 Bft) W 273 1 min 0,000 mm 1,3 UV-I 440 W/m 11,7 C 19,9 C 16,1 km/h (3 Bft) 95,65 %
24.04.2018 16:57 21,4 C 18,9 C 54 % 1014,5 hPa 0,0 l/m 12,8 km/h (3 Bft) W-SW 254 1 min 0,000 mm 1,3 UV-I 467 W/m 11,7 C 19,4 C 20,9 km/h (4 Bft) 100,00 %
24.04.2018 16:58 21,4 C 18,9 C 54 % 1014,4 hPa 0,0 l/m 18,3 km/h (3 Bft) W-SW 252 1 min 0,000 mm 1,3 UV-I 459 W/m 11,7 C 18,3 C 22,5 km/h (4 Bft) 96,55 %
24.04.2018 16:59 21,4 C 18,9 C 55 % 1014,4 hPa 0,0 l/m 15,9 km/h (3 Bft) SW 229 1 min 0,000 mm 1,3 UV-I 479 W/m 12,0 C 18,8 C 22,5 km/h (4 Bft) 100,00 %
24.04.2018 17:00 21,3 C 18,9 C 56 % 1014,5 hPa 0,0 l/m 11,4 km/h (2 Bft) W-SW 250 1 min 0,304 mm 1,3 UV-I 482 W/m 12,2 C 19,7 C 17,7 km/h (3 Bft) 91,67 %
24.04.2018 17:02 21,4 C 18,9 C 55 % 1014,4 hPa 0,0 l/m 10,6 km/h (2 Bft) S-SW 212 2 min 0,000 mm 1,3 UV-I 436 W/m 12,0 C 20,0 C 16,1 km/h (3 Bft) 98,21 %
24.04.2018 17:03 21,4 C 18,9 C 54 % 1014,4 hPa 0,0 l/m 7,6 km/h (2 Bft) W-SW 244 1 min 0,000 mm 1,2 UV-I 410 W/m 11,7 C 21,0 C 11,3 km/h (2 Bft) 96,55 %
24.04.2018 17:04 21,4 C 18,9 C 57 % 1014,4 hPa 0,0 l/m 10,2 km/h (2 Bft) W 261 1 min 0,000 mm 1,2 UV-I 416 W/m 12,5 C 20,1 C 12,9 km/h (3 Bft) 100,00 %
24.04.2018 17:05 21,3 C 18,9 C 53 % 1014,5 hPa 0,0 l/m 9,1 km/h (2 Bft) SW 234 1 min 0,000 mm 1,2 UV-I 422 W/m 11,3 C 20,4 C 11,3 km/h (2 Bft) 100,00 %
24.04.2018 17:06 21,3 C 18,9 C 54 % 1014,5 hPa 0,0 l/m 8,4 km/h (2 Bft) W 264 1 min 0,000 mm 1,2 UV-I 439 W/m 11,6 C 20,6 C 11,3 km/h (2 Bft) 96,30 %
24.04.2018 17:08 21,3 C 18,9 C 54 % 1014,4 hPa 0,0 l/m 5,9 km/h (2 Bft) W 265 2 min 0,000 mm 1,2 UV-I 414 W/m 11,6 C 21,3 C 9,7 km/h (2 Bft) 98,00 %
24.04.2018 17:09 21,2 C 18,9 C 53 % 1014,4 hPa 0,0 l/m 7,0 km/h (2 Bft) W 263 1 min 0,000 mm 1,1 UV-I 410 W/m 11,2 C 21,0 C 9,7 km/h (2 Bft) 85,71 %
24.04.2018 17:10 21,3 C 18,9 C 54 % 1014,4 hPa 0,0 l/m 3,4 km/h (1 Bft) NW 306 1 min 0,000 mm 1,1 UV-I 410 W/m 11,6 C 21,3 C 4,8 km/h (1 Bft) 100,00 %
24.04.2018 17:11 21,3 C 18,9 C 54 % 1014,5 hPa 0,0 l/m 8,0 km/h (2 Bft) W-NW 286 1 min 0,000 mm 1,1 UV-I 408 W/m 11,6 C 20,7 C 12,9 km/h (3 Bft) 96,15 %
24.04.2018 17:13 21,3 C 18,9 C 55 % 1014,4 hPa 0,0 l/m 5,9 km/h (2 Bft) W-SW 250 2 min 0,000 mm 1,1 UV-I 395 W/m 11,9 C 21,3 C 11,3 km/h (2 Bft) 97,56 %
24.04.2018 17:14 21,3 C 18,9 C 54 % 1014,4 hPa 0,0 l/m 13,1 km/h (3 Bft) SW 234 1 min 0,000 mm 1,1 UV-I 381 W/m 11,6 C 19,3 C 16,1 km/h (3 Bft) 100,00 %
24.04.2018 17:15 21,3 C 18,9 C 54 % 1014,4 hPa 0,0 l/m 10,3 km/h (2 Bft) W 266 1 min 0,000 mm 1,0 UV-I 376 W/m 11,6 C 20,0 C 16,1 km/h (3 Bft) 96,15 %
24.04.2018 17:16 21,3 C 18,9 C 54 % 1014,5 hPa 0,0 l/m 9,4 km/h (2 Bft) W-SW 257 1 min 0,000 mm 1,0 UV-I 354 W/m 11,6 C 20,3 C 12,9 km/h (3 Bft) 100,00 %
24.04.2018 17:17 21,4 C 18,9 C 55 % 1014,4 hPa 0,0 l/m 6,2 km/h (2 Bft) W-SW 249 1 min 0,000 mm 1,0 UV-I 350 W/m 12,0 C 21,4 C 11,3 km/h (2 Bft) 96,30 %
24.04.2018 17:18 21,3 C 18,9 C 54 % 1014,4 hPa 0,0 l/m 11,7 km/h (2 Bft) W-SW 250 1 min 0,000 mm 1,0 UV-I 358 W/m 11,6 C 19,6 C 17,7 km/h (3 Bft) 96,88 %
24.04.2018 17:19 21,3 C 18,9 C 54 % 1014,4 hPa 0,0 l/m 8,2 km/h (2 Bft) W 263 1 min 0,000 mm 1,0 UV-I 361 W/m 11,6 C 20,6 C 12,9 km/h (3 Bft) 100,00 %
24.04.2018 17:20 21,3 C 18,9 C 54 % 1014,4 hPa 0,0 l/m 10,5 km/h (2 Bft) W 267 1 min 0,000 mm 1,0 UV-I 354 W/m 11,6 C 19,9 C 12,9 km/h (3 Bft) 91,67 %
24.04.2018 17:21 21,3 C 18,9 C 53 % 1014,4 hPa 0,0 l/m 9,9 km/h (2 Bft) W-SW 252 1 min 0,000 mm 1,0 UV-I 366 W/m 11,3 C 20,1 C 12,9 km/h (3 Bft) 100,00 %
24.04.2018 17:22 21,2 C 18,9 C 54 % 1014,3 hPa 0,0 l/m 6,7 km/h (2 Bft) W-NW 284 1 min 0,000 mm 0,9 UV-I 366 W/m 11,5 C 21,1 C 11,3 km/h (2 Bft) 90,91 %
24.04.2018 17:23 21,2 C 18,9 C 54 % 1014,4 hPa 0,0 l/m 6,7 km/h (2 Bft) W 281 1 min 0,000 mm 0,9 UV-I 369 W/m 11,5 C 21,1 C 11,3 km/h (2 Bft) 100,00 %
24.04.2018 17:24 21,2 C 18,9 C 55 % 1014,4 hPa 0,0 l/m 5,0 km/h (1 Bft) W 264 1 min 0,000 mm 0,9 UV-I 365 W/m 11,8 C 21,2 C 9,7 km/h (2 Bft) 85,71 %
24.04.2018 17:25 21,2 C 18,9 C 53 % 1014,3 hPa 0,0 l/m 3,9 km/h (1 Bft) W-NW 288 1 min 0,000 mm 0,9 UV-I 354 W/m 11,2 C 21,2 C 4,8 km/h (1 Bft) 100,00 %
24.04.2018 17:26 21,2 C 18,9 C 53 % 1014,4 hPa 0,0 l/m 3,5 km/h (1 Bft) NW 316 1 min 0,000 mm 0,9 UV-I 354 W/m 11,2 C 21,2 C 4,8 km/h (1 Bft) 96,15 %
24.04.2018 17:27 21,3 C 18,9 C 54 % 1014,3 hPa 0,0 l/m 5,3 km/h (1 Bft) W 277 1 min 0,000 mm 0,9 UV-I 357 W/m 11,6 C 21,3 C 11,3 km/h (2 Bft) 100,00 %
24.04.2018 17:28 21,3 C 18,9 C 55 % 1014,3 hPa 0,0 l/m 6,4 km/h (2 Bft) W 267 1 min 0,000 mm 0,9 UV-I 354 W/m 11,9 C 21,3 C 11,3 km/h (2 Bft) 97,37 %
24.04.2018 17:29 21,3 C 18,9 C 53 % 1014,3 hPa 0,0 l/m 6,5 km/h (2 Bft) N-NW 328 1 min 0,000 mm 0,9 UV-I 335 W/m 11,3 C 21,3 C 9,7 km/h (2 Bft) 92,59 %
24.04.2018 17:30 21,3 C 18,9 C 55 % 1014,3 hPa 0,0 l/m 6,4 km/h (2 Bft) W 265 1 min 0,000 mm 0,9 UV-I 342 W/m 11,9 C 21,3 C 11,3 km/h (2 Bft) 95,65 %
24.04.2018 17:31 21,3 C 18,9 C 53 % 1014,3 hPa 0,0 l/m 6,7 km/h (2 Bft) W 275 1 min 0,000 mm 0,9 UV-I 349 W/m 11,3 C 21,2 C 11,3 km/h (2 Bft) 96,30 %
24.04.2018 17:32 21,3 C 18,9 C 53 % 1014,3 hPa 0,0 l/m 8,9 km/h (2 Bft) W-NW 289 1 min 0,000 mm 0,8 UV-I 348 W/m 11,3 C 20,4 C 16,1 km/h (3 Bft) 95,65 %
24.04.2018 17:33 21,3 C 18,9 C 54 % 1014,3 hPa 0,0 l/m 14,7 km/h (3 Bft) W 266 1 min 0,000 mm 0,8 UV-I 339 W/m 11,6 C 18,9 C 20,9 km/h (4 Bft) 93,33 %
24.04.2018 17:34 21,3 C 18,9 C 54 % 1014,3 hPa 0,0 l/m 7,0 km/h (2 Bft) W-NW 297 1 min 0,000 mm 0,8 UV-I 332 W/m 11,6 C 21,1 C 12,9 km/h (3 Bft) 95,65 %
24.04.2018 17:35 21,4 C 18,9 C 55 % 1014,3 hPa 0,0 l/m 10,6 km/h (2 Bft) W-SW 248 1 min 0,000 mm 0,8 UV-I 335 W/m 12,0 C 20,0 C 14,5 km/h (3 Bft) 96,30 %
24.04.2018 17:36 21,4 C 18,9 C 52 % 1014,3 hPa 0,0 l/m 6,8 km/h (2 Bft) W-NW 282 1 min 0,000 mm 0,8 UV-I 336 W/m 11,1 C 21,3 C 14,5 km/h (3 Bft) 95,65 %
24.04.2018 17:38 21,3 C 18,9 C 55 % 1014,2 hPa 0,0 l/m 8,9 km/h (2 Bft) W 263 2 min 0,000 mm 0,8 UV-I 328 W/m 11,9 C 20,4 C 12,9 km/h (3 Bft) 92,45 %
24.04.2018 17:39 21,3 C 18,9 C 53 % 1014,2 hPa 0,0 l/m 10,9 km/h (2 Bft) W 261 1 min 0,000 mm 0,8 UV-I 320 W/m 11,3 C 19,8 C 16,1 km/h (3 Bft) 88,89 %
24.04.2018 17:40 21,3 C 18,9 C 53 % 1014,2 hPa 0,0 l/m 9,8 km/h (2 Bft) SW 223 1 min 0,000 mm 0,7 UV-I 321 W/m 11,3 C 20,1 C 14,5 km/h (3 Bft) 96,30 %
24.04.2018 17:41 21,4 C 18,9 C 54 % 1014,2 hPa 0,0 l/m 10,3 km/h (2 Bft) W 269 1 min 0,000 mm 0,7 UV-I 323 W/m 11,7 C 20,1 C 14,5 km/h (3 Bft) 95,65 %
24.04.2018 17:42 21,4 C 18,9 C 52 % 1014,2 hPa 0,0 l/m 10,4 km/h (2 Bft) W-SW 240 1 min 0,000 mm 0,7 UV-I 317 W/m 11,1 C 20,1 C 14,5 km/h (3 Bft) 96,30 %
24.04.2018 17:43 21,4 C 18,9 C 52 % 1014,2 hPa 0,0 l/m 9,5 km/h (2 Bft) W-NW 291 1 min 0,000 mm 0,7 UV-I 308 W/m 11,1 C 20,3 C 12,9 km/h (3 Bft) 92,86 %
24.04.2018 17:44 21,4 C 18,9 C 54 % 1014,2 hPa 0,0 l/m 7,8 km/h (2 Bft) W-NW 286 1 min 0,000 mm 0,7 UV-I 312 W/m 11,7 C 20,9 C 12,9 km/h (3 Bft) 96,30 %
24.04.2018 17:45 21,5 C 18,9 C 53 % 1014,2 hPa 0,0 l/m 5,8 km/h (2 Bft) W 281 1 min 0,000 mm 0,7 UV-I 323 W/m 11,5 C 21,5 C 12,9 km/h (3 Bft) 92,31 %
24.04.2018 17:46 21,5 C 18,9 C 53 % 1014,2 hPa 0,0 l/m 6,5 km/h (2 Bft) W-NW 298 1 min 0,000 mm 0,7 UV-I 312 W/m 11,5 C 21,5 C 11,3 km/h (2 Bft) 92,59 %
24.04.2018 17:47 21,5 C 18,9 C 52 % 1014,2 hPa 0,0 l/m 8,4 km/h (2 Bft) W 275 1 min 0,000 mm 0,7 UV-I 311 W/m 11,2 C 20,8 C 12,9 km/h (3 Bft) 100,00 %
24.04.2018 17:48 21,4 C 18,9 C 53 % 1014,2 hPa 0,0 l/m 14,4 km/h (3 Bft) W 271 1 min 0,000 mm 0,7 UV-I 309 W/m 11,4 C 19,1 C 19,3 km/h (3 Bft) 92,59 %
24.04.2018 17:49 21,4 C 18,9 C 53 % 1014,1 hPa 0,0 l/m 11,1 km/h (2 Bft) W-SW 253 1 min 0,000 mm 0,7 UV-I 300 W/m 11,4 C 19,9 C 14,5 km/h (3 Bft) 100,00 %
24.04.2018 17:50 21,4 C 18,9 C 54 % 1014,2 hPa 0,0 l/m 13,7 km/h (3 Bft) W 259 1 min 0,000 mm 0,6 UV-I 294 W/m 11,7 C 19,2 C 14,5 km/h (3 Bft) 91,67 %
24.04.2018 17:51 21,4 C 18,9 C 53 % 1014,2 hPa 0,0 l/m 10,8 km/h (2 Bft) W 263 1 min 0,000 mm 0,6 UV-I 292 W/m 11,4 C 20,0 C 14,5 km/h (3 Bft) 96,15 %
24.04.2018 17:52 21,4 C 18,9 C 53 % 1014,2 hPa 0,0 l/m 6,4 km/h (2 Bft) NW 309 1 min 0,000 mm 0,6 UV-I 292 W/m 11,4 C 21,4 C 11,3 km/h (2 Bft) 95,83 %
24.04.2018 17:53 21,4 C 18,9 C 52 % 1014,3 hPa 0,0 l/m 6,9 km/h (2 Bft) W 279 1 min 0,000 mm 0,6 UV-I 286 W/m 11,1 C 21,2 C 11,3 km/h (2 Bft) 95,65 %
24.04.2018 17:54 21,4 C 18,9 C 53 % 1014,2 hPa 0,0 l/m 6,6 km/h (2 Bft) W 275 1 min 0,000 mm 0,6 UV-I 287 W/m 11,4 C 21,3 C 14,5 km/h (3 Bft) 95,83 %
24.04.2018 17:55 21,4 C 18,9 C 52 % 1014,2 hPa 0,0 l/m 10,8 km/h (2 Bft) W 262 1 min 0,000 mm 0,6 UV-I 284 W/m 11,1 C 20,0 C 16,1 km/h (3 Bft) 91,30 %
24.04.2018 17:56 21,4 C 18,9 C 53 % 1014,3 hPa 0,0 l/m 8,2 km/h (2 Bft) SW 236 1 min 0,000 mm 0,6 UV-I 280 W/m 11,4 C 20,8 C 14,5 km/h (3 Bft) 100,00 %
24.04.2018 17:57 21,4 C 18,9 C 53 % 1014,2 hPa 0,0 l/m 7,6 km/h (2 Bft) W 263 1 min 0,000 mm 0,6 UV-I 282 W/m 11,4 C 21,0 C 11,3 km/h (2 Bft) 100,00 %
24.04.2018 17:58 21,4 C 18,9 C 52 % 1014,3 hPa 0,0 l/m 10,9 km/h (2 Bft) W-SW 258 1 min 0,000 mm 0,6 UV-I 280 W/m 11,1 C 19,9 C 14,5 km/h (3 Bft) 93,18 %
24.04.2018 17:59 21,4 C 18,9 C 52 % 1014,3 hPa 0,0 l/m 7,0 km/h (2 Bft) W 269 1 min 0,000 mm 0,5 UV-I 210 W/m 11,1 C 21,2 C 11,3 km/h (2 Bft) 91,30 %
24.04.2018 18:00 21,4 C 18,9 C 53 % 1014,3 hPa 0,0 l/m 5,3 km/h (1 Bft) W 269 1 min 0,000 mm 0,5 UV-I 194 W/m 11,4 C 21,4 C 6,4 km/h (2 Bft) 100,00 %
24.04.2018 18:02 21,4 C 18,9 C 54 % 1014,2 hPa 0,0 l/m 4,6 km/h (1 Bft) W 263 2 min 0,254 mm 0,5 UV-I 250 W/m 11,7 C 21,4 C 6,4 km/h (2 Bft) 96,00 %
24.04.2018 18:03 21,3 C 18,9 C 54 % 1014,2 hPa 0,0 l/m 6,3 km/h (2 Bft) W 264 1 min 0,000 mm 0,5 UV-I 250 W/m 11,6 C 21,3 C 11,3 km/h (2 Bft) 91,67 %
24.04.2018 18:04 21,3 C 18,9 C 53 % 1014,2 hPa 0,0 l/m 6,9 km/h (2 Bft) W-SW 249 1 min 0,000 mm 0,5 UV-I 219 W/m 11,3 C 21,1 C 12,9 km/h (3 Bft) 96,15 %
24.04.2018 18:05 21,2 C 18,9 C 52 % 1014,2 hPa 0,0 l/m 5,2 km/h (1 Bft) W-SW 248 1 min 0,000 mm 0,5 UV-I 248 W/m 10,9 C 21,2 C 9,7 km/h (2 Bft) 100,00 %
24.04.2018 18:06 21,2 C 18,9 C 52 % 1014,2 hPa 0,0 l/m 3,7 km/h (1 Bft) W-SW 254 1 min 0,000 mm 0,5 UV-I 253 W/m 10,9 C 21,2 C 4,8 km/h (1 Bft) 92,31 %
24.04.2018 18:07 21,2 C 18,9 C 53 % 1014,2 hPa 0,0 l/m 5,3 km/h (1 Bft) W 269 1 min 0,000 mm 0,5 UV-I 253 W/m 11,2 C 21,2 C 6,4 km/h (2 Bft) 100,00 %
24.04.2018 18:08 21,2 C 18,9 C 53 % 1014,2 hPa 0,0 l/m 4,8 km/h (1 Bft) W 265 1 min 0,000 mm 0,5 UV-I 265 W/m 11,2 C 21,2 C 6,4 km/h (2 Bft) 95,65 %
24.04.2018 18:09 21,2 C 18,9 C 53 % 1014,2 hPa 0,0 l/m 3,7 km/h (1 Bft) W-NW 287 1 min 0,000 mm 0,5 UV-I 266 W/m 11,2 C 21,2 C 4,8 km/h (1 Bft) 100,00 %
24.04.2018 18:10 21,3 C 18,9 C 53 % 1014,2 hPa 0,0 l/m 3,4 km/h (1 Bft) W 270 1 min 0,000 mm 0,5 UV-I 265 W/m 11,3 C 21,3 C 4,8 km/h (1 Bft) 96,15 %
24.04.2018 18:11 21,3 C 18,9 C 53 % 1014,2 hPa 0,0 l/m 5,5 km/h (1 Bft) NW 314 1 min 0,000 mm 0,5 UV-I 262 W/m 11,3 C 21,3 C 6,4 km/h (2 Bft) 100,00 %
24.04.2018 18:13 21,3 C 18,9 C 53 % 1014,2 hPa 0,0 l/m 4,7 km/h (1 Bft) W-SW 242 2 min 0,000 mm 0,0 UV-I 247 W/m 11,3 C 21,3 C 6,4 km/h (2 Bft) 98,11 %
24.04.2018 18:14 21,3 C 18,9 C 54 % 1014,2 hPa 0,0 l/m 6,4 km/h (2 Bft) W-SW 242 1 min 0,000 mm 0,0 UV-I 224 W/m 11,6 C 21,3 C 8,0 km/h (2 Bft) 96,15 %
24.04.2018 18:15 21,4 C 18,9 C 53 % 1014,2 hPa 0,0 l/m 3,9 km/h (1 Bft) W-SW 242 1 min 0,000 mm 0,0 UV-I 224 W/m 11,4 C 21,4 C 6,4 km/h (2 Bft) 93,33 %
24.04.2018 18:16 21,4 C 18,9 C 52 % 1014,2 hPa 0,0 l/m 6,7 km/h (2 Bft) W-SW 247 1 min 0,000 mm 0,0 UV-I 234 W/m 11,1 C 21,3 C 9,7 km/h (2 Bft) 100,00 %
24.04.2018 18:17 21,4 C 18,9 C 52 % 1014,2 hPa 0,0 l/m 10,3 km/h (2 Bft) SW 236 1 min 0,000 mm 0,0 UV-I 232 W/m 11,1 C 20,1 C 12,9 km/h (3 Bft) 100,00 %
24.04.2018 18:18 21,4 C 18,9 C 53 % 1014,2 hPa 0,0 l/m 10,8 km/h (2 Bft) SW 221 1 min 0,000 mm 0,0 UV-I 232 W/m 11,4 C 20,0 C 14,5 km/h (3 Bft) 100,00 %
24.04.2018 18:19 21,4 C 18,9 C 52 % 1014,2 hPa 0,0 l/m 8,1 km/h (2 Bft) SW 229 1 min 0,000 mm 0,0 UV-I 232 W/m 11,1 C 20,8 C 12,9 km/h (3 Bft) 100,00 %
24.04.2018 18:20 21,4 C 18,9 C 52 % 1014,1 hPa 0,0 l/m 7,5 km/h (2 Bft) W 261 1 min 0,000 mm 0,0 UV-I 224 W/m 11,1 C 21,0 C 11,3 km/h (2 Bft) 100,00 %
24.04.2018 18:21 21,4 C 18,9 C 53 % 1014,2 hPa 0,0 l/m 5,7 km/h (1 Bft) W 268 1 min 0,000 mm 0,0 UV-I 220 W/m 11,4 C 21,4 C 9,7 km/h (2 Bft) 100,00 %
24.04.2018 18:22 21,4 C 18,9 C 52 % 1014,1 hPa 0,0 l/m 5,5 km/h (1 Bft) W 268 1 min 0,000 mm 0,0 UV-I 215 W/m 11,1 C 21,4 C 6,4 km/h (2 Bft) 100,00 %
24.04.2018 18:23 21,4 C 18,9 C 52 % 1014,1 hPa 0,0 l/m 2,8 km/h (1 Bft) N 5 1 min 0,000 mm 0,0 UV-I 210 W/m 11,1 C 21,4 C 4,8 km/h (1 Bft) 92,31 %
24.04.2018 18:24 21,4 C 18,9 C 55 % 1014,1 hPa 0,0 l/m 2,1 km/h (1 Bft) N 5 1 min 0,000 mm 0,0 UV-I 207 W/m 12,0 C 21,4 C 4,8 km/h (1 Bft) 100,00 %
24.04.2018 18:25 21,3 C 18,9 C 54 % 1014,1 hPa 0,0 l/m 1,7 km/h (1 Bft) N 11 1 min 0,000 mm 0,0 UV-I 206 W/m 11,6 C 21,3 C 3,2 km/h (1 Bft) 100,00 %
24.04.2018 18:26 21,3 C 18,9 C 52 % 1014,1 hPa 0,0 l/m 2,7 km/h (1 Bft) W-NW 292 1 min 0,000 mm 0,0 UV-I 205 W/m 11,0 C 21,3 C 4,8 km/h (1 Bft) 100,00 %
24.04.2018 18:27 21,3 C 18,9 C 53 % 1014,1 hPa 0,0 l/m 8,6 km/h (2 Bft) W 259 1 min 0,000 mm 0,0 UV-I 201 W/m 11,3 C 20,5 C 17,7 km/h (3 Bft) 93,75 %
24.04.2018 18:28 21,3 C 18,9 C 52 % 1014,1 hPa 0,0 l/m 11,7 km/h (2 Bft) W-NW 294 1 min 0,000 mm 0,0 UV-I 198 W/m 11,0 C 19,6 C 17,7 km/h (3 Bft) 100,00 %
24.04.2018 18:29 21,3 C 18,9 C 52 % 1014,1 hPa 0,0 l/m 11,6 km/h (2 Bft) W-NW 302 1 min 0,000 mm 0,0 UV-I 195 W/m 11,0 C 19,6 C 16,1 km/h (3 Bft) 100,00 %
24.04.2018 18:30 21,3 C 18,9 C 51 % 1014,1 hPa 0,0 l/m 10,2 km/h (2 Bft) W 264 1 min 0,000 mm 0,0 UV-I 195 W/m 10,7 C 20,0 C 14,5 km/h (3 Bft) 100,00 %
24.04.2018 18:31 21,2 C 18,9 C 51 % 1014,1 hPa 0,0 l/m 9,6 km/h (2 Bft) NW 308 1 min 0,000 mm 0,0 UV-I 194 W/m 10,7 C 20,1 C 11,3 km/h (2 Bft) 100,00 %
24.04.2018 18:32 21,2 C 18,9 C 52 % 1014,1 hPa 0,0 l/m 7,0 km/h (2 Bft) W 268 1 min 0,000 mm 0,0 UV-I 191 W/m 10,9 C 21,0 C 11,3 km/h (2 Bft) 100,00 %
24.04.2018 18:33 21,2 C 18,9 C 51 % 1014,1 hPa 0,0 l/m 9,1 km/h (2 Bft) W-SW 242 1 min 0,000 mm 0,0 UV-I 184 W/m 10,7 C 20,2 C 12,9 km/h (3 Bft) 100,00 %
24.04.2018 18:34 21,2 C 18,9 C 51 % 1014,1 hPa 0,0 l/m 12,5 km/h (3 Bft) W 274 1 min 0,000 mm 0,0 UV-I 177 W/m 10,7 C 19,3 C 17,7 km/h (3 Bft) 100,00 %
24.04.2018 18:35 21,2 C 18,9 C 50 % 1014,1 hPa 0,0 l/m 11,4 km/h (2 Bft) W 271 1 min 0,000 mm 0,0 UV-I 150 W/m 10,4 C 19,6 C 16,1 km/h (3 Bft) 100,00 %
24.04.2018 18:36 21,1 C 18,9 C 52 % 1014,1 hPa 0,0 l/m 6,8 km/h (2 Bft) W 266 0 min 0,000 mm 0,0 UV-I 121 W/m 10,9 C 21,0 C 9,7 km/h (2 Bft) 100,00 %
24.04.2018 18:37 21,1 C 18,9 C 52 % 1014,1 hPa 0,0 l/m 6,8 km/h (2 Bft) W 270 1 min 0,000 mm 0,0 UV-I 149 W/m 10,9 C 21,0 C 9,7 km/h (2 Bft) 100,00 %
24.04.2018 18:38 21,1 C 18,9 C 52 % 1014,0 hPa 0,0 l/m 11,6 km/h (2 Bft) W 266 1 min 0,000 mm 0,0 UV-I 163 W/m 10,9 C 19,4 C 14,5 km/h (3 Bft) 100,00 %
24.04.2018 18:39 21,0 C 18,9 C 53 % 1014,1 hPa 0,0 l/m 9,9 km/h (2 Bft) W 266 1 min 0,000 mm 0,0 UV-I 167 W/m 11,0 C 19,8 C 12,9 km/h (3 Bft) 100,00 %
24.04.2018 18:40 21,0 C 18,9 C 52 % 1014,0 hPa 0,0 l/m 8,6 km/h (2 Bft) NW 304 1 min 0,000 mm 0,0 UV-I 167 W/m 10,8 C 20,2 C 12,9 km/h (3 Bft) 100,00 %
24.04.2018 18:41 21,1 C 18,9 C 52 % 1014,0 hPa 0,0 l/m 7,3 km/h (2 Bft) W 263 1 min 0,000 mm 0,0 UV-I 163 W/m 10,9 C 20,8 C 9,7 km/h (2 Bft) 100,00 %
24.04.2018 18:43 21,1 C 18,9 C 52 % 1014,0 hPa 0,0 l/m 7,3 km/h (2 Bft) W 275 2 min 0,000 mm 0,0 UV-I 153 W/m 10,9 C 20,8 C 12,9 km/h (3 Bft) 98,11 %
24.04.2018 18:44 21,1 C 18,9 C 52 % 1014,0 hPa 0,0 l/m 4,2 km/h (1 Bft) W 281 1 min 0,000 mm 0,0 UV-I 145 W/m 10,9 C 21,1 C 6,4 km/h (2 Bft) 90,91 %
24.04.2018 18:45 21,1 C 18,9 C 54 % 1014,0 hPa 0,0 l/m 4,0 km/h (1 Bft) W 281 1 min 0,000 mm 0,0 UV-I 149 W/m 11,4 C 21,1 C 6,4 km/h (2 Bft) 100,00 %
24.04.2018 18:46 20,9 C 18,9 C 55 % 1014,1 hPa 0,0 l/m 2,5 km/h (1 Bft) W 281 1 min 0,000 mm 0,0 UV-I 149 W/m 11,5 C 20,9 C 4,8 km/h (1 Bft) 100,00 %
24.04.2018 18:47 20,9 C 18,9 C 55 % 1014,1 hPa 0,0 l/m 3,8 km/h (1 Bft) W-NW 302 1 min 0,000 mm 0,0 UV-I 146 W/m 11,5 C 20,9 C 6,4 km/h (2 Bft) 100,00 %
24.04.2018 18:48 20,9 C 18,9 C 54 % 1014,1 hPa 0,0 l/m 3,9 km/h (1 Bft) W-NW 300 1 min 0,000 mm 0,0 UV-I 143 W/m 11,2 C 20,9 C 6,4 km/h (2 Bft) 100,00 %
24.04.2018 18:49 20,8 C 18,9 C 54 % 1014,1 hPa 0,0 l/m 5,9 km/h (2 Bft) W 275 1 min 0,000 mm 0,0 UV-I 141 W/m 11,1 C 20,8 C 9,7 km/h (2 Bft) 100,00 %
24.04.2018 18:50 20,8 C 18,9 C 53 % 1014,0 hPa 0,0 l/m 5,2 km/h (1 Bft) W-SW 248 1 min 0,000 mm 0,0 UV-I 141 W/m 10,9 C 20,8 C 8,0 km/h (2 Bft) 100,00 %
24.04.2018 18:51 20,8 C 18,9 C 55 % 1014,0 hPa 0,0 l/m 1,7 km/h (1 Bft) W-SW 248 1 min 0,000 mm 0,0 UV-I 139 W/m 11,4 C 20,8 C 3,2 km/h (1 Bft) 100,00 %
24.04.2018 18:52 20,7 C 18,9 C 56 % 1014,0 hPa 0,0 l/m 2,4 km/h (1 Bft) W-SW 248 1 min 0,000 mm 0,0 UV-I 137 W/m 11,6 C 20,7 C 3,2 km/h (1 Bft) 100,00 %
24.04.2018 18:53 20,7 C 18,9 C 53 % 1014,0 hPa 0,0 l/m 5,1 km/h (1 Bft) W-SW 252 1 min 0,000 mm 0,0 UV-I 131 W/m 10,8 C 20,7 C 8,0 km/h (2 Bft) 100,00 %
24.04.2018 18:54 20,6 C 18,9 C 55 % 1014,0 hPa 0,0 l/m 4,1 km/h (1 Bft) W 269 1 min 0,000 mm 0,0 UV-I 115 W/m 11,2 C 20,6 C 6,4 km/h (2 Bft) 100,00 %
24.04.2018 18:55 20,6 C 18,9 C 55 % 1014,0 hPa 0,0 l/m 3,0 km/h (1 Bft) W 269 0 min 0,000 mm 0,0 UV-I 101 W/m 11,2 C 20,6 C 4,8 km/h (1 Bft) 100,00 %
24.04.2018 18:56 20,6 C 18,9 C 55 % 1014,0 hPa 0,0 l/m 3,4 km/h (1 Bft) W 269 0 min 0,000 mm 0,0 UV-I 98 W/m 11,2 C 20,6 C 4,8 km/h (1 Bft) 100,00 %
24.04.2018 18:57 20,6 C 18,9 C 56 % 1014,0 hPa 0,0 l/m 3,4 km/h (1 Bft) W 268 1 min 0,000 mm 0,0 UV-I 111 W/m 11,5 C 20,6 C 4,8 km/h (1 Bft) 100,00 %
24.04.2018 18:58 20,5 C 18,9 C 56 % 1014,0 hPa 0,0 l/m 3,0 km/h (1 Bft) W 277 1 min 0,000 mm 0,0 UV-I 108 W/m 11,4 C 20,5 C 4,8 km/h (1 Bft) 100,00 %
24.04.2018 18:59 20,5 C 18,9 C 56 % 1014,0 hPa 0,0 l/m 1,9 km/h (1 Bft) W 281 1 min 0,000 mm 0,0 UV-I 107 W/m 11,4 C 20,5 C 4,8 km/h (1 Bft) 97,93 %
24.04.2018 19:00 20,4 C 18,9 C 57 % 1014,0 hPa 0,0 l/m 1,0 km/h (0 Bft) W 281 1 min 0,000 mm 0,0 UV-I 106 W/m 11,6 C 20,4 C 1,6 km/h (1 Bft) 100,00 %
24.04.2018 19:02 20,4 C 18,9 C 56 % 1014,0 hPa 0,0 l/m 3,5 km/h (1 Bft) W-NW 295 2 min 0,153 mm 0,0 UV-I 97 W/m 11,3 C 20,4 C 6,4 km/h (2 Bft) 100,00 %
24.04.2018 19:03 20,3 C 18,9 C 57 % 1014,0 hPa 0,0 l/m 3,9 km/h (1 Bft) W-NW 294 1 min 0,000 mm 0,0 UV-I 96 W/m 11,5 C 20,3 C 6,4 km/h (2 Bft) 100,00 %
24.04.2018 19:04 20,3 C 18,9 C 57 % 1014,0 hPa 0,0 l/m 2,0 km/h (1 Bft) W 281 1 min 0,000 mm 0,0 UV-I 96 W/m 11,5 C 20,3 C 4,8 km/h (1 Bft) 100,00 %
24.04.2018 19:05 20,3 C 18,9 C 56 % 1014,0 hPa 0,0 l/m 3,0 km/h (1 Bft) W 281 1 min 0,000 mm 0,0 UV-I 88 W/m 11,2 C 20,3 C 4,8 km/h (1 Bft) 100,00 %
24.04.2018 19:06 20,2 C 18,9 C 58 % 1014,0 hPa 0,0 l/m 1,1 km/h (1 Bft) W 281 0 min 0,000 mm 0,0 UV-I 83 W/m 11,7 C 20,2 C 3,2 km/h (1 Bft) 100,00 %
24.04.2018 19:07 20,2 C 18,9 C 58 % 1014,0 hPa 0,0 l/m 1,7 km/h (1 Bft) W-NW 297 0 min 0,000 mm 0,0 UV-I 79 W/m 11,7 C 20,2 C 4,8 km/h (1 Bft) 95,65 %
24.04.2018 19:08 20,1 C 18,9 C 58 % 1014,0 hPa 0,0 l/m 1,9 km/h (1 Bft) W-NW 298 0 min 0,000 mm 0,0 UV-I 80 W/m 11,6 C 20,1 C 4,8 km/h (1 Bft) 100,00 %
24.04.2018 19:09 20,1 C 18,9 C 58 % 1014,0 hPa 0,0 l/m 1,8 km/h (1 Bft) NW 322 0 min 0,000 mm 0,0 UV-I 80 W/m 11,6 C 20,1 C 4,8 km/h (1 Bft) 100,00 %
24.04.2018 19:10 20,1 C 18,9 C 58 % 1014,0 hPa 0,0 l/m 4,1 km/h (1 Bft) W 269 0 min 0,000 mm 0,0 UV-I 75 W/m 11,6 C 20,1 C 6,4 km/h (2 Bft) 100,00 %
24.04.2018 19:11 20,0 C 18,9 C 59 % 1014,0 hPa 0,0 l/m 3,3 km/h (1 Bft) NW 306 0 min 0,000 mm 0,0 UV-I 74 W/m 11,7 C 20,0 C 4,8 km/h (1 Bft) 100,00 %
24.04.2018 19:12 20,0 C 18,9 C 56 % 1014,0 hPa 0,0 l/m 2,4 km/h (1 Bft) NW 305 0 min 0,000 mm 0,0 UV-I 71 W/m 11,0 C 20,0 C 3,2 km/h (1 Bft) 100,00 %
24.04.2018 19:13 20,0 C 18,9 C 57 % 1014,0 hPa 0,0 l/m 3,6 km/h (1 Bft) NW 306 0 min 0,000 mm 0,0 UV-I 67 W/m 11,2 C 20,0 C 6,4 km/h (2 Bft) 96,55 %
24.04.2018 19:14 19,9 C 18,9 C 58 % 1013,9 hPa 0,0 l/m 4,3 km/h (1 Bft) W-NW 298 0 min 0,000 mm 0,0 UV-I 63 W/m 11,4 C 19,9 C 9,7 km/h (2 Bft) 100,00 %
24.04.2018 19:15 19,9 C 18,9 C 58 % 1014,0 hPa 0,0 l/m 2,7 km/h (1 Bft) W-SW 256 0 min 0,000 mm 0,0 UV-I 58 W/m 11,4 C 19,9 C 3,2 km/h (1 Bft) 100,00 %
24.04.2018 19:16 19,9 C 18,9 C 58 % 1013,9 hPa 0,0 l/m 2,1 km/h (1 Bft) W 281 0 min 0,000 mm 0,0 UV-I 56 W/m 11,4 C 19,9 C 4,8 km/h (1 Bft) 100,00 %
24.04.2018 19:17 19,8 C 18,9 C 59 % 1013,9 hPa 0,0 l/m 1,6 km/h (1 Bft) W 281 0 min 0,000 mm 0,0 UV-I 52 W/m 11,6 C 19,8 C 3,2 km/h (1 Bft) 100,00 %
24.04.2018 19:18 19,8 C 18,9 C 58 % 1013,9 hPa 0,0 l/m 2,1 km/h (1 Bft) W 281 0 min 0,000 mm 0,0 UV-I 46 W/m 11,3 C 19,8 C 3,2 km/h (1 Bft) 100,00 %
24.04.2018 19:19 19,8 C 18,9 C 57 % 1013,9 hPa 0,0 l/m 2,5 km/h (1 Bft) W 280 0 min 0,000 mm 0,0 UV-I 42 W/m 11,0 C 19,8 C 3,2 km/h (1 Bft) 100,00 %
24.04.2018 19:20 19,8 C 18,9 C 57 % 1013,9 hPa 0,0 l/m 0,9 km/h (0 Bft) W 280 0 min 0,000 mm 0,0 UV-I 39 W/m 11,0 C 19,8 C 1,6 km/h (1 Bft) 100,00 %
24.04.2018 19:21 19,8 C 18,9 C 59 % 1014,0 hPa 0,0 l/m 1,9 km/h (1 Bft) W 280 0 min 0,000 mm 0,0 UV-I 38 W/m 11,6 C 19,8 C 3,2 km/h (1 Bft) 95,83 %
24.04.2018 19:22 19,8 C 18,9 C 58 % 1013,9 hPa 0,0 l/m 1,2 km/h (1 Bft) W 280 0 min 0,000 mm 0,0 UV-I 37 W/m 11,3 C 19,8 C 3,2 km/h (1 Bft) 100,00 %
24.04.2018 19:23 19,8 C 18,9 C 58 % 1013,9 hPa 0,0 l/m 1,3 km/h (1 Bft) W 280 0 min 0,000 mm 0,0 UV-I 37 W/m 11,3 C 19,8 C 3,2 km/h (1 Bft) 100,00 %
24.04.2018 19:24 19,8 C 18,9 C 59 % 1013,9 hPa 0,0 l/m 1,1 km/h (1 Bft) W 280 0 min 0,000 mm 0,0 UV-I 34 W/m 11,6 C 19,8 C 1,6 km/h (1 Bft) 100,00 %
24.04.2018 19:25 19,8 C 18,9 C 59 % 1013,9 hPa 0,0 l/m 0,5 km/h (0 Bft) W 280 0 min 0,000 mm 0,0 UV-I 33 W/m 11,6 C 19,8 C 1,6 km/h (1 Bft) 96,55 %
24.04.2018 19:26 19,8 C 18,9 C 58 % 1013,9 hPa 0,0 l/m 3,5 km/h (1 Bft) W 280 0 min 0,000 mm 0,0 UV-I 31 W/m 11,3 C 19,8 C 4,8 km/h (1 Bft) 100,00 %
24.04.2018 19:27 19,8 C 18,9 C 59 % 1013,9 hPa 0,0 l/m 3,2 km/h (1 Bft) W 280 0 min 0,000 mm 0,0 UV-I 30 W/m 11,6 C 19,8 C 3,2 km/h (1 Bft) 100,00 %
24.04.2018 19:28 19,7 C 18,9 C 58 % 1013,9 hPa 0,0 l/m 2,7 km/h (1 Bft) W 280 0 min 0,000 mm 0,0 UV-I 28 W/m 11,2 C 19,7 C 3,2 km/h (1 Bft) 100,00 %
24.04.2018 19:29 19,7 C 18,9 C 58 % 1013,9 hPa 0,0 l/m 3,0 km/h (1 Bft) W 279 0 min 0,000 mm 0,0 UV-I 28 W/m 11,2 C 19,7 C 4,8 km/h (1 Bft) 95,65 %
24.04.2018 19:30 19,7 C 18,9 C 58 % 1013,9 hPa 0,0 l/m 3,4 km/h (1 Bft) W 261 0 min 0,000 mm 0,0 UV-I 26 W/m 11,2 C 19,7 C 4,8 km/h (1 Bft) 100,00 %
24.04.2018 19:31 19,7 C 18,9 C 58 % 1013,9 hPa 0,0 l/m 2,7 km/h (1 Bft) W-SW 257 0 min 0,000 mm 0,0 UV-I 26 W/m 11,2 C 19,7 C 4,8 km/h (1 Bft) 95,65 %
24.04.2018 19:32 19,7 C 18,9 C 58 % 1013,9 hPa 0,0 l/m 3,2 km/h (1 Bft) W-SW 257 0 min 0,000 mm 0,0 UV-I 26 W/m 11,2 C 19,7 C 4,8 km/h (1 Bft) 95,83 %
24.04.2018 19:33 19,7 C 18,9 C 58 % 1013,9 hPa 0,0 l/m 4,1 km/h (1 Bft) W-SW 257 0 min 0,000 mm 0,0 UV-I 25 W/m 11,2 C 19,7 C 4,8 km/h (1 Bft) 95,65 %
24.04.2018 19:34 19,7 C 18,9 C 58 % 1013,9 hPa 0,0 l/m 3,2 km/h (1 Bft) W-SW 242 0 min 0,000 mm 0,0 UV-I 25 W/m 11,2 C 19,7 C 4,8 km/h (1 Bft) 91,67 %
24.04.2018 19:35 19,7 C 18,9 C 58 % 1013,9 hPa 0,0 l/m 3,4 km/h (1 Bft) W-SW 242 0 min 0,000 mm 0,0 UV-I 24 W/m 11,2 C 19,7 C 4,8 km/h (1 Bft) 100,00 %
24.04.2018 19:36 19,6 C 18,9 C 59 % 1013,9 hPa 0,0 l/m 4,6 km/h (1 Bft) W-SW 242 0 min 0,000 mm 0,0 UV-I 23 W/m 11,4 C 19,6 C 6,4 km/h (2 Bft) 95,83 %
24.04.2018 19:37 19,5 C 18,9 C 59 % 1013,9 hPa 0,0 l/m 4,3 km/h (1 Bft) W-SW 243 0 min 0,000 mm 0,0 UV-I 22 W/m 11,3 C 19,5 C 6,4 km/h (2 Bft) 100,00 %
24.04.2018 19:38 19,5 C 18,9 C 58 % 1013,9 hPa 0,0 l/m 2,5 km/h (1 Bft) W-SW 243 0 min 0,000 mm 0,0 UV-I 21 W/m 11,0 C 19,5 C 3,2 km/h (1 Bft) 95,83 %
24.04.2018 19:39 19,5 C 18,9 C 58 % 1013,9 hPa 0,0 l/m 2,3 km/h (1 Bft) W-SW 243 0 min 0,000 mm 0,0 UV-I 21 W/m 11,0 C 19,5 C 3,2 km/h (1 Bft) 96,15 %
24.04.2018 19:40 19,5 C 18,9 C 59 % 1013,9 hPa 0,0 l/m 1,7 km/h (1 Bft) W-SW 243 0 min 0,000 mm 0,0 UV-I 21 W/m 11,3 C 19,5 C 3,2 km/h (1 Bft) 95,83 %
24.04.2018 19:41 19,4 C 18,9 C 60 % 1013,9 hPa 0,0 l/m 0,9 km/h (0 Bft) W-SW 243 0 min 0,000 mm 0,0 UV-I 19 W/m 11,4 C 19,4 C 1,6 km/h (1 Bft) 95,65 %
24.04.2018 19:43 19,2 C 18,9 C 65 % 1013,9 hPa 0,0 l/m 1,5 km/h (1 Bft) W-SW 243 0 min 0,000 mm 0,0 UV-I 19 W/m 12,5 C 19,2 C 3,2 km/h (1 Bft) 97,44 %
24.04.2018 19:44 18,9 C 18,9 C 65 % 1013,9 hPa 0,0 l/m 1,5 km/h (1 Bft) W-SW 243 0 min 0,000 mm 0,0 UV-I 18 W/m 12,2 C 18,9 C 3,2 km/h (1 Bft) 100,00 %
24.04.2018 19:45 18,7 C 18,9 C 66 % 1013,9 hPa 0,0 l/m 2,3 km/h (1 Bft) W-SW 243 0 min 0,000 mm 0,0 UV-I 18 W/m 12,2 C 18,7 C 3,2 km/h (1 Bft) 95,65 %
24.04.2018 19:46 18,4 C 18,9 C 67 % 1013,9 hPa 0,0 l/m 1,7 km/h (1 Bft) W-SW 243 0 min 0,000 mm 0,0 UV-I 18 W/m 12,2 C 18,4 C 3,2 km/h (1 Bft) 100,00 %
24.04.2018 19:47 18,2 C 18,9 C 68 % 1013,9 hPa 0,0 l/m 2,9 km/h (1 Bft) W-SW 243 0 min 0,000 mm 0,0 UV-I 17 W/m 12,2 C 18,2 C 3,2 km/h (1 Bft) 95,83 %
24.04.2018 19:48 18,1 C 18,9 C 68 % 1013,9 hPa 0,0 l/m 2,3 km/h (1 Bft) W-SW 243 0 min 0,000 mm 0,0 UV-I 16 W/m 12,1 C 18,1 C 3,2 km/h (1 Bft) 96,15 %
24.04.2018 19:49 18,0 C 18,9 C 69 % 1013,9 hPa 0,0 l/m 2,6 km/h (1 Bft) W-SW 243 0 min 0,000 mm 0,0 UV-I 16 W/m 12,2 C 18,0 C 3,2 km/h (1 Bft) 100,00 %
24.04.2018 19:50 17,9 C 18,9 C 69 % 1013,9 hPa 0,0 l/m 2,7 km/h (1 Bft) W-SW 243 0 min 0,000 mm 0,0 UV-I 15 W/m 12,1 C 17,9 C 3,2 km/h (1 Bft) 96,55 %
24.04.2018 19:51 17,8 C 18,9 C 69 % 1013,9 hPa 0,0 l/m 2,6 km/h (1 Bft) W-SW 243 0 min 0,000 mm 0,0 UV-I 14 W/m 12,0 C 17,8 C 3,2 km/h (1 Bft) 100,00 %
24.04.2018 19:52 17,8 C 18,9 C 69 % 1013,9 hPa 0,0 l/m 2,8 km/h (1 Bft) W-SW 243 0 min 0,000 mm 0,0 UV-I 14 W/m 12,0 C 17,8 C 3,2 km/h (1 Bft) 96,15 %
24.04.2018 19:53 17,8 C 18,9 C 69 % 1013,9 hPa 0,0 l/m 2,5 km/h (1 Bft) W-SW 243 1 min 0,000 mm 0,0 UV-I 14 W/m 12,0 C 17,8 C 3,2 km/h (1 Bft) 100,00 %
24.04.2018 19:54 17,7 C 18,9 C 69 % 1013,9 hPa 0,0 l/m 2,6 km/h (1 Bft) W-SW 243 1 min 0,000 mm 0,0 UV-I 13 W/m 11,9 C 17,7 C 3,2 km/h (1 Bft) 95,65 %
24.04.2018 19:55 17,7 C 18,9 C 70 % 1013,9 hPa 0,0 l/m 1,5 km/h (1 Bft) W-SW 243 1 min 0,000 mm 0,0 UV-I 12 W/m 12,2 C 17,7 C 3,2 km/h (1 Bft) 100,00 %
24.04.2018 19:56 17,6 C 18,9 C 69 % 1013,9 hPa 0,0 l/m 2,3 km/h (1 Bft) W-SW 243 1 min 0,000 mm 0,0 UV-I 12 W/m 11,8 C 17,6 C 3,2 km/h (1 Bft) 97,14 %
24.04.2018 19:57 17,6 C 18,9 C 70 % 1013,9 hPa 0,0 l/m 1,9 km/h (1 Bft) W-SW 243 0 min 0,000 mm 0,0 UV-I 12 W/m 12,1 C 17,6 C 3,2 km/h (1 Bft) 95,83 %
24.04.2018 19:58 17,5 C 18,9 C 69 % 1013,9 hPa 0,0 l/m 1,8 km/h (1 Bft) W-SW 243 0 min 0,000 mm 0,0 UV-I 11 W/m 11,7 C 17,5 C 3,2 km/h (1 Bft) 100,00 %
24.04.2018 19:59 17,4 C 18,9 C 70 % 1013,9 hPa 0,0 l/m 1,9 km/h (1 Bft) W-SW 243 0 min 0,000 mm 0,0 UV-I 11 W/m 11,9 C 17,4 C 3,2 km/h (1 Bft) 100,00 %
24.04.2018 20:00 17,2 C 18,9 C 71 % 1013,9 hPa 0,0 l/m 2,4 km/h (1 Bft) W-SW 243 0 min 0,000 mm 0,0 UV-I 10 W/m 11,9 C 17,2 C 3,2 km/h (1 Bft) 100,00 %
24.04.2018 20:02 16,8 C 18,9 C 73 % 1013,9 hPa 0,0 l/m 2,7 km/h (1 Bft) W-SW 243 0 min 0,051 mm 0,0 UV-I 9 W/m 11,9 C 16,8 C 4,8 km/h (1 Bft) 100,00 %
24.04.2018 20:03 16,7 C 18,9 C 73 % 1013,9 hPa 0,0 l/m 3,1 km/h (1 Bft) W-SW 243 0 min 0,000 mm 0,0 UV-I 9 W/m 11,8 C 16,7 C 3,2 km/h (1 Bft) 95,83 %
24.04.2018 20:04 16,5 C 18,9 C 74 % 1013,9 hPa 0,0 l/m 3,5 km/h (1 Bft) W-SW 243 0 min 0,000 mm 0,0 UV-I 7 W/m 11,8 C 16,5 C 4,8 km/h (1 Bft) 100,00 %
24.04.2018 20:05 16,4 C 18,9 C 74 % 1013,9 hPa 0,0 l/m 3,2 km/h (1 Bft) W-SW 243 0 min 0,000 mm 0,0 UV-I 7 W/m 11,8 C 16,4 C 3,2 km/h (1 Bft) 100,00 %
24.04.2018 20:06 16,4 C 18,9 C 74 % 1013,9 hPa 0,0 l/m 2,3 km/h (1 Bft) W-SW 243 0 min 0,000 mm 0,0 UV-I 7 W/m 11,8 C 16,4 C 3,2 km/h (1 Bft) 100,00 %
24.04.2018 20:07 16,4 C 18,9 C 74 % 1013,9 hPa 0,0 l/m 2,5 km/h (1 Bft) W-SW 243 0 min 0,000 mm 0,0 UV-I 7 W/m 11,8 C 16,4 C 3,2 km/h (1 Bft) 95,65 %
24.04.2018 20:08 16,4 C 18,9 C 73 % 1014,0 hPa 0,0 l/m 2,9 km/h (1 Bft) W-SW 243 0 min 0,000 mm 0,0 UV-I 7 W/m 11,5 C 16,4 C 3,2 km/h (1 Bft) 100,00 %
24.04.2018 20:09 16,4 C 18,9 C 73 % 1014,0 hPa 0,0 l/m 3,2 km/h (1 Bft) W-SW 242 0 min 0,000 mm 0,0 UV-I 5 W/m 11,5 C 16,4 C 3,2 km/h (1 Bft) 100,00 %
24.04.2018 20:10 16,3 C 18,9 C 74 % 1014,0 hPa 0,0 l/m 3,5 km/h (1 Bft) W-SW 242 0 min 0,000 mm 0,0 UV-I 5 W/m 11,7 C 16,3 C 4,8 km/h (1 Bft) 100,00 %
24.04.2018 20:11 16,2 C 18,9 C 75 % 1014,0 hPa 0,0 l/m 3,0 km/h (1 Bft) W-SW 242 0 min 0,000 mm 0,0 UV-I 5 W/m 11,8 C 16,2 C 4,8 km/h (1 Bft) 100,00 %
24.04.2018 20:12 16,1 C 18,9 C 76 % 1014,0 hPa 0,0 l/m 2,6 km/h (1 Bft) W-SW 242 0 min 0,000 mm 0,0 UV-I 5 W/m 11,9 C 16,1 C 3,2 km/h (1 Bft) 94,44 %
24.04.2018 20:13 15,9 C 18,9 C 77 % 1014,0 hPa 0,0 l/m 2,7 km/h (1 Bft) W-SW 242 0 min 0,000 mm 0,0 UV-I 5 W/m 11,9 C 15,9 C 3,2 km/h (1 Bft) 100,00 %
24.04.2018 20:14 15,8 C 18,9 C 78 % 1014,0 hPa 0,0 l/m 2,4 km/h (1 Bft) W-SW 242 0 min 0,000 mm 0,0 UV-I 5 W/m 12,0 C 15,8 C 3,2 km/h (1 Bft) 100,00 %
24.04.2018 20:15 15,8 C 18,9 C 79 % 1014,0 hPa 0,0 l/m 2,4 km/h (1 Bft) W-SW 242 0 min 0,000 mm 0,0 UV-I 5 W/m 12,2 C 15,8 C 3,2 km/h (1 Bft) 100,00 %
24.04.2018 20:16 15,8 C 18,9 C 77 % 1014,0 hPa 0,0 l/m 3,0 km/h (1 Bft) W-SW 242 0 min 0,000 mm 0,0 UV-I 5 W/m 11,8 C 15,8 C 3,2 km/h (1 Bft) 100,00 %
24.04.2018 20:17 15,9 C 18,9 C 78 % 1014,0 hPa 0,0 l/m 3,2 km/h (1 Bft) W-SW 242 0 min 0,000 mm 0,0 UV-I 5 W/m 12,1 C 15,9 C 3,2 km/h (1 Bft) 100,00 %
24.04.2018 20:18 15,9 C 18,9 C 77 % 1014,0 hPa 0,0 l/m 2,3 km/h (1 Bft) W-SW 242 0 min 0,000 mm 0,0 UV-I 2 W/m 11,9 C 15,9 C 3,2 km/h (1 Bft) 100,00 %
24.04.2018 20:19 16,0 C 18,9 C 77 % 1014,0 hPa 0,0 l/m 2,7 km/h (1 Bft) W-SW 242 0 min 0,000 mm 0,0 UV-I 0 W/m 12,0 C 16,0 C 3,2 km/h (1 Bft) 100,00 %
24.04.2018 20:20 16,0 C 18,9 C 77 % 1014,0 hPa 0,0 l/m 2,7 km/h (1 Bft) W-SW 242 0 min 0,000 mm 0,0 UV-I 0 W/m 12,0 C 16,0 C 3,2 km/h (1 Bft) 100,00 %
24.04.2018 20:21 16,0 C 18,9 C 76 % 1014,0 hPa 0,0 l/m 2,9 km/h (1 Bft) W-SW 242 0 min 0,000 mm 0,0 UV-I 0 W/m 11,8 C 16,0 C 3,2 km/h (1 Bft) 100,00 %
24.04.2018 20:22 15,9 C 18,9 C 76 % 1014,0 hPa 0,0 l/m 3,0 km/h (1 Bft) W-SW 242 0 min 0,000 mm 0,0 UV-I 0 W/m 11,7 C 15,9 C 3,2 km/h (1 Bft) 100,00 %
24.04.2018 20:23 15,8 C 18,9 C 77 % 1014,0 hPa 0,0 l/m 3,7 km/h (1 Bft) W-SW 242 0 min 0,000 mm 0,0 UV-I 0 W/m 11,8 C 15,8 C 4,8 km/h (1 Bft) 100,00 %
24.04.2018 20:24 15,6 C 18,9 C 78 % 1014,0 hPa 0,0 l/m 3,6 km/h (1 Bft) W-SW 242 0 min 0,000 mm 0,0 UV-I 0 W/m 11,8 C 15,6 C 4,8 km/h (1 Bft) 100,00 %
24.04.2018 20:25 15,4 C 18,9 C 79 % 1014,0 hPa 0,0 l/m 3,1 km/h (1 Bft) W-SW 242 0 min 0,000 mm 0,0 UV-I 0 W/m 11,8 C 15,4 C 3,2 km/h (1 Bft) 100,00 %
24.04.2018 20:26 15,3 C 18,9 C 80 % 1014,0 hPa 0,0 l/m 3,3 km/h (1 Bft) W-SW 242 0 min 0,000 mm 0,0 UV-I 0 W/m 11,9 C 15,3 C 4,8 km/h (1 Bft) 100,00 %
24.04.2018 20:27 15,3 C 18,9 C 81 % 1014,0 hPa 0,0 l/m 2,7 km/h (1 Bft) W-SW 242 0 min 0,000 mm 0,0 UV-I 0 W/m 12,1 C 15,3 C 3,2 km/h (1 Bft) 100,00 %
24.04.2018 20:28 15,2 C 18,9 C 81 % 1014,0 hPa 0,0 l/m 2,7 km/h (1 Bft) W-SW 242 0 min 0,000 mm 0,0 UV-I 0 W/m 12,0 C 15,2 C 3,2 km/h (1 Bft) 100,00 %
24.04.2018 20:29 15,2 C 18,9 C 82 % 1014,0 hPa 0,0 l/m 3,0 km/h (1 Bft) W-SW 242 0 min 0,000 mm 0,0 UV-I 0 W/m 12,1 C 15,2 C 3,2 km/h (1 Bft) 96,15 %
24.04.2018 20:30 15,1 C 18,9 C 81 % 1013,9 hPa 0,0 l/m 2,8 km/h (1 Bft) W-SW 242 0 min 0,000 mm 0,0 UV-I 0 W/m 11,9 C 15,1 C 3,2 km/h (1 Bft) 100,00 %
24.04.2018 20:31 15,1 C 18,9 C 81 % 1014,0 hPa 0,0 l/m 2,9 km/h (1 Bft) W-SW 242 0 min 0,000 mm 0,0 UV-I 0 W/m 11,9 C 15,1 C 3,2 km/h (1 Bft) 100,00 %
24.04.2018 20:32 15,1 C 18,9 C 81 % 1014,0 hPa 0,0 l/m 3,0 km/h (1 Bft) W-SW 242 0 min 0,000 mm 0,0 UV-I 0 W/m 11,9 C 15,1 C 3,2 km/h (1 Bft) 100,00 %
24.04.2018 20:33 15,1 C 18,9 C 81 % 1014,0 hPa 0,0 l/m 3,0 km/h (1 Bft) W-SW 242 0 min 0,000 mm 0,0 UV-I 0 W/m 11,9 C 15,1 C 3,2 km/h (1 Bft) 100,00 %
24.04.2018 20:34 15,1 C 18,9 C 80 % 1014,0 hPa 0,0 l/m 3,2 km/h (1 Bft) W-SW 242 0 min 0,000 mm 0,0 UV-I 0 W/m 11,7 C 15,1 C 3,2 km/h (1 Bft) 100,00 %
24.04.2018 20:35 15,1 C 18,9 C 80 % 1014,0 hPa 0,0 l/m 3,3 km/h (1 Bft) W-SW 242 0 min 0,000 mm 0,0 UV-I 0 W/m 11,7 C 15,1 C 4,8 km/h (1 Bft) 100,00 %
24.04.2018 20:36 15,1 C 18,9 C 80 % 1014,0 hPa 0,0 l/m 3,3 km/h (1 Bft) W-SW 242 0 min 0,000 mm 0,0 UV-I 0 W/m 11,7 C 15,1 C 4,8 km/h (1 Bft) 100,00 %
24.04.2018 20:37 15,1 C 18,9 C 80 % 1014,0 hPa 0,0 l/m 3,3 km/h (1 Bft) W-SW 242 0 min 0,000 mm 0,0 UV-I 0 W/m 11,7 C 15,1 C 4,8 km/h (1 Bft) 100,00 %
24.04.2018 20:38 15,0 C 18,9 C 80 % 1014,0 hPa 0,0 l/m 3,0 km/h (1 Bft) W-SW 242 0 min 0,000 mm 0,0 UV-I 0 W/m 11,6 C 15,0 C 3,2 km/h (1 Bft) 100,00 %
24.04.2018 20:39 15,0 C 18,9 C 80 % 1014,0 hPa 0,0 l/m 3,1 km/h (1 Bft) W-SW 242 0 min 0,000 mm 0,0 UV-I 0 W/m 11,6 C 15,0 C 3,2 km/h (1 Bft) 100,00 %
24.04.2018 20:40 15,0 C 18,9 C 80 % 1014,0 hPa 0,0 l/m 3,1 km/h (1 Bft) W-SW 242 0 min 0,000 mm 0,0 UV-I 0 W/m 11,6 C 15,0 C 3,2 km/h (1 Bft) 100,00 %
24.04.2018 20:41 15,0 C 18,9 C 80 % 1014,0 hPa 0,0 l/m 3,5 km/h (1 Bft) W-SW 242 0 min 0,000 mm 0,0 UV-I 0 W/m 11,6 C 15,0 C 4,8 km/h (1 Bft) 100,00 %
24.04.2018 20:42 15,0 C 18,9 C 79 % 1014,0 hPa 0,0 l/m 3,5 km/h (1 Bft) W-SW 238 0 min 0,000 mm 0,0 UV-I 0 W/m 11,4 C 15,0 C 4,8 km/h (1 Bft) 100,00 %
24.04.2018 20:43 15,0 C 18,9 C 79 % 1014,0 hPa 0,0 l/m 3,5 km/h (1 Bft) W-SW 238 0 min 0,000 mm 0,0 UV-I 0 W/m 11,4 C 15,0 C 4,8 km/h (1 Bft) 100,00 %
24.04.2018 20:44 15,1 C 18,9 C 79 % 1014,0 hPa 0,0 l/m 3,6 km/h (1 Bft) W-SW 238 0 min 0,000 mm 0,0 UV-I 0 W/m 11,5 C 15,1 C 4,8 km/h (1 Bft) 100,00 %
24.04.2018 20:45 15,1 C 18,9 C 78 % 1014,0 hPa 0,0 l/m 3,6 km/h (1 Bft) W-SW 238 0 min 0,000 mm 0,0 UV-I 0 W/m 11,3 C 15,1 C 4,8 km/h (1 Bft) 100,00 %
24.04.2018 20:46 15,2 C 18,9 C 78 % 1014,0 hPa 0,0 l/m 3,6 km/h (1 Bft) W-SW 238 0 min 0,000 mm 0,0 UV-I 0 W/m 11,4 C 15,2 C 4,8 km/h (1 Bft) 100,00 %
24.04.2018 20:47 15,2 C 18,9 C 78 % 1014,0 hPa 0,0 l/m 3,9 km/h (1 Bft) W-SW 238 0 min 0,000 mm 0,0 UV-I 0 W/m 11,4 C 15,2 C 4,8 km/h (1 Bft) 100,00 %
24.04.2018 20:48 15,3 C 18,9 C 77 % 1014,0 hPa 0,0 l/m 3,4 km/h (1 Bft) W-SW 238 0 min 0,000 mm 0,0 UV-I 0 W/m 11,3 C 15,3 C 4,8 km/h (1 Bft) 100,00 %
24.04.2018 20:49 15,3 C 18,9 C 77 % 1014,0 hPa 0,0 l/m 3,4 km/h (1 Bft) W-SW 238 0 min 0,000 mm 0,0 UV-I 0 W/m 11,3 C 15,3 C 4,8 km/h (1 Bft) 100,00 %
24.04.2018 20:50 15,3 C 18,9 C 77 % 1014,0 hPa 0,0 l/m 3,6 km/h (1 Bft) SW 234 0 min 0,000 mm 0,0 UV-I 0 W/m 11,3 C 15,3 C 4,8 km/h (1 Bft) 100,00 %
24.04.2018 20:51 15,3 C 18,9 C 77 % 1014,0 hPa 0,0 l/m 3,9 km/h (1 Bft) SW 234 0 min 0,000 mm 0,0 UV-I 0 W/m 11,3 C 15,3 C 4,8 km/h (1 Bft) 100,00 %
24.04.2018 20:52 15,3 C 18,9 C 77 % 1014,0 hPa 0,0 l/m 3,7 km/h (1 Bft) SW 234 0 min 0,000 mm 0,0 UV-I 0 W/m 11,3 C 15,3 C 4,8 km/h (1 Bft) 100,00 %
24.04.2018 20:53 15,3 C 18,9 C 77 % 1014,0 hPa 0,0 l/m 3,9 km/h (1 Bft) SW 234 0 min 0,000 mm 0,0 UV-I 0 W/m 11,3 C 15,3 C 4,8 km/h (1 Bft) 100,00 %
24.04.2018 20:54 15,2 C 18,9 C 77 % 1014,0 hPa 0,0 l/m 4,0 km/h (1 Bft) SW 234 0 min 0,000 mm 0,0 UV-I 0 W/m 11,2 C 15,2 C 4,8 km/h (1 Bft) 100,00 %
24.04.2018 20:55 15,2 C 18,9 C 77 % 1013,9 hPa 0,0 l/m 3,6 km/h (1 Bft) SW 234 0 min 0,000 mm 0,0 UV-I 0 W/m 11,2 C 15,2 C 4,8 km/h (1 Bft) 100,00 %
24.04.2018 20:56 15,1 C 18,9 C 78 % 1014,0 hPa 0,0 l/m 3,8 km/h (1 Bft) SW 234 0 min 0,000 mm 0,0 UV-I 0 W/m 11,3 C 15,1 C 4,8 km/h (1 Bft) 100,00 %
24.04.2018 20:57 15,1 C 18,9 C 78 % 1013,9 hPa 0,0 l/m 3,6 km/h (1 Bft) SW 234 0 min 0,000 mm 0,0 UV-I 0 W/m 11,3 C 15,1 C 4,8 km/h (1 Bft) 95,65 %
24.04.2018 20:58 14,9 C 18,9 C 79 % 1014,0 hPa 0,0 l/m 3,4 km/h (1 Bft) SW 234 0 min 0,000 mm 0,0 UV-I 0 W/m 11,3 C 14,9 C 4,8 km/h (1 Bft) 100,00 %
24.04.2018 20:59 14,9 C 18,9 C 80 % 1014,0 hPa 0,0 l/m 3,3 km/h (1 Bft) SW 234 0 min 0,000 mm 0,0 UV-I 0 W/m 11,5 C 14,9 C 4,8 km/h (1 Bft) 100,00 %
24.04.2018 21:00 14,8 C 18,9 C 80 % 1014,0 hPa 0,0 l/m 3,0 km/h (1 Bft) SW 234 0 min 0,025 mm 0,0 UV-I 0 W/m 11,4 C 14,8 C 3,2 km/h (1 Bft) 95,83 %
24.04.2018 21:02 14,8 C 18,9 C 80 % 1014,1 hPa 0,0 l/m 1,8 km/h (1 Bft) SW 234 0 min 0,000 mm 0,0 UV-I 0 W/m 11,4 C 14,8 C 3,2 km/h (1 Bft) 100,00 %
24.04.2018 21:03 14,9 C 18,9 C 80 % 1014,0 hPa 0,0 l/m 1,9 km/h (1 Bft) SW 234 0 min 0,000 mm 0,0 UV-I 0 W/m 11,5 C 14,9 C 3,2 km/h (1 Bft) 100,00 %
24.04.2018 21:04 15,1 C 18,9 C 79 % 1014,0 hPa 0,0 l/m 2,8 km/h (1 Bft) SW 234 0 min 0,000 mm 0,0 UV-I 0 W/m 11,5 C 15,1 C 3,2 km/h (1 Bft) 95,83 %
24.04.2018 21:05 15,1 C 18,9 C 79 % 1014,0 hPa 0,0 l/m 3,2 km/h (1 Bft) SW 234 0 min 0,000 mm 0,0 UV-I 0 W/m 11,5 C 15,1 C 3,2 km/h (1 Bft) 100,00 %
24.04.2018 21:06 15,2 C 18,9 C 79 % 1014,0 hPa 0,0 l/m 3,6 km/h (1 Bft) SW 234 0 min 0,000 mm 0,0 UV-I 0 W/m 11,6 C 15,2 C 4,8 km/h (1 Bft) 100,00 %
24.04.2018 21:07 15,1 C 18,9 C 79 % 1014,0 hPa 0,0 l/m 3,5 km/h (1 Bft) SW 234 0 min 0,000 mm 0,0 UV-I 0 W/m 11,5 C 15,1 C 4,8 km/h (1 Bft) 100,00 %
24.04.2018 21:08 15,1 C 18,9 C 79 % 1014,0 hPa 0,0 l/m 3,6 km/h (1 Bft) SW 234 0 min 0,000 mm 0,0 UV-I 0 W/m 11,5 C 15,1 C 4,8 km/h (1 Bft) 100,00 %
24.04.2018 21:09 15,0 C 18,9 C 79 % 1014,0 hPa 0,0 l/m 3,5 km/h (1 Bft) SW 234 0 min 0,000 mm 0,0 UV-I 0 W/m 11,4 C 15,0 C 4,8 km/h (1 Bft) 100,00 %
24.04.2018 21:10 14,9 C 18,9 C 80 % 1014,1 hPa 0,0 l/m 3,7 km/h (1 Bft) SW 234 0 min 0,000 mm 0,0 UV-I 0 W/m 11,5 C 14,9 C 4,8 km/h (1 Bft) 100,00 %
24.04.2018 21:11 14,8 C 18,9 C 81 % 1014,1 hPa 0,0 l/m 3,6 km/h (1 Bft) SW 234 0 min 0,000 mm 0,0 UV-I 0 W/m 11,6 C 14,8 C 4,8 km/h (1 Bft) 100,00 %
24.04.2018 21:12 14,7 C 18,9 C 81 % 1014,1 hPa 0,0 l/m 3,1 km/h (1 Bft) SW 234 0 min 0,000 mm 0,0 UV-I 0 W/m 11,5 C 14,7 C 4,8 km/h (1 Bft) 100,00 %
24.04.2018 21:13 14,6 C 18,9 C 82 % 1014,1 hPa 0,0 l/m 4,1 km/h (1 Bft) SW 234 0 min 0,000 mm 0,0 UV-I 0 W/m 11,6 C 14,6 C 4,8 km/h (1 Bft) 100,00 %
24.04.2018 21:14 14,5 C 18,9 C 82 % 1014,1 hPa 0,0 l/m 3,8 km/h (1 Bft) SW 234 0 min 0,000 mm 0,0 UV-I 0 W/m 11,5 C 14,5 C 4,8 km/h (1 Bft) 100,00 %
24.04.2018 21:15 14,4 C 18,9 C 83 % 1014,1 hPa 0,0 l/m 4,2 km/h (1 Bft) SW 234 0 min 0,000 mm 0,0 UV-I 0 W/m 11,5 C 14,4 C 4,8 km/h (1 Bft) 100,00 %
24.04.2018 21:16 14,3 C 18,9 C 83 % 1014,1 hPa 0,0 l/m 4,7 km/h (1 Bft) SW 234 0 min 0,000 mm 0,0 UV-I 0 W/m 11,5 C 14,3 C 4,8 km/h (1 Bft) 96,15 %
24.04.2018 21:18 14,2 C 18,9 C 83 % 1014,1 hPa 0,0 l/m 4,9 km/h (1 Bft) SW 234 0 min 0,000 mm 0,0 UV-I 0 W/m 11,4 C 14,2 C 6,4 km/h (2 Bft) 96,61 %
24.04.2018 21:19 14,2 C 18,9 C 82 % 1014,1 hPa 0,0 l/m 4,9 km/h (1 Bft) SW 234 0 min 0,000 mm 0,0 UV-I 0 W/m 11,2 C 14,2 C 6,4 km/h (2 Bft) 100,00 %
24.04.2018 21:20 14,2 C 18,9 C 82 % 1014,1 hPa 0,0 l/m 4,7 km/h (1 Bft) SW 234 0 min 0,000 mm 0,0 UV-I 0 W/m 11,2 C 14,2 C 4,8 km/h (1 Bft) 96,55 %
24.04.2018 21:21 14,2 C 18,9 C 82 % 1014,0 hPa 0,0 l/m 4,6 km/h (1 Bft) SW 234 0 min 0,000 mm 0,0 UV-I 0 W/m 11,2 C 14,2 C 4,8 km/h (1 Bft) 96,30 %
24.04.2018 21:22 14,2 C 18,9 C 82 % 1014,1 hPa 0,0 l/m 4,8 km/h (1 Bft) SW 234 0 min 0,000 mm 0,0 UV-I 0 W/m 11,2 C 14,2 C 6,4 km/h (2 Bft) 100,00 %
24.04.2018 21:23 14,2 C 18,9 C 81 % 1014,1 hPa 0,0 l/m 4,5 km/h (1 Bft) SW 233 0 min 0,000 mm 0,0 UV-I 0 W/m 11,0 C 14,2 C 4,8 km/h (1 Bft) 100,00 %
24.04.2018 21:24 14,2 C 18,9 C 81 % 1014,1 hPa 0,0 l/m 5,0 km/h (1 Bft) SW 232 0 min 0,000 mm 0,0 UV-I 0 W/m 11,0 C 14,2 C 6,4 km/h (2 Bft) 95,83 %
24.04.2018 21:25 14,1 C 18,9 C 82 % 1014,1 hPa 0,0 l/m 4,8 km/h (1 Bft) SW 232 0 min 0,000 mm 0,0 UV-I 0 W/m 11,1 C 14,1 C 6,4 km/h (2 Bft) 96,15 %
24.04.2018 21:26 14,1 C 18,9 C 82 % 1014,1 hPa 0,0 l/m 4,4 km/h (1 Bft) SW 232 0 min 0,000 mm 0,0 UV-I 0 W/m 11,1 C 14,1 C 4,8 km/h (1 Bft) 100,00 %
24.04.2018 21:28 14,1 C 18,9 C 82 % 1014,1 hPa 0,0 l/m 5,0 km/h (1 Bft) SW 232 0 min 0,000 mm 0,0 UV-I 0 W/m 11,1 C 14,1 C 6,4 km/h (2 Bft) 98,11 %
24.04.2018 21:29 14,2 C 18,9 C 82 % 1014,1 hPa 0,0 l/m 5,1 km/h (1 Bft) SW 232 0 min 0,000 mm 0,0 UV-I 0 W/m 11,2 C 14,2 C 6,4 km/h (2 Bft) 90,91 %
24.04.2018 21:30 14,2 C 18,9 C 82 % 1014,1 hPa 0,0 l/m 5,5 km/h (1 Bft) S-SW 202 0 min 0,000 mm 0,0 UV-I 0 W/m 11,2 C 14,2 C 6,4 km/h (2 Bft) 100,00 %
24.04.2018 21:31 14,2 C 18,9 C 82 % 1014,1 hPa 0,0 l/m 6,4 km/h (2 Bft) S-SW 201 0 min 0,000 mm 0,0 UV-I 0 W/m 11,2 C 14,2 C 6,4 km/h (2 Bft) 96,15 %
24.04.2018 21:32 14,2 C 18,9 C 81 % 1014,1 hPa 0,0 l/m 6,2 km/h (2 Bft) S-SW 201 0 min 0,000 mm 0,0 UV-I 0 W/m 11,0 C 14,2 C 6,4 km/h (2 Bft) 100,00 %
24.04.2018 21:33 14,2 C 18,9 C 81 % 1014,0 hPa 0,0 l/m 5,7 km/h (1 Bft) S-SW 201 0 min 0,000 mm 0,0 UV-I 0 W/m 11,0 C 14,2 C 6,4 km/h (2 Bft) 96,15 %
24.04.2018 21:34 14,2 C 18,9 C 82 % 1014,0 hPa 0,0 l/m 5,4 km/h (1 Bft) S-SW 201 0 min 0,000 mm 0,0 UV-I 0 W/m 11,2 C 14,2 C 6,4 km/h (2 Bft) 100,00 %
24.04.2018 21:35 14,1 C 18,9 C 82 % 1014,1 hPa 0,0 l/m 5,6 km/h (1 Bft) S-SW 201 0 min 0,000 mm 0,0 UV-I 0 W/m 11,1 C 14,1 C 6,4 km/h (2 Bft) 96,15 %
24.04.2018 21:36 14,0 C 18,9 C 82 % 1014,1 hPa 0,0 l/m 5,4 km/h (1 Bft) S-SW 201 0 min 0,000 mm 0,0 UV-I 0 W/m 11,0 C 14,0 C 6,4 km/h (2 Bft) 96,30 %
24.04.2018 21:37 13,9 C 18,9 C 82 % 1014,0 hPa 0,0 l/m 5,6 km/h (1 Bft) S-SW 200 0 min 0,000 mm 0,0 UV-I 0 W/m 10,9 C 13,9 C 6,4 km/h (2 Bft) 100,00 %
24.04.2018 21:38 13,9 C 18,9 C 83 % 1014,1 hPa 0,0 l/m 5,9 km/h (2 Bft) S-SW 200 0 min 0,000 mm 0,0 UV-I 0 W/m 11,1 C 13,9 C 6,4 km/h (2 Bft) 96,30 %
24.04.2018 21:39 13,9 C 18,9 C 83 % 1014,1 hPa 0,0 l/m 6,4 km/h (2 Bft) S-SW 200 0 min 0,000 mm 0,0 UV-I 0 W/m 11,1 C 13,9 C 6,4 km/h (2 Bft) 100,00 %
24.04.2018 21:40 13,9 C 18,9 C 83 % 1014,1 hPa 0,0 l/m 5,2 km/h (1 Bft) S-SW 200 0 min 0,000 mm 0,0 UV-I 0 W/m 11,1 C 13,9 C 6,4 km/h (2 Bft) 92,31 %
24.04.2018 21:41 13,9 C 18,9 C 83 % 1014,1 hPa 0,0 l/m 4,9 km/h (1 Bft) S-SW 200 0 min 0,000 mm 0,0 UV-I 0 W/m 11,1 C 13,9 C 6,4 km/h (2 Bft) 96,88 %
24.04.2018 21:42 14,0 C 18,9 C 83 % 1014,1 hPa 0,0 l/m 3,8 km/h (1 Bft) S-SW 200 0 min 0,000 mm 0,0 UV-I 0 W/m 11,2 C 14,0 C 4,8 km/h (1 Bft) 95,83 %
24.04.2018 21:43 13,9 C 18,9 C 83 % 1014,1 hPa 0,0 l/m 3,9 km/h (1 Bft) S-SW 200 0 min 0,000 mm 0,0 UV-I 0 W/m 11,1 C 13,9 C 6,4 km/h (2 Bft) 95,65 %
24.04.2018 21:44 13,9 C 18,9 C 83 % 1014,1 hPa 0,0 l/m 4,5 km/h (1 Bft) S-SW 200 0 min 0,000 mm 0,0 UV-I 0 W/m 11,1 C 13,9 C 6,4 km/h (2 Bft) 91,67 %
24.04.2018 21:45 14,0 C 18,9 C 83 % 1014,1 hPa 0,0 l/m 4,3 km/h (1 Bft) S-SW 200 0 min 0,000 mm 0,0 UV-I 0 W/m 11,2 C 14,0 C 4,8 km/h (1 Bft) 96,77 %
24.04.2018 21:46 14,1 C 18,9 C 83 % 1014,1 hPa 0,0 l/m 3,8 km/h (1 Bft) S-SW 200 0 min 0,000 mm 0,0 UV-I 0 W/m 11,3 C 14,1 C 4,8 km/h (1 Bft) 96,15 %
24.04.2018 21:47 14,2 C 18,9 C 83 % 1014,1 hPa 0,0 l/m 3,8 km/h (1 Bft) S-SW 200 0 min 0,000 mm 0,0 UV-I 0 W/m 11,4 C 14,2 C 4,8 km/h (1 Bft) 87,50 %
24.04.2018 21:48 14,2 C 18,9 C 83 % 1014,1 hPa 0,0 l/m 3,6 km/h (1 Bft) S-SW 200 0 min 0,000 mm 0,0 UV-I 0 W/m 11,4 C 14,2 C 4,8 km/h (1 Bft) 100,00 %
24.04.2018 21:49 14,2 C 18,9 C 84 % 1014,1 hPa 0,0 l/m 3,8 km/h (1 Bft) S-SW 200 0 min 0,000 mm 0,0 UV-I 0 W/m 11,5 C 14,2 C 4,8 km/h (1 Bft) 92,59 %
24.04.2018 21:50 14,2 C 18,9 C 83 % 1014,1 hPa 0,0 l/m 3,5 km/h (1 Bft) S-SW 200 0 min 0,000 mm 0,0 UV-I 0 W/m 11,4 C 14,2 C 4,8 km/h (1 Bft) 100,00 %
24.04.2018 21:51 14,3 C 18,9 C 83 % 1014,1 hPa 0,0 l/m 3,6 km/h (1 Bft) S-SW 200 0 min 0,000 mm 0,0 UV-I 0 W/m 11,5 C 14,3 C 4,8 km/h (1 Bft) 91,67 %
24.04.2018 21:52 14,3 C 18,9 C 82 % 1014,1 hPa 0,0 l/m 3,6 km/h (1 Bft) S-SW 200 0 min 0,000 mm 0,0 UV-I 0 W/m 11,3 C 14,3 C 4,8 km/h (1 Bft) 91,30 %
24.04.2018 21:53 14,4 C 18,9 C 82 % 1014,1 hPa 0,0 l/m 3,9 km/h (1 Bft) S-SW 200 0 min 0,000 mm 0,0 UV-I 0 W/m 11,4 C 14,4 C 4,8 km/h (1 Bft) 96,30 %
24.04.2018 21:54 14,4 C 18,9 C 82 % 1014,1 hPa 0,0 l/m 3,7 km/h (1 Bft) S-SW 201 0 min 0,000 mm 0,0 UV-I 0 W/m 11,4 C 14,4 C 4,8 km/h (1 Bft) 96,55 %
24.04.2018 21:55 14,4 C 18,9 C 82 % 1014,1 hPa 0,0 l/m 4,4 km/h (1 Bft) S-SW 201 0 min 0,000 mm 0,0 UV-I 0 W/m 11,4 C 14,4 C 4,8 km/h (1 Bft) 93,33 %
24.04.2018 21:56 14,4 C 18,9 C 82 % 1014,1 hPa 0,0 l/m 4,3 km/h (1 Bft) S-SW 201 0 min 0,000 mm 0,0 UV-I 0 W/m 11,4 C 14,4 C 4,8 km/h (1 Bft) 95,65 %
24.04.2018 21:57 14,4 C 18,9 C 82 % 1014,1 hPa 0,0 l/m 4,7 km/h (1 Bft) S-SW 201 0 min 0,000 mm 0,0 UV-I 0 W/m 11,4 C 14,4 C 4,8 km/h (1 Bft) 95,83 %
24.04.2018 21:58 14,4 C 18,9 C 82 % 1014,1 hPa 0,0 l/m 3,9 km/h (1 Bft) S-SW 201 0 min 0,000 mm 0,0 UV-I 0 W/m 11,4 C 14,4 C 4,8 km/h (1 Bft) 93,10 %
24.04.2018 21:59 14,4 C 18,9 C 82 % 1014,1 hPa 0,0 l/m 4,0 km/h (1 Bft) S-SW 200 0 min 0,000 mm 0,0 UV-I 0 W/m 11,4 C 14,4 C 4,8 km/h (1 Bft) 95,83 %
24.04.2018 22:00 14,4 C 18,9 C 82 % 1014,1 hPa 0,0 l/m 4,1 km/h (1 Bft) S-SW 201 0 min 0,000 mm 0,0 UV-I 0 W/m 11,4 C 14,4 C 6,4 km/h (2 Bft) 96,15 %
24.04.2018 22:02 14,4 C 18,9 C 81 % 1014,0 hPa 0,0 l/m 4,1 km/h (1 Bft) S-SW 201 0 min 0,025 mm 0,0 UV-I 0 W/m 11,2 C 14,4 C 4,8 km/h (1 Bft) 95,24 %
24.04.2018 22:03 14,4 C 18,9 C 81 % 1014,1 hPa 0,0 l/m 4,5 km/h (1 Bft) S-SW 201 0 min 0,000 mm 0,0 UV-I 0 W/m 11,2 C 14,4 C 6,4 km/h (2 Bft) 95,65 %
24.04.2018 22:04 14,4 C 18,9 C 81 % 1014,0 hPa 0,0 l/m 5,0 km/h (1 Bft) S-SW 201 0 min 0,000 mm 0,0 UV-I 0 W/m 11,2 C 14,4 C 6,4 km/h (2 Bft) 96,30 %
24.04.2018 22:05 14,5 C 18,9 C 81 % 1014,0 hPa 0,0 l/m 5,3 km/h (1 Bft) S-SW 201 0 min 0,000 mm 0,0 UV-I 0 W/m 11,3 C 14,5 C 6,4 km/h (2 Bft) 95,65 %
24.04.2018 22:06 14,5 C 18,9 C 81 % 1014,1 hPa 0,0 l/m 5,2 km/h (1 Bft) S-SW 201 0 min 0,000 mm 0,0 UV-I 0 W/m 11,3 C 14,5 C 6,4 km/h (2 Bft) 97,99 %
24.04.2018 22:07 14,5 C 18,9 C 81 % 1014,0 hPa 0,0 l/m 5,2 km/h (1 Bft) S-SW 201 0 min 0,000 mm 0,0 UV-I 0 W/m 11,3 C 14,5 C 6,4 km/h (2 Bft) 95,12 %
24.04.2018 22:08 14,5 C 18,9 C 81 % 1014,1 hPa 0,0 l/m 4,2 km/h (1 Bft) S-SW 201 0 min 0,000 mm 0,0 UV-I 0 W/m 11,3 C 14,5 C 4,8 km/h (1 Bft) 92,59 %
24.04.2018 22:09 14,3 C 18,9 C 81 % 1014,1 hPa 0,0 l/m 5,0 km/h (1 Bft) S-SW 201 0 min 0,000 mm 0,0 UV-I 0 W/m 11,1 C 14,3 C 6,4 km/h (2 Bft) 96,15 %
24.04.2018 22:10 14,2 C 18,9 C 83 % 1014,0 hPa 0,0 l/m 5,0 km/h (1 Bft) S-SW 201 0 min 0,000 mm 0,0 UV-I 0 W/m 11,4 C 14,2 C 6,4 km/h (2 Bft) 93,33 %
24.04.2018 22:11 14,2 C 18,9 C 83 % 1014,0 hPa 0,0 l/m 5,2 km/h (1 Bft) S-SW 201 0 min 0,000 mm 0,0 UV-I 0 W/m 11,4 C 14,2 C 6,4 km/h (2 Bft) 100,00 %
24.04.2018 22:12 14,2 C 18,9 C 83 % 1014,0 hPa 0,0 l/m 4,2 km/h (1 Bft) S-SW 201 0 min 0,000 mm 0,0 UV-I 0 W/m 11,4 C 14,2 C 6,4 km/h (2 Bft) 91,67 %
24.04.2018 22:13 14,2 C 18,9 C 83 % 1014,0 hPa 0,0 l/m 3,8 km/h (1 Bft) S-SW 201 0 min 0,000 mm 0,0 UV-I 0 W/m 11,4 C 14,2 C 4,8 km/h (1 Bft) 95,83 %
24.04.2018 22:14 14,2 C 18,9 C 83 % 1014,0 hPa 0,0 l/m 4,0 km/h (1 Bft) S-SW 201 0 min 0,000 mm 0,0 UV-I 0 W/m 11,4 C 14,2 C 4,8 km/h (1 Bft) 95,65 %
24.04.2018 22:15 14,3 C 18,9 C 83 % 1014,0 hPa 0,0 l/m 4,5 km/h (1 Bft) S-SW 201 0 min 0,000 mm 0,0 UV-I 0 W/m 11,5 C 14,3 C 4,8 km/h (1 Bft) 96,30 %
24.04.2018 22:16 14,3 C 18,9 C 82 % 1014,0 hPa 0,0 l/m 4,4 km/h (1 Bft) S-SW 201 0 min 0,000 mm 0,0 UV-I 0 W/m 11,3 C 14,3 C 6,4 km/h (2 Bft) 96,15 %
24.04.2018 22:17 14,3 C 18,9 C 82 % 1014,0 hPa 0,0 l/m 4,9 km/h (1 Bft) S-SW 201 0 min 0,000 mm 0,0 UV-I 0 W/m 11,3 C 14,3 C 6,4 km/h (2 Bft) 95,65 %
24.04.2018 22:18 14,4 C 18,9 C 82 % 1014,0 hPa 0,0 l/m 4,4 km/h (1 Bft) S-SW 201 0 min 0,000 mm 0,0 UV-I 0 W/m 11,4 C 14,4 C 6,4 km/h (2 Bft) 100,00 %
24.04.2018 22:19 14,4 C 18,9 C 82 % 1014,0 hPa 0,0 l/m 4,5 km/h (1 Bft) S-SW 201 0 min 0,000 mm 0,0 UV-I 0 W/m 11,4 C 14,4 C 4,8 km/h (1 Bft) 93,33 %
24.04.2018 22:20 14,4 C 18,9 C 82 % 1014,0 hPa 0,0 l/m 4,5 km/h (1 Bft) S-SW 201 0 min 0,000 mm 0,0 UV-I 0 W/m 11,4 C 14,4 C 6,4 km/h (2 Bft) 100,00 %
24.04.2018 22:21 14,4 C 18,9 C 82 % 1014,0 hPa 0,0 l/m 4,6 km/h (1 Bft) S-SW 201 0 min 0,000 mm 0,0 UV-I 0 W/m 11,4 C 14,4 C 4,8 km/h (1 Bft) 96,30 %
24.04.2018 22:22 14,4 C 18,9 C 82 % 1014,0 hPa 0,0 l/m 3,8 km/h (1 Bft) S-SW 201 0 min 0,000 mm 0,0 UV-I 0 W/m 11,4 C 14,4 C 4,8 km/h (1 Bft) 100,00 %
24.04.2018 22:23 14,4 C 18,9 C 82 % 1014,0 hPa 0,0 l/m 4,4 km/h (1 Bft) S-SW 201 0 min 0,000 mm 0,0 UV-I 0 W/m 11,4 C 14,4 C 4,8 km/h (1 Bft) 100,00 %
24.04.2018 22:24 14,3 C 18,9 C 82 % 1014,0 hPa 0,0 l/m 3,8 km/h (1 Bft) S-SW 201 0 min 0,000 mm 0,0 UV-I 0 W/m 11,3 C 14,3 C 4,8 km/h (1 Bft) 100,00 %
24.04.2018 22:25 14,4 C 18,9 C 82 % 1014,0 hPa 0,0 l/m 4,2 km/h (1 Bft) S-SW 201 0 min 0,000 mm 0,0 UV-I 0 W/m 11,4 C 14,4 C 4,8 km/h (1 Bft) 100,00 %
24.04.2018 22:26 14,4 C 18,9 C 81 % 1013,9 hPa 0,0 l/m 3,5 km/h (1 Bft) S-SW 201 0 min 0,000 mm 0,0 UV-I 0 W/m 11,2 C 14,4 C 4,8 km/h (1 Bft) 92,86 %
24.04.2018 22:28 14,5 C 18,9 C 81 % 1013,9 hPa 0,0 l/m 4,3 km/h (1 Bft) S-SW 201 0 min 0,000 mm 0,0 UV-I 0 W/m 11,3 C 14,5 C 6,4 km/h (2 Bft) 100,00 %
24.04.2018 22:29 14,5 C 18,9 C 81 % 1013,9 hPa 0,0 l/m 4,6 km/h (1 Bft) S-SW 201 0 min 0,000 mm 0,0 UV-I 0 W/m 11,3 C 14,5 C 4,8 km/h (1 Bft) 100,00 %
24.04.2018 22:30 14,4 C 18,9 C 81 % 1013,9 hPa 0,0 l/m 5,0 km/h (1 Bft) S-SW 201 0 min 0,000 mm 0,0 UV-I 0 W/m 11,2 C 14,4 C 6,4 km/h (2 Bft) 100,00 %
24.04.2018 22:31 14,4 C 18,9 C 81 % 1013,9 hPa 0,0 l/m 4,7 km/h (1 Bft) S-SW 208 0 min 0,000 mm 0,0 UV-I 0 W/m 11,2 C 14,4 C 6,4 km/h (2 Bft) 95,83 %
24.04.2018 22:32 14,4 C 18,9 C 81 % 1013,9 hPa 0,0 l/m 5,1 km/h (1 Bft) S-SW 209 0 min 0,000 mm 0,0 UV-I 0 W/m 11,2 C 14,4 C 6,4 km/h (2 Bft) 100,00 %
24.04.2018 22:33 14,4 C 18,9 C 82 % 1013,9 hPa 0,0 l/m 5,0 km/h (1 Bft) S-SW 209 0 min 0,000 mm 0,0 UV-I 0 W/m 11,4 C 14,4 C 6,4 km/h (2 Bft) 100,00 %
24.04.2018 22:34 14,3 C 18,9 C 82 % 1013,9 hPa 0,0 l/m 5,4 km/h (1 Bft) S-SW 209 0 min 0,000 mm 0,0 UV-I 0 W/m 11,3 C 14,3 C 6,4 km/h (2 Bft) 100,00 %
24.04.2018 22:35 14,3 C 18,9 C 82 % 1013,9 hPa 0,0 l/m 4,4 km/h (1 Bft) S-SW 209 0 min 0,000 mm 0,0 UV-I 0 W/m 11,3 C 14,3 C 4,8 km/h (1 Bft) 94,29 %
24.04.2018 22:36 14,3 C 18,9 C 81 % 1013,9 hPa 0,0 l/m 4,8 km/h (1 Bft) S-SW 209 0 min 0,000 mm 0,0 UV-I 0 W/m 11,1 C 14,3 C 6,4 km/h (2 Bft) 100,00 %
24.04.2018 22:37 14,3 C 18,9 C 81 % 1013,9 hPa 0,0 l/m 4,8 km/h (1 Bft) S-SW 209 0 min 0,000 mm 0,0 UV-I 0 W/m 11,1 C 14,3 C 6,4 km/h (2 Bft) 96,15 %
24.04.2018 22:38 14,3 C 18,9 C 81 % 1013,9 hPa 0,0 l/m 6,2 km/h (2 Bft) SW 219 0 min 0,000 mm 0,0 UV-I 0 W/m 11,1 C 14,3 C 8,0 km/h (2 Bft) 100,00 %
24.04.2018 22:39 14,3 C 18,9 C 81 % 1013,9 hPa 0,0 l/m 4,8 km/h (1 Bft) SW 219 0 min 0,000 mm 0,0 UV-I 0 W/m 11,1 C 14,3 C 6,4 km/h (2 Bft) 100,00 %
24.04.2018 22:40 14,3 C 18,9 C 81 % 1013,9 hPa 0,0 l/m 5,6 km/h (1 Bft) SW 215 0 min 0,000 mm 0,0 UV-I 0 W/m 11,1 C 14,3 C 8,0 km/h (2 Bft) 100,00 %
24.04.2018 22:41 14,3 C 18,9 C 81 % 1013,9 hPa 0,0 l/m 5,7 km/h (1 Bft) S-SW 204 0 min 0,000 mm 0,0 UV-I 0 W/m 11,1 C 14,3 C 8,0 km/h (2 Bft) 100,00 %
24.04.2018 22:42 14,3 C 18,9 C 81 % 1013,9 hPa 0,0 l/m 4,5 km/h (1 Bft) S-SW 205 0 min 0,000 mm 0,0 UV-I 0 W/m 11,1 C 14,3 C 6,4 km/h (2 Bft) 100,00 %
24.04.2018 22:43 14,3 C 18,9 C 82 % 1013,9 hPa 0,0 l/m 4,8 km/h (1 Bft) S-SW 205 0 min 0,000 mm 0,0 UV-I 0 W/m 11,3 C 14,3 C 6,4 km/h (2 Bft) 91,30 %
24.04.2018 22:44 14,3 C 18,9 C 82 % 1013,9 hPa 0,0 l/m 4,0 km/h (1 Bft) SW 223 0 min 0,000 mm 0,0 UV-I 0 W/m 11,3 C 14,3 C 6,4 km/h (2 Bft) 100,00 %
24.04.2018 22:45 14,3 C 18,9 C 82 % 1013,9 hPa 0,0 l/m 4,7 km/h (1 Bft) SW 223 0 min 0,000 mm 0,0 UV-I 0 W/m 11,3 C 14,3 C 6,4 km/h (2 Bft) 100,00 %
24.04.2018 22:46 14,3 C 18,9 C 82 % 1013,9 hPa 0,0 l/m 5,4 km/h (1 Bft) SW 217 0 min 0,000 mm 0,0 UV-I 0 W/m 11,3 C 14,3 C 6,4 km/h (2 Bft) 100,00 %
24.04.2018 22:47 14,3 C 18,9 C 82 % 1013,9 hPa 0,0 l/m 4,4 km/h (1 Bft) SW 217 0 min 0,000 mm 0,0 UV-I 0 W/m 11,3 C 14,3 C 4,8 km/h (1 Bft) 91,30 %
24.04.2018 22:48 14,3 C 18,9 C 81 % 1013,8 hPa 0,0 l/m 5,2 km/h (1 Bft) SW 219 0 min 0,000 mm 0,0 UV-I 0 W/m 11,1 C 14,3 C 6,4 km/h (2 Bft) 100,00 %
24.04.2018 22:49 14,3 C 18,9 C 81 % 1013,9 hPa 0,0 l/m 5,2 km/h (1 Bft) S-SW 211 0 min 0,000 mm 0,0 UV-I 0 W/m 11,1 C 14,3 C 6,4 km/h (2 Bft) 100,00 %
24.04.2018 22:50 14,3 C 18,9 C 81 % 1013,9 hPa 0,0 l/m 5,7 km/h (1 Bft) S-SW 209 0 min 0,000 mm 0,0 UV-I 0 W/m 11,1 C 14,3 C 8,0 km/h (2 Bft) 95,83 %
24.04.2018 22:51 14,3 C 18,9 C 81 % 1013,9 hPa 0,0 l/m 5,6 km/h (1 Bft) S-SW 209 0 min 0,000 mm 0,0 UV-I 0 W/m 11,1 C 14,3 C 8,0 km/h (2 Bft) 100,00 %
24.04.2018 22:52 14,4 C 18,9 C 80 % 1013,9 hPa 0,0 l/m 6,1 km/h (2 Bft) S-SW 211 0 min 0,000 mm 0,0 UV-I 0 W/m 11,0 C 14,4 C 6,4 km/h (2 Bft) 100,00 %
24.04.2018 22:53 14,4 C 18,9 C 80 % 1013,9 hPa 0,0 l/m 5,5 km/h (1 Bft) S-SW 211 0 min 0,000 mm 0,0 UV-I 0 W/m 11,0 C 14,4 C 6,4 km/h (2 Bft) 100,00 %
24.04.2018 22:54 14,6 C 18,9 C 80 % 1013,9 hPa 0,0 l/m 6,0 km/h (2 Bft) S-SW 210 0 min 0,000 mm 0,0 UV-I 0 W/m 11,2 C 14,6 C 8,0 km/h (2 Bft) 100,00 %
24.04.2018 22:55 14,6 C 18,9 C 80 % 1013,9 hPa 0,0 l/m 6,3 km/h (2 Bft) S-SW 198 0 min 0,000 mm 0,0 UV-I 0 W/m 11,2 C 14,6 C 8,0 km/h (2 Bft) 100,00 %
24.04.2018 22:56 14,6 C 18,9 C 80 % 1013,8 hPa 0,0 l/m 7,3 km/h (2 Bft) S-SW 213 0 min 0,000 mm 0,0 UV-I 0 W/m 11,2 C 14,1 C 8,0 km/h (2 Bft) 100,00 %
24.04.2018 22:57 14,6 C 18,9 C 79 % 1013,8 hPa 0,0 l/m 6,0 km/h (2 Bft) S-SW 213 0 min 0,000 mm 0,0 UV-I 0 W/m 11,0 C 14,6 C 6,4 km/h (2 Bft) 100,00 %
24.04.2018 22:58 14,6 C 18,9 C 80 % 1013,8 hPa 0,0 l/m 6,2 km/h (2 Bft) S-SW 212 0 min 0,000 mm 0,0 UV-I 0 W/m 11,2 C 14,6 C 8,0 km/h (2 Bft) 100,00 %
24.04.2018 22:59 14,6 C 18,9 C 80 % 1013,8 hPa 0,0 l/m 5,4 km/h (1 Bft) S-SW 213 0 min 0,000 mm 0,0 UV-I 0 W/m 11,2 C 14,6 C 6,4 km/h (2 Bft) 100,00 %
24.04.2018 23:00 14,5 C 18,9 C 80 % 1013,8 hPa 0,0 l/m 5,3 km/h (1 Bft) S-SW 213 0 min 0,026 mm 0,0 UV-I 0 W/m 11,1 C 14,5 C 6,4 km/h (2 Bft) 100,00 %
24.04.2018 23:02 14,3 C 18,9 C 80 % 1013,9 hPa 0,0 l/m 4,9 km/h (1 Bft) S-SW 213 0 min 0,000 mm 0,0 UV-I 0 W/m 10,9 C 14,3 C 6,4 km/h (2 Bft) 100,00 %
24.04.2018 23:03 14,3 C 18,9 C 81 % 1013,8 hPa 0,0 l/m 5,5 km/h (1 Bft) SW 215 0 min 0,000 mm 0,0 UV-I 0 W/m 11,1 C 14,3 C 6,4 km/h (2 Bft) 100,00 %
24.04.2018 23:04 14,2 C 18,9 C 81 % 1013,9 hPa 0,0 l/m 4,3 km/h (1 Bft) SW 215 0 min 0,000 mm 0,0 UV-I 0 W/m 11,0 C 14,2 C 4,8 km/h (1 Bft) 95,65 %
24.04.2018 23:05 14,2 C 18,9 C 81 % 1013,9 hPa 0,0 l/m 5,4 km/h (1 Bft) SW 221 0 min 0,000 mm 0,0 UV-I 0 W/m 11,0 C 14,2 C 8,0 km/h (2 Bft) 100,00 %
24.04.2018 23:06 14,2 C 18,9 C 81 % 1013,9 hPa 0,0 l/m 4,6 km/h (1 Bft) SW 221 0 min 0,000 mm 0,0 UV-I 0 W/m 11,0 C 14,2 C 6,4 km/h (2 Bft) 100,00 %
24.04.2018 23:07 14,2 C 18,9 C 81 % 1013,9 hPa 0,0 l/m 4,5 km/h (1 Bft) SW 221 0 min 0,000 mm 0,0 UV-I 0 W/m 11,0 C 14,2 C 6,4 km/h (2 Bft) 100,00 %
24.04.2018 23:08 14,1 C 18,9 C 81 % 1013,9 hPa 0,0 l/m 5,0 km/h (1 Bft) SW 221 0 min 0,000 mm 0,0 UV-I 0 W/m 10,9 C 14,1 C 6,4 km/h (2 Bft) 100,00 %
24.04.2018 23:09 14,1 C 18,9 C 81 % 1013,9 hPa 0,0 l/m 5,5 km/h (1 Bft) SW 221 0 min 0,000 mm 0,0 UV-I 0 W/m 10,9 C 14,1 C 6,4 km/h (2 Bft) 100,00 %
24.04.2018 23:10 14,1 C 18,9 C 81 % 1013,9 hPa 0,0 l/m 5,8 km/h (2 Bft) SW 221 0 min 0,000 mm 0,0 UV-I 0 W/m 10,9 C 14,1 C 6,4 km/h (2 Bft) 100,00 %
24.04.2018 23:11 13,9 C 18,9 C 82 % 1013,9 hPa 0,0 l/m 5,4 km/h (1 Bft) SW 221 0 min 0,000 mm 0,0 UV-I 0 W/m 10,9 C 13,9 C 6,4 km/h (2 Bft) 100,00 %
24.04.2018 23:12 13,9 C 18,9 C 82 % 1013,9 hPa 0,0 l/m 5,4 km/h (1 Bft) SW 219 0 min 0,000 mm 0,0 UV-I 0 W/m 10,9 C 13,9 C 6,4 km/h (2 Bft) 100,00 %
24.04.2018 23:13 13,8 C 18,9 C 82 % 1013,9 hPa 0,0 l/m 5,5 km/h (1 Bft) SW 219 0 min 0,000 mm 0,0 UV-I 0 W/m 10,8 C 13,8 C 6,4 km/h (2 Bft) 100,00 %
24.04.2018 23:14 13,8 C 18,9 C 82 % 1013,9 hPa 0,0 l/m 5,3 km/h (1 Bft) SW 219 0 min 0,000 mm 0,0 UV-I 0 W/m 10,8 C 13,8 C 6,4 km/h (2 Bft) 100,00 %
24.04.2018 23:15 13,8 C 18,9 C 82 % 1013,9 hPa 0,0 l/m 4,8 km/h (1 Bft) SW 219 0 min 0,000 mm 0,0 UV-I 0 W/m 10,8 C 13,8 C 6,4 km/h (2 Bft) 95,65 %
24.04.2018 23:16 13,8 C 18,9 C 82 % 1013,9 hPa 0,0 l/m 6,4 km/h (2 Bft) SW 219 0 min 0,000 mm 0,0 UV-I 0 W/m 10,8 C 13,8 C 8,0 km/h (2 Bft) 100,00 %
24.04.2018 23:17 13,8 C 18,9 C 82 % 1013,9 hPa 0,0 l/m 5,9 km/h (2 Bft) SW 219 0 min 0,000 mm 0,0 UV-I 0 W/m 10,8 C 13,8 C 8,0 km/h (2 Bft) 100,00 %
24.04.2018 23:18 13,8 C 18,9 C 82 % 1013,9 hPa 0,0 l/m 5,8 km/h (2 Bft) SW 223 0 min 0,000 mm 0,0 UV-I 0 W/m 10,8 C 13,8 C 6,4 km/h (2 Bft) 100,00 %
24.04.2018 23:19 13,8 C 18,9 C 82 % 1013,9 hPa 0,0 l/m 5,6 km/h (1 Bft) SW 222 0 min 0,000 mm 0,0 UV-I 0 W/m 10,8 C 13,8 C 6,4 km/h (2 Bft) 100,00 %
24.04.2018 23:20 13,8 C 18,9 C 82 % 1013,9 hPa 0,0 l/m 6,0 km/h (2 Bft) SW 221 0 min 0,000 mm 0,0 UV-I 0 W/m 10,8 C 13,8 C 8,0 km/h (2 Bft) 95,83 %
24.04.2018 23:21 13,8 C 18,9 C 82 % 1013,9 hPa 0,0 l/m 5,3 km/h (1 Bft) SW 221 0 min 0,000 mm 0,0 UV-I 0 W/m 10,8 C 13,8 C 6,4 km/h (2 Bft) 100,00 %
24.04.2018 23:22 13,8 C 18,9 C 82 % 1013,9 hPa 0,0 l/m 5,7 km/h (1 Bft) SW 220 0 min 0,000 mm 0,0 UV-I 0 W/m 10,8 C 13,8 C 6,4 km/h (2 Bft) 91,67 %
24.04.2018 23:23 13,8 C 18,9 C 82 % 1013,9 hPa 0,0 l/m 5,2 km/h (1 Bft) SW 221 0 min 0,000 mm 0,0 UV-I 0 W/m 10,8 C 13,8 C 6,4 km/h (2 Bft) 100,00 %
24.04.2018 23:24 13,8 C 18,9 C 82 % 1013,9 hPa 0,0 l/m 3,6 km/h (1 Bft) SW 221 0 min 0,000 mm 0,0 UV-I 0 W/m 10,8 C 13,8 C 6,4 km/h (2 Bft) 100,00 %
24.04.2018 23:25 13,7 C 18,9 C 82 % 1013,9 hPa 0,0 l/m 4,1 km/h (1 Bft) W-SW 238 0 min 0,000 mm 0,0 UV-I 0 W/m 10,7 C 13,7 C 6,4 km/h (2 Bft) 100,00 %
24.04.2018 23:26 13,7 C 18,9 C 83 % 1013,9 hPa 0,0 l/m 4,5 km/h (1 Bft) W-SW 238 0 min 0,000 mm 0,0 UV-I 0 W/m 10,9 C 13,7 C 6,4 km/h (2 Bft) 100,00 %
24.04.2018 23:27 13,7 C 18,9 C 83 % 1013,9 hPa 0,0 l/m 4,4 km/h (1 Bft) W-SW 238 0 min 0,000 mm 0,0 UV-I 0 W/m 10,9 C 13,7 C 4,8 km/h (1 Bft) 100,00 %
24.04.2018 23:28 13,7 C 18,9 C 83 % 1013,9 hPa 0,0 l/m 5,5 km/h (1 Bft) W-SW 238 0 min 0,000 mm 0,0 UV-I 0 W/m 10,9 C 13,7 C 6,4 km/h (2 Bft) 100,00 %
24.04.2018 23:29 13,7 C 18,9 C 83 % 1013,9 hPa 0,0 l/m 5,5 km/h (1 Bft) SW 232 0 min 0,000 mm 0,0 UV-I 0 W/m 10,9 C 13,7 C 6,4 km/h (2 Bft) 100,00 %
24.04.2018 23:30 13,6 C 18,9 C 83 % 1013,9 hPa 0,0 l/m 5,6 km/h (1 Bft) SW 227 0 min 0,000 mm 0,0 UV-I 0 W/m 10,8 C 13,6 C 8,0 km/h (2 Bft) 100,00 %
24.04.2018 23:31 13,6 C 18,9 C 83 % 1013,9 hPa 0,0 l/m 6,0 km/h (2 Bft) SW 226 0 min 0,000 mm 0,0 UV-I 0 W/m 10,8 C 13,6 C 6,4 km/h (2 Bft) 100,00 %
24.04.2018 23:32 13,5 C 18,9 C 83 % 1013,9 hPa 0,0 l/m 5,9 km/h (2 Bft) SW 219 0 min 0,000 mm 0,0 UV-I 0 W/m 10,7 C 13,5 C 8,0 km/h (2 Bft) 100,00 %
24.04.2018 23:33 13,4 C 18,9 C 84 % 1013,9 hPa 0,0 l/m 6,1 km/h (2 Bft) S-SW 213 0 min 0,000 mm 0,0 UV-I 0 W/m 10,8 C 13,4 C 8,0 km/h (2 Bft) 100,00 %
24.04.2018 23:34 13,4 C 18,9 C 84 % 1013,9 hPa 0,0 l/m 6,0 km/h (2 Bft) SW 216 0 min 0,000 mm 0,0 UV-I 0 W/m 10,8 C 13,4 C 6,4 km/h (2 Bft) 100,00 %
24.04.2018 23:35 13,4 C 18,9 C 84 % 1013,9 hPa 0,0 l/m 6,0 km/h (2 Bft) S-SW 207 0 min 0,000 mm 0,0 UV-I 0 W/m 10,8 C 13,4 C 8,0 km/h (2 Bft) 96,30 %
24.04.2018 23:36 13,4 C 18,9 C 84 % 1013,9 hPa 0,0 l/m 6,6 km/h (2 Bft) S-SW 211 0 min 0,000 mm 0,0 UV-I 0 W/m 10,8 C 13,3 C 8,0 km/h (2 Bft) 96,15 %
24.04.2018 23:37 13,4 C 18,9 C 84 % 1013,9 hPa 0,0 l/m 7,3 km/h (2 Bft) SW 214 0 min 0,000 mm 0,0 UV-I 0 W/m 10,8 C 12,8 C 8,0 km/h (2 Bft) 100,00 %
24.04.2018 23:38 13,4 C 18,9 C 84 % 1013,9 hPa 0,0 l/m 6,9 km/h (2 Bft) S-SW 202 0 min 0,000 mm 0,0 UV-I 0 W/m 10,8 C 13,1 C 8,0 km/h (2 Bft) 100,00 %
24.04.2018 23:39 13,4 C 18,9 C 84 % 1013,9 hPa 0,0 l/m 6,1 km/h (2 Bft) S-SW 209 0 min 0,000 mm 0,0 UV-I 0 W/m 10,8 C 13,4 C 8,0 km/h (2 Bft) 100,00 %
24.04.2018 23:40 13,5 C 18,9 C 84 % 1013,9 hPa 0,0 l/m 6,2 km/h (2 Bft) S-SW 209 0 min 0,000 mm 0,0 UV-I 0 W/m 10,8 C 13,5 C 8,0 km/h (2 Bft) 100,00 %
24.04.2018 23:41 13,6 C 18,9 C 83 % 1013,9 hPa 0,0 l/m 6,4 km/h (2 Bft) S-SW 207 0 min 0,000 mm 0,0 UV-I 0 W/m 10,8 C 13,6 C 8,0 km/h (2 Bft) 100,00 %
24.04.2018 23:42 13,6 C 18,9 C 83 % 1013,9 hPa 0,0 l/m 6,0 km/h (2 Bft) S-SW 207 0 min 0,000 mm 0,0 UV-I 0 W/m 10,8 C 13,6 C 6,4 km/h (2 Bft) 100,00 %
24.04.2018 23:43 13,6 C 18,9 C 83 % 1013,8 hPa 0,0 l/m 6,5 km/h (2 Bft) S-SW 213 0 min 0,000 mm 0,0 UV-I 0 W/m 10,8 C 13,6 C 8,0 km/h (2 Bft) 100,00 %
24.04.2018 23:44 13,5 C 18,9 C 83 % 1013,9 hPa 0,0 l/m 6,4 km/h (2 Bft) S-SW 213 0 min 0,000 mm 0,0 UV-I 0 W/m 10,7 C 13,5 C 8,0 km/h (2 Bft) 100,00 %
24.04.2018 23:45 13,4 C 18,9 C 83 % 1013,8 hPa 0,0 l/m 6,6 km/h (2 Bft) S-SW 205 0 min 0,000 mm 0,0 UV-I 0 W/m 10,6 C 13,3 C 8,0 km/h (2 Bft) 100,00 %
24.04.2018 23:46 13,4 C 18,9 C 84 % 1013,8 hPa 0,0 l/m 7,1 km/h (2 Bft) SW 215 0 min 0,000 mm 0,0 UV-I 0 W/m 10,8 C 13,0 C 8,0 km/h (2 Bft) 95,65 %
24.04.2018 23:47 13,4 C 18,9 C 83 % 1013,8 hPa 0,0 l/m 7,2 km/h (2 Bft) SW 217 0 min 0,000 mm 0,0 UV-I 0 W/m 10,6 C 12,9 C 8,0 km/h (2 Bft) 100,00 %
24.04.2018 23:48 13,5 C 18,9 C 83 % 1013,8 hPa 0,0 l/m 6,6 km/h (2 Bft) S-SW 204 0 min 0,000 mm 0,0 UV-I 0 W/m 10,7 C 13,4 C 8,0 km/h (2 Bft) 100,00 %
24.04.2018 23:49 13,4 C 18,9 C 83 % 1013,8 hPa 0,0 l/m 8,0 km/h (2 Bft) S-SW 208 0 min 0,000 mm 0,0 UV-I 0 W/m 10,6 C 12,4 C 11,3 km/h (2 Bft) 96,15 %
24.04.2018 23:50 13,4 C 18,9 C 83 % 1013,8 hPa 0,0 l/m 7,0 km/h (2 Bft) SW 214 0 min 0,000 mm 0,0 UV-I 0 W/m 10,6 C 13,0 C 8,0 km/h (2 Bft) 100,00 %
24.04.2018 23:51 13,4 C 18,9 C 83 % 1013,8 hPa 0,0 l/m 6,2 km/h (2 Bft) S-SW 209 0 min 0,000 mm 0,0 UV-I 0 W/m 10,6 C 13,4 C 9,7 km/h (2 Bft) 100,00 %
24.04.2018 23:52 13,4 C 18,9 C 83 % 1013,8 hPa 0,0 l/m 5,4 km/h (1 Bft) S-SW 209 0 min 0,000 mm 0,0 UV-I 0 W/m 10,6 C 13,4 C 6,4 km/h (2 Bft) 100,00 %
24.04.2018 23:53 13,4 C 18,9 C 83 % 1013,8 hPa 0,0 l/m 5,4 km/h (1 Bft) SW 215 0 min 0,000 mm 0,0 UV-I 0 W/m 10,6 C 13,4 C 8,0 km/h (2 Bft) 100,00 %
24.04.2018 23:54 13,4 C 18,9 C 83 % 1013,8 hPa 0,0 l/m 5,8 km/h (2 Bft) S-SW 213 0 min 0,000 mm 0,0 UV-I 0 W/m 10,6 C 13,4 C 6,4 km/h (2 Bft) 100,00 %
24.04.2018 23:55 13,4 C 18,9 C 83 % 1013,8 hPa 0,0 l/m 5,7 km/h (1 Bft) S-SW 212 0 min 0,000 mm 0,0 UV-I 0 W/m 10,6 C 13,4 C 6,4 km/h (2 Bft) 100,00 %
24.04.2018 23:56 13,4 C 18,9 C 83 % 1013,7 hPa 0,0 l/m 5,9 km/h (2 Bft) S-SW 212 0 min 0,000 mm 0,0 UV-I 0 W/m 10,6 C 13,4 C 6,4 km/h (2 Bft) 95,83 %
24.04.2018 23:57 13,4 C 18,9 C 83 % 1013,7 hPa 0,0 l/m 5,4 km/h (1 Bft) S-SW 211 0 min 0,000 mm 0,0 UV-I 0 W/m 10,6 C 13,4 C 6,4 km/h (2 Bft) 100,00 %
24.04.2018 23:58 13,4 C 18,9 C 83 % 1013,7 hPa 0,0 l/m 5,9 km/h (2 Bft) S-SW 211 0 min 0,000 mm 0,0 UV-I 0 W/m 10,6 C 13,4 C 6,4 km/h (2 Bft) 96,30 %
_ Min-Zeit 08:17 02:12 18:35 23:56 - 19:25 - - - - - - 18:35 08:23 19:00 07:51
Minimum _ 13,0 C 17,2 C 50 % 1013,7 hPa - 0,5 km/h (0 Bft) - - - - - - 10,4 C 6,1 C 1,6 km/h (1 Bft) 81,82 %
_ Max-Zeit 15:43 14:55 08:18 10:55 02:41 02:56 - - 10:13 14:02 12:45 12:29 11:40 17:45 02:56 00:00
Maximum _ 21,5 C 18,9 C 95 % 1018,3 hPa 0,2 l/m 26,8 km/h
SW (4 Bft)
- - 2 min 0,534 mm 4,5 UV-I 1083 W/m 14,2 C 21,5 C 38,6 km/h
W-SW (5 Bft)
100,00 %
Durchschnitt _ 16,2 C 18,0 C 79 % 1015,9 hPa #2,6 l/m 10,1 km/h (2 Bft) W-SW - #8:00 h #3,734 mm 2,3 UV-I 383 W/m 12,2 C 14,3 C 14,4 km/h (3 Bft) 98,03 %